<?xml version="1.0" encoding="UTF-8" standalone="no" ?>
<gpx xmlns="http://www.topografix.com/GPX/1/1" xmlns:xsi="http://www.w3.org/2001/XMLSchema-instance" xsi:schemaLocation="http://www.topografix.com/GPX/1/1 http://www.topografix.com/GPX/1/1/gpx.xsd" version="1.1" creator="VisuGPX - https://www.visugpx.com">
  <metadata>
    <name>Granges sur Baume Le tour par les belvédères</name>
  </metadata>
  <trk>
    <name><![CDATA[Granges sur Baume Le tour par les belvédères_1]]></name>
    <extensions>
      <line xmlns="http://www.topografix.com/GPX/gpx_style/0/2">
        <color>0000FF</color>
        <width>4</width>
      </line>
    </extensions>
    <trkseg>
      <trkpt lat="46.70707" lon="5.65973">
        <ele>504.4</ele>
        <time>2022-05-17T07:04:15Z</time>
      </trkpt>
      <trkpt lat="46.70706" lon="5.65967">
        <ele>504.2</ele>
        <time>2022-05-17T07:04:38Z</time>
      </trkpt>
      <trkpt lat="46.70701" lon="5.65969">
        <ele>504.8</ele>
        <time>2022-05-17T07:07:52Z</time>
      </trkpt>
      <trkpt lat="46.70695" lon="5.65969">
        <ele>505.2</ele>
        <time>2022-05-17T07:07:58Z</time>
      </trkpt>
      <trkpt lat="46.70691" lon="5.65968">
        <ele>505.4</ele>
        <time>2022-05-17T07:08:02Z</time>
      </trkpt>
      <trkpt lat="46.70686" lon="5.65969">
        <ele>505.8</ele>
        <time>2022-05-17T07:08:07Z</time>
      </trkpt>
      <trkpt lat="46.70682" lon="5.65963">
        <ele>505.6</ele>
        <time>2022-05-17T07:08:13Z</time>
      </trkpt>
      <trkpt lat="46.70678" lon="5.65959">
        <ele>504.6</ele>
        <time>2022-05-17T07:08:18Z</time>
      </trkpt>
      <trkpt lat="46.70674" lon="5.65955">
        <ele>504.1</ele>
        <time>2022-05-17T07:08:22Z</time>
      </trkpt>
      <trkpt lat="46.7067" lon="5.65951">
        <ele>503.6</ele>
        <time>2022-05-17T07:08:28Z</time>
      </trkpt>
      <trkpt lat="46.70666" lon="5.65949">
        <ele>502.8</ele>
        <time>2022-05-17T07:08:33Z</time>
      </trkpt>
      <trkpt lat="46.70661" lon="5.65946">
        <ele>502.6</ele>
        <time>2022-05-17T07:08:39Z</time>
      </trkpt>
      <trkpt lat="46.70656" lon="5.65943">
        <ele>502.8</ele>
        <time>2022-05-17T07:08:44Z</time>
      </trkpt>
      <trkpt lat="46.70651" lon="5.6594">
        <ele>503.1</ele>
        <time>2022-05-17T07:08:49Z</time>
      </trkpt>
      <trkpt lat="46.70646" lon="5.65939">
        <ele>503.5</ele>
        <time>2022-05-17T07:08:55Z</time>
      </trkpt>
      <trkpt lat="46.70644" lon="5.65933">
        <ele>502.7</ele>
        <time>2022-05-17T07:09:03Z</time>
      </trkpt>
      <trkpt lat="46.70644" lon="5.65925">
        <ele>501.9</ele>
        <time>2022-05-17T07:09:08Z</time>
      </trkpt>
      <trkpt lat="46.70647" lon="5.65919">
        <ele>501</ele>
        <time>2022-05-17T07:09:14Z</time>
      </trkpt>
      <trkpt lat="46.70646" lon="5.65912">
        <ele>501.2</ele>
        <time>2022-05-17T07:09:20Z</time>
      </trkpt>
      <trkpt lat="46.70644" lon="5.65905">
        <ele>500.7</ele>
        <time>2022-05-17T07:09:26Z</time>
      </trkpt>
      <trkpt lat="46.70643" lon="5.65898">
        <ele>499.8</ele>
        <time>2022-05-17T07:09:33Z</time>
      </trkpt>
      <trkpt lat="46.70641" lon="5.6589">
        <ele>498.6</ele>
        <time>2022-05-17T07:09:39Z</time>
      </trkpt>
      <trkpt lat="46.70639" lon="5.65883">
        <ele>498</ele>
        <time>2022-05-17T07:09:44Z</time>
      </trkpt>
      <trkpt lat="46.70636" lon="5.65877">
        <ele>497.3</ele>
        <time>2022-05-17T07:09:50Z</time>
      </trkpt>
      <trkpt lat="46.70633" lon="5.6587">
        <ele>497.5</ele>
        <time>2022-05-17T07:09:55Z</time>
      </trkpt>
      <trkpt lat="46.7063" lon="5.65864">
        <ele>497.7</ele>
        <time>2022-05-17T07:10:00Z</time>
      </trkpt>
      <trkpt lat="46.70627" lon="5.65857">
        <ele>497.4</ele>
        <time>2022-05-17T07:10:05Z</time>
      </trkpt>
      <trkpt lat="46.70625" lon="5.65851">
        <ele>497.7</ele>
        <time>2022-05-17T07:10:10Z</time>
      </trkpt>
      <trkpt lat="46.70623" lon="5.65844">
        <ele>498.8</ele>
        <time>2022-05-17T07:10:15Z</time>
      </trkpt>
      <trkpt lat="46.70621" lon="5.65838">
        <ele>500.4</ele>
        <time>2022-05-17T07:10:20Z</time>
      </trkpt>
      <trkpt lat="46.7062" lon="5.65831">
        <ele>501.5</ele>
        <time>2022-05-17T07:10:25Z</time>
      </trkpt>
      <trkpt lat="46.70618" lon="5.65824">
        <ele>501.4</ele>
        <time>2022-05-17T07:10:32Z</time>
      </trkpt>
      <trkpt lat="46.70615" lon="5.65818">
        <ele>501</ele>
        <time>2022-05-17T07:10:38Z</time>
      </trkpt>
      <trkpt lat="46.70613" lon="5.65812">
        <ele>500.3</ele>
        <time>2022-05-17T07:10:43Z</time>
      </trkpt>
      <trkpt lat="46.70613" lon="5.65805">
        <ele>499.8</ele>
        <time>2022-05-17T07:10:47Z</time>
      </trkpt>
      <trkpt lat="46.70614" lon="5.65798">
        <ele>498.8</ele>
        <time>2022-05-17T07:10:52Z</time>
      </trkpt>
      <trkpt lat="46.70611" lon="5.65791">
        <ele>498.2</ele>
        <time>2022-05-17T07:10:57Z</time>
      </trkpt>
      <trkpt lat="46.70608" lon="5.65786">
        <ele>498</ele>
        <time>2022-05-17T07:11:01Z</time>
      </trkpt>
      <trkpt lat="46.70604" lon="5.65781">
        <ele>497.8</ele>
        <time>2022-05-17T07:11:06Z</time>
      </trkpt>
      <trkpt lat="46.706" lon="5.65777">
        <ele>498</ele>
        <time>2022-05-17T07:11:12Z</time>
      </trkpt>
      <trkpt lat="46.70597" lon="5.65771">
        <ele>498.3</ele>
        <time>2022-05-17T07:11:17Z</time>
      </trkpt>
      <trkpt lat="46.70595" lon="5.65764">
        <ele>498.6</ele>
        <time>2022-05-17T07:11:23Z</time>
      </trkpt>
      <trkpt lat="46.70592" lon="5.65759">
        <ele>499.7</ele>
        <time>2022-05-17T07:11:28Z</time>
      </trkpt>
      <trkpt lat="46.70589" lon="5.65754">
        <ele>500.5</ele>
        <time>2022-05-17T07:11:32Z</time>
      </trkpt>
      <trkpt lat="46.70586" lon="5.65749">
        <ele>501</ele>
        <time>2022-05-17T07:11:36Z</time>
      </trkpt>
      <trkpt lat="46.70581" lon="5.65745">
        <ele>501.9</ele>
        <time>2022-05-17T07:11:42Z</time>
      </trkpt>
      <trkpt lat="46.70577" lon="5.65742">
        <ele>503.1</ele>
        <time>2022-05-17T07:11:48Z</time>
      </trkpt>
      <trkpt lat="46.70572" lon="5.6574">
        <ele>504</ele>
        <time>2022-05-17T07:11:56Z</time>
      </trkpt>
      <trkpt lat="46.70568" lon="5.65737">
        <ele>503.7</ele>
        <time>2022-05-17T07:12:02Z</time>
      </trkpt>
      <trkpt lat="46.70565" lon="5.6573">
        <ele>504.1</ele>
        <time>2022-05-17T07:12:08Z</time>
      </trkpt>
      <trkpt lat="46.70561" lon="5.65725">
        <ele>504.1</ele>
        <time>2022-05-17T07:12:12Z</time>
      </trkpt>
      <trkpt lat="46.70557" lon="5.6572">
        <ele>504.2</ele>
        <time>2022-05-17T07:12:16Z</time>
      </trkpt>
      <trkpt lat="46.70552" lon="5.65717">
        <ele>504.8</ele>
        <time>2022-05-17T07:12:20Z</time>
      </trkpt>
      <trkpt lat="46.70546" lon="5.65718">
        <ele>505.9</ele>
        <time>2022-05-17T07:12:24Z</time>
      </trkpt>
      <trkpt lat="46.70542" lon="5.65718">
        <ele>507</ele>
        <time>2022-05-17T07:12:29Z</time>
      </trkpt>
      <trkpt lat="46.70537" lon="5.65719">
        <ele>507.1</ele>
        <time>2022-05-17T07:12:35Z</time>
      </trkpt>
      <trkpt lat="46.70532" lon="5.65718">
        <ele>507.5</ele>
        <time>2022-05-17T07:12:41Z</time>
      </trkpt>
      <trkpt lat="46.70527" lon="5.65716">
        <ele>507.6</ele>
        <time>2022-05-17T07:12:46Z</time>
      </trkpt>
      <trkpt lat="46.70523" lon="5.65712">
        <ele>507.9</ele>
        <time>2022-05-17T07:12:52Z</time>
      </trkpt>
      <trkpt lat="46.70519" lon="5.65708">
        <ele>509</ele>
        <time>2022-05-17T07:12:58Z</time>
      </trkpt>
      <trkpt lat="46.70514" lon="5.65706">
        <ele>509.9</ele>
        <time>2022-05-17T07:13:02Z</time>
      </trkpt>
      <trkpt lat="46.70511" lon="5.65702">
        <ele>510.5</ele>
        <time>2022-05-17T07:13:06Z</time>
      </trkpt>
      <trkpt lat="46.70507" lon="5.65698">
        <ele>511.2</ele>
        <time>2022-05-17T07:13:11Z</time>
      </trkpt>
      <trkpt lat="46.70503" lon="5.65694">
        <ele>511.6</ele>
        <time>2022-05-17T07:13:16Z</time>
      </trkpt>
      <trkpt lat="46.70499" lon="5.65688">
        <ele>511.2</ele>
        <time>2022-05-17T07:13:23Z</time>
      </trkpt>
      <trkpt lat="46.70498" lon="5.65681">
        <ele>509.5</ele>
        <time>2022-05-17T07:13:30Z</time>
      </trkpt>
      <trkpt lat="46.70496" lon="5.65674">
        <ele>508.5</ele>
        <time>2022-05-17T07:13:34Z</time>
      </trkpt>
      <trkpt lat="46.70496" lon="5.65666">
        <ele>507.7</ele>
        <time>2022-05-17T07:13:38Z</time>
      </trkpt>
      <trkpt lat="46.70497" lon="5.65658">
        <ele>507.1</ele>
        <time>2022-05-17T07:13:45Z</time>
      </trkpt>
      <trkpt lat="46.70497" lon="5.65651">
        <ele>507.5</ele>
        <time>2022-05-17T07:13:50Z</time>
      </trkpt>
      <trkpt lat="46.70497" lon="5.65644">
        <ele>508.5</ele>
        <time>2022-05-17T07:13:55Z</time>
      </trkpt>
      <trkpt lat="46.70498" lon="5.65637">
        <ele>508.9</ele>
        <time>2022-05-17T07:14:01Z</time>
      </trkpt>
      <trkpt lat="46.705" lon="5.65632">
        <ele>508.8</ele>
        <time>2022-05-17T07:14:05Z</time>
      </trkpt>
      <trkpt lat="46.70501" lon="5.65625">
        <ele>508.7</ele>
        <time>2022-05-17T07:14:09Z</time>
      </trkpt>
      <trkpt lat="46.70499" lon="5.65618">
        <ele>508.4</ele>
        <time>2022-05-17T07:14:13Z</time>
      </trkpt>
      <trkpt lat="46.70496" lon="5.65611">
        <ele>508.1</ele>
        <time>2022-05-17T07:14:17Z</time>
      </trkpt>
      <trkpt lat="46.70494" lon="5.65605">
        <ele>507.6</ele>
        <time>2022-05-17T07:14:21Z</time>
      </trkpt>
      <trkpt lat="46.70492" lon="5.65598">
        <ele>506.4</ele>
        <time>2022-05-17T07:14:28Z</time>
      </trkpt>
      <trkpt lat="46.7049" lon="5.65592">
        <ele>504.9</ele>
        <time>2022-05-17T07:14:35Z</time>
      </trkpt>
      <trkpt lat="46.70488" lon="5.65586">
        <ele>503.6</ele>
        <time>2022-05-17T07:14:40Z</time>
      </trkpt>
      <trkpt lat="46.70492" lon="5.65581">
        <ele>500.8</ele>
        <time>2022-05-17T07:14:49Z</time>
      </trkpt>
      <trkpt lat="46.70496" lon="5.65578">
        <ele>499.9</ele>
        <time>2022-05-17T07:15:01Z</time>
      </trkpt>
      <trkpt lat="46.70493" lon="5.65574">
        <ele>501.4</ele>
        <time>2022-05-17T07:15:23Z</time>
      </trkpt>
      <trkpt lat="46.70489" lon="5.65571">
        <ele>501</ele>
        <time>2022-05-17T07:15:29Z</time>
      </trkpt>
      <trkpt lat="46.70484" lon="5.65571">
        <ele>501</ele>
        <time>2022-05-17T07:15:32Z</time>
      </trkpt>
      <trkpt lat="46.70479" lon="5.65569">
        <ele>501.2</ele>
        <time>2022-05-17T07:15:35Z</time>
      </trkpt>
      <trkpt lat="46.70474" lon="5.65566">
        <ele>501.8</ele>
        <time>2022-05-17T07:15:38Z</time>
      </trkpt>
      <trkpt lat="46.70468" lon="5.65564">
        <ele>502.5</ele>
        <time>2022-05-17T07:15:41Z</time>
      </trkpt>
      <trkpt lat="46.70463" lon="5.65561">
        <ele>503.8</ele>
        <time>2022-05-17T07:15:45Z</time>
      </trkpt>
      <trkpt lat="46.70459" lon="5.65558">
        <ele>505.1</ele>
        <time>2022-05-17T07:15:49Z</time>
      </trkpt>
      <trkpt lat="46.70457" lon="5.65552">
        <ele>507</ele>
        <time>2022-05-17T07:15:55Z</time>
      </trkpt>
      <trkpt lat="46.70454" lon="5.65546">
        <ele>508.2</ele>
        <time>2022-05-17T07:16:01Z</time>
      </trkpt>
      <trkpt lat="46.70453" lon="5.6554">
        <ele>508.6</ele>
        <time>2022-05-17T07:16:07Z</time>
      </trkpt>
      <trkpt lat="46.70452" lon="5.65533">
        <ele>509.5</ele>
        <time>2022-05-17T07:16:11Z</time>
      </trkpt>
      <trkpt lat="46.7045" lon="5.65525">
        <ele>510.9</ele>
        <time>2022-05-17T07:16:15Z</time>
      </trkpt>
      <trkpt lat="46.70451" lon="5.65517">
        <ele>511.9</ele>
        <time>2022-05-17T07:16:21Z</time>
      </trkpt>
      <trkpt lat="46.7045" lon="5.6551">
        <ele>511.2</ele>
        <time>2022-05-17T07:16:26Z</time>
      </trkpt>
      <trkpt lat="46.70448" lon="5.65503">
        <ele>510.2</ele>
        <time>2022-05-17T07:16:31Z</time>
      </trkpt>
      <trkpt lat="46.70447" lon="5.65497">
        <ele>509.4</ele>
        <time>2022-05-17T07:16:35Z</time>
      </trkpt>
      <trkpt lat="46.70445" lon="5.6549">
        <ele>508.7</ele>
        <time>2022-05-17T07:16:40Z</time>
      </trkpt>
      <trkpt lat="46.70442" lon="5.65483">
        <ele>508.7</ele>
        <time>2022-05-17T07:16:44Z</time>
      </trkpt>
      <trkpt lat="46.7044" lon="5.65476">
        <ele>509</ele>
        <time>2022-05-17T07:16:48Z</time>
      </trkpt>
      <trkpt lat="46.70437" lon="5.6547">
        <ele>509.3</ele>
        <time>2022-05-17T07:16:52Z</time>
      </trkpt>
      <trkpt lat="46.70437" lon="5.65463">
        <ele>509.3</ele>
        <time>2022-05-17T07:16:58Z</time>
      </trkpt>
      <trkpt lat="46.70438" lon="5.65455">
        <ele>509.1</ele>
        <time>2022-05-17T07:17:03Z</time>
      </trkpt>
      <trkpt lat="46.70437" lon="5.65447">
        <ele>509</ele>
        <time>2022-05-17T07:17:08Z</time>
      </trkpt>
      <trkpt lat="46.70437" lon="5.6544">
        <ele>509.1</ele>
        <time>2022-05-17T07:17:13Z</time>
      </trkpt>
      <trkpt lat="46.70435" lon="5.65434">
        <ele>509.5</ele>
        <time>2022-05-17T07:17:18Z</time>
      </trkpt>
      <trkpt lat="46.70434" lon="5.65427">
        <ele>509.3</ele>
        <time>2022-05-17T07:17:25Z</time>
      </trkpt>
      <trkpt lat="46.70437" lon="5.6542">
        <ele>508.1</ele>
        <time>2022-05-17T07:17:32Z</time>
      </trkpt>
      <trkpt lat="46.7044" lon="5.65415">
        <ele>507</ele>
        <time>2022-05-17T07:17:37Z</time>
      </trkpt>
      <trkpt lat="46.70443" lon="5.65409">
        <ele>505.4</ele>
        <time>2022-05-17T07:17:41Z</time>
      </trkpt>
      <trkpt lat="46.70443" lon="5.65401">
        <ele>503.9</ele>
        <time>2022-05-17T07:17:46Z</time>
      </trkpt>
      <trkpt lat="46.70444" lon="5.65394">
        <ele>503.3</ele>
        <time>2022-05-17T07:17:49Z</time>
      </trkpt>
      <trkpt lat="46.70446" lon="5.65387">
        <ele>502.8</ele>
        <time>2022-05-17T07:17:53Z</time>
      </trkpt>
      <trkpt lat="46.70449" lon="5.65382">
        <ele>502.4</ele>
        <time>2022-05-17T07:17:56Z</time>
      </trkpt>
      <trkpt lat="46.70452" lon="5.65377">
        <ele>502.2</ele>
        <time>2022-05-17T07:18:00Z</time>
      </trkpt>
      <trkpt lat="46.70454" lon="5.65369">
        <ele>502.1</ele>
        <time>2022-05-17T07:18:06Z</time>
      </trkpt>
      <trkpt lat="46.70455" lon="5.65362">
        <ele>502</ele>
        <time>2022-05-17T07:18:11Z</time>
      </trkpt>
      <trkpt lat="46.70455" lon="5.65354">
        <ele>501.6</ele>
        <time>2022-05-17T07:18:16Z</time>
      </trkpt>
      <trkpt lat="46.70455" lon="5.65346">
        <ele>500.7</ele>
        <time>2022-05-17T07:18:21Z</time>
      </trkpt>
      <trkpt lat="46.70458" lon="5.6534">
        <ele>500</ele>
        <time>2022-05-17T07:18:26Z</time>
      </trkpt>
      <trkpt lat="46.70459" lon="5.65333">
        <ele>499.7</ele>
        <time>2022-05-17T07:18:30Z</time>
      </trkpt>
      <trkpt lat="46.70457" lon="5.65325">
        <ele>499.8</ele>
        <time>2022-05-17T07:18:34Z</time>
      </trkpt>
      <trkpt lat="46.70455" lon="5.65319">
        <ele>500.1</ele>
        <time>2022-05-17T07:18:38Z</time>
      </trkpt>
      <trkpt lat="46.70451" lon="5.65314">
        <ele>500.6</ele>
        <time>2022-05-17T07:18:43Z</time>
      </trkpt>
      <trkpt lat="46.70447" lon="5.65309">
        <ele>500.6</ele>
        <time>2022-05-17T07:18:48Z</time>
      </trkpt>
      <trkpt lat="46.70443" lon="5.65305">
        <ele>500.7</ele>
        <time>2022-05-17T07:18:53Z</time>
      </trkpt>
      <trkpt lat="46.7044" lon="5.653">
        <ele>500.5</ele>
        <time>2022-05-17T07:18:59Z</time>
      </trkpt>
      <trkpt lat="46.70437" lon="5.65295">
        <ele>500.5</ele>
        <time>2022-05-17T07:19:04Z</time>
      </trkpt>
      <trkpt lat="46.70434" lon="5.65289">
        <ele>500.6</ele>
        <time>2022-05-17T07:19:08Z</time>
      </trkpt>
      <trkpt lat="46.70433" lon="5.65283">
        <ele>500.5</ele>
        <time>2022-05-17T07:19:14Z</time>
      </trkpt>
      <trkpt lat="46.70433" lon="5.65276">
        <ele>499</ele>
        <time>2022-05-17T07:19:20Z</time>
      </trkpt>
      <trkpt lat="46.70434" lon="5.65269">
        <ele>497.5</ele>
        <time>2022-05-17T07:19:26Z</time>
      </trkpt>
      <trkpt lat="46.70434" lon="5.65262">
        <ele>497.1</ele>
        <time>2022-05-17T07:19:31Z</time>
      </trkpt>
      <trkpt lat="46.70434" lon="5.65255">
        <ele>497.1</ele>
        <time>2022-05-17T07:19:38Z</time>
      </trkpt>
      <trkpt lat="46.70435" lon="5.65247">
        <ele>497.9</ele>
        <time>2022-05-17T07:19:44Z</time>
      </trkpt>
      <trkpt lat="46.70436" lon="5.6524">
        <ele>499.2</ele>
        <time>2022-05-17T07:19:53Z</time>
      </trkpt>
      <trkpt lat="46.70437" lon="5.65249">
        <ele>499.1</ele>
        <time>2022-05-17T07:21:47Z</time>
      </trkpt>
      <trkpt lat="46.70435" lon="5.65255">
        <ele>497.8</ele>
        <time>2022-05-17T07:21:55Z</time>
      </trkpt>
      <trkpt lat="46.70437" lon="5.65262">
        <ele>496.9</ele>
        <time>2022-05-17T07:22:01Z</time>
      </trkpt>
      <trkpt lat="46.70434" lon="5.65268">
        <ele>496.6</ele>
        <time>2022-05-17T07:22:07Z</time>
      </trkpt>
      <trkpt lat="46.70432" lon="5.65275">
        <ele>496.5</ele>
        <time>2022-05-17T07:22:12Z</time>
      </trkpt>
      <trkpt lat="46.7043" lon="5.65282">
        <ele>496.5</ele>
        <time>2022-05-17T07:22:18Z</time>
      </trkpt>
      <trkpt lat="46.70427" lon="5.65287">
        <ele>496.6</ele>
        <time>2022-05-17T07:22:23Z</time>
      </trkpt>
      <trkpt lat="46.70424" lon="5.65292">
        <ele>497.1</ele>
        <time>2022-05-17T07:22:28Z</time>
      </trkpt>
      <trkpt lat="46.70421" lon="5.65299">
        <ele>497.7</ele>
        <time>2022-05-17T07:22:34Z</time>
      </trkpt>
      <trkpt lat="46.70418" lon="5.65304">
        <ele>498.3</ele>
        <time>2022-05-17T07:22:39Z</time>
      </trkpt>
      <trkpt lat="46.70414" lon="5.65308">
        <ele>500</ele>
        <time>2022-05-17T07:22:47Z</time>
      </trkpt>
      <trkpt lat="46.7041" lon="5.65312">
        <ele>502.1</ele>
        <time>2022-05-17T07:22:54Z</time>
      </trkpt>
      <trkpt lat="46.70405" lon="5.65311">
        <ele>503.1</ele>
        <time>2022-05-17T07:23:00Z</time>
      </trkpt>
      <trkpt lat="46.70401" lon="5.65314">
        <ele>502.6</ele>
        <time>2022-05-17T07:23:13Z</time>
      </trkpt>
      <trkpt lat="46.70396" lon="5.65314">
        <ele>502</ele>
        <time>2022-05-17T07:23:19Z</time>
      </trkpt>
      <trkpt lat="46.70392" lon="5.65317">
        <ele>501.9</ele>
        <time>2022-05-17T07:23:26Z</time>
      </trkpt>
      <trkpt lat="46.70388" lon="5.65325">
        <ele>503.9</ele>
        <time>2022-05-17T07:23:53Z</time>
      </trkpt>
      <trkpt lat="46.70385" lon="5.65331">
        <ele>504.2</ele>
        <time>2022-05-17T07:23:56Z</time>
      </trkpt>
      <trkpt lat="46.70381" lon="5.65334">
        <ele>504.5</ele>
        <time>2022-05-17T07:24:00Z</time>
      </trkpt>
      <trkpt lat="46.70378" lon="5.65338">
        <ele>504.4</ele>
        <time>2022-05-17T07:24:06Z</time>
      </trkpt>
      <trkpt lat="46.70374" lon="5.65344">
        <ele>504.3</ele>
        <time>2022-05-17T07:24:23Z</time>
      </trkpt>
      <trkpt lat="46.70371" lon="5.65349">
        <ele>504</ele>
        <time>2022-05-17T07:24:29Z</time>
      </trkpt>
      <trkpt lat="46.7037" lon="5.65357">
        <ele>504.2</ele>
        <time>2022-05-17T07:24:34Z</time>
      </trkpt>
      <trkpt lat="46.70368" lon="5.65364">
        <ele>504.7</ele>
        <time>2022-05-17T07:24:39Z</time>
      </trkpt>
      <trkpt lat="46.70364" lon="5.6537">
        <ele>505.2</ele>
        <time>2022-05-17T07:24:45Z</time>
      </trkpt>
      <trkpt lat="46.70361" lon="5.65375">
        <ele>505.3</ele>
        <time>2022-05-17T07:24:50Z</time>
      </trkpt>
      <trkpt lat="46.70357" lon="5.6538">
        <ele>505.7</ele>
        <time>2022-05-17T07:24:55Z</time>
      </trkpt>
      <trkpt lat="46.70354" lon="5.65386">
        <ele>506.1</ele>
        <time>2022-05-17T07:25:00Z</time>
      </trkpt>
      <trkpt lat="46.7035" lon="5.6539">
        <ele>506.6</ele>
        <time>2022-05-17T07:25:05Z</time>
      </trkpt>
      <trkpt lat="46.70345" lon="5.65393">
        <ele>507.8</ele>
        <time>2022-05-17T07:25:10Z</time>
      </trkpt>
      <trkpt lat="46.70341" lon="5.65397">
        <ele>509</ele>
        <time>2022-05-17T07:25:15Z</time>
      </trkpt>
      <trkpt lat="46.70336" lon="5.65399">
        <ele>509.9</ele>
        <time>2022-05-17T07:25:20Z</time>
      </trkpt>
      <trkpt lat="46.70331" lon="5.65402">
        <ele>510.7</ele>
        <time>2022-05-17T07:25:25Z</time>
      </trkpt>
      <trkpt lat="46.70328" lon="5.65408">
        <ele>512</ele>
        <time>2022-05-17T07:25:36Z</time>
      </trkpt>
      <trkpt lat="46.70327" lon="5.65415">
        <ele>512.4</ele>
        <time>2022-05-17T07:25:42Z</time>
      </trkpt>
      <trkpt lat="46.70323" lon="5.6542">
        <ele>512.6</ele>
        <time>2022-05-17T07:25:47Z</time>
      </trkpt>
      <trkpt lat="46.70319" lon="5.65422">
        <ele>512.6</ele>
        <time>2022-05-17T07:25:54Z</time>
      </trkpt>
      <trkpt lat="46.70314" lon="5.65425">
        <ele>512.6</ele>
        <time>2022-05-17T07:25:58Z</time>
      </trkpt>
      <trkpt lat="46.70311" lon="5.65429">
        <ele>512.5</ele>
        <time>2022-05-17T07:26:02Z</time>
      </trkpt>
      <trkpt lat="46.70309" lon="5.65436">
        <ele>511.9</ele>
        <time>2022-05-17T07:26:09Z</time>
      </trkpt>
      <trkpt lat="46.70307" lon="5.65447">
        <ele>511.4</ele>
        <time>2022-05-17T07:26:25Z</time>
      </trkpt>
      <trkpt lat="46.70307" lon="5.65454">
        <ele>511.6</ele>
        <time>2022-05-17T07:26:30Z</time>
      </trkpt>
      <trkpt lat="46.70305" lon="5.65461">
        <ele>511.7</ele>
        <time>2022-05-17T07:26:47Z</time>
      </trkpt>
      <trkpt lat="46.70302" lon="5.65468">
        <ele>511.5</ele>
        <time>2022-05-17T07:26:50Z</time>
      </trkpt>
      <trkpt lat="46.70297" lon="5.65474">
        <ele>511.2</ele>
        <time>2022-05-17T07:26:53Z</time>
      </trkpt>
      <trkpt lat="46.70292" lon="5.65478">
        <ele>510.7</ele>
        <time>2022-05-17T07:26:56Z</time>
      </trkpt>
      <trkpt lat="46.70287" lon="5.65482">
        <ele>510.2</ele>
        <time>2022-05-17T07:26:59Z</time>
      </trkpt>
      <trkpt lat="46.70283" lon="5.65485">
        <ele>509.6</ele>
        <time>2022-05-17T07:27:02Z</time>
      </trkpt>
      <trkpt lat="46.70278" lon="5.65488">
        <ele>508.9</ele>
        <time>2022-05-17T07:27:05Z</time>
      </trkpt>
      <trkpt lat="46.70273" lon="5.65489">
        <ele>508.2</ele>
        <time>2022-05-17T07:27:09Z</time>
      </trkpt>
      <trkpt lat="46.70269" lon="5.65491">
        <ele>507.7</ele>
        <time>2022-05-17T07:27:21Z</time>
      </trkpt>
      <trkpt lat="46.70265" lon="5.65495">
        <ele>508</ele>
        <time>2022-05-17T07:27:28Z</time>
      </trkpt>
      <trkpt lat="46.7026" lon="5.65496">
        <ele>507.8</ele>
        <time>2022-05-17T07:27:34Z</time>
      </trkpt>
      <trkpt lat="46.70255" lon="5.65496">
        <ele>507.3</ele>
        <time>2022-05-17T07:27:42Z</time>
      </trkpt>
      <trkpt lat="46.70251" lon="5.65503">
        <ele>507.9</ele>
        <time>2022-05-17T07:28:29Z</time>
      </trkpt>
      <trkpt lat="46.70246" lon="5.65505">
        <ele>508.3</ele>
        <time>2022-05-17T07:28:33Z</time>
      </trkpt>
      <trkpt lat="46.70242" lon="5.65504">
        <ele>510.1</ele>
        <time>2022-05-17T07:28:40Z</time>
      </trkpt>
      <trkpt lat="46.70242" lon="5.65511">
        <ele>514.7</ele>
        <time>2022-05-17T07:29:13Z</time>
      </trkpt>
      <trkpt lat="46.70244" lon="5.65517">
        <ele>514.3</ele>
        <time>2022-05-17T07:29:22Z</time>
      </trkpt>
      <trkpt lat="46.70245" lon="5.65524">
        <ele>513.7</ele>
        <time>2022-05-17T07:29:36Z</time>
      </trkpt>
      <trkpt lat="46.70243" lon="5.65532">
        <ele>513.7</ele>
        <time>2022-05-17T07:29:49Z</time>
      </trkpt>
      <trkpt lat="46.7024" lon="5.65537">
        <ele>514.5</ele>
        <time>2022-05-17T07:29:58Z</time>
      </trkpt>
      <trkpt lat="46.70238" lon="5.65544">
        <ele>514.6</ele>
        <time>2022-05-17T07:30:03Z</time>
      </trkpt>
      <trkpt lat="46.70237" lon="5.65551">
        <ele>514.5</ele>
        <time>2022-05-17T07:30:09Z</time>
      </trkpt>
      <trkpt lat="46.70233" lon="5.65557">
        <ele>514.2</ele>
        <time>2022-05-17T07:30:13Z</time>
      </trkpt>
      <trkpt lat="46.70229" lon="5.65561">
        <ele>514.2</ele>
        <time>2022-05-17T07:30:18Z</time>
      </trkpt>
      <trkpt lat="46.70227" lon="5.65568">
        <ele>514.3</ele>
        <time>2022-05-17T07:30:22Z</time>
      </trkpt>
      <trkpt lat="46.70223" lon="5.65572">
        <ele>514.4</ele>
        <time>2022-05-17T07:30:25Z</time>
      </trkpt>
      <trkpt lat="46.70219" lon="5.65577">
        <ele>514.7</ele>
        <time>2022-05-17T07:30:31Z</time>
      </trkpt>
      <trkpt lat="46.70218" lon="5.65585">
        <ele>515.1</ele>
        <time>2022-05-17T07:30:37Z</time>
      </trkpt>
      <trkpt lat="46.70217" lon="5.65592">
        <ele>514.8</ele>
        <time>2022-05-17T07:30:42Z</time>
      </trkpt>
      <trkpt lat="46.70214" lon="5.65597">
        <ele>514.2</ele>
        <time>2022-05-17T07:30:47Z</time>
      </trkpt>
      <trkpt lat="46.70211" lon="5.65604">
        <ele>512.7</ele>
        <time>2022-05-17T07:30:53Z</time>
      </trkpt>
      <trkpt lat="46.70209" lon="5.65609">
        <ele>511.9</ele>
        <time>2022-05-17T07:30:59Z</time>
      </trkpt>
      <trkpt lat="46.70207" lon="5.65616">
        <ele>512.4</ele>
        <time>2022-05-17T07:31:06Z</time>
      </trkpt>
      <trkpt lat="46.70204" lon="5.65623">
        <ele>513</ele>
        <time>2022-05-17T07:31:11Z</time>
      </trkpt>
      <trkpt lat="46.70201" lon="5.65629">
        <ele>513.6</ele>
        <time>2022-05-17T07:31:16Z</time>
      </trkpt>
      <trkpt lat="46.70199" lon="5.65636">
        <ele>514.1</ele>
        <time>2022-05-17T07:31:21Z</time>
      </trkpt>
      <trkpt lat="46.70197" lon="5.65642">
        <ele>514.5</ele>
        <time>2022-05-17T07:31:26Z</time>
      </trkpt>
      <trkpt lat="46.70195" lon="5.65649">
        <ele>512.8</ele>
        <time>2022-05-17T07:31:40Z</time>
      </trkpt>
      <trkpt lat="46.70193" lon="5.65656">
        <ele>512.4</ele>
        <time>2022-05-17T07:31:47Z</time>
      </trkpt>
      <trkpt lat="46.70192" lon="5.65662">
        <ele>512.5</ele>
        <time>2022-05-17T07:31:52Z</time>
      </trkpt>
      <trkpt lat="46.70189" lon="5.65668">
        <ele>512.7</ele>
        <time>2022-05-17T07:31:58Z</time>
      </trkpt>
      <trkpt lat="46.70185" lon="5.65673">
        <ele>513.5</ele>
        <time>2022-05-17T07:32:05Z</time>
      </trkpt>
      <trkpt lat="46.70181" lon="5.65678">
        <ele>515.4</ele>
        <time>2022-05-17T07:32:11Z</time>
      </trkpt>
      <trkpt lat="46.70176" lon="5.65681">
        <ele>516.8</ele>
        <time>2022-05-17T07:32:16Z</time>
      </trkpt>
      <trkpt lat="46.70171" lon="5.65684">
        <ele>518.1</ele>
        <time>2022-05-17T07:32:25Z</time>
      </trkpt>
      <trkpt lat="46.70166" lon="5.65685">
        <ele>519</ele>
        <time>2022-05-17T07:32:31Z</time>
      </trkpt>
      <trkpt lat="46.70162" lon="5.65688">
        <ele>520.3</ele>
        <time>2022-05-17T07:32:39Z</time>
      </trkpt>
      <trkpt lat="46.70158" lon="5.65691">
        <ele>520</ele>
        <time>2022-05-17T07:32:47Z</time>
      </trkpt>
      <trkpt lat="46.70154" lon="5.65694">
        <ele>519.5</ele>
        <time>2022-05-17T07:32:53Z</time>
      </trkpt>
      <trkpt lat="46.70149" lon="5.65696">
        <ele>519.2</ele>
        <time>2022-05-17T07:32:59Z</time>
      </trkpt>
      <trkpt lat="46.70144" lon="5.65698">
        <ele>518.7</ele>
        <time>2022-05-17T07:33:04Z</time>
      </trkpt>
      <trkpt lat="46.70141" lon="5.65703">
        <ele>517.8</ele>
        <time>2022-05-17T07:33:13Z</time>
      </trkpt>
      <trkpt lat="46.70136" lon="5.65713">
        <ele>517.4</ele>
        <time>2022-05-17T07:33:46Z</time>
      </trkpt>
      <trkpt lat="46.70133" lon="5.6572">
        <ele>518.3</ele>
        <time>2022-05-17T07:33:49Z</time>
      </trkpt>
      <trkpt lat="46.7013" lon="5.65725">
        <ele>519.4</ele>
        <time>2022-05-17T07:33:53Z</time>
      </trkpt>
      <trkpt lat="46.70125" lon="5.65731">
        <ele>520.2</ele>
        <time>2022-05-17T07:33:56Z</time>
      </trkpt>
      <trkpt lat="46.70122" lon="5.65735">
        <ele>520.9</ele>
        <time>2022-05-17T07:33:59Z</time>
      </trkpt>
      <trkpt lat="46.70118" lon="5.65739">
        <ele>521.6</ele>
        <time>2022-05-17T07:34:03Z</time>
      </trkpt>
      <trkpt lat="46.70114" lon="5.65743">
        <ele>522.4</ele>
        <time>2022-05-17T07:34:12Z</time>
      </trkpt>
      <trkpt lat="46.70111" lon="5.65751">
        <ele>522.8</ele>
        <time>2022-05-17T07:34:33Z</time>
      </trkpt>
      <trkpt lat="46.70108" lon="5.65757">
        <ele>522.6</ele>
        <time>2022-05-17T07:34:36Z</time>
      </trkpt>
      <trkpt lat="46.70103" lon="5.65762">
        <ele>522.1</ele>
        <time>2022-05-17T07:34:40Z</time>
      </trkpt>
      <trkpt lat="46.70098" lon="5.65766">
        <ele>522</ele>
        <time>2022-05-17T07:34:44Z</time>
      </trkpt>
      <trkpt lat="46.70095" lon="5.6577">
        <ele>522.4</ele>
        <time>2022-05-17T07:34:51Z</time>
      </trkpt>
      <trkpt lat="46.7009" lon="5.6577">
        <ele>522.2</ele>
        <time>2022-05-17T07:34:57Z</time>
      </trkpt>
      <trkpt lat="46.70084" lon="5.65772">
        <ele>521.9</ele>
        <time>2022-05-17T07:35:02Z</time>
      </trkpt>
      <trkpt lat="46.70079" lon="5.65773">
        <ele>521.5</ele>
        <time>2022-05-17T07:35:06Z</time>
      </trkpt>
      <trkpt lat="46.70074" lon="5.65775">
        <ele>520.8</ele>
        <time>2022-05-17T07:35:21Z</time>
      </trkpt>
      <trkpt lat="46.7007" lon="5.65779">
        <ele>520.4</ele>
        <time>2022-05-17T07:35:25Z</time>
      </trkpt>
      <trkpt lat="46.70065" lon="5.65781">
        <ele>519.9</ele>
        <time>2022-05-17T07:35:29Z</time>
      </trkpt>
      <trkpt lat="46.7006" lon="5.65783">
        <ele>519.2</ele>
        <time>2022-05-17T07:35:35Z</time>
      </trkpt>
      <trkpt lat="46.70055" lon="5.65786">
        <ele>518.4</ele>
        <time>2022-05-17T07:35:41Z</time>
      </trkpt>
      <trkpt lat="46.7005" lon="5.65788">
        <ele>517.9</ele>
        <time>2022-05-17T07:35:48Z</time>
      </trkpt>
      <trkpt lat="46.70046" lon="5.65792">
        <ele>517.3</ele>
        <time>2022-05-17T07:35:53Z</time>
      </trkpt>
      <trkpt lat="46.70043" lon="5.65797">
        <ele>516.2</ele>
        <time>2022-05-17T07:35:59Z</time>
      </trkpt>
      <trkpt lat="46.70039" lon="5.65802">
        <ele>515.2</ele>
        <time>2022-05-17T07:36:04Z</time>
      </trkpt>
      <trkpt lat="46.70036" lon="5.65808">
        <ele>514.5</ele>
        <time>2022-05-17T07:36:10Z</time>
      </trkpt>
      <trkpt lat="46.70034" lon="5.65814">
        <ele>513.4</ele>
        <time>2022-05-17T07:36:19Z</time>
      </trkpt>
      <trkpt lat="46.70031" lon="5.65819">
        <ele>513.1</ele>
        <time>2022-05-17T07:36:26Z</time>
      </trkpt>
      <trkpt lat="46.70028" lon="5.65824">
        <ele>513.3</ele>
        <time>2022-05-17T07:36:34Z</time>
      </trkpt>
      <trkpt lat="46.70024" lon="5.65828">
        <ele>513.7</ele>
        <time>2022-05-17T07:36:38Z</time>
      </trkpt>
      <trkpt lat="46.7002" lon="5.65831">
        <ele>514.3</ele>
        <time>2022-05-17T07:36:43Z</time>
      </trkpt>
      <trkpt lat="46.70016" lon="5.65836">
        <ele>515</ele>
        <time>2022-05-17T07:36:48Z</time>
      </trkpt>
      <trkpt lat="46.70012" lon="5.65839">
        <ele>515.6</ele>
        <time>2022-05-17T07:36:53Z</time>
      </trkpt>
      <trkpt lat="46.70007" lon="5.6584">
        <ele>516</ele>
        <time>2022-05-17T07:36:57Z</time>
      </trkpt>
      <trkpt lat="46.70002" lon="5.65842">
        <ele>516.7</ele>
        <time>2022-05-17T07:37:04Z</time>
      </trkpt>
      <trkpt lat="46.69998" lon="5.65843">
        <ele>516.9</ele>
        <time>2022-05-17T07:37:09Z</time>
      </trkpt>
      <trkpt lat="46.69993" lon="5.65841">
        <ele>518.2</ele>
        <time>2022-05-17T07:37:18Z</time>
      </trkpt>
      <trkpt lat="46.69989" lon="5.65844">
        <ele>519.2</ele>
        <time>2022-05-17T07:37:30Z</time>
      </trkpt>
      <trkpt lat="46.69987" lon="5.6585">
        <ele>519.2</ele>
        <time>2022-05-17T07:37:37Z</time>
      </trkpt>
      <trkpt lat="46.69986" lon="5.65858">
        <ele>519.5</ele>
        <time>2022-05-17T07:37:47Z</time>
      </trkpt>
      <trkpt lat="46.6999" lon="5.65863">
        <ele>519.1</ele>
        <time>2022-05-17T07:37:56Z</time>
      </trkpt>
      <trkpt lat="46.6999" lon="5.6587">
        <ele>518.9</ele>
        <time>2022-05-17T07:38:03Z</time>
      </trkpt>
      <trkpt lat="46.6999" lon="5.65877">
        <ele>518.9</ele>
        <time>2022-05-17T07:38:08Z</time>
      </trkpt>
      <trkpt lat="46.69989" lon="5.65884">
        <ele>518.9</ele>
        <time>2022-05-17T07:38:14Z</time>
      </trkpt>
      <trkpt lat="46.69988" lon="5.65891">
        <ele>519.4</ele>
        <time>2022-05-17T07:38:24Z</time>
      </trkpt>
      <trkpt lat="46.69988" lon="5.65898">
        <ele>519.1</ele>
        <time>2022-05-17T07:38:33Z</time>
      </trkpt>
      <trkpt lat="46.69983" lon="5.65904">
        <ele>519.3</ele>
        <time>2022-05-17T07:38:40Z</time>
      </trkpt>
      <trkpt lat="46.69979" lon="5.65908">
        <ele>519.4</ele>
        <time>2022-05-17T07:38:47Z</time>
      </trkpt>
      <trkpt lat="46.69975" lon="5.65913">
        <ele>519.9</ele>
        <time>2022-05-17T07:38:53Z</time>
      </trkpt>
      <trkpt lat="46.69972" lon="5.65919">
        <ele>520.2</ele>
        <time>2022-05-17T07:38:56Z</time>
      </trkpt>
      <trkpt lat="46.69972" lon="5.65926">
        <ele>521.2</ele>
        <time>2022-05-17T07:39:03Z</time>
      </trkpt>
      <trkpt lat="46.69969" lon="5.65938">
        <ele>521.2</ele>
        <time>2022-05-17T07:39:20Z</time>
      </trkpt>
      <trkpt lat="46.69967" lon="5.65943">
        <ele>520.6</ele>
        <time>2022-05-17T07:39:26Z</time>
      </trkpt>
      <trkpt lat="46.69966" lon="5.65951">
        <ele>519.5</ele>
        <time>2022-05-17T07:39:39Z</time>
      </trkpt>
      <trkpt lat="46.69964" lon="5.65963">
        <ele>517.7</ele>
        <time>2022-05-17T07:39:55Z</time>
      </trkpt>
      <trkpt lat="46.69961" lon="5.65973">
        <ele>517.3</ele>
        <time>2022-05-17T07:39:58Z</time>
      </trkpt>
      <trkpt lat="46.69959" lon="5.65982">
        <ele>516.8</ele>
        <time>2022-05-17T07:40:01Z</time>
      </trkpt>
      <trkpt lat="46.69962" lon="5.65987">
        <ele>515.9</ele>
        <time>2022-05-17T07:40:07Z</time>
      </trkpt>
      <trkpt lat="46.69964" lon="5.65994">
        <ele>515</ele>
        <time>2022-05-17T07:40:13Z</time>
      </trkpt>
      <trkpt lat="46.69965" lon="5.66001">
        <ele>514.6</ele>
        <time>2022-05-17T07:40:17Z</time>
      </trkpt>
      <trkpt lat="46.69961" lon="5.66007">
        <ele>514.1</ele>
        <time>2022-05-17T07:40:21Z</time>
      </trkpt>
      <trkpt lat="46.69957" lon="5.66009">
        <ele>513.8</ele>
        <time>2022-05-17T07:40:24Z</time>
      </trkpt>
      <trkpt lat="46.69951" lon="5.66013">
        <ele>513.8</ele>
        <time>2022-05-17T07:40:37Z</time>
      </trkpt>
      <trkpt lat="46.69948" lon="5.66018">
        <ele>514.1</ele>
        <time>2022-05-17T07:40:40Z</time>
      </trkpt>
      <trkpt lat="46.69943" lon="5.66023">
        <ele>515</ele>
        <time>2022-05-17T07:40:44Z</time>
      </trkpt>
      <trkpt lat="46.69939" lon="5.66027">
        <ele>515.8</ele>
        <time>2022-05-17T07:40:47Z</time>
      </trkpt>
      <trkpt lat="46.69934" lon="5.66031">
        <ele>516.7</ele>
        <time>2022-05-17T07:40:52Z</time>
      </trkpt>
      <trkpt lat="46.69929" lon="5.66032">
        <ele>516.9</ele>
        <time>2022-05-17T07:40:57Z</time>
      </trkpt>
      <trkpt lat="46.69925" lon="5.66029">
        <ele>516.6</ele>
        <time>2022-05-17T07:41:04Z</time>
      </trkpt>
      <trkpt lat="46.6992" lon="5.66027">
        <ele>516.6</ele>
        <time>2022-05-17T07:41:07Z</time>
      </trkpt>
      <trkpt lat="46.69916" lon="5.66026">
        <ele>516.3</ele>
        <time>2022-05-17T07:41:11Z</time>
      </trkpt>
      <trkpt lat="46.69911" lon="5.66028">
        <ele>515.3</ele>
        <time>2022-05-17T07:41:15Z</time>
      </trkpt>
      <trkpt lat="46.69906" lon="5.66029">
        <ele>513.9</ele>
        <time>2022-05-17T07:41:23Z</time>
      </trkpt>
      <trkpt lat="46.69902" lon="5.66028">
        <ele>511.9</ele>
        <time>2022-05-17T07:41:37Z</time>
      </trkpt>
      <trkpt lat="46.69897" lon="5.66031">
        <ele>512.1</ele>
        <time>2022-05-17T07:41:48Z</time>
      </trkpt>
      <trkpt lat="46.69892" lon="5.66033">
        <ele>512.7</ele>
        <time>2022-05-17T07:41:55Z</time>
      </trkpt>
      <trkpt lat="46.69887" lon="5.66035">
        <ele>512.2</ele>
        <time>2022-05-17T07:41:59Z</time>
      </trkpt>
      <trkpt lat="46.69882" lon="5.66036">
        <ele>511.7</ele>
        <time>2022-05-17T07:42:04Z</time>
      </trkpt>
      <trkpt lat="46.69877" lon="5.66033">
        <ele>511.1</ele>
        <time>2022-05-17T07:42:09Z</time>
      </trkpt>
      <trkpt lat="46.69872" lon="5.66032">
        <ele>510</ele>
        <time>2022-05-17T07:42:17Z</time>
      </trkpt>
      <trkpt lat="46.6987" lon="5.6604">
        <ele>511</ele>
        <time>2022-05-17T07:42:59Z</time>
      </trkpt>
      <trkpt lat="46.69865" lon="5.66046">
        <ele>511.2</ele>
        <time>2022-05-17T07:43:02Z</time>
      </trkpt>
      <trkpt lat="46.69861" lon="5.6605">
        <ele>511.6</ele>
        <time>2022-05-17T07:43:07Z</time>
      </trkpt>
      <trkpt lat="46.69857" lon="5.66054">
        <ele>510.5</ele>
        <time>2022-05-17T07:43:13Z</time>
      </trkpt>
      <trkpt lat="46.69852" lon="5.66055">
        <ele>509.4</ele>
        <time>2022-05-17T07:43:18Z</time>
      </trkpt>
      <trkpt lat="46.69848" lon="5.66057">
        <ele>508.7</ele>
        <time>2022-05-17T07:43:24Z</time>
      </trkpt>
      <trkpt lat="46.69843" lon="5.6606">
        <ele>508.7</ele>
        <time>2022-05-17T07:43:33Z</time>
      </trkpt>
      <trkpt lat="46.69839" lon="5.66065">
        <ele>509.1</ele>
        <time>2022-05-17T07:43:41Z</time>
      </trkpt>
      <trkpt lat="46.69835" lon="5.66068">
        <ele>509</ele>
        <time>2022-05-17T07:43:48Z</time>
      </trkpt>
      <trkpt lat="46.69834" lon="5.66075">
        <ele>507.5</ele>
        <time>2022-05-17T07:44:28Z</time>
      </trkpt>
      <trkpt lat="46.69828" lon="5.66077">
        <ele>505.6</ele>
        <time>2022-05-17T07:45:01Z</time>
      </trkpt>
      <trkpt lat="46.69823" lon="5.66075">
        <ele>506.1</ele>
        <time>2022-05-17T07:45:04Z</time>
      </trkpt>
      <trkpt lat="46.69818" lon="5.66074">
        <ele>507.2</ele>
        <time>2022-05-17T07:45:09Z</time>
      </trkpt>
      <trkpt lat="46.69816" lon="5.6608">
        <ele>509.8</ele>
        <time>2022-05-17T07:45:31Z</time>
      </trkpt>
      <trkpt lat="46.69819" lon="5.66074">
        <ele>510</ele>
        <time>2022-05-17T07:45:43Z</time>
      </trkpt>
      <trkpt lat="46.69822" lon="5.6607">
        <ele>508.7</ele>
        <time>2022-05-17T07:45:52Z</time>
      </trkpt>
      <trkpt lat="46.69819" lon="5.66074">
        <ele>505.5</ele>
        <time>2022-05-17T07:46:25Z</time>
      </trkpt>
      <trkpt lat="46.69814" lon="5.66076">
        <ele>508.3</ele>
        <time>2022-05-17T07:46:41Z</time>
      </trkpt>
      <trkpt lat="46.69809" lon="5.66078">
        <ele>509.6</ele>
        <time>2022-05-17T07:46:45Z</time>
      </trkpt>
      <trkpt lat="46.69803" lon="5.66081">
        <ele>510.4</ele>
        <time>2022-05-17T07:46:50Z</time>
      </trkpt>
      <trkpt lat="46.69799" lon="5.66082">
        <ele>510.9</ele>
        <time>2022-05-17T07:46:56Z</time>
      </trkpt>
      <trkpt lat="46.69794" lon="5.66084">
        <ele>511.1</ele>
        <time>2022-05-17T07:47:02Z</time>
      </trkpt>
      <trkpt lat="46.69789" lon="5.66083">
        <ele>511</ele>
        <time>2022-05-17T07:47:07Z</time>
      </trkpt>
      <trkpt lat="46.69784" lon="5.66081">
        <ele>510.7</ele>
        <time>2022-05-17T07:47:13Z</time>
      </trkpt>
      <trkpt lat="46.69779" lon="5.66082">
        <ele>509.6</ele>
        <time>2022-05-17T07:47:18Z</time>
      </trkpt>
      <trkpt lat="46.69774" lon="5.66085">
        <ele>508.5</ele>
        <time>2022-05-17T07:47:23Z</time>
      </trkpt>
      <trkpt lat="46.69769" lon="5.66084">
        <ele>507.7</ele>
        <time>2022-05-17T07:47:28Z</time>
      </trkpt>
      <trkpt lat="46.69765" lon="5.6608">
        <ele>507.5</ele>
        <time>2022-05-17T07:47:33Z</time>
      </trkpt>
      <trkpt lat="46.69761" lon="5.66075">
        <ele>508.1</ele>
        <time>2022-05-17T07:47:40Z</time>
      </trkpt>
      <trkpt lat="46.69758" lon="5.6607">
        <ele>508.7</ele>
        <time>2022-05-17T07:47:47Z</time>
      </trkpt>
      <trkpt lat="46.69754" lon="5.66064">
        <ele>509.3</ele>
        <time>2022-05-17T07:47:52Z</time>
      </trkpt>
      <trkpt lat="46.69752" lon="5.66058">
        <ele>510.3</ele>
        <time>2022-05-17T07:48:00Z</time>
      </trkpt>
      <trkpt lat="46.69749" lon="5.66052">
        <ele>511</ele>
        <time>2022-05-17T07:48:07Z</time>
      </trkpt>
      <trkpt lat="46.69746" lon="5.66046">
        <ele>511.9</ele>
        <time>2022-05-17T07:48:12Z</time>
      </trkpt>
      <trkpt lat="46.69751" lon="5.66044">
        <ele>515.7</ele>
        <time>2022-05-17T07:48:25Z</time>
      </trkpt>
      <trkpt lat="46.69747" lon="5.6604">
        <ele>517.1</ele>
        <time>2022-05-17T07:48:36Z</time>
      </trkpt>
      <trkpt lat="46.69742" lon="5.66036">
        <ele>516.8</ele>
        <time>2022-05-17T07:48:40Z</time>
      </trkpt>
      <trkpt lat="46.69738" lon="5.66031">
        <ele>516.3</ele>
        <time>2022-05-17T07:48:44Z</time>
      </trkpt>
      <trkpt lat="46.69736" lon="5.66026">
        <ele>515.4</ele>
        <time>2022-05-17T07:48:51Z</time>
      </trkpt>
      <trkpt lat="46.69735" lon="5.66019">
        <ele>516.1</ele>
        <time>2022-05-17T07:48:58Z</time>
      </trkpt>
      <trkpt lat="46.69731" lon="5.66023">
        <ele>516.3</ele>
        <time>2022-05-17T07:50:20Z</time>
      </trkpt>
      <trkpt lat="46.69727" lon="5.66023">
        <ele>514.9</ele>
        <time>2022-05-17T07:50:26Z</time>
      </trkpt>
      <trkpt lat="46.69723" lon="5.66019">
        <ele>513.4</ele>
        <time>2022-05-17T07:50:32Z</time>
      </trkpt>
      <trkpt lat="46.6972" lon="5.66013">
        <ele>512</ele>
        <time>2022-05-17T07:50:38Z</time>
      </trkpt>
      <trkpt lat="46.69717" lon="5.66008">
        <ele>510.7</ele>
        <time>2022-05-17T07:50:46Z</time>
      </trkpt>
      <trkpt lat="46.69713" lon="5.66004">
        <ele>510.7</ele>
        <time>2022-05-17T07:50:57Z</time>
      </trkpt>
      <trkpt lat="46.69708" lon="5.66003">
        <ele>511.5</ele>
        <time>2022-05-17T07:51:01Z</time>
      </trkpt>
      <trkpt lat="46.69703" lon="5.66002">
        <ele>512.4</ele>
        <time>2022-05-17T07:51:05Z</time>
      </trkpt>
      <trkpt lat="46.69698" lon="5.66003">
        <ele>513.1</ele>
        <time>2022-05-17T07:51:11Z</time>
      </trkpt>
      <trkpt lat="46.69693" lon="5.66007">
        <ele>513.5</ele>
        <time>2022-05-17T07:51:20Z</time>
      </trkpt>
      <trkpt lat="46.69688" lon="5.66006">
        <ele>513.7</ele>
        <time>2022-05-17T07:51:24Z</time>
      </trkpt>
      <trkpt lat="46.69683" lon="5.66007">
        <ele>514</ele>
        <time>2022-05-17T07:51:29Z</time>
      </trkpt>
      <trkpt lat="46.69679" lon="5.66011">
        <ele>513.9</ele>
        <time>2022-05-17T07:51:35Z</time>
      </trkpt>
      <trkpt lat="46.69675" lon="5.66013">
        <ele>513.3</ele>
        <time>2022-05-17T07:51:39Z</time>
      </trkpt>
      <trkpt lat="46.69669" lon="5.66013">
        <ele>512.5</ele>
        <time>2022-05-17T07:51:43Z</time>
      </trkpt>
      <trkpt lat="46.69664" lon="5.66014">
        <ele>511.1</ele>
        <time>2022-05-17T07:51:51Z</time>
      </trkpt>
      <trkpt lat="46.6966" lon="5.66015">
        <ele>510.9</ele>
        <time>2022-05-17T07:51:58Z</time>
      </trkpt>
      <trkpt lat="46.69655" lon="5.66016">
        <ele>511.1</ele>
        <time>2022-05-17T07:52:03Z</time>
      </trkpt>
      <trkpt lat="46.6965" lon="5.66015">
        <ele>511.8</ele>
        <time>2022-05-17T07:52:13Z</time>
      </trkpt>
      <trkpt lat="46.69645" lon="5.66012">
        <ele>512</ele>
        <time>2022-05-17T07:52:19Z</time>
      </trkpt>
      <trkpt lat="46.6964" lon="5.66012">
        <ele>512.2</ele>
        <time>2022-05-17T07:52:24Z</time>
      </trkpt>
      <trkpt lat="46.69636" lon="5.6601">
        <ele>512.5</ele>
        <time>2022-05-17T07:52:28Z</time>
      </trkpt>
      <trkpt lat="46.69631" lon="5.66008">
        <ele>512.1</ele>
        <time>2022-05-17T07:52:36Z</time>
      </trkpt>
      <trkpt lat="46.69627" lon="5.66003">
        <ele>510.1</ele>
        <time>2022-05-17T07:52:55Z</time>
      </trkpt>
      <trkpt lat="46.69623" lon="5.66004">
        <ele>509.2</ele>
        <time>2022-05-17T07:53:02Z</time>
      </trkpt>
      <trkpt lat="46.69618" lon="5.66006">
        <ele>509.2</ele>
        <time>2022-05-17T07:53:07Z</time>
      </trkpt>
      <trkpt lat="46.69612" lon="5.66007">
        <ele>509.4</ele>
        <time>2022-05-17T07:53:10Z</time>
      </trkpt>
      <trkpt lat="46.69607" lon="5.66007">
        <ele>510.2</ele>
        <time>2022-05-17T07:53:15Z</time>
      </trkpt>
      <trkpt lat="46.69602" lon="5.66007">
        <ele>512.3</ele>
        <time>2022-05-17T07:53:23Z</time>
      </trkpt>
      <trkpt lat="46.69597" lon="5.66008">
        <ele>513.8</ele>
        <time>2022-05-17T07:53:31Z</time>
      </trkpt>
      <trkpt lat="46.69592" lon="5.66006">
        <ele>514.6</ele>
        <time>2022-05-17T07:53:38Z</time>
      </trkpt>
      <trkpt lat="46.69588" lon="5.66001">
        <ele>512.1</ele>
        <time>2022-05-17T07:53:59Z</time>
      </trkpt>
      <trkpt lat="46.69585" lon="5.65996">
        <ele>511.7</ele>
        <time>2022-05-17T07:54:02Z</time>
      </trkpt>
      <trkpt lat="46.6958" lon="5.65992">
        <ele>511.2</ele>
        <time>2022-05-17T07:54:06Z</time>
      </trkpt>
      <trkpt lat="46.69577" lon="5.65987">
        <ele>511</ele>
        <time>2022-05-17T07:54:11Z</time>
      </trkpt>
      <trkpt lat="46.69573" lon="5.65982">
        <ele>510.5</ele>
        <time>2022-05-17T07:54:16Z</time>
      </trkpt>
      <trkpt lat="46.6957" lon="5.65976">
        <ele>509.9</ele>
        <time>2022-05-17T07:54:21Z</time>
      </trkpt>
      <trkpt lat="46.69568" lon="5.6597">
        <ele>508.7</ele>
        <time>2022-05-17T07:54:26Z</time>
      </trkpt>
      <trkpt lat="46.69565" lon="5.65966">
        <ele>508.1</ele>
        <time>2022-05-17T07:54:30Z</time>
      </trkpt>
      <trkpt lat="46.69562" lon="5.65961">
        <ele>506.9</ele>
        <time>2022-05-17T07:54:36Z</time>
      </trkpt>
      <trkpt lat="46.69558" lon="5.65955">
        <ele>505.2</ele>
        <time>2022-05-17T07:54:41Z</time>
      </trkpt>
      <trkpt lat="46.69558" lon="5.65948">
        <ele>503.3</ele>
        <time>2022-05-17T07:54:47Z</time>
      </trkpt>
      <trkpt lat="46.69557" lon="5.65941">
        <ele>502.6</ele>
        <time>2022-05-17T07:54:53Z</time>
      </trkpt>
      <trkpt lat="46.69558" lon="5.65934">
        <ele>502.7</ele>
        <time>2022-05-17T07:55:04Z</time>
      </trkpt>
      <trkpt lat="46.69557" lon="5.65927">
        <ele>502.6</ele>
        <time>2022-05-17T07:55:10Z</time>
      </trkpt>
      <trkpt lat="46.69554" lon="5.65921">
        <ele>502.9</ele>
        <time>2022-05-17T07:55:16Z</time>
      </trkpt>
      <trkpt lat="46.6955" lon="5.65917">
        <ele>502.8</ele>
        <time>2022-05-17T07:55:22Z</time>
      </trkpt>
      <trkpt lat="46.69547" lon="5.65913">
        <ele>502.7</ele>
        <time>2022-05-17T07:55:39Z</time>
      </trkpt>
      <trkpt lat="46.69544" lon="5.65906">
        <ele>503.2</ele>
        <time>2022-05-17T07:55:47Z</time>
      </trkpt>
      <trkpt lat="46.69542" lon="5.659">
        <ele>504.8</ele>
        <time>2022-05-17T07:55:53Z</time>
      </trkpt>
      <trkpt lat="46.69543" lon="5.65893">
        <ele>506.5</ele>
        <time>2022-05-17T07:55:59Z</time>
      </trkpt>
      <trkpt lat="46.69544" lon="5.65887">
        <ele>508.1</ele>
        <time>2022-05-17T07:56:04Z</time>
      </trkpt>
      <trkpt lat="46.69547" lon="5.65882">
        <ele>508.9</ele>
        <time>2022-05-17T07:56:11Z</time>
      </trkpt>
      <trkpt lat="46.69543" lon="5.65878">
        <ele>509.4</ele>
        <time>2022-05-17T07:56:41Z</time>
      </trkpt>
      <trkpt lat="46.69543" lon="5.65871">
        <ele>509.8</ele>
        <time>2022-05-17T07:56:46Z</time>
      </trkpt>
      <trkpt lat="46.6954" lon="5.65863">
        <ele>509.2</ele>
        <time>2022-05-17T07:56:51Z</time>
      </trkpt>
      <trkpt lat="46.69544" lon="5.65858">
        <ele>508.6</ele>
        <time>2022-05-17T07:56:57Z</time>
      </trkpt>
      <trkpt lat="46.69539" lon="5.65859">
        <ele>505.7</ele>
        <time>2022-05-17T07:57:11Z</time>
      </trkpt>
      <trkpt lat="46.6954" lon="5.65852">
        <ele>503.4</ele>
        <time>2022-05-17T07:57:21Z</time>
      </trkpt>
      <trkpt lat="46.69541" lon="5.65845">
        <ele>503</ele>
        <time>2022-05-17T07:57:27Z</time>
      </trkpt>
      <trkpt lat="46.69542" lon="5.65838">
        <ele>503</ele>
        <time>2022-05-17T07:57:36Z</time>
      </trkpt>
      <trkpt lat="46.69545" lon="5.65831">
        <ele>505.3</ele>
        <time>2022-05-17T07:58:02Z</time>
      </trkpt>
      <trkpt lat="46.69545" lon="5.65823">
        <ele>506.7</ele>
        <time>2022-05-17T07:58:08Z</time>
      </trkpt>
      <trkpt lat="46.69547" lon="5.65817">
        <ele>508.6</ele>
        <time>2022-05-17T07:58:14Z</time>
      </trkpt>
      <trkpt lat="46.69547" lon="5.6581">
        <ele>510.3</ele>
        <time>2022-05-17T07:58:20Z</time>
      </trkpt>
      <trkpt lat="46.69548" lon="5.65802">
        <ele>511.6</ele>
        <time>2022-05-17T07:58:29Z</time>
      </trkpt>
      <trkpt lat="46.6955" lon="5.65797">
        <ele>512.4</ele>
        <time>2022-05-17T07:58:36Z</time>
      </trkpt>
      <trkpt lat="46.6955" lon="5.6579">
        <ele>512.7</ele>
        <time>2022-05-17T07:58:40Z</time>
      </trkpt>
      <trkpt lat="46.69549" lon="5.65782">
        <ele>512.7</ele>
        <time>2022-05-17T07:58:44Z</time>
      </trkpt>
      <trkpt lat="46.69548" lon="5.65775">
        <ele>512.4</ele>
        <time>2022-05-17T07:58:49Z</time>
      </trkpt>
      <trkpt lat="46.69548" lon="5.65767">
        <ele>512.4</ele>
        <time>2022-05-17T07:58:54Z</time>
      </trkpt>
      <trkpt lat="46.69551" lon="5.65761">
        <ele>512.8</ele>
        <time>2022-05-17T07:58:58Z</time>
      </trkpt>
      <trkpt lat="46.69554" lon="5.65755">
        <ele>513.2</ele>
        <time>2022-05-17T07:59:03Z</time>
      </trkpt>
      <trkpt lat="46.69554" lon="5.65747">
        <ele>514</ele>
        <time>2022-05-17T07:59:10Z</time>
      </trkpt>
      <trkpt lat="46.69555" lon="5.6574">
        <ele>514.9</ele>
        <time>2022-05-17T07:59:15Z</time>
      </trkpt>
      <trkpt lat="46.69557" lon="5.65734">
        <ele>515.8</ele>
        <time>2022-05-17T07:59:22Z</time>
      </trkpt>
      <trkpt lat="46.6956" lon="5.65728">
        <ele>516.2</ele>
        <time>2022-05-17T07:59:31Z</time>
      </trkpt>
      <trkpt lat="46.69561" lon="5.65721">
        <ele>516.4</ele>
        <time>2022-05-17T07:59:37Z</time>
      </trkpt>
      <trkpt lat="46.69559" lon="5.65715">
        <ele>518.3</ele>
        <time>2022-05-17T07:59:46Z</time>
      </trkpt>
      <trkpt lat="46.69556" lon="5.65709">
        <ele>518.9</ele>
        <time>2022-05-17T07:59:53Z</time>
      </trkpt>
      <trkpt lat="46.69555" lon="5.65702">
        <ele>518.8</ele>
        <time>2022-05-17T07:59:58Z</time>
      </trkpt>
      <trkpt lat="46.69553" lon="5.65696">
        <ele>518.7</ele>
        <time>2022-05-17T08:00:02Z</time>
      </trkpt>
      <trkpt lat="46.69551" lon="5.65689">
        <ele>518.5</ele>
        <time>2022-05-17T08:00:07Z</time>
      </trkpt>
      <trkpt lat="46.69549" lon="5.65683">
        <ele>518.7</ele>
        <time>2022-05-17T08:00:13Z</time>
      </trkpt>
      <trkpt lat="46.69547" lon="5.65676">
        <ele>519</ele>
        <time>2022-05-17T08:00:19Z</time>
      </trkpt>
      <trkpt lat="46.69543" lon="5.6567">
        <ele>518.9</ele>
        <time>2022-05-17T08:00:23Z</time>
      </trkpt>
      <trkpt lat="46.69542" lon="5.65662">
        <ele>518.1</ele>
        <time>2022-05-17T08:00:28Z</time>
      </trkpt>
      <trkpt lat="46.69542" lon="5.65655">
        <ele>515.6</ele>
        <time>2022-05-17T08:00:37Z</time>
      </trkpt>
      <trkpt lat="46.69541" lon="5.65648">
        <ele>513.9</ele>
        <time>2022-05-17T08:00:44Z</time>
      </trkpt>
      <trkpt lat="46.6954" lon="5.65641">
        <ele>513.4</ele>
        <time>2022-05-17T08:00:49Z</time>
      </trkpt>
      <trkpt lat="46.69542" lon="5.65634">
        <ele>513.1</ele>
        <time>2022-05-17T08:00:58Z</time>
      </trkpt>
      <trkpt lat="46.69544" lon="5.65628">
        <ele>512.7</ele>
        <time>2022-05-17T08:01:02Z</time>
      </trkpt>
      <trkpt lat="46.69546" lon="5.65621">
        <ele>511.6</ele>
        <time>2022-05-17T08:01:07Z</time>
      </trkpt>
      <trkpt lat="46.69549" lon="5.65615">
        <ele>510.6</ele>
        <time>2022-05-17T08:01:12Z</time>
      </trkpt>
      <trkpt lat="46.69552" lon="5.6561">
        <ele>509.1</ele>
        <time>2022-05-17T08:01:18Z</time>
      </trkpt>
      <trkpt lat="46.69555" lon="5.65604">
        <ele>507.6</ele>
        <time>2022-05-17T08:01:24Z</time>
      </trkpt>
      <trkpt lat="46.69558" lon="5.65599">
        <ele>506.8</ele>
        <time>2022-05-17T08:01:30Z</time>
      </trkpt>
      <trkpt lat="46.69558" lon="5.65592">
        <ele>506.1</ele>
        <time>2022-05-17T08:01:34Z</time>
      </trkpt>
      <trkpt lat="46.6956" lon="5.65585">
        <ele>505.4</ele>
        <time>2022-05-17T08:01:38Z</time>
      </trkpt>
      <trkpt lat="46.69564" lon="5.65581">
        <ele>504.4</ele>
        <time>2022-05-17T08:01:46Z</time>
      </trkpt>
      <trkpt lat="46.69567" lon="5.65576">
        <ele>504.4</ele>
        <time>2022-05-17T08:01:53Z</time>
      </trkpt>
      <trkpt lat="46.69569" lon="5.6557">
        <ele>504.6</ele>
        <time>2022-05-17T08:01:57Z</time>
      </trkpt>
      <trkpt lat="46.69568" lon="5.65562">
        <ele>505.1</ele>
        <time>2022-05-17T08:02:01Z</time>
      </trkpt>
      <trkpt lat="46.69569" lon="5.65554">
        <ele>505.8</ele>
        <time>2022-05-17T08:02:06Z</time>
      </trkpt>
      <trkpt lat="46.69569" lon="5.65546">
        <ele>506.4</ele>
        <time>2022-05-17T08:02:10Z</time>
      </trkpt>
      <trkpt lat="46.69569" lon="5.65538">
        <ele>507.2</ele>
        <time>2022-05-17T08:02:14Z</time>
      </trkpt>
      <trkpt lat="46.69568" lon="5.65532">
        <ele>507.7</ele>
        <time>2022-05-17T08:02:19Z</time>
      </trkpt>
      <trkpt lat="46.69567" lon="5.65525">
        <ele>507.7</ele>
        <time>2022-05-17T08:02:26Z</time>
      </trkpt>
      <trkpt lat="46.69567" lon="5.65518">
        <ele>507.7</ele>
        <time>2022-05-17T08:02:32Z</time>
      </trkpt>
      <trkpt lat="46.69567" lon="5.65511">
        <ele>507.7</ele>
        <time>2022-05-17T08:02:36Z</time>
      </trkpt>
      <trkpt lat="46.69565" lon="5.65504">
        <ele>507.2</ele>
        <time>2022-05-17T08:02:42Z</time>
      </trkpt>
      <trkpt lat="46.69563" lon="5.65497">
        <ele>507.2</ele>
        <time>2022-05-17T08:02:47Z</time>
      </trkpt>
      <trkpt lat="46.6956" lon="5.65491">
        <ele>507.4</ele>
        <time>2022-05-17T08:02:53Z</time>
      </trkpt>
      <trkpt lat="46.69559" lon="5.65484">
        <ele>507.3</ele>
        <time>2022-05-17T08:03:01Z</time>
      </trkpt>
      <trkpt lat="46.69557" lon="5.65477">
        <ele>506.8</ele>
        <time>2022-05-17T08:03:06Z</time>
      </trkpt>
      <trkpt lat="46.69556" lon="5.6547">
        <ele>506.4</ele>
        <time>2022-05-17T08:03:12Z</time>
      </trkpt>
      <trkpt lat="46.69555" lon="5.65464">
        <ele>505.9</ele>
        <time>2022-05-17T08:03:18Z</time>
      </trkpt>
      <trkpt lat="46.69554" lon="5.65456">
        <ele>505.2</ele>
        <time>2022-05-17T08:03:23Z</time>
      </trkpt>
      <trkpt lat="46.69552" lon="5.6545">
        <ele>504.2</ele>
        <time>2022-05-17T08:03:35Z</time>
      </trkpt>
      <trkpt lat="46.69556" lon="5.65448">
        <ele>505.5</ele>
        <time>2022-05-17T08:03:46Z</time>
      </trkpt>
      <trkpt lat="46.69551" lon="5.65448">
        <ele>505.1</ele>
        <time>2022-05-17T08:03:59Z</time>
      </trkpt>
      <trkpt lat="46.69545" lon="5.65444">
        <ele>504.5</ele>
        <time>2022-05-17T08:04:02Z</time>
      </trkpt>
      <trkpt lat="46.69541" lon="5.65448">
        <ele>503.8</ele>
        <time>2022-05-17T08:04:08Z</time>
      </trkpt>
      <trkpt lat="46.69546" lon="5.65449">
        <ele>504.2</ele>
        <time>2022-05-17T08:04:20Z</time>
      </trkpt>
      <trkpt lat="46.69551" lon="5.65449">
        <ele>505.2</ele>
        <time>2022-05-17T08:04:27Z</time>
      </trkpt>
      <trkpt lat="46.69555" lon="5.65452">
        <ele>507.2</ele>
        <time>2022-05-17T08:04:48Z</time>
      </trkpt>
      <trkpt lat="46.6956" lon="5.65455">
        <ele>507.4</ele>
        <time>2022-05-17T08:04:56Z</time>
      </trkpt>
      <trkpt lat="46.69565" lon="5.65457">
        <ele>506.8</ele>
        <time>2022-05-17T08:05:06Z</time>
      </trkpt>
      <trkpt lat="46.69559" lon="5.65459">
        <ele>506.8</ele>
        <time>2022-05-17T08:05:31Z</time>
      </trkpt>
      <trkpt lat="46.69555" lon="5.65457">
        <ele>507.6</ele>
        <time>2022-05-17T08:05:36Z</time>
      </trkpt>
      <trkpt lat="46.6955" lon="5.65455">
        <ele>508.6</ele>
        <time>2022-05-17T08:05:45Z</time>
      </trkpt>
      <trkpt lat="46.69554" lon="5.65451">
        <ele>508.3</ele>
        <time>2022-05-17T08:06:04Z</time>
      </trkpt>
      <trkpt lat="46.69557" lon="5.65457">
        <ele>509.2</ele>
        <time>2022-05-17T08:06:14Z</time>
      </trkpt>
      <trkpt lat="46.69555" lon="5.65449">
        <ele>509.3</ele>
        <time>2022-05-17T08:06:38Z</time>
      </trkpt>
      <trkpt lat="46.69555" lon="5.65442">
        <ele>507.2</ele>
        <time>2022-05-17T08:06:45Z</time>
      </trkpt>
      <trkpt lat="46.69555" lon="5.65435">
        <ele>505.2</ele>
        <time>2022-05-17T08:06:52Z</time>
      </trkpt>
      <trkpt lat="46.69555" lon="5.65428">
        <ele>504.3</ele>
        <time>2022-05-17T08:06:57Z</time>
      </trkpt>
      <trkpt lat="46.69554" lon="5.65421">
        <ele>503</ele>
        <time>2022-05-17T08:07:04Z</time>
      </trkpt>
      <trkpt lat="46.69556" lon="5.65414">
        <ele>502.6</ele>
        <time>2022-05-17T08:07:10Z</time>
      </trkpt>
      <trkpt lat="46.69559" lon="5.65408">
        <ele>502.4</ele>
        <time>2022-05-17T08:07:16Z</time>
      </trkpt>
      <trkpt lat="46.69562" lon="5.65402">
        <ele>502.3</ele>
        <time>2022-05-17T08:07:22Z</time>
      </trkpt>
      <trkpt lat="46.69563" lon="5.65395">
        <ele>502.3</ele>
        <time>2022-05-17T08:07:27Z</time>
      </trkpt>
      <trkpt lat="46.69565" lon="5.65389">
        <ele>502.5</ele>
        <time>2022-05-17T08:07:32Z</time>
      </trkpt>
      <trkpt lat="46.69569" lon="5.65385">
        <ele>502.7</ele>
        <time>2022-05-17T08:07:37Z</time>
      </trkpt>
      <trkpt lat="46.69571" lon="5.65378">
        <ele>503</ele>
        <time>2022-05-17T08:07:42Z</time>
      </trkpt>
      <trkpt lat="46.69572" lon="5.65371">
        <ele>502.6</ele>
        <time>2022-05-17T08:07:50Z</time>
      </trkpt>
      <trkpt lat="46.6957" lon="5.65364">
        <ele>502</ele>
        <time>2022-05-17T08:07:55Z</time>
      </trkpt>
      <trkpt lat="46.69567" lon="5.65357">
        <ele>501.8</ele>
        <time>2022-05-17T08:07:59Z</time>
      </trkpt>
      <trkpt lat="46.69568" lon="5.65351">
        <ele>500.2</ele>
        <time>2022-05-17T08:08:12Z</time>
      </trkpt>
      <trkpt lat="46.69568" lon="5.65344">
        <ele>499.1</ele>
        <time>2022-05-17T08:08:20Z</time>
      </trkpt>
      <trkpt lat="46.69571" lon="5.65338">
        <ele>498</ele>
        <time>2022-05-17T08:08:32Z</time>
      </trkpt>
      <trkpt lat="46.69572" lon="5.65332">
        <ele>498.3</ele>
        <time>2022-05-17T08:08:37Z</time>
      </trkpt>
      <trkpt lat="46.69573" lon="5.65325">
        <ele>499.1</ele>
        <time>2022-05-17T08:08:42Z</time>
      </trkpt>
      <trkpt lat="46.69572" lon="5.65318">
        <ele>500</ele>
        <time>2022-05-17T08:08:47Z</time>
      </trkpt>
      <trkpt lat="46.69572" lon="5.65311">
        <ele>501.2</ele>
        <time>2022-05-17T08:08:53Z</time>
      </trkpt>
      <trkpt lat="46.69573" lon="5.65303">
        <ele>502.1</ele>
        <time>2022-05-17T08:08:57Z</time>
      </trkpt>
      <trkpt lat="46.69577" lon="5.653">
        <ele>503</ele>
        <time>2022-05-17T08:09:02Z</time>
      </trkpt>
      <trkpt lat="46.69581" lon="5.65296">
        <ele>504.2</ele>
        <time>2022-05-17T08:09:07Z</time>
      </trkpt>
      <trkpt lat="46.69583" lon="5.65289">
        <ele>505.3</ele>
        <time>2022-05-17T08:09:11Z</time>
      </trkpt>
      <trkpt lat="46.69584" lon="5.65281">
        <ele>506.6</ele>
        <time>2022-05-17T08:09:15Z</time>
      </trkpt>
      <trkpt lat="46.69586" lon="5.65275">
        <ele>507.9</ele>
        <time>2022-05-17T08:09:18Z</time>
      </trkpt>
      <trkpt lat="46.69588" lon="5.65269">
        <ele>509.1</ele>
        <time>2022-05-17T08:09:21Z</time>
      </trkpt>
      <trkpt lat="46.6959" lon="5.65262">
        <ele>510.8</ele>
        <time>2022-05-17T08:09:25Z</time>
      </trkpt>
      <trkpt lat="46.69593" lon="5.65256">
        <ele>512.5</ele>
        <time>2022-05-17T08:09:31Z</time>
      </trkpt>
      <trkpt lat="46.69597" lon="5.65255">
        <ele>513.5</ele>
        <time>2022-05-17T08:09:38Z</time>
      </trkpt>
      <trkpt lat="46.69599" lon="5.65262">
        <ele>513.1</ele>
        <time>2022-05-17T08:09:46Z</time>
      </trkpt>
      <trkpt lat="46.69599" lon="5.65272">
        <ele>512.3</ele>
        <time>2022-05-17T08:10:01Z</time>
      </trkpt>
      <trkpt lat="46.69601" lon="5.65265">
        <ele>509.4</ele>
        <time>2022-05-17T08:10:22Z</time>
      </trkpt>
      <trkpt lat="46.69603" lon="5.65259">
        <ele>508.9</ele>
        <time>2022-05-17T08:10:25Z</time>
      </trkpt>
      <trkpt lat="46.69606" lon="5.65253">
        <ele>508.7</ele>
        <time>2022-05-17T08:10:28Z</time>
      </trkpt>
      <trkpt lat="46.69609" lon="5.65247">
        <ele>508.6</ele>
        <time>2022-05-17T08:10:31Z</time>
      </trkpt>
      <trkpt lat="46.69612" lon="5.65241">
        <ele>508.5</ele>
        <time>2022-05-17T08:10:36Z</time>
      </trkpt>
      <trkpt lat="46.69615" lon="5.65237">
        <ele>508.5</ele>
        <time>2022-05-17T08:10:40Z</time>
      </trkpt>
      <trkpt lat="46.6962" lon="5.65233">
        <ele>509.2</ele>
        <time>2022-05-17T08:10:44Z</time>
      </trkpt>
      <trkpt lat="46.69624" lon="5.65229">
        <ele>509.8</ele>
        <time>2022-05-17T08:10:48Z</time>
      </trkpt>
      <trkpt lat="46.69628" lon="5.65226">
        <ele>510.3</ele>
        <time>2022-05-17T08:10:53Z</time>
      </trkpt>
      <trkpt lat="46.69632" lon="5.65221">
        <ele>509</ele>
        <time>2022-05-17T08:11:02Z</time>
      </trkpt>
      <trkpt lat="46.69636" lon="5.65219">
        <ele>508.1</ele>
        <time>2022-05-17T08:11:06Z</time>
      </trkpt>
      <trkpt lat="46.69641" lon="5.65216">
        <ele>507.3</ele>
        <time>2022-05-17T08:11:10Z</time>
      </trkpt>
      <trkpt lat="46.69644" lon="5.65211">
        <ele>507</ele>
        <time>2022-05-17T08:11:14Z</time>
      </trkpt>
      <trkpt lat="46.69648" lon="5.65207">
        <ele>506.9</ele>
        <time>2022-05-17T08:11:19Z</time>
      </trkpt>
      <trkpt lat="46.69653" lon="5.65204">
        <ele>506.8</ele>
        <time>2022-05-17T08:11:24Z</time>
      </trkpt>
      <trkpt lat="46.69659" lon="5.65202">
        <ele>506.8</ele>
        <time>2022-05-17T08:11:28Z</time>
      </trkpt>
      <trkpt lat="46.69663" lon="5.652">
        <ele>507</ele>
        <time>2022-05-17T08:11:32Z</time>
      </trkpt>
      <trkpt lat="46.69668" lon="5.65196">
        <ele>507.5</ele>
        <time>2022-05-17T08:11:38Z</time>
      </trkpt>
      <trkpt lat="46.69673" lon="5.65196">
        <ele>507.8</ele>
        <time>2022-05-17T08:11:43Z</time>
      </trkpt>
      <trkpt lat="46.69677" lon="5.65192">
        <ele>508.2</ele>
        <time>2022-05-17T08:11:49Z</time>
      </trkpt>
      <trkpt lat="46.69682" lon="5.6519">
        <ele>508.9</ele>
        <time>2022-05-17T08:11:55Z</time>
      </trkpt>
      <trkpt lat="46.69687" lon="5.65188">
        <ele>509.5</ele>
        <time>2022-05-17T08:12:00Z</time>
      </trkpt>
      <trkpt lat="46.69692" lon="5.65187">
        <ele>509.9</ele>
        <time>2022-05-17T08:12:04Z</time>
      </trkpt>
      <trkpt lat="46.69696" lon="5.65186">
        <ele>509.9</ele>
        <time>2022-05-17T08:12:07Z</time>
      </trkpt>
      <trkpt lat="46.69702" lon="5.65185">
        <ele>509.7</ele>
        <time>2022-05-17T08:12:11Z</time>
      </trkpt>
      <trkpt lat="46.69707" lon="5.65183">
        <ele>509.4</ele>
        <time>2022-05-17T08:12:16Z</time>
      </trkpt>
      <trkpt lat="46.69711" lon="5.65181">
        <ele>509.6</ele>
        <time>2022-05-17T08:12:20Z</time>
      </trkpt>
      <trkpt lat="46.69716" lon="5.65179">
        <ele>509.9</ele>
        <time>2022-05-17T08:12:26Z</time>
      </trkpt>
      <trkpt lat="46.69721" lon="5.65178">
        <ele>509.8</ele>
        <time>2022-05-17T08:12:30Z</time>
      </trkpt>
      <trkpt lat="46.69726" lon="5.65178">
        <ele>509.6</ele>
        <time>2022-05-17T08:12:33Z</time>
      </trkpt>
      <trkpt lat="46.69732" lon="5.65178">
        <ele>509.4</ele>
        <time>2022-05-17T08:12:37Z</time>
      </trkpt>
      <trkpt lat="46.69736" lon="5.65177">
        <ele>509.4</ele>
        <time>2022-05-17T08:12:41Z</time>
      </trkpt>
      <trkpt lat="46.69741" lon="5.65178">
        <ele>509.4</ele>
        <time>2022-05-17T08:12:46Z</time>
      </trkpt>
      <trkpt lat="46.69745" lon="5.65175">
        <ele>509.1</ele>
        <time>2022-05-17T08:12:54Z</time>
      </trkpt>
      <trkpt lat="46.69749" lon="5.65172">
        <ele>508.9</ele>
        <time>2022-05-17T08:12:59Z</time>
      </trkpt>
      <trkpt lat="46.69754" lon="5.6517">
        <ele>509.2</ele>
        <time>2022-05-17T08:13:04Z</time>
      </trkpt>
      <trkpt lat="46.69758" lon="5.65166">
        <ele>509.8</ele>
        <time>2022-05-17T08:13:09Z</time>
      </trkpt>
      <trkpt lat="46.69761" lon="5.6516">
        <ele>510</ele>
        <time>2022-05-17T08:13:15Z</time>
      </trkpt>
      <trkpt lat="46.69764" lon="5.65156">
        <ele>510.2</ele>
        <time>2022-05-17T08:13:22Z</time>
      </trkpt>
      <trkpt lat="46.69769" lon="5.6515">
        <ele>510.5</ele>
        <time>2022-05-17T08:13:26Z</time>
      </trkpt>
      <trkpt lat="46.69774" lon="5.65147">
        <ele>510.9</ele>
        <time>2022-05-17T08:13:30Z</time>
      </trkpt>
      <trkpt lat="46.69778" lon="5.65143">
        <ele>511.3</ele>
        <time>2022-05-17T08:13:34Z</time>
      </trkpt>
      <trkpt lat="46.69782" lon="5.6514">
        <ele>511.7</ele>
        <time>2022-05-17T08:13:39Z</time>
      </trkpt>
      <trkpt lat="46.69787" lon="5.65137">
        <ele>511.4</ele>
        <time>2022-05-17T08:13:44Z</time>
      </trkpt>
      <trkpt lat="46.69792" lon="5.65134">
        <ele>511.1</ele>
        <time>2022-05-17T08:13:48Z</time>
      </trkpt>
      <trkpt lat="46.69797" lon="5.65133">
        <ele>511</ele>
        <time>2022-05-17T08:13:52Z</time>
      </trkpt>
      <trkpt lat="46.69802" lon="5.65131">
        <ele>510.8</ele>
        <time>2022-05-17T08:13:58Z</time>
      </trkpt>
      <trkpt lat="46.69807" lon="5.65129">
        <ele>510.5</ele>
        <time>2022-05-17T08:14:04Z</time>
      </trkpt>
      <trkpt lat="46.69811" lon="5.65127">
        <ele>510.4</ele>
        <time>2022-05-17T08:14:09Z</time>
      </trkpt>
      <trkpt lat="46.69816" lon="5.65127">
        <ele>510.3</ele>
        <time>2022-05-17T08:14:14Z</time>
      </trkpt>
      <trkpt lat="46.69821" lon="5.65127">
        <ele>509.7</ele>
        <time>2022-05-17T08:14:18Z</time>
      </trkpt>
      <trkpt lat="46.69826" lon="5.65125">
        <ele>508.8</ele>
        <time>2022-05-17T08:14:23Z</time>
      </trkpt>
      <trkpt lat="46.69829" lon="5.65119">
        <ele>508.3</ele>
        <time>2022-05-17T08:14:31Z</time>
      </trkpt>
      <trkpt lat="46.69832" lon="5.65113">
        <ele>507.9</ele>
        <time>2022-05-17T08:14:36Z</time>
      </trkpt>
      <trkpt lat="46.69835" lon="5.65108">
        <ele>508</ele>
        <time>2022-05-17T08:14:42Z</time>
      </trkpt>
      <trkpt lat="46.69838" lon="5.65103">
        <ele>507.9</ele>
        <time>2022-05-17T08:14:48Z</time>
      </trkpt>
      <trkpt lat="46.69843" lon="5.65099">
        <ele>507.9</ele>
        <time>2022-05-17T08:14:52Z</time>
      </trkpt>
      <trkpt lat="46.69847" lon="5.65096">
        <ele>507.8</ele>
        <time>2022-05-17T08:14:55Z</time>
      </trkpt>
      <trkpt lat="46.69852" lon="5.65093">
        <ele>507.9</ele>
        <time>2022-05-17T08:14:59Z</time>
      </trkpt>
      <trkpt lat="46.69856" lon="5.6509">
        <ele>508.3</ele>
        <time>2022-05-17T08:15:04Z</time>
      </trkpt>
      <trkpt lat="46.6986" lon="5.65087">
        <ele>508.6</ele>
        <time>2022-05-17T08:15:08Z</time>
      </trkpt>
      <trkpt lat="46.69864" lon="5.65082">
        <ele>508.9</ele>
        <time>2022-05-17T08:15:12Z</time>
      </trkpt>
      <trkpt lat="46.69867" lon="5.65076">
        <ele>509.6</ele>
        <time>2022-05-17T08:15:16Z</time>
      </trkpt>
      <trkpt lat="46.69868" lon="5.6507">
        <ele>510.5</ele>
        <time>2022-05-17T08:15:21Z</time>
      </trkpt>
      <trkpt lat="46.69872" lon="5.65064">
        <ele>511.4</ele>
        <time>2022-05-17T08:15:26Z</time>
      </trkpt>
      <trkpt lat="46.69876" lon="5.6506">
        <ele>512</ele>
        <time>2022-05-17T08:15:31Z</time>
      </trkpt>
      <trkpt lat="46.69879" lon="5.65054">
        <ele>512.4</ele>
        <time>2022-05-17T08:15:40Z</time>
      </trkpt>
      <trkpt lat="46.69882" lon="5.65048">
        <ele>512.8</ele>
        <time>2022-05-17T08:15:45Z</time>
      </trkpt>
      <trkpt lat="46.69885" lon="5.65043">
        <ele>513.8</ele>
        <time>2022-05-17T08:15:50Z</time>
      </trkpt>
      <trkpt lat="46.69888" lon="5.65036">
        <ele>514.8</ele>
        <time>2022-05-17T08:15:55Z</time>
      </trkpt>
      <trkpt lat="46.6989" lon="5.65029">
        <ele>515.8</ele>
        <time>2022-05-17T08:15:59Z</time>
      </trkpt>
      <trkpt lat="46.69893" lon="5.65024">
        <ele>517.3</ele>
        <time>2022-05-17T08:16:04Z</time>
      </trkpt>
      <trkpt lat="46.69896" lon="5.65018">
        <ele>518.4</ele>
        <time>2022-05-17T08:16:09Z</time>
      </trkpt>
      <trkpt lat="46.69899" lon="5.65013">
        <ele>518.7</ele>
        <time>2022-05-17T08:16:14Z</time>
      </trkpt>
      <trkpt lat="46.69901" lon="5.65007">
        <ele>518.5</ele>
        <time>2022-05-17T08:16:20Z</time>
      </trkpt>
      <trkpt lat="46.69903" lon="5.65">
        <ele>518</ele>
        <time>2022-05-17T08:16:26Z</time>
      </trkpt>
      <trkpt lat="46.69904" lon="5.64993">
        <ele>518.1</ele>
        <time>2022-05-17T08:16:31Z</time>
      </trkpt>
      <trkpt lat="46.69905" lon="5.64985">
        <ele>517.8</ele>
        <time>2022-05-17T08:16:38Z</time>
      </trkpt>
      <trkpt lat="46.69905" lon="5.64979">
        <ele>517.5</ele>
        <time>2022-05-17T08:16:42Z</time>
      </trkpt>
      <trkpt lat="46.69906" lon="5.64971">
        <ele>517.1</ele>
        <time>2022-05-17T08:16:47Z</time>
      </trkpt>
      <trkpt lat="46.69907" lon="5.64965">
        <ele>517</ele>
        <time>2022-05-17T08:16:51Z</time>
      </trkpt>
      <trkpt lat="46.69907" lon="5.64957">
        <ele>517</ele>
        <time>2022-05-17T08:16:56Z</time>
      </trkpt>
      <trkpt lat="46.69908" lon="5.6495">
        <ele>517.2</ele>
        <time>2022-05-17T08:17:00Z</time>
      </trkpt>
      <trkpt lat="46.69907" lon="5.64941">
        <ele>517.5</ele>
        <time>2022-05-17T08:17:04Z</time>
      </trkpt>
      <trkpt lat="46.69907" lon="5.64933">
        <ele>518.1</ele>
        <time>2022-05-17T08:17:08Z</time>
      </trkpt>
      <trkpt lat="46.69912" lon="5.64932">
        <ele>517</ele>
        <time>2022-05-17T08:17:17Z</time>
      </trkpt>
      <trkpt lat="46.69917" lon="5.64934">
        <ele>515.6</ele>
        <time>2022-05-17T08:17:22Z</time>
      </trkpt>
      <trkpt lat="46.69922" lon="5.64937">
        <ele>514.2</ele>
        <time>2022-05-17T08:17:27Z</time>
      </trkpt>
      <trkpt lat="46.69926" lon="5.64941">
        <ele>513</ele>
        <time>2022-05-17T08:17:33Z</time>
      </trkpt>
      <trkpt lat="46.6993" lon="5.64944">
        <ele>512.2</ele>
        <time>2022-05-17T08:17:38Z</time>
      </trkpt>
      <trkpt lat="46.69935" lon="5.64944">
        <ele>511.4</ele>
        <time>2022-05-17T08:17:42Z</time>
      </trkpt>
      <trkpt lat="46.69941" lon="5.64945">
        <ele>510.4</ele>
        <time>2022-05-17T08:17:46Z</time>
      </trkpt>
      <trkpt lat="46.69946" lon="5.64945">
        <ele>509.5</ele>
        <time>2022-05-17T08:17:50Z</time>
      </trkpt>
      <trkpt lat="46.69952" lon="5.64945">
        <ele>508.5</ele>
        <time>2022-05-17T08:17:55Z</time>
      </trkpt>
      <trkpt lat="46.69957" lon="5.64946">
        <ele>508</ele>
        <time>2022-05-17T08:17:59Z</time>
      </trkpt>
      <trkpt lat="46.69962" lon="5.64944">
        <ele>507.9</ele>
        <time>2022-05-17T08:18:04Z</time>
      </trkpt>
      <trkpt lat="46.69967" lon="5.64941">
        <ele>508</ele>
        <time>2022-05-17T08:18:08Z</time>
      </trkpt>
      <trkpt lat="46.69971" lon="5.64936">
        <ele>508.5</ele>
        <time>2022-05-17T08:18:14Z</time>
      </trkpt>
      <trkpt lat="46.69974" lon="5.6493">
        <ele>509.5</ele>
        <time>2022-05-17T08:18:19Z</time>
      </trkpt>
      <trkpt lat="46.69977" lon="5.64925">
        <ele>510.3</ele>
        <time>2022-05-17T08:18:25Z</time>
      </trkpt>
      <trkpt lat="46.69981" lon="5.6492">
        <ele>510.7</ele>
        <time>2022-05-17T08:18:32Z</time>
      </trkpt>
      <trkpt lat="46.69984" lon="5.64915">
        <ele>511.1</ele>
        <time>2022-05-17T08:18:41Z</time>
      </trkpt>
      <trkpt lat="46.69989" lon="5.6491">
        <ele>511.4</ele>
        <time>2022-05-17T08:18:45Z</time>
      </trkpt>
      <trkpt lat="46.69994" lon="5.64906">
        <ele>511.9</ele>
        <time>2022-05-17T08:18:49Z</time>
      </trkpt>
      <trkpt lat="46.69998" lon="5.64901">
        <ele>511.9</ele>
        <time>2022-05-17T08:18:54Z</time>
      </trkpt>
      <trkpt lat="46.70001" lon="5.64897">
        <ele>511.6</ele>
        <time>2022-05-17T08:18:59Z</time>
      </trkpt>
      <trkpt lat="46.70006" lon="5.64894">
        <ele>511</ele>
        <time>2022-05-17T08:19:06Z</time>
      </trkpt>
      <trkpt lat="46.70011" lon="5.64891">
        <ele>509.4</ele>
        <time>2022-05-17T08:19:12Z</time>
      </trkpt>
      <trkpt lat="46.70016" lon="5.64888">
        <ele>508.4</ele>
        <time>2022-05-17T08:19:16Z</time>
      </trkpt>
      <trkpt lat="46.70019" lon="5.64883">
        <ele>508</ele>
        <time>2022-05-17T08:19:20Z</time>
      </trkpt>
      <trkpt lat="46.70023" lon="5.64877">
        <ele>508.3</ele>
        <time>2022-05-17T08:19:25Z</time>
      </trkpt>
      <trkpt lat="46.70025" lon="5.64871">
        <ele>509</ele>
        <time>2022-05-17T08:19:30Z</time>
      </trkpt>
      <trkpt lat="46.70028" lon="5.64865">
        <ele>509.8</ele>
        <time>2022-05-17T08:19:35Z</time>
      </trkpt>
      <trkpt lat="46.7003" lon="5.64858">
        <ele>510</ele>
        <time>2022-05-17T08:19:41Z</time>
      </trkpt>
      <trkpt lat="46.70031" lon="5.64852">
        <ele>510.2</ele>
        <time>2022-05-17T08:19:46Z</time>
      </trkpt>
      <trkpt lat="46.70034" lon="5.64846">
        <ele>510</ele>
        <time>2022-05-17T08:19:52Z</time>
      </trkpt>
      <trkpt lat="46.70039" lon="5.64842">
        <ele>510.2</ele>
        <time>2022-05-17T08:19:56Z</time>
      </trkpt>
      <trkpt lat="46.70042" lon="5.64837">
        <ele>510.2</ele>
        <time>2022-05-17T08:20:02Z</time>
      </trkpt>
      <trkpt lat="46.70046" lon="5.64833">
        <ele>510</ele>
        <time>2022-05-17T08:20:08Z</time>
      </trkpt>
      <trkpt lat="46.7005" lon="5.64828">
        <ele>509.6</ele>
        <time>2022-05-17T08:20:13Z</time>
      </trkpt>
      <trkpt lat="46.70055" lon="5.64826">
        <ele>508.6</ele>
        <time>2022-05-17T08:20:17Z</time>
      </trkpt>
      <trkpt lat="46.70059" lon="5.64823">
        <ele>507.6</ele>
        <time>2022-05-17T08:20:22Z</time>
      </trkpt>
      <trkpt lat="46.70064" lon="5.6482">
        <ele>506.8</ele>
        <time>2022-05-17T08:20:28Z</time>
      </trkpt>
      <trkpt lat="46.70068" lon="5.64817">
        <ele>507.4</ele>
        <time>2022-05-17T08:20:33Z</time>
      </trkpt>
      <trkpt lat="46.70073" lon="5.64814">
        <ele>507.3</ele>
        <time>2022-05-17T08:20:40Z</time>
      </trkpt>
      <trkpt lat="46.70077" lon="5.64809">
        <ele>507.1</ele>
        <time>2022-05-17T08:20:47Z</time>
      </trkpt>
      <trkpt lat="46.7008" lon="5.64804">
        <ele>506.6</ele>
        <time>2022-05-17T08:20:55Z</time>
      </trkpt>
      <trkpt lat="46.70084" lon="5.648">
        <ele>505.5</ele>
        <time>2022-05-17T08:21:14Z</time>
      </trkpt>
      <trkpt lat="46.70087" lon="5.64796">
        <ele>505.9</ele>
        <time>2022-05-17T08:21:19Z</time>
      </trkpt>
      <trkpt lat="46.70082" lon="5.64798">
        <ele>509.2</ele>
        <time>2022-05-17T08:22:25Z</time>
      </trkpt>
      <trkpt lat="46.70078" lon="5.64794">
        <ele>508.7</ele>
        <time>2022-05-17T08:22:33Z</time>
      </trkpt>
      <trkpt lat="46.70073" lon="5.64794">
        <ele>508.2</ele>
        <time>2022-05-17T08:22:40Z</time>
      </trkpt>
      <trkpt lat="46.7007" lon="5.64791">
        <ele>507.7</ele>
        <time>2022-05-17T08:22:51Z</time>
      </trkpt>
      <trkpt lat="46.70065" lon="5.6479">
        <ele>507.3</ele>
        <time>2022-05-17T08:22:56Z</time>
      </trkpt>
      <trkpt lat="46.70059" lon="5.64788">
        <ele>506.7</ele>
        <time>2022-05-17T08:23:05Z</time>
      </trkpt>
      <trkpt lat="46.70055" lon="5.64786">
        <ele>506.6</ele>
        <time>2022-05-17T08:23:10Z</time>
      </trkpt>
      <trkpt lat="46.7005" lon="5.64782">
        <ele>506.7</ele>
        <time>2022-05-17T08:23:17Z</time>
      </trkpt>
      <trkpt lat="46.70046" lon="5.6478">
        <ele>506.7</ele>
        <time>2022-05-17T08:23:26Z</time>
      </trkpt>
      <trkpt lat="46.70041" lon="5.64779">
        <ele>506.3</ele>
        <time>2022-05-17T08:23:32Z</time>
      </trkpt>
      <trkpt lat="46.70037" lon="5.64776">
        <ele>506.2</ele>
        <time>2022-05-17T08:23:35Z</time>
      </trkpt>
      <trkpt lat="46.70032" lon="5.64773">
        <ele>506.1</ele>
        <time>2022-05-17T08:23:38Z</time>
      </trkpt>
      <trkpt lat="46.70028" lon="5.64768">
        <ele>506.1</ele>
        <time>2022-05-17T08:23:42Z</time>
      </trkpt>
      <trkpt lat="46.70025" lon="5.64762">
        <ele>506.2</ele>
        <time>2022-05-17T08:23:48Z</time>
      </trkpt>
      <trkpt lat="46.70023" lon="5.64756">
        <ele>507.7</ele>
        <time>2022-05-17T08:23:58Z</time>
      </trkpt>
      <trkpt lat="46.7002" lon="5.64749">
        <ele>509.4</ele>
        <time>2022-05-17T08:24:04Z</time>
      </trkpt>
      <trkpt lat="46.70019" lon="5.64742">
        <ele>510.9</ele>
        <time>2022-05-17T08:24:09Z</time>
      </trkpt>
      <trkpt lat="46.70019" lon="5.64735">
        <ele>512.8</ele>
        <time>2022-05-17T08:24:14Z</time>
      </trkpt>
      <trkpt lat="46.7002" lon="5.64728">
        <ele>514.5</ele>
        <time>2022-05-17T08:24:20Z</time>
      </trkpt>
      <trkpt lat="46.70018" lon="5.64722">
        <ele>515.9</ele>
        <time>2022-05-17T08:24:28Z</time>
      </trkpt>
      <trkpt lat="46.70015" lon="5.64717">
        <ele>516.2</ele>
        <time>2022-05-17T08:24:34Z</time>
      </trkpt>
      <trkpt lat="46.70012" lon="5.64713">
        <ele>515.9</ele>
        <time>2022-05-17T08:24:39Z</time>
      </trkpt>
      <trkpt lat="46.70008" lon="5.64708">
        <ele>515.3</ele>
        <time>2022-05-17T08:24:45Z</time>
      </trkpt>
      <trkpt lat="46.70004" lon="5.64703">
        <ele>514.7</ele>
        <time>2022-05-17T08:24:50Z</time>
      </trkpt>
      <trkpt lat="46.70001" lon="5.64698">
        <ele>514.3</ele>
        <time>2022-05-17T08:24:55Z</time>
      </trkpt>
      <trkpt lat="46.69997" lon="5.64693">
        <ele>513.8</ele>
        <time>2022-05-17T08:25:02Z</time>
      </trkpt>
      <trkpt lat="46.69993" lon="5.64689">
        <ele>513.7</ele>
        <time>2022-05-17T08:25:09Z</time>
      </trkpt>
      <trkpt lat="46.69989" lon="5.64687">
        <ele>513.4</ele>
        <time>2022-05-17T08:25:14Z</time>
      </trkpt>
      <trkpt lat="46.69985" lon="5.64682">
        <ele>512.9</ele>
        <time>2022-05-17T08:25:21Z</time>
      </trkpt>
      <trkpt lat="46.69981" lon="5.64677">
        <ele>512.5</ele>
        <time>2022-05-17T08:25:27Z</time>
      </trkpt>
      <trkpt lat="46.69977" lon="5.64673">
        <ele>512.7</ele>
        <time>2022-05-17T08:25:33Z</time>
      </trkpt>
      <trkpt lat="46.69975" lon="5.64666">
        <ele>514.7</ele>
        <time>2022-05-17T08:25:41Z</time>
      </trkpt>
      <trkpt lat="46.69977" lon="5.64659">
        <ele>516.2</ele>
        <time>2022-05-17T08:25:48Z</time>
      </trkpt>
      <trkpt lat="46.69972" lon="5.64658">
        <ele>517.5</ele>
        <time>2022-05-17T08:26:01Z</time>
      </trkpt>
      <trkpt lat="46.69967" lon="5.64656">
        <ele>517.8</ele>
        <time>2022-05-17T08:26:06Z</time>
      </trkpt>
      <trkpt lat="46.69963" lon="5.64653">
        <ele>518</ele>
        <time>2022-05-17T08:26:11Z</time>
      </trkpt>
      <trkpt lat="46.69958" lon="5.64652">
        <ele>518.4</ele>
        <time>2022-05-17T08:26:17Z</time>
      </trkpt>
      <trkpt lat="46.69952" lon="5.64652">
        <ele>518.3</ele>
        <time>2022-05-17T08:26:22Z</time>
      </trkpt>
      <trkpt lat="46.69948" lon="5.64653">
        <ele>517.8</ele>
        <time>2022-05-17T08:26:27Z</time>
      </trkpt>
      <trkpt lat="46.69943" lon="5.64653">
        <ele>516.5</ele>
        <time>2022-05-17T08:26:36Z</time>
      </trkpt>
      <trkpt lat="46.69938" lon="5.64652">
        <ele>516.1</ele>
        <time>2022-05-17T08:26:40Z</time>
      </trkpt>
      <trkpt lat="46.69932" lon="5.64651">
        <ele>515.8</ele>
        <time>2022-05-17T08:26:46Z</time>
      </trkpt>
      <trkpt lat="46.69927" lon="5.64649">
        <ele>515.8</ele>
        <time>2022-05-17T08:26:51Z</time>
      </trkpt>
      <trkpt lat="46.6992" lon="5.64647">
        <ele>515.5</ele>
        <time>2022-05-17T08:27:10Z</time>
      </trkpt>
      <trkpt lat="46.69915" lon="5.64645">
        <ele>515.6</ele>
        <time>2022-05-17T08:27:13Z</time>
      </trkpt>
      <trkpt lat="46.6991" lon="5.64644">
        <ele>515.8</ele>
        <time>2022-05-17T08:27:17Z</time>
      </trkpt>
      <trkpt lat="46.69906" lon="5.6464">
        <ele>516.6</ele>
        <time>2022-05-17T08:27:23Z</time>
      </trkpt>
      <trkpt lat="46.69902" lon="5.64638">
        <ele>517.2</ele>
        <time>2022-05-17T08:27:28Z</time>
      </trkpt>
      <trkpt lat="46.69898" lon="5.64634">
        <ele>517.8</ele>
        <time>2022-05-17T08:27:33Z</time>
      </trkpt>
      <trkpt lat="46.69894" lon="5.6463">
        <ele>518.3</ele>
        <time>2022-05-17T08:27:38Z</time>
      </trkpt>
      <trkpt lat="46.69891" lon="5.64625">
        <ele>519</ele>
        <time>2022-05-17T08:27:43Z</time>
      </trkpt>
      <trkpt lat="46.69886" lon="5.64622">
        <ele>519.2</ele>
        <time>2022-05-17T08:27:50Z</time>
      </trkpt>
      <trkpt lat="46.69881" lon="5.6462">
        <ele>519.2</ele>
        <time>2022-05-17T08:27:56Z</time>
      </trkpt>
      <trkpt lat="46.69877" lon="5.6462">
        <ele>518.9</ele>
        <time>2022-05-17T08:28:01Z</time>
      </trkpt>
      <trkpt lat="46.6987" lon="5.64622">
        <ele>519</ele>
        <time>2022-05-17T08:28:10Z</time>
      </trkpt>
      <trkpt lat="46.69865" lon="5.64623">
        <ele>519.1</ele>
        <time>2022-05-17T08:28:13Z</time>
      </trkpt>
      <trkpt lat="46.6986" lon="5.64624">
        <ele>519.3</ele>
        <time>2022-05-17T08:28:17Z</time>
      </trkpt>
      <trkpt lat="46.69856" lon="5.64626">
        <ele>519.3</ele>
        <time>2022-05-17T08:28:21Z</time>
      </trkpt>
      <trkpt lat="46.69851" lon="5.64626">
        <ele>519.3</ele>
        <time>2022-05-17T08:28:24Z</time>
      </trkpt>
      <trkpt lat="46.69846" lon="5.64627">
        <ele>519.4</ele>
        <time>2022-05-17T08:28:28Z</time>
      </trkpt>
      <trkpt lat="46.69841" lon="5.64628">
        <ele>519.2</ele>
        <time>2022-05-17T08:28:35Z</time>
      </trkpt>
      <trkpt lat="46.69836" lon="5.64629">
        <ele>519.6</ele>
        <time>2022-05-17T08:28:40Z</time>
      </trkpt>
      <trkpt lat="46.69831" lon="5.64629">
        <ele>520.2</ele>
        <time>2022-05-17T08:28:45Z</time>
      </trkpt>
      <trkpt lat="46.69826" lon="5.64626">
        <ele>520.7</ele>
        <time>2022-05-17T08:28:50Z</time>
      </trkpt>
      <trkpt lat="46.69822" lon="5.64622">
        <ele>520.9</ele>
        <time>2022-05-17T08:28:55Z</time>
      </trkpt>
      <trkpt lat="46.69818" lon="5.6462">
        <ele>520.7</ele>
        <time>2022-05-17T08:29:02Z</time>
      </trkpt>
      <trkpt lat="46.69813" lon="5.64618">
        <ele>520.4</ele>
        <time>2022-05-17T08:29:09Z</time>
      </trkpt>
      <trkpt lat="46.69808" lon="5.64618">
        <ele>519.9</ele>
        <time>2022-05-17T08:29:14Z</time>
      </trkpt>
      <trkpt lat="46.69803" lon="5.64616">
        <ele>519.8</ele>
        <time>2022-05-17T08:29:18Z</time>
      </trkpt>
      <trkpt lat="46.69798" lon="5.64614">
        <ele>519.8</ele>
        <time>2022-05-17T08:29:21Z</time>
      </trkpt>
      <trkpt lat="46.69793" lon="5.64614">
        <ele>520</ele>
        <time>2022-05-17T08:29:25Z</time>
      </trkpt>
      <trkpt lat="46.69788" lon="5.64613">
        <ele>520.1</ele>
        <time>2022-05-17T08:29:29Z</time>
      </trkpt>
      <trkpt lat="46.69784" lon="5.64611">
        <ele>520</ele>
        <time>2022-05-17T08:29:34Z</time>
      </trkpt>
      <trkpt lat="46.69779" lon="5.64611">
        <ele>519.8</ele>
        <time>2022-05-17T08:29:39Z</time>
      </trkpt>
      <trkpt lat="46.69774" lon="5.64611">
        <ele>519.2</ele>
        <time>2022-05-17T08:29:46Z</time>
      </trkpt>
      <trkpt lat="46.69769" lon="5.6461">
        <ele>519.2</ele>
        <time>2022-05-17T08:29:50Z</time>
      </trkpt>
      <trkpt lat="46.69764" lon="5.6461">
        <ele>519.1</ele>
        <time>2022-05-17T08:29:54Z</time>
      </trkpt>
      <trkpt lat="46.69759" lon="5.64611">
        <ele>519</ele>
        <time>2022-05-17T08:29:57Z</time>
      </trkpt>
      <trkpt lat="46.69753" lon="5.64611">
        <ele>518.9</ele>
        <time>2022-05-17T08:30:01Z</time>
      </trkpt>
      <trkpt lat="46.69748" lon="5.6461">
        <ele>518.7</ele>
        <time>2022-05-17T08:30:05Z</time>
      </trkpt>
      <trkpt lat="46.69744" lon="5.64611">
        <ele>518.2</ele>
        <time>2022-05-17T08:30:11Z</time>
      </trkpt>
      <trkpt lat="46.69739" lon="5.64609">
        <ele>517.8</ele>
        <time>2022-05-17T08:30:19Z</time>
      </trkpt>
      <trkpt lat="46.69736" lon="5.64604">
        <ele>517.8</ele>
        <time>2022-05-17T08:30:26Z</time>
      </trkpt>
      <trkpt lat="46.69731" lon="5.64603">
        <ele>517.6</ele>
        <time>2022-05-17T08:30:31Z</time>
      </trkpt>
      <trkpt lat="46.69725" lon="5.64604">
        <ele>517.5</ele>
        <time>2022-05-17T08:30:36Z</time>
      </trkpt>
      <trkpt lat="46.6972" lon="5.64604">
        <ele>517.5</ele>
        <time>2022-05-17T08:30:39Z</time>
      </trkpt>
      <trkpt lat="46.69715" lon="5.64603">
        <ele>517.6</ele>
        <time>2022-05-17T08:30:43Z</time>
      </trkpt>
      <trkpt lat="46.6971" lon="5.64601">
        <ele>517.5</ele>
        <time>2022-05-17T08:30:47Z</time>
      </trkpt>
      <trkpt lat="46.69705" lon="5.646">
        <ele>517</ele>
        <time>2022-05-17T08:30:52Z</time>
      </trkpt>
      <trkpt lat="46.69702" lon="5.64594">
        <ele>517.4</ele>
        <time>2022-05-17T08:30:58Z</time>
      </trkpt>
      <trkpt lat="46.69699" lon="5.64588">
        <ele>518.6</ele>
        <time>2022-05-17T08:31:04Z</time>
      </trkpt>
      <trkpt lat="46.69695" lon="5.64582">
        <ele>519.6</ele>
        <time>2022-05-17T08:31:09Z</time>
      </trkpt>
      <trkpt lat="46.69692" lon="5.64577">
        <ele>520.8</ele>
        <time>2022-05-17T08:31:15Z</time>
      </trkpt>
      <trkpt lat="46.69687" lon="5.64574">
        <ele>521.8</ele>
        <time>2022-05-17T08:31:22Z</time>
      </trkpt>
      <trkpt lat="46.69682" lon="5.64571">
        <ele>522.5</ele>
        <time>2022-05-17T08:31:28Z</time>
      </trkpt>
      <trkpt lat="46.69678" lon="5.64569">
        <ele>523.7</ele>
        <time>2022-05-17T08:31:35Z</time>
      </trkpt>
      <trkpt lat="46.69673" lon="5.6457">
        <ele>524.5</ele>
        <time>2022-05-17T08:31:40Z</time>
      </trkpt>
      <trkpt lat="46.69668" lon="5.64571">
        <ele>525</ele>
        <time>2022-05-17T08:31:44Z</time>
      </trkpt>
      <trkpt lat="46.69663" lon="5.64573">
        <ele>525.4</ele>
        <time>2022-05-17T08:31:48Z</time>
      </trkpt>
      <trkpt lat="46.69659" lon="5.64574">
        <ele>526</ele>
        <time>2022-05-17T08:31:52Z</time>
      </trkpt>
      <trkpt lat="46.69655" lon="5.64578">
        <ele>526.7</ele>
        <time>2022-05-17T08:31:57Z</time>
      </trkpt>
      <trkpt lat="46.6965" lon="5.64578">
        <ele>528</ele>
        <time>2022-05-17T08:32:07Z</time>
      </trkpt>
      <trkpt lat="46.69645" lon="5.64577">
        <ele>528.6</ele>
        <time>2022-05-17T08:32:12Z</time>
      </trkpt>
      <trkpt lat="46.69639" lon="5.64578">
        <ele>529.4</ele>
        <time>2022-05-17T08:32:17Z</time>
      </trkpt>
      <trkpt lat="46.69634" lon="5.64578">
        <ele>530.1</ele>
        <time>2022-05-17T08:32:22Z</time>
      </trkpt>
      <trkpt lat="46.69629" lon="5.64578">
        <ele>531.4</ele>
        <time>2022-05-17T08:32:30Z</time>
      </trkpt>
      <trkpt lat="46.69624" lon="5.64578">
        <ele>531.9</ele>
        <time>2022-05-17T08:32:38Z</time>
      </trkpt>
      <trkpt lat="46.69617" lon="5.64575">
        <ele>531.7</ele>
        <time>2022-05-17T08:32:41Z</time>
      </trkpt>
      <trkpt lat="46.69613" lon="5.64573">
        <ele>531.4</ele>
        <time>2022-05-17T08:32:44Z</time>
      </trkpt>
      <trkpt lat="46.69608" lon="5.6457">
        <ele>530.7</ele>
        <time>2022-05-17T08:32:48Z</time>
      </trkpt>
      <trkpt lat="46.69603" lon="5.64566">
        <ele>529.6</ele>
        <time>2022-05-17T08:32:53Z</time>
      </trkpt>
      <trkpt lat="46.69599" lon="5.64563">
        <ele>528.1</ele>
        <time>2022-05-17T08:33:00Z</time>
      </trkpt>
      <trkpt lat="46.69595" lon="5.64559">
        <ele>527.4</ele>
        <time>2022-05-17T08:33:04Z</time>
      </trkpt>
      <trkpt lat="46.69591" lon="5.64556">
        <ele>526.9</ele>
        <time>2022-05-17T08:33:08Z</time>
      </trkpt>
      <trkpt lat="46.69586" lon="5.64554">
        <ele>526.6</ele>
        <time>2022-05-17T08:33:12Z</time>
      </trkpt>
      <trkpt lat="46.6958" lon="5.64553">
        <ele>526.1</ele>
        <time>2022-05-17T08:33:16Z</time>
      </trkpt>
      <trkpt lat="46.69576" lon="5.64552">
        <ele>525.7</ele>
        <time>2022-05-17T08:33:21Z</time>
      </trkpt>
      <trkpt lat="46.69569" lon="5.64552">
        <ele>524.9</ele>
        <time>2022-05-17T08:33:32Z</time>
      </trkpt>
      <trkpt lat="46.69564" lon="5.64551">
        <ele>524.6</ele>
        <time>2022-05-17T08:33:35Z</time>
      </trkpt>
      <trkpt lat="46.6956" lon="5.64549">
        <ele>524.1</ele>
        <time>2022-05-17T08:33:39Z</time>
      </trkpt>
      <trkpt lat="46.69554" lon="5.64547">
        <ele>523.8</ele>
        <time>2022-05-17T08:33:43Z</time>
      </trkpt>
      <trkpt lat="46.69549" lon="5.64545">
        <ele>523.4</ele>
        <time>2022-05-17T08:33:46Z</time>
      </trkpt>
      <trkpt lat="46.69545" lon="5.64543">
        <ele>523</ele>
        <time>2022-05-17T08:33:49Z</time>
      </trkpt>
      <trkpt lat="46.6954" lon="5.64539">
        <ele>522.8</ele>
        <time>2022-05-17T08:33:53Z</time>
      </trkpt>
      <trkpt lat="46.69534" lon="5.64538">
        <ele>522.4</ele>
        <time>2022-05-17T08:34:00Z</time>
      </trkpt>
      <trkpt lat="46.69529" lon="5.64538">
        <ele>522.8</ele>
        <time>2022-05-17T08:34:08Z</time>
      </trkpt>
      <trkpt lat="46.69524" lon="5.64538">
        <ele>522.7</ele>
        <time>2022-05-17T08:34:12Z</time>
      </trkpt>
      <trkpt lat="46.69519" lon="5.6454">
        <ele>522.8</ele>
        <time>2022-05-17T08:34:16Z</time>
      </trkpt>
      <trkpt lat="46.69514" lon="5.64541">
        <ele>522.9</ele>
        <time>2022-05-17T08:34:22Z</time>
      </trkpt>
      <trkpt lat="46.6951" lon="5.6454">
        <ele>523.3</ele>
        <time>2022-05-17T08:34:26Z</time>
      </trkpt>
      <trkpt lat="46.69505" lon="5.64538">
        <ele>523.7</ele>
        <time>2022-05-17T08:34:30Z</time>
      </trkpt>
      <trkpt lat="46.69501" lon="5.64536">
        <ele>524.2</ele>
        <time>2022-05-17T08:34:36Z</time>
      </trkpt>
      <trkpt lat="46.69496" lon="5.64538">
        <ele>524.4</ele>
        <time>2022-05-17T08:34:42Z</time>
      </trkpt>
      <trkpt lat="46.6949" lon="5.6454">
        <ele>524.4</ele>
        <time>2022-05-17T08:34:48Z</time>
      </trkpt>
      <trkpt lat="46.69485" lon="5.64539">
        <ele>524.6</ele>
        <time>2022-05-17T08:34:51Z</time>
      </trkpt>
      <trkpt lat="46.69479" lon="5.64536">
        <ele>524.8</ele>
        <time>2022-05-17T08:34:54Z</time>
      </trkpt>
      <trkpt lat="46.69476" lon="5.64531">
        <ele>525</ele>
        <time>2022-05-17T08:34:57Z</time>
      </trkpt>
      <trkpt lat="46.69474" lon="5.64524">
        <ele>525.3</ele>
        <time>2022-05-17T08:35:02Z</time>
      </trkpt>
      <trkpt lat="46.69472" lon="5.64517">
        <ele>525.6</ele>
        <time>2022-05-17T08:35:07Z</time>
      </trkpt>
      <trkpt lat="46.69475" lon="5.6451">
        <ele>524.6</ele>
        <time>2022-05-17T08:35:12Z</time>
      </trkpt>
      <trkpt lat="46.69477" lon="5.64504">
        <ele>524</ele>
        <time>2022-05-17T08:35:16Z</time>
      </trkpt>
      <trkpt lat="46.69479" lon="5.64498">
        <ele>523.2</ele>
        <time>2022-05-17T08:35:25Z</time>
      </trkpt>
      <trkpt lat="46.69475" lon="5.64492">
        <ele>522.8</ele>
        <time>2022-05-17T08:35:30Z</time>
      </trkpt>
      <trkpt lat="46.69471" lon="5.64486">
        <ele>522.5</ele>
        <time>2022-05-17T08:35:39Z</time>
      </trkpt>
      <trkpt lat="46.69467" lon="5.6448">
        <ele>522.4</ele>
        <time>2022-05-17T08:35:43Z</time>
      </trkpt>
      <trkpt lat="46.69465" lon="5.64474">
        <ele>522.2</ele>
        <time>2022-05-17T08:35:48Z</time>
      </trkpt>
      <trkpt lat="46.69464" lon="5.64466">
        <ele>522.1</ele>
        <time>2022-05-17T08:35:53Z</time>
      </trkpt>
      <trkpt lat="46.69462" lon="5.64459">
        <ele>522</ele>
        <time>2022-05-17T08:35:59Z</time>
      </trkpt>
      <trkpt lat="46.69459" lon="5.64455">
        <ele>521.4</ele>
        <time>2022-05-17T08:36:05Z</time>
      </trkpt>
      <trkpt lat="46.69455" lon="5.6445">
        <ele>521.3</ele>
        <time>2022-05-17T08:36:09Z</time>
      </trkpt>
      <trkpt lat="46.69451" lon="5.64444">
        <ele>521.2</ele>
        <time>2022-05-17T08:36:14Z</time>
      </trkpt>
      <trkpt lat="46.69447" lon="5.6444">
        <ele>521.3</ele>
        <time>2022-05-17T08:36:18Z</time>
      </trkpt>
      <trkpt lat="46.69443" lon="5.64437">
        <ele>520.5</ele>
        <time>2022-05-17T08:36:24Z</time>
      </trkpt>
      <trkpt lat="46.69441" lon="5.64431">
        <ele>519.6</ele>
        <time>2022-05-17T08:36:30Z</time>
      </trkpt>
      <trkpt lat="46.69441" lon="5.64423">
        <ele>520</ele>
        <time>2022-05-17T08:36:34Z</time>
      </trkpt>
      <trkpt lat="46.6944" lon="5.64416">
        <ele>520.9</ele>
        <time>2022-05-17T08:36:39Z</time>
      </trkpt>
      <trkpt lat="46.69436" lon="5.64411">
        <ele>521.4</ele>
        <time>2022-05-17T08:36:44Z</time>
      </trkpt>
      <trkpt lat="46.69432" lon="5.64407">
        <ele>521.6</ele>
        <time>2022-05-17T08:36:49Z</time>
      </trkpt>
      <trkpt lat="46.69427" lon="5.64403">
        <ele>521.2</ele>
        <time>2022-05-17T08:36:54Z</time>
      </trkpt>
      <trkpt lat="46.69424" lon="5.64399">
        <ele>521</ele>
        <time>2022-05-17T08:37:00Z</time>
      </trkpt>
      <trkpt lat="46.6942" lon="5.64394">
        <ele>521.3</ele>
        <time>2022-05-17T08:37:05Z</time>
      </trkpt>
      <trkpt lat="46.69416" lon="5.64391">
        <ele>522.4</ele>
        <time>2022-05-17T08:37:09Z</time>
      </trkpt>
      <trkpt lat="46.69413" lon="5.64385">
        <ele>523.7</ele>
        <time>2022-05-17T08:37:14Z</time>
      </trkpt>
      <trkpt lat="46.69411" lon="5.64379">
        <ele>526</ele>
        <time>2022-05-17T08:37:24Z</time>
      </trkpt>
      <trkpt lat="46.6941" lon="5.64372">
        <ele>527</ele>
        <time>2022-05-17T08:37:29Z</time>
      </trkpt>
      <trkpt lat="46.69409" lon="5.64364">
        <ele>527</ele>
        <time>2022-05-17T08:37:38Z</time>
      </trkpt>
      <trkpt lat="46.69406" lon="5.64358">
        <ele>526.8</ele>
        <time>2022-05-17T08:37:42Z</time>
      </trkpt>
      <trkpt lat="46.69402" lon="5.64356">
        <ele>526.7</ele>
        <time>2022-05-17T08:37:48Z</time>
      </trkpt>
      <trkpt lat="46.69398" lon="5.64353">
        <ele>526.8</ele>
        <time>2022-05-17T08:37:52Z</time>
      </trkpt>
      <trkpt lat="46.69394" lon="5.64348">
        <ele>526.8</ele>
        <time>2022-05-17T08:37:56Z</time>
      </trkpt>
      <trkpt lat="46.69392" lon="5.64342">
        <ele>526</ele>
        <time>2022-05-17T08:38:02Z</time>
      </trkpt>
      <trkpt lat="46.6939" lon="5.64336">
        <ele>525.9</ele>
        <time>2022-05-17T08:38:06Z</time>
      </trkpt>
      <trkpt lat="46.69386" lon="5.64332">
        <ele>525.5</ele>
        <time>2022-05-17T08:38:14Z</time>
      </trkpt>
      <trkpt lat="46.69382" lon="5.64329">
        <ele>525.4</ele>
        <time>2022-05-17T08:38:18Z</time>
      </trkpt>
      <trkpt lat="46.69378" lon="5.64328">
        <ele>525</ele>
        <time>2022-05-17T08:38:22Z</time>
      </trkpt>
      <trkpt lat="46.69373" lon="5.64325">
        <ele>524.5</ele>
        <time>2022-05-17T08:38:26Z</time>
      </trkpt>
      <trkpt lat="46.69368" lon="5.64324">
        <ele>523.4</ele>
        <time>2022-05-17T08:38:32Z</time>
      </trkpt>
      <trkpt lat="46.69363" lon="5.64324">
        <ele>521.7</ele>
        <time>2022-05-17T08:38:40Z</time>
      </trkpt>
      <trkpt lat="46.69357" lon="5.64322">
        <ele>519.7</ele>
        <time>2022-05-17T08:38:56Z</time>
      </trkpt>
      <trkpt lat="46.6935" lon="5.6432">
        <ele>519</ele>
        <time>2022-05-17T08:38:59Z</time>
      </trkpt>
      <trkpt lat="46.69346" lon="5.64319">
        <ele>518</ele>
        <time>2022-05-17T08:39:02Z</time>
      </trkpt>
      <trkpt lat="46.69341" lon="5.64317">
        <ele>517.3</ele>
        <time>2022-05-17T08:39:05Z</time>
      </trkpt>
      <trkpt lat="46.69337" lon="5.64314">
        <ele>516.8</ele>
        <time>2022-05-17T08:39:09Z</time>
      </trkpt>
      <trkpt lat="46.69332" lon="5.64315">
        <ele>516.1</ele>
        <time>2022-05-17T08:39:14Z</time>
      </trkpt>
      <trkpt lat="46.69329" lon="5.64319">
        <ele>515.4</ele>
        <time>2022-05-17T08:39:21Z</time>
      </trkpt>
      <trkpt lat="46.69325" lon="5.64317">
        <ele>515.4</ele>
        <time>2022-05-17T08:39:31Z</time>
      </trkpt>
      <trkpt lat="46.69321" lon="5.64312">
        <ele>514.7</ele>
        <time>2022-05-17T08:39:35Z</time>
      </trkpt>
      <trkpt lat="46.69317" lon="5.64307">
        <ele>514.3</ele>
        <time>2022-05-17T08:39:39Z</time>
      </trkpt>
      <trkpt lat="46.69314" lon="5.64302">
        <ele>514.5</ele>
        <time>2022-05-17T08:39:42Z</time>
      </trkpt>
      <trkpt lat="46.69312" lon="5.64295">
        <ele>514.8</ele>
        <time>2022-05-17T08:39:47Z</time>
      </trkpt>
      <trkpt lat="46.6931" lon="5.64288">
        <ele>515.6</ele>
        <time>2022-05-17T08:39:54Z</time>
      </trkpt>
      <trkpt lat="46.69305" lon="5.64281">
        <ele>516.8</ele>
        <time>2022-05-17T08:40:03Z</time>
      </trkpt>
      <trkpt lat="46.693" lon="5.64278">
        <ele>517.4</ele>
        <time>2022-05-17T08:40:06Z</time>
      </trkpt>
      <trkpt lat="46.69296" lon="5.64274">
        <ele>518.1</ele>
        <time>2022-05-17T08:40:10Z</time>
      </trkpt>
      <trkpt lat="46.69292" lon="5.64269">
        <ele>518.7</ele>
        <time>2022-05-17T08:40:14Z</time>
      </trkpt>
      <trkpt lat="46.69287" lon="5.64266">
        <ele>519.6</ele>
        <time>2022-05-17T08:40:20Z</time>
      </trkpt>
      <trkpt lat="46.69283" lon="5.64263">
        <ele>519.7</ele>
        <time>2022-05-17T08:40:29Z</time>
      </trkpt>
      <trkpt lat="46.69277" lon="5.64261">
        <ele>519.8</ele>
        <time>2022-05-17T08:40:33Z</time>
      </trkpt>
      <trkpt lat="46.69274" lon="5.64257">
        <ele>519.6</ele>
        <time>2022-05-17T08:40:39Z</time>
      </trkpt>
      <trkpt lat="46.69272" lon="5.6425">
        <ele>519.4</ele>
        <time>2022-05-17T08:40:56Z</time>
      </trkpt>
      <trkpt lat="46.69269" lon="5.64245">
        <ele>518.9</ele>
        <time>2022-05-17T08:41:01Z</time>
      </trkpt>
      <trkpt lat="46.69263" lon="5.6424">
        <ele>518.1</ele>
        <time>2022-05-17T08:41:11Z</time>
      </trkpt>
      <trkpt lat="46.69258" lon="5.64237">
        <ele>517.9</ele>
        <time>2022-05-17T08:41:14Z</time>
      </trkpt>
      <trkpt lat="46.69254" lon="5.64234">
        <ele>517.6</ele>
        <time>2022-05-17T08:41:17Z</time>
      </trkpt>
      <trkpt lat="46.69249" lon="5.64231">
        <ele>517.4</ele>
        <time>2022-05-17T08:41:21Z</time>
      </trkpt>
      <trkpt lat="46.69245" lon="5.64228">
        <ele>517.7</ele>
        <time>2022-05-17T08:41:26Z</time>
      </trkpt>
      <trkpt lat="46.69239" lon="5.64228">
        <ele>518.6</ele>
        <time>2022-05-17T08:41:35Z</time>
      </trkpt>
      <trkpt lat="46.69234" lon="5.64225">
        <ele>519</ele>
        <time>2022-05-17T08:41:38Z</time>
      </trkpt>
      <trkpt lat="46.6923" lon="5.64222">
        <ele>519.9</ele>
        <time>2022-05-17T08:41:43Z</time>
      </trkpt>
      <trkpt lat="46.69225" lon="5.64218">
        <ele>521.2</ele>
        <time>2022-05-17T08:41:52Z</time>
      </trkpt>
      <trkpt lat="46.6922" lon="5.64217">
        <ele>521.8</ele>
        <time>2022-05-17T08:41:57Z</time>
      </trkpt>
      <trkpt lat="46.69217" lon="5.64208">
        <ele>524.1</ele>
        <time>2022-05-17T08:42:14Z</time>
      </trkpt>
      <trkpt lat="46.69213" lon="5.64202">
        <ele>524.8</ele>
        <time>2022-05-17T08:42:18Z</time>
      </trkpt>
      <trkpt lat="46.69209" lon="5.64198">
        <ele>525.8</ele>
        <time>2022-05-17T08:42:22Z</time>
      </trkpt>
      <trkpt lat="46.69205" lon="5.64194">
        <ele>526.7</ele>
        <time>2022-05-17T08:42:32Z</time>
      </trkpt>
      <trkpt lat="46.69201" lon="5.64191">
        <ele>527.5</ele>
        <time>2022-05-17T08:42:39Z</time>
      </trkpt>
      <trkpt lat="46.69196" lon="5.64191">
        <ele>527.6</ele>
        <time>2022-05-17T08:42:45Z</time>
      </trkpt>
      <trkpt lat="46.69192" lon="5.64188">
        <ele>527.5</ele>
        <time>2022-05-17T08:42:55Z</time>
      </trkpt>
      <trkpt lat="46.69188" lon="5.64184">
        <ele>528.1</ele>
        <time>2022-05-17T08:43:03Z</time>
      </trkpt>
      <trkpt lat="46.69184" lon="5.64181">
        <ele>528.7</ele>
        <time>2022-05-17T08:43:09Z</time>
      </trkpt>
      <trkpt lat="46.69179" lon="5.64177">
        <ele>528.8</ele>
        <time>2022-05-17T08:43:13Z</time>
      </trkpt>
      <trkpt lat="46.69174" lon="5.64174">
        <ele>528.6</ele>
        <time>2022-05-17T08:43:18Z</time>
      </trkpt>
      <trkpt lat="46.69169" lon="5.64174">
        <ele>528</ele>
        <time>2022-05-17T08:43:23Z</time>
      </trkpt>
      <trkpt lat="46.69164" lon="5.64174">
        <ele>527</ele>
        <time>2022-05-17T08:43:31Z</time>
      </trkpt>
      <trkpt lat="46.6916" lon="5.6417">
        <ele>526.1</ele>
        <time>2022-05-17T08:43:48Z</time>
      </trkpt>
      <trkpt lat="46.69155" lon="5.64168">
        <ele>528.2</ele>
        <time>2022-05-17T08:44:05Z</time>
      </trkpt>
      <trkpt lat="46.69151" lon="5.64165">
        <ele>526.5</ele>
        <time>2022-05-17T08:44:22Z</time>
      </trkpt>
      <trkpt lat="46.69146" lon="5.64163">
        <ele>525.4</ele>
        <time>2022-05-17T08:44:33Z</time>
      </trkpt>
      <trkpt lat="46.69142" lon="5.6416">
        <ele>525.3</ele>
        <time>2022-05-17T08:44:39Z</time>
      </trkpt>
      <trkpt lat="46.69137" lon="5.6416">
        <ele>525.1</ele>
        <time>2022-05-17T08:44:45Z</time>
      </trkpt>
      <trkpt lat="46.69132" lon="5.64159">
        <ele>524.9</ele>
        <time>2022-05-17T08:44:49Z</time>
      </trkpt>
      <trkpt lat="46.69128" lon="5.6416">
        <ele>524.4</ele>
        <time>2022-05-17T08:44:54Z</time>
      </trkpt>
      <trkpt lat="46.69122" lon="5.64158">
        <ele>524.1</ele>
        <time>2022-05-17T08:44:59Z</time>
      </trkpt>
      <trkpt lat="46.69117" lon="5.64158">
        <ele>524.2</ele>
        <time>2022-05-17T08:45:04Z</time>
      </trkpt>
      <trkpt lat="46.69113" lon="5.64158">
        <ele>524.2</ele>
        <time>2022-05-17T08:45:12Z</time>
      </trkpt>
      <trkpt lat="46.69108" lon="5.64158">
        <ele>523.4</ele>
        <time>2022-05-17T08:45:17Z</time>
      </trkpt>
      <trkpt lat="46.69103" lon="5.64156">
        <ele>522.8</ele>
        <time>2022-05-17T08:45:21Z</time>
      </trkpt>
      <trkpt lat="46.69099" lon="5.64154">
        <ele>522.3</ele>
        <time>2022-05-17T08:45:27Z</time>
      </trkpt>
      <trkpt lat="46.69094" lon="5.64155">
        <ele>522.1</ele>
        <time>2022-05-17T08:45:33Z</time>
      </trkpt>
      <trkpt lat="46.69089" lon="5.64157">
        <ele>522.5</ele>
        <time>2022-05-17T08:45:42Z</time>
      </trkpt>
      <trkpt lat="46.69084" lon="5.64155">
        <ele>522.8</ele>
        <time>2022-05-17T08:45:46Z</time>
      </trkpt>
      <trkpt lat="46.6908" lon="5.64152">
        <ele>522.9</ele>
        <time>2022-05-17T08:45:49Z</time>
      </trkpt>
      <trkpt lat="46.69075" lon="5.64149">
        <ele>522.5</ele>
        <time>2022-05-17T08:45:58Z</time>
      </trkpt>
      <trkpt lat="46.69072" lon="5.64144">
        <ele>522.4</ele>
        <time>2022-05-17T08:46:06Z</time>
      </trkpt>
      <trkpt lat="46.69065" lon="5.6414">
        <ele>523.1</ele>
        <time>2022-05-17T08:46:19Z</time>
      </trkpt>
      <trkpt lat="46.6906" lon="5.64138">
        <ele>523.4</ele>
        <time>2022-05-17T08:46:22Z</time>
      </trkpt>
      <trkpt lat="46.69055" lon="5.64138">
        <ele>523.6</ele>
        <time>2022-05-17T08:46:29Z</time>
      </trkpt>
      <trkpt lat="46.69055" lon="5.6413">
        <ele>522.7</ele>
        <time>2022-05-17T08:46:43Z</time>
      </trkpt>
      <trkpt lat="46.69055" lon="5.64123">
        <ele>523.1</ele>
        <time>2022-05-17T08:46:54Z</time>
      </trkpt>
      <trkpt lat="46.6905" lon="5.64126">
        <ele>523.5</ele>
        <time>2022-05-17T08:47:05Z</time>
      </trkpt>
      <trkpt lat="46.69047" lon="5.64116">
        <ele>519.4</ele>
        <time>2022-05-17T08:47:23Z</time>
      </trkpt>
      <trkpt lat="46.69043" lon="5.64091">
        <ele>524.7</ele>
        <time>2022-05-17T08:47:26Z</time>
      </trkpt>
      <trkpt lat="46.6904" lon="5.64097">
        <ele>524.9</ele>
        <time>2022-05-17T08:47:30Z</time>
      </trkpt>
      <trkpt lat="46.69046" lon="5.64116">
        <ele>518.9</ele>
        <time>2022-05-17T08:47:33Z</time>
      </trkpt>
      <trkpt lat="46.69049" lon="5.64123">
        <ele>516.1</ele>
        <time>2022-05-17T08:47:36Z</time>
      </trkpt>
      <trkpt lat="46.69054" lon="5.64122">
        <ele>521.7</ele>
        <time>2022-05-17T08:47:53Z</time>
      </trkpt>
      <trkpt lat="46.69057" lon="5.64132">
        <ele>527.5</ele>
        <time>2022-05-17T08:48:13Z</time>
      </trkpt>
      <trkpt lat="46.69053" lon="5.64133">
        <ele>527.4</ele>
        <time>2022-05-17T08:48:25Z</time>
      </trkpt>
      <trkpt lat="46.69051" lon="5.64126">
        <ele>525.1</ele>
        <time>2022-05-17T08:48:43Z</time>
      </trkpt>
      <trkpt lat="46.69046" lon="5.64122">
        <ele>524.4</ele>
        <time>2022-05-17T08:48:55Z</time>
      </trkpt>
      <trkpt lat="46.69044" lon="5.64114">
        <ele>525.3</ele>
        <time>2022-05-17T08:49:04Z</time>
      </trkpt>
      <trkpt lat="46.69044" lon="5.64108">
        <ele>524.8</ele>
        <time>2022-05-17T08:49:07Z</time>
      </trkpt>
      <trkpt lat="46.6904" lon="5.64113">
        <ele>523.9</ele>
        <time>2022-05-17T08:49:14Z</time>
      </trkpt>
      <trkpt lat="46.69036" lon="5.64119">
        <ele>523.7</ele>
        <time>2022-05-17T08:49:18Z</time>
      </trkpt>
      <trkpt lat="46.69032" lon="5.64122">
        <ele>523.9</ele>
        <time>2022-05-17T08:49:23Z</time>
      </trkpt>
      <trkpt lat="46.69028" lon="5.64126">
        <ele>523.4</ele>
        <time>2022-05-17T08:49:28Z</time>
      </trkpt>
      <trkpt lat="46.69023" lon="5.64127">
        <ele>523</ele>
        <time>2022-05-17T08:49:34Z</time>
      </trkpt>
      <trkpt lat="46.69018" lon="5.64127">
        <ele>522.8</ele>
        <time>2022-05-17T08:49:39Z</time>
      </trkpt>
      <trkpt lat="46.69013" lon="5.64126">
        <ele>522.9</ele>
        <time>2022-05-17T08:49:44Z</time>
      </trkpt>
      <trkpt lat="46.69008" lon="5.64124">
        <ele>523.2</ele>
        <time>2022-05-17T08:49:48Z</time>
      </trkpt>
      <trkpt lat="46.69004" lon="5.64121">
        <ele>523</ele>
        <time>2022-05-17T08:49:55Z</time>
      </trkpt>
      <trkpt lat="46.68999" lon="5.64117">
        <ele>522.6</ele>
        <time>2022-05-17T08:50:00Z</time>
      </trkpt>
      <trkpt lat="46.68995" lon="5.64114">
        <ele>522.2</ele>
        <time>2022-05-17T08:50:04Z</time>
      </trkpt>
      <trkpt lat="46.6899" lon="5.64114">
        <ele>521.7</ele>
        <time>2022-05-17T08:50:09Z</time>
      </trkpt>
      <trkpt lat="46.68985" lon="5.64118">
        <ele>521</ele>
        <time>2022-05-17T08:50:17Z</time>
      </trkpt>
      <trkpt lat="46.68981" lon="5.64117">
        <ele>521.2</ele>
        <time>2022-05-17T08:50:25Z</time>
      </trkpt>
      <trkpt lat="46.68975" lon="5.64115">
        <ele>520.8</ele>
        <time>2022-05-17T08:50:32Z</time>
      </trkpt>
      <trkpt lat="46.68971" lon="5.64114">
        <ele>520.2</ele>
        <time>2022-05-17T08:50:37Z</time>
      </trkpt>
      <trkpt lat="46.68967" lon="5.6411">
        <ele>519.1</ele>
        <time>2022-05-17T08:50:42Z</time>
      </trkpt>
      <trkpt lat="46.68962" lon="5.64106">
        <ele>517.9</ele>
        <time>2022-05-17T08:50:47Z</time>
      </trkpt>
      <trkpt lat="46.68957" lon="5.64102">
        <ele>516.7</ele>
        <time>2022-05-17T08:50:54Z</time>
      </trkpt>
      <trkpt lat="46.68954" lon="5.64098">
        <ele>516.6</ele>
        <time>2022-05-17T08:50:59Z</time>
      </trkpt>
      <trkpt lat="46.68949" lon="5.64095">
        <ele>517.3</ele>
        <time>2022-05-17T08:51:05Z</time>
      </trkpt>
      <trkpt lat="46.68945" lon="5.64091">
        <ele>518</ele>
        <time>2022-05-17T08:51:13Z</time>
      </trkpt>
      <trkpt lat="46.68941" lon="5.64086">
        <ele>511.4</ele>
        <time>2022-05-17T08:51:45Z</time>
      </trkpt>
      <trkpt lat="46.68937" lon="5.64082">
        <ele>512.1</ele>
        <time>2022-05-17T08:52:09Z</time>
      </trkpt>
      <trkpt lat="46.68932" lon="5.6408">
        <ele>511.7</ele>
        <time>2022-05-17T08:52:22Z</time>
      </trkpt>
      <trkpt lat="46.68928" lon="5.64077">
        <ele>511.1</ele>
        <time>2022-05-17T08:52:26Z</time>
      </trkpt>
      <trkpt lat="46.68922" lon="5.64079">
        <ele>508</ele>
        <time>2022-05-17T08:52:54Z</time>
      </trkpt>
      <trkpt lat="46.68918" lon="5.64077">
        <ele>508.4</ele>
        <time>2022-05-17T08:52:57Z</time>
      </trkpt>
      <trkpt lat="46.68913" lon="5.64076">
        <ele>509</ele>
        <time>2022-05-17T08:53:00Z</time>
      </trkpt>
      <trkpt lat="46.68908" lon="5.64076">
        <ele>509.5</ele>
        <time>2022-05-17T08:53:03Z</time>
      </trkpt>
      <trkpt lat="46.68903" lon="5.64076">
        <ele>510</ele>
        <time>2022-05-17T08:53:21Z</time>
      </trkpt>
      <trkpt lat="46.68907" lon="5.64072">
        <ele>509.2</ele>
        <time>2022-05-17T08:53:42Z</time>
      </trkpt>
      <trkpt lat="46.68902" lon="5.64072">
        <ele>513</ele>
        <time>2022-05-17T08:54:40Z</time>
      </trkpt>
      <trkpt lat="46.68897" lon="5.64074">
        <ele>512.7</ele>
        <time>2022-05-17T08:54:45Z</time>
      </trkpt>
      <trkpt lat="46.68899" lon="5.6408">
        <ele>511.9</ele>
        <time>2022-05-17T08:54:50Z</time>
      </trkpt>
      <trkpt lat="46.68902" lon="5.64085">
        <ele>511.4</ele>
        <time>2022-05-17T08:54:53Z</time>
      </trkpt>
      <trkpt lat="46.68904" lon="5.64093">
        <ele>510.2</ele>
        <time>2022-05-17T08:54:58Z</time>
      </trkpt>
      <trkpt lat="46.68903" lon="5.64099">
        <ele>509.5</ele>
        <time>2022-05-17T08:55:02Z</time>
      </trkpt>
      <trkpt lat="46.68902" lon="5.64107">
        <ele>509.5</ele>
        <time>2022-05-17T08:55:06Z</time>
      </trkpt>
      <trkpt lat="46.68902" lon="5.64114">
        <ele>509.7</ele>
        <time>2022-05-17T08:55:10Z</time>
      </trkpt>
      <trkpt lat="46.68899" lon="5.64121">
        <ele>509.9</ele>
        <time>2022-05-17T08:55:14Z</time>
      </trkpt>
      <trkpt lat="46.68896" lon="5.64127">
        <ele>509.8</ele>
        <time>2022-05-17T08:55:18Z</time>
      </trkpt>
      <trkpt lat="46.68895" lon="5.64135">
        <ele>508.8</ele>
        <time>2022-05-17T08:55:24Z</time>
      </trkpt>
      <trkpt lat="46.68894" lon="5.64142">
        <ele>508</ele>
        <time>2022-05-17T08:55:28Z</time>
      </trkpt>
      <trkpt lat="46.68894" lon="5.64149">
        <ele>507.2</ele>
        <time>2022-05-17T08:55:33Z</time>
      </trkpt>
      <trkpt lat="46.68891" lon="5.64156">
        <ele>506.2</ele>
        <time>2022-05-17T08:55:39Z</time>
      </trkpt>
      <trkpt lat="46.68889" lon="5.64163">
        <ele>505.4</ele>
        <time>2022-05-17T08:55:44Z</time>
      </trkpt>
      <trkpt lat="46.68891" lon="5.64169">
        <ele>504.4</ele>
        <time>2022-05-17T08:55:48Z</time>
      </trkpt>
      <trkpt lat="46.68893" lon="5.64175">
        <ele>503.8</ele>
        <time>2022-05-17T08:55:53Z</time>
      </trkpt>
      <trkpt lat="46.68896" lon="5.6418">
        <ele>504.6</ele>
        <time>2022-05-17T08:56:00Z</time>
      </trkpt>
      <trkpt lat="46.68891" lon="5.64182">
        <ele>509.4</ele>
        <time>2022-05-17T08:56:20Z</time>
      </trkpt>
      <trkpt lat="46.6889" lon="5.64189">
        <ele>509.3</ele>
        <time>2022-05-17T08:56:26Z</time>
      </trkpt>
      <trkpt lat="46.68891" lon="5.64196">
        <ele>509.4</ele>
        <time>2022-05-17T08:56:32Z</time>
      </trkpt>
      <trkpt lat="46.68893" lon="5.64202">
        <ele>508.8</ele>
        <time>2022-05-17T08:56:40Z</time>
      </trkpt>
      <trkpt lat="46.68894" lon="5.6421">
        <ele>508.2</ele>
        <time>2022-05-17T08:56:48Z</time>
      </trkpt>
      <trkpt lat="46.68895" lon="5.64217">
        <ele>507.9</ele>
        <time>2022-05-17T08:56:52Z</time>
      </trkpt>
      <trkpt lat="46.68899" lon="5.64224">
        <ele>507.7</ele>
        <time>2022-05-17T08:56:56Z</time>
      </trkpt>
      <trkpt lat="46.68903" lon="5.64229">
        <ele>507.6</ele>
        <time>2022-05-17T08:56:59Z</time>
      </trkpt>
      <trkpt lat="46.68904" lon="5.64236">
        <ele>507.5</ele>
        <time>2022-05-17T08:57:03Z</time>
      </trkpt>
      <trkpt lat="46.689" lon="5.64241">
        <ele>507.9</ele>
        <time>2022-05-17T08:57:07Z</time>
      </trkpt>
      <trkpt lat="46.68901" lon="5.64249">
        <ele>508</ele>
        <time>2022-05-17T08:57:18Z</time>
      </trkpt>
      <trkpt lat="46.68897" lon="5.64255">
        <ele>507.1</ele>
        <time>2022-05-17T08:57:24Z</time>
      </trkpt>
      <trkpt lat="46.68898" lon="5.64262">
        <ele>505.4</ele>
        <time>2022-05-17T08:57:30Z</time>
      </trkpt>
      <trkpt lat="46.68899" lon="5.64269">
        <ele>504.9</ele>
        <time>2022-05-17T08:57:35Z</time>
      </trkpt>
      <trkpt lat="46.68899" lon="5.64277">
        <ele>506.4</ele>
        <time>2022-05-17T08:57:43Z</time>
      </trkpt>
      <trkpt lat="46.68894" lon="5.6428">
        <ele>507.9</ele>
        <time>2022-05-17T08:57:48Z</time>
      </trkpt>
      <trkpt lat="46.6889" lon="5.64277">
        <ele>508.3</ele>
        <time>2022-05-17T08:57:51Z</time>
      </trkpt>
      <trkpt lat="46.68886" lon="5.64273">
        <ele>508.9</ele>
        <time>2022-05-17T08:57:54Z</time>
      </trkpt>
      <trkpt lat="46.68882" lon="5.64269">
        <ele>509.4</ele>
        <time>2022-05-17T08:57:57Z</time>
      </trkpt>
      <trkpt lat="46.68877" lon="5.64266">
        <ele>510</ele>
        <time>2022-05-17T08:58:01Z</time>
      </trkpt>
      <trkpt lat="46.68873" lon="5.64265">
        <ele>510.4</ele>
        <time>2022-05-17T08:58:08Z</time>
      </trkpt>
      <trkpt lat="46.68869" lon="5.6426">
        <ele>510.6</ele>
        <time>2022-05-17T08:58:15Z</time>
      </trkpt>
      <trkpt lat="46.68865" lon="5.64255">
        <ele>510.7</ele>
        <time>2022-05-17T08:58:20Z</time>
      </trkpt>
      <trkpt lat="46.6886" lon="5.64251">
        <ele>510.9</ele>
        <time>2022-05-17T08:58:25Z</time>
      </trkpt>
      <trkpt lat="46.68855" lon="5.64249">
        <ele>511.2</ele>
        <time>2022-05-17T08:58:30Z</time>
      </trkpt>
      <trkpt lat="46.6885" lon="5.64249">
        <ele>512</ele>
        <time>2022-05-17T08:58:38Z</time>
      </trkpt>
      <trkpt lat="46.68846" lon="5.6425">
        <ele>510.8</ele>
        <time>2022-05-17T08:59:06Z</time>
      </trkpt>
      <trkpt lat="46.68843" lon="5.64244">
        <ele>509</ele>
        <time>2022-05-17T08:59:26Z</time>
      </trkpt>
      <trkpt lat="46.68838" lon="5.64245">
        <ele>508</ele>
        <time>2022-05-17T08:59:32Z</time>
      </trkpt>
      <trkpt lat="46.68834" lon="5.64241">
        <ele>507.1</ele>
        <time>2022-05-17T08:59:39Z</time>
      </trkpt>
      <trkpt lat="46.68833" lon="5.64234">
        <ele>506.7</ele>
        <time>2022-05-17T08:59:44Z</time>
      </trkpt>
      <trkpt lat="46.68832" lon="5.64226">
        <ele>506.6</ele>
        <time>2022-05-17T08:59:50Z</time>
      </trkpt>
      <trkpt lat="46.68832" lon="5.64219">
        <ele>506.7</ele>
        <time>2022-05-17T08:59:54Z</time>
      </trkpt>
      <trkpt lat="46.68833" lon="5.64212">
        <ele>506.6</ele>
        <time>2022-05-17T09:00:00Z</time>
      </trkpt>
      <trkpt lat="46.68832" lon="5.64205">
        <ele>506.9</ele>
        <time>2022-05-17T09:00:04Z</time>
      </trkpt>
      <trkpt lat="46.68831" lon="5.64198">
        <ele>507.1</ele>
        <time>2022-05-17T09:00:08Z</time>
      </trkpt>
      <trkpt lat="46.6883" lon="5.6419">
        <ele>507.8</ele>
        <time>2022-05-17T09:00:12Z</time>
      </trkpt>
      <trkpt lat="46.68829" lon="5.64182">
        <ele>508.7</ele>
        <time>2022-05-17T09:00:16Z</time>
      </trkpt>
      <trkpt lat="46.68828" lon="5.64175">
        <ele>509.9</ele>
        <time>2022-05-17T09:00:21Z</time>
      </trkpt>
      <trkpt lat="46.68827" lon="5.64168">
        <ele>510.8</ele>
        <time>2022-05-17T09:00:26Z</time>
      </trkpt>
      <trkpt lat="46.68826" lon="5.64161">
        <ele>510.4</ele>
        <time>2022-05-17T09:00:31Z</time>
      </trkpt>
      <trkpt lat="46.68824" lon="5.64154">
        <ele>509.8</ele>
        <time>2022-05-17T09:00:36Z</time>
      </trkpt>
      <trkpt lat="46.68822" lon="5.64147">
        <ele>509.3</ele>
        <time>2022-05-17T09:00:41Z</time>
      </trkpt>
      <trkpt lat="46.6882" lon="5.64141">
        <ele>509.1</ele>
        <time>2022-05-17T09:00:45Z</time>
      </trkpt>
      <trkpt lat="46.6882" lon="5.64134">
        <ele>509</ele>
        <time>2022-05-17T09:00:49Z</time>
      </trkpt>
      <trkpt lat="46.6882" lon="5.64128">
        <ele>508.9</ele>
        <time>2022-05-17T09:00:55Z</time>
      </trkpt>
      <trkpt lat="46.68825" lon="5.64125">
        <ele>508.7</ele>
        <time>2022-05-17T09:01:02Z</time>
      </trkpt>
      <trkpt lat="46.68828" lon="5.64121">
        <ele>508.3</ele>
        <time>2022-05-17T09:01:06Z</time>
      </trkpt>
      <trkpt lat="46.68832" lon="5.64117">
        <ele>507.8</ele>
        <time>2022-05-17T09:01:12Z</time>
      </trkpt>
      <trkpt lat="46.68837" lon="5.64115">
        <ele>507</ele>
        <time>2022-05-17T09:01:17Z</time>
      </trkpt>
      <trkpt lat="46.68839" lon="5.64108">
        <ele>506.4</ele>
        <time>2022-05-17T09:01:23Z</time>
      </trkpt>
      <trkpt lat="46.68841" lon="5.64101">
        <ele>506.5</ele>
        <time>2022-05-17T09:01:28Z</time>
      </trkpt>
      <trkpt lat="46.68843" lon="5.64094">
        <ele>507.5</ele>
        <time>2022-05-17T09:01:34Z</time>
      </trkpt>
      <trkpt lat="46.68842" lon="5.64087">
        <ele>508.5</ele>
        <time>2022-05-17T09:01:37Z</time>
      </trkpt>
      <trkpt lat="46.68842" lon="5.64081">
        <ele>509.8</ele>
        <time>2022-05-17T09:01:41Z</time>
      </trkpt>
      <trkpt lat="46.68841" lon="5.64073">
        <ele>511.1</ele>
        <time>2022-05-17T09:01:45Z</time>
      </trkpt>
      <trkpt lat="46.68842" lon="5.64067">
        <ele>512.6</ele>
        <time>2022-05-17T09:01:53Z</time>
      </trkpt>
      <trkpt lat="46.6884" lon="5.64059">
        <ele>512.7</ele>
        <time>2022-05-17T09:02:01Z</time>
      </trkpt>
      <trkpt lat="46.68845" lon="5.64061">
        <ele>511.2</ele>
        <time>2022-05-17T09:02:22Z</time>
      </trkpt>
      <trkpt lat="46.6885" lon="5.64065">
        <ele>510</ele>
        <time>2022-05-17T09:02:29Z</time>
      </trkpt>
      <trkpt lat="46.68845" lon="5.64063">
        <ele>508.9</ele>
        <time>2022-05-17T09:02:41Z</time>
      </trkpt>
      <trkpt lat="46.68843" lon="5.64056">
        <ele>508.8</ele>
        <time>2022-05-17T09:02:46Z</time>
      </trkpt>
      <trkpt lat="46.68841" lon="5.6405">
        <ele>508.9</ele>
        <time>2022-05-17T09:02:50Z</time>
      </trkpt>
      <trkpt lat="46.6884" lon="5.64043">
        <ele>508.3</ele>
        <time>2022-05-17T09:02:56Z</time>
      </trkpt>
      <trkpt lat="46.68837" lon="5.64038">
        <ele>506.7</ele>
        <time>2022-05-17T09:03:05Z</time>
      </trkpt>
      <trkpt lat="46.68836" lon="5.64031">
        <ele>505.6</ele>
        <time>2022-05-17T09:03:11Z</time>
      </trkpt>
      <trkpt lat="46.68837" lon="5.64023">
        <ele>504.7</ele>
        <time>2022-05-17T09:03:16Z</time>
      </trkpt>
      <trkpt lat="46.68839" lon="5.64017">
        <ele>504.3</ele>
        <time>2022-05-17T09:03:20Z</time>
      </trkpt>
      <trkpt lat="46.6884" lon="5.6401">
        <ele>504.9</ele>
        <time>2022-05-17T09:03:33Z</time>
      </trkpt>
      <trkpt lat="46.68843" lon="5.64006">
        <ele>505.3</ele>
        <time>2022-05-17T09:03:38Z</time>
      </trkpt>
      <trkpt lat="46.68848" lon="5.64004">
        <ele>505.5</ele>
        <time>2022-05-17T09:03:42Z</time>
      </trkpt>
      <trkpt lat="46.68843" lon="5.64">
        <ele>505.8</ele>
        <time>2022-05-17T09:03:49Z</time>
      </trkpt>
      <trkpt lat="46.68844" lon="5.64007">
        <ele>505.1</ele>
        <time>2022-05-17T09:04:30Z</time>
      </trkpt>
      <trkpt lat="46.68841" lon="5.64012">
        <ele>504.2</ele>
        <time>2022-05-17T09:04:35Z</time>
      </trkpt>
      <trkpt lat="46.68836" lon="5.64011">
        <ele>502.9</ele>
        <time>2022-05-17T09:04:41Z</time>
      </trkpt>
      <trkpt lat="46.68833" lon="5.64005">
        <ele>501.8</ele>
        <time>2022-05-17T09:04:46Z</time>
      </trkpt>
      <trkpt lat="46.68833" lon="5.63998">
        <ele>500.5</ele>
        <time>2022-05-17T09:04:53Z</time>
      </trkpt>
      <trkpt lat="46.68833" lon="5.63991">
        <ele>500.1</ele>
        <time>2022-05-17T09:04:59Z</time>
      </trkpt>
      <trkpt lat="46.68834" lon="5.63985">
        <ele>500.6</ele>
        <time>2022-05-17T09:05:14Z</time>
      </trkpt>
      <trkpt lat="46.68836" lon="5.63979">
        <ele>500</ele>
        <time>2022-05-17T09:05:41Z</time>
      </trkpt>
      <trkpt lat="46.68831" lon="5.63981">
        <ele>499.3</ele>
        <time>2022-05-17T09:05:56Z</time>
      </trkpt>
      <trkpt lat="46.68827" lon="5.63984">
        <ele>499.2</ele>
        <time>2022-05-17T09:06:00Z</time>
      </trkpt>
      <trkpt lat="46.68822" lon="5.63986">
        <ele>499.5</ele>
        <time>2022-05-17T09:06:05Z</time>
      </trkpt>
      <trkpt lat="46.68817" lon="5.63988">
        <ele>500</ele>
        <time>2022-05-17T09:06:09Z</time>
      </trkpt>
      <trkpt lat="46.68812" lon="5.63989">
        <ele>500.6</ele>
        <time>2022-05-17T09:06:13Z</time>
      </trkpt>
      <trkpt lat="46.68807" lon="5.63986">
        <ele>502</ele>
        <time>2022-05-17T09:06:19Z</time>
      </trkpt>
      <trkpt lat="46.68802" lon="5.63984">
        <ele>503</ele>
        <time>2022-05-17T09:06:25Z</time>
      </trkpt>
      <trkpt lat="46.68797" lon="5.63985">
        <ele>503.4</ele>
        <time>2022-05-17T09:06:30Z</time>
      </trkpt>
      <trkpt lat="46.68793" lon="5.63979">
        <ele>504.2</ele>
        <time>2022-05-17T09:06:35Z</time>
      </trkpt>
      <trkpt lat="46.68792" lon="5.63972">
        <ele>504.9</ele>
        <time>2022-05-17T09:06:40Z</time>
      </trkpt>
      <trkpt lat="46.68794" lon="5.63965">
        <ele>505.4</ele>
        <time>2022-05-17T09:06:45Z</time>
      </trkpt>
      <trkpt lat="46.68793" lon="5.63958">
        <ele>506</ele>
        <time>2022-05-17T09:06:49Z</time>
      </trkpt>
      <trkpt lat="46.68791" lon="5.63951">
        <ele>506.9</ele>
        <time>2022-05-17T09:06:52Z</time>
      </trkpt>
      <trkpt lat="46.68791" lon="5.63945">
        <ele>508.1</ele>
        <time>2022-05-17T09:06:56Z</time>
      </trkpt>
      <trkpt lat="46.68792" lon="5.63938">
        <ele>510</ele>
        <time>2022-05-17T09:07:01Z</time>
      </trkpt>
      <trkpt lat="46.68794" lon="5.63932">
        <ele>511.7</ele>
        <time>2022-05-17T09:07:07Z</time>
      </trkpt>
      <trkpt lat="46.68797" lon="5.63926">
        <ele>513</ele>
        <time>2022-05-17T09:07:13Z</time>
      </trkpt>
      <trkpt lat="46.68798" lon="5.63919">
        <ele>513.8</ele>
        <time>2022-05-17T09:07:18Z</time>
      </trkpt>
      <trkpt lat="46.68801" lon="5.63912">
        <ele>514.4</ele>
        <time>2022-05-17T09:07:22Z</time>
      </trkpt>
      <trkpt lat="46.68805" lon="5.63907">
        <ele>515.1</ele>
        <time>2022-05-17T09:07:26Z</time>
      </trkpt>
      <trkpt lat="46.68807" lon="5.63901">
        <ele>515.6</ele>
        <time>2022-05-17T09:07:31Z</time>
      </trkpt>
      <trkpt lat="46.68809" lon="5.63894">
        <ele>515.6</ele>
        <time>2022-05-17T09:07:36Z</time>
      </trkpt>
      <trkpt lat="46.6881" lon="5.63888">
        <ele>515.7</ele>
        <time>2022-05-17T09:07:40Z</time>
      </trkpt>
      <trkpt lat="46.68809" lon="5.63881">
        <ele>516</ele>
        <time>2022-05-17T09:07:44Z</time>
      </trkpt>
      <trkpt lat="46.68809" lon="5.63873">
        <ele>516.6</ele>
        <time>2022-05-17T09:07:49Z</time>
      </trkpt>
      <trkpt lat="46.68811" lon="5.63867">
        <ele>516.7</ele>
        <time>2022-05-17T09:07:55Z</time>
      </trkpt>
      <trkpt lat="46.6881" lon="5.6386">
        <ele>515.8</ele>
        <time>2022-05-17T09:08:00Z</time>
      </trkpt>
      <trkpt lat="46.68812" lon="5.63854">
        <ele>514.8</ele>
        <time>2022-05-17T09:08:07Z</time>
      </trkpt>
      <trkpt lat="46.68812" lon="5.63847">
        <ele>509.9</ele>
        <time>2022-05-17T09:09:13Z</time>
      </trkpt>
      <trkpt lat="46.68811" lon="5.63839">
        <ele>509.8</ele>
        <time>2022-05-17T09:09:20Z</time>
      </trkpt>
      <trkpt lat="46.68812" lon="5.63832">
        <ele>510.2</ele>
        <time>2022-05-17T09:09:27Z</time>
      </trkpt>
      <trkpt lat="46.68814" lon="5.63825">
        <ele>510.3</ele>
        <time>2022-05-17T09:09:32Z</time>
      </trkpt>
      <trkpt lat="46.68814" lon="5.63818">
        <ele>510.4</ele>
        <time>2022-05-17T09:09:36Z</time>
      </trkpt>
      <trkpt lat="46.68815" lon="5.63812">
        <ele>509.6</ele>
        <time>2022-05-17T09:09:41Z</time>
      </trkpt>
      <trkpt lat="46.68814" lon="5.63804">
        <ele>508.7</ele>
        <time>2022-05-17T09:09:46Z</time>
      </trkpt>
      <trkpt lat="46.68813" lon="5.63798">
        <ele>508.3</ele>
        <time>2022-05-17T09:09:51Z</time>
      </trkpt>
      <trkpt lat="46.68816" lon="5.63792">
        <ele>507.6</ele>
        <time>2022-05-17T09:09:58Z</time>
      </trkpt>
      <trkpt lat="46.68819" lon="5.63784">
        <ele>507</ele>
        <time>2022-05-17T09:10:04Z</time>
      </trkpt>
      <trkpt lat="46.68819" lon="5.63777">
        <ele>506.6</ele>
        <time>2022-05-17T09:10:10Z</time>
      </trkpt>
      <trkpt lat="46.6882" lon="5.6377">
        <ele>505.9</ele>
        <time>2022-05-17T09:10:17Z</time>
      </trkpt>
      <trkpt lat="46.68823" lon="5.63765">
        <ele>505.9</ele>
        <time>2022-05-17T09:10:23Z</time>
      </trkpt>
      <trkpt lat="46.68827" lon="5.63759">
        <ele>506</ele>
        <time>2022-05-17T09:10:28Z</time>
      </trkpt>
      <trkpt lat="46.68829" lon="5.63752">
        <ele>505.8</ele>
        <time>2022-05-17T09:10:32Z</time>
      </trkpt>
      <trkpt lat="46.68833" lon="5.63748">
        <ele>505.8</ele>
        <time>2022-05-17T09:10:38Z</time>
      </trkpt>
      <trkpt lat="46.68835" lon="5.6374">
        <ele>505.9</ele>
        <time>2022-05-17T09:10:43Z</time>
      </trkpt>
      <trkpt lat="46.68838" lon="5.63734">
        <ele>506.1</ele>
        <time>2022-05-17T09:10:47Z</time>
      </trkpt>
      <trkpt lat="46.68843" lon="5.63731">
        <ele>506.8</ele>
        <time>2022-05-17T09:10:52Z</time>
      </trkpt>
      <trkpt lat="46.68848" lon="5.6373">
        <ele>507.4</ele>
        <time>2022-05-17T09:10:56Z</time>
      </trkpt>
      <trkpt lat="46.68852" lon="5.63729">
        <ele>508.1</ele>
        <time>2022-05-17T09:11:00Z</time>
      </trkpt>
      <trkpt lat="46.68857" lon="5.63727">
        <ele>508.8</ele>
        <time>2022-05-17T09:11:04Z</time>
      </trkpt>
      <trkpt lat="46.68861" lon="5.63723">
        <ele>509.8</ele>
        <time>2022-05-17T09:11:09Z</time>
      </trkpt>
      <trkpt lat="46.68866" lon="5.63721">
        <ele>510.4</ele>
        <time>2022-05-17T09:11:13Z</time>
      </trkpt>
      <trkpt lat="46.6887" lon="5.63718">
        <ele>510.6</ele>
        <time>2022-05-17T09:11:17Z</time>
      </trkpt>
      <trkpt lat="46.68875" lon="5.63717">
        <ele>510</ele>
        <time>2022-05-17T09:11:23Z</time>
      </trkpt>
      <trkpt lat="46.6888" lon="5.63714">
        <ele>509.6</ele>
        <time>2022-05-17T09:11:28Z</time>
      </trkpt>
      <trkpt lat="46.68884" lon="5.63714">
        <ele>509.4</ele>
        <time>2022-05-17T09:11:33Z</time>
      </trkpt>
      <trkpt lat="46.6889" lon="5.63713">
        <ele>509.5</ele>
        <time>2022-05-17T09:11:38Z</time>
      </trkpt>
      <trkpt lat="46.68895" lon="5.63711">
        <ele>509.9</ele>
        <time>2022-05-17T09:11:43Z</time>
      </trkpt>
      <trkpt lat="46.689" lon="5.63708">
        <ele>509.9</ele>
        <time>2022-05-17T09:11:49Z</time>
      </trkpt>
      <trkpt lat="46.68904" lon="5.63705">
        <ele>509.3</ele>
        <time>2022-05-17T09:11:55Z</time>
      </trkpt>
      <trkpt lat="46.68908" lon="5.63701">
        <ele>508.6</ele>
        <time>2022-05-17T09:12:03Z</time>
      </trkpt>
      <trkpt lat="46.68913" lon="5.637">
        <ele>508.2</ele>
        <time>2022-05-17T09:12:08Z</time>
      </trkpt>
      <trkpt lat="46.68918" lon="5.637">
        <ele>507.7</ele>
        <time>2022-05-17T09:12:12Z</time>
      </trkpt>
      <trkpt lat="46.68924" lon="5.63699">
        <ele>507.3</ele>
        <time>2022-05-17T09:12:16Z</time>
      </trkpt>
      <trkpt lat="46.68928" lon="5.63697">
        <ele>507.2</ele>
        <time>2022-05-17T09:12:19Z</time>
      </trkpt>
      <trkpt lat="46.68933" lon="5.63694">
        <ele>507.1</ele>
        <time>2022-05-17T09:12:23Z</time>
      </trkpt>
      <trkpt lat="46.68938" lon="5.63691">
        <ele>507.4</ele>
        <time>2022-05-17T09:12:27Z</time>
      </trkpt>
      <trkpt lat="46.68942" lon="5.63688">
        <ele>508.3</ele>
        <time>2022-05-17T09:12:32Z</time>
      </trkpt>
      <trkpt lat="46.68946" lon="5.63684">
        <ele>509.5</ele>
        <time>2022-05-17T09:12:39Z</time>
      </trkpt>
      <trkpt lat="46.68951" lon="5.6368">
        <ele>510.9</ele>
        <time>2022-05-17T09:12:45Z</time>
      </trkpt>
      <trkpt lat="46.68956" lon="5.63677">
        <ele>512.3</ele>
        <time>2022-05-17T09:12:50Z</time>
      </trkpt>
      <trkpt lat="46.6896" lon="5.63672">
        <ele>514</ele>
        <time>2022-05-17T09:12:56Z</time>
      </trkpt>
      <trkpt lat="46.68961" lon="5.63665">
        <ele>515.4</ele>
        <time>2022-05-17T09:13:03Z</time>
      </trkpt>
      <trkpt lat="46.68966" lon="5.6366">
        <ele>516.3</ele>
        <time>2022-05-17T09:13:10Z</time>
      </trkpt>
      <trkpt lat="46.6897" lon="5.63657">
        <ele>516.4</ele>
        <time>2022-05-17T09:13:13Z</time>
      </trkpt>
      <trkpt lat="46.68975" lon="5.63653">
        <ele>516.7</ele>
        <time>2022-05-17T09:13:17Z</time>
      </trkpt>
      <trkpt lat="46.68979" lon="5.63648">
        <ele>517.2</ele>
        <time>2022-05-17T09:13:21Z</time>
      </trkpt>
      <trkpt lat="46.68982" lon="5.63643">
        <ele>518</ele>
        <time>2022-05-17T09:13:25Z</time>
      </trkpt>
      <trkpt lat="46.68985" lon="5.63636">
        <ele>519.3</ele>
        <time>2022-05-17T09:13:31Z</time>
      </trkpt>
      <trkpt lat="46.6899" lon="5.63636">
        <ele>519.9</ele>
        <time>2022-05-17T09:13:39Z</time>
      </trkpt>
      <trkpt lat="46.68995" lon="5.63637">
        <ele>520.2</ele>
        <time>2022-05-17T09:13:47Z</time>
      </trkpt>
      <trkpt lat="46.68999" lon="5.63642">
        <ele>519.6</ele>
        <time>2022-05-17T09:13:51Z</time>
      </trkpt>
      <trkpt lat="46.68998" lon="5.6365">
        <ele>518.2</ele>
        <time>2022-05-17T09:13:59Z</time>
      </trkpt>
      <trkpt lat="46.68994" lon="5.63646">
        <ele>518.8</ele>
        <time>2022-05-17T09:14:19Z</time>
      </trkpt>
      <trkpt lat="46.69" lon="5.63649">
        <ele>517</ele>
        <time>2022-05-17T09:14:30Z</time>
      </trkpt>
      <trkpt lat="46.69008" lon="5.63651">
        <ele>516.7</ele>
        <time>2022-05-17T09:14:33Z</time>
      </trkpt>
      <trkpt lat="46.69014" lon="5.63651">
        <ele>516.4</ele>
        <time>2022-05-17T09:14:36Z</time>
      </trkpt>
      <trkpt lat="46.69018" lon="5.63648">
        <ele>516.1</ele>
        <time>2022-05-17T09:14:40Z</time>
      </trkpt>
      <trkpt lat="46.69023" lon="5.63648">
        <ele>514.1</ele>
        <time>2022-05-17T09:14:51Z</time>
      </trkpt>
      <trkpt lat="46.69027" lon="5.63652">
        <ele>513.5</ele>
        <time>2022-05-17T09:15:01Z</time>
      </trkpt>
      <trkpt lat="46.6903" lon="5.63657">
        <ele>513.5</ele>
        <time>2022-05-17T09:15:10Z</time>
      </trkpt>
      <trkpt lat="46.69034" lon="5.63659">
        <ele>512.8</ele>
        <time>2022-05-17T09:15:15Z</time>
      </trkpt>
      <trkpt lat="46.69039" lon="5.63658">
        <ele>511.1</ele>
        <time>2022-05-17T09:15:22Z</time>
      </trkpt>
      <trkpt lat="46.69045" lon="5.63656">
        <ele>510.1</ele>
        <time>2022-05-17T09:15:26Z</time>
      </trkpt>
      <trkpt lat="46.6905" lon="5.63654">
        <ele>509.4</ele>
        <time>2022-05-17T09:15:30Z</time>
      </trkpt>
      <trkpt lat="46.69056" lon="5.63653">
        <ele>509.1</ele>
        <time>2022-05-17T09:15:35Z</time>
      </trkpt>
      <trkpt lat="46.6906" lon="5.63653">
        <ele>509.4</ele>
        <time>2022-05-17T09:15:39Z</time>
      </trkpt>
      <trkpt lat="46.69065" lon="5.63655">
        <ele>509.6</ele>
        <time>2022-05-17T09:15:42Z</time>
      </trkpt>
      <trkpt lat="46.69069" lon="5.63659">
        <ele>510.1</ele>
        <time>2022-05-17T09:15:47Z</time>
      </trkpt>
      <trkpt lat="46.69075" lon="5.63661">
        <ele>511.4</ele>
        <time>2022-05-17T09:15:52Z</time>
      </trkpt>
      <trkpt lat="46.69079" lon="5.6366">
        <ele>512.2</ele>
        <time>2022-05-17T09:15:57Z</time>
      </trkpt>
      <trkpt lat="46.69084" lon="5.63663">
        <ele>514.1</ele>
        <time>2022-05-17T09:16:11Z</time>
      </trkpt>
      <trkpt lat="46.6909" lon="5.63665">
        <ele>514.5</ele>
        <time>2022-05-17T09:16:15Z</time>
      </trkpt>
      <trkpt lat="46.69096" lon="5.63667">
        <ele>514.7</ele>
        <time>2022-05-17T09:16:18Z</time>
      </trkpt>
      <trkpt lat="46.69101" lon="5.63668">
        <ele>514.9</ele>
        <time>2022-05-17T09:16:22Z</time>
      </trkpt>
      <trkpt lat="46.69105" lon="5.63666">
        <ele>514.9</ele>
        <time>2022-05-17T09:16:26Z</time>
      </trkpt>
      <trkpt lat="46.6911" lon="5.63664">
        <ele>515.4</ele>
        <time>2022-05-17T09:16:30Z</time>
      </trkpt>
      <trkpt lat="46.69116" lon="5.63664">
        <ele>515.9</ele>
        <time>2022-05-17T09:16:35Z</time>
      </trkpt>
      <trkpt lat="46.69121" lon="5.63666">
        <ele>515.4</ele>
        <time>2022-05-17T09:16:39Z</time>
      </trkpt>
      <trkpt lat="46.69125" lon="5.63669">
        <ele>514.5</ele>
        <time>2022-05-17T09:16:43Z</time>
      </trkpt>
      <trkpt lat="46.6913" lon="5.63668">
        <ele>511.3</ele>
        <time>2022-05-17T09:16:53Z</time>
      </trkpt>
      <trkpt lat="46.69134" lon="5.63668">
        <ele>509.8</ele>
        <time>2022-05-17T09:16:58Z</time>
      </trkpt>
      <trkpt lat="46.69139" lon="5.6367">
        <ele>508.3</ele>
        <time>2022-05-17T09:17:03Z</time>
      </trkpt>
      <trkpt lat="46.69144" lon="5.63672">
        <ele>507.4</ele>
        <time>2022-05-17T09:17:09Z</time>
      </trkpt>
      <trkpt lat="46.69149" lon="5.63673">
        <ele>506.9</ele>
        <time>2022-05-17T09:17:14Z</time>
      </trkpt>
      <trkpt lat="46.69153" lon="5.6367">
        <ele>506.9</ele>
        <time>2022-05-17T09:17:18Z</time>
      </trkpt>
      <trkpt lat="46.69158" lon="5.6367">
        <ele>506.5</ele>
        <time>2022-05-17T09:17:23Z</time>
      </trkpt>
      <trkpt lat="46.69163" lon="5.63672">
        <ele>506.1</ele>
        <time>2022-05-17T09:17:29Z</time>
      </trkpt>
      <trkpt lat="46.69168" lon="5.63671">
        <ele>505.7</ele>
        <time>2022-05-17T09:17:45Z</time>
      </trkpt>
      <trkpt lat="46.69171" lon="5.63675">
        <ele>505.3</ele>
        <time>2022-05-17T09:17:49Z</time>
      </trkpt>
      <trkpt lat="46.69177" lon="5.63679">
        <ele>504.7</ele>
        <time>2022-05-17T09:17:53Z</time>
      </trkpt>
      <trkpt lat="46.69182" lon="5.63683">
        <ele>504.2</ele>
        <time>2022-05-17T09:17:56Z</time>
      </trkpt>
      <trkpt lat="46.69186" lon="5.63686">
        <ele>503.9</ele>
        <time>2022-05-17T09:17:59Z</time>
      </trkpt>
      <trkpt lat="46.69191" lon="5.63691">
        <ele>503.7</ele>
        <time>2022-05-17T09:18:03Z</time>
      </trkpt>
      <trkpt lat="46.69195" lon="5.63694">
        <ele>503.6</ele>
        <time>2022-05-17T09:18:07Z</time>
      </trkpt>
      <trkpt lat="46.692" lon="5.63696">
        <ele>503.8</ele>
        <time>2022-05-17T09:18:11Z</time>
      </trkpt>
      <trkpt lat="46.69197" lon="5.63701">
        <ele>502</ele>
        <time>2022-05-17T09:18:29Z</time>
      </trkpt>
      <trkpt lat="46.69196" lon="5.63708">
        <ele>500.7</ele>
        <time>2022-05-17T09:18:33Z</time>
      </trkpt>
      <trkpt lat="46.69195" lon="5.63715">
        <ele>499.3</ele>
        <time>2022-05-17T09:18:37Z</time>
      </trkpt>
      <trkpt lat="46.69194" lon="5.63722">
        <ele>497.9</ele>
        <time>2022-05-17T09:18:42Z</time>
      </trkpt>
      <trkpt lat="46.69196" lon="5.63729">
        <ele>498</ele>
        <time>2022-05-17T09:18:53Z</time>
      </trkpt>
      <trkpt lat="46.69194" lon="5.63722">
        <ele>498.2</ele>
        <time>2022-05-17T09:19:13Z</time>
      </trkpt>
      <trkpt lat="46.69195" lon="5.63715">
        <ele>505.9</ele>
        <time>2022-05-17T09:19:29Z</time>
      </trkpt>
      <trkpt lat="46.692" lon="5.63718">
        <ele>508.7</ele>
        <time>2022-05-17T09:19:35Z</time>
      </trkpt>
      <trkpt lat="46.69204" lon="5.63723">
        <ele>509.6</ele>
        <time>2022-05-17T09:19:38Z</time>
      </trkpt>
      <trkpt lat="46.69208" lon="5.63729">
        <ele>510.3</ele>
        <time>2022-05-17T09:19:41Z</time>
      </trkpt>
      <trkpt lat="46.69211" lon="5.63734">
        <ele>510.8</ele>
        <time>2022-05-17T09:19:44Z</time>
      </trkpt>
      <trkpt lat="46.69214" lon="5.63739">
        <ele>511.7</ele>
        <time>2022-05-17T09:19:48Z</time>
      </trkpt>
      <trkpt lat="46.6922" lon="5.6374">
        <ele>512.8</ele>
        <time>2022-05-17T09:19:53Z</time>
      </trkpt>
      <trkpt lat="46.69225" lon="5.6374">
        <ele>513.7</ele>
        <time>2022-05-17T09:19:58Z</time>
      </trkpt>
      <trkpt lat="46.69228" lon="5.63743">
        <ele>514.7</ele>
        <time>2022-05-17T09:20:07Z</time>
      </trkpt>
      <trkpt lat="46.69234" lon="5.63746">
        <ele>515.2</ele>
        <time>2022-05-17T09:20:12Z</time>
      </trkpt>
      <trkpt lat="46.69239" lon="5.63746">
        <ele>514.9</ele>
        <time>2022-05-17T09:20:16Z</time>
      </trkpt>
      <trkpt lat="46.69243" lon="5.63748">
        <ele>513.8</ele>
        <time>2022-05-17T09:20:25Z</time>
      </trkpt>
      <trkpt lat="46.69248" lon="5.63751">
        <ele>513.5</ele>
        <time>2022-05-17T09:20:30Z</time>
      </trkpt>
      <trkpt lat="46.69252" lon="5.63753">
        <ele>513.2</ele>
        <time>2022-05-17T09:20:34Z</time>
      </trkpt>
      <trkpt lat="46.69257" lon="5.63755">
        <ele>512.7</ele>
        <time>2022-05-17T09:20:39Z</time>
      </trkpt>
      <trkpt lat="46.69262" lon="5.63753">
        <ele>512.2</ele>
        <time>2022-05-17T09:20:46Z</time>
      </trkpt>
      <trkpt lat="46.69266" lon="5.63757">
        <ele>513.2</ele>
        <time>2022-05-17T09:20:57Z</time>
      </trkpt>
      <trkpt lat="46.69271" lon="5.63759">
        <ele>513</ele>
        <time>2022-05-17T09:21:08Z</time>
      </trkpt>
      <trkpt lat="46.69275" lon="5.63763">
        <ele>512.3</ele>
        <time>2022-05-17T09:21:13Z</time>
      </trkpt>
      <trkpt lat="46.6928" lon="5.63765">
        <ele>512</ele>
        <time>2022-05-17T09:21:17Z</time>
      </trkpt>
      <trkpt lat="46.69286" lon="5.63766">
        <ele>511.9</ele>
        <time>2022-05-17T09:21:23Z</time>
      </trkpt>
      <trkpt lat="46.69291" lon="5.63766">
        <ele>511.7</ele>
        <time>2022-05-17T09:21:30Z</time>
      </trkpt>
      <trkpt lat="46.69295" lon="5.63768">
        <ele>511.4</ele>
        <time>2022-05-17T09:21:40Z</time>
      </trkpt>
      <trkpt lat="46.69301" lon="5.63769">
        <ele>511.4</ele>
        <time>2022-05-17T09:21:44Z</time>
      </trkpt>
      <trkpt lat="46.69306" lon="5.6377">
        <ele>511.8</ele>
        <time>2022-05-17T09:21:48Z</time>
      </trkpt>
      <trkpt lat="46.69311" lon="5.63772">
        <ele>512.1</ele>
        <time>2022-05-17T09:21:52Z</time>
      </trkpt>
      <trkpt lat="46.69315" lon="5.63771">
        <ele>512.1</ele>
        <time>2022-05-17T09:21:56Z</time>
      </trkpt>
      <trkpt lat="46.6932" lon="5.63769">
        <ele>512</ele>
        <time>2022-05-17T09:22:01Z</time>
      </trkpt>
      <trkpt lat="46.69325" lon="5.63764">
        <ele>511.5</ele>
        <time>2022-05-17T09:22:06Z</time>
      </trkpt>
      <trkpt lat="46.69326" lon="5.63758">
        <ele>511.2</ele>
        <time>2022-05-17T09:22:11Z</time>
      </trkpt>
      <trkpt lat="46.6933" lon="5.63756">
        <ele>511.1</ele>
        <time>2022-05-17T09:22:20Z</time>
      </trkpt>
      <trkpt lat="46.69326" lon="5.63751">
        <ele>509.6</ele>
        <time>2022-05-17T09:22:39Z</time>
      </trkpt>
      <trkpt lat="46.69321" lon="5.63748">
        <ele>508.8</ele>
        <time>2022-05-17T09:22:44Z</time>
      </trkpt>
      <trkpt lat="46.69317" lon="5.63751">
        <ele>507.8</ele>
        <time>2022-05-17T09:22:50Z</time>
      </trkpt>
      <trkpt lat="46.69313" lon="5.63755">
        <ele>507.1</ele>
        <time>2022-05-17T09:22:54Z</time>
      </trkpt>
      <trkpt lat="46.69308" lon="5.63756">
        <ele>507</ele>
        <time>2022-05-17T09:23:00Z</time>
      </trkpt>
      <trkpt lat="46.69304" lon="5.63753">
        <ele>507.7</ele>
        <time>2022-05-17T09:23:06Z</time>
      </trkpt>
      <trkpt lat="46.69299" lon="5.6375">
        <ele>509</ele>
        <time>2022-05-17T09:23:14Z</time>
      </trkpt>
      <trkpt lat="46.69294" lon="5.63749">
        <ele>509.7</ele>
        <time>2022-05-17T09:23:20Z</time>
      </trkpt>
      <trkpt lat="46.69289" lon="5.6375">
        <ele>510.3</ele>
        <time>2022-05-17T09:23:27Z</time>
      </trkpt>
      <trkpt lat="46.69284" lon="5.6375">
        <ele>510.7</ele>
        <time>2022-05-17T09:23:34Z</time>
      </trkpt>
      <trkpt lat="46.6928" lon="5.63747">
        <ele>510.9</ele>
        <time>2022-05-17T09:23:39Z</time>
      </trkpt>
      <trkpt lat="46.69277" lon="5.63742">
        <ele>510.8</ele>
        <time>2022-05-17T09:23:46Z</time>
      </trkpt>
      <trkpt lat="46.69277" lon="5.63735">
        <ele>510.9</ele>
        <time>2022-05-17T09:23:51Z</time>
      </trkpt>
      <trkpt lat="46.69282" lon="5.63736">
        <ele>511.4</ele>
        <time>2022-05-17T09:23:59Z</time>
      </trkpt>
      <trkpt lat="46.69277" lon="5.63734">
        <ele>509.8</ele>
        <time>2022-05-17T09:24:12Z</time>
      </trkpt>
      <trkpt lat="46.69271" lon="5.63735">
        <ele>509.3</ele>
        <time>2022-05-17T09:24:17Z</time>
      </trkpt>
      <trkpt lat="46.69266" lon="5.63737">
        <ele>509.7</ele>
        <time>2022-05-17T09:24:22Z</time>
      </trkpt>
      <trkpt lat="46.69263" lon="5.63743">
        <ele>508.4</ele>
        <time>2022-05-17T09:24:43Z</time>
      </trkpt>
      <trkpt lat="46.69259" lon="5.63746">
        <ele>507.1</ele>
        <time>2022-05-17T09:24:47Z</time>
      </trkpt>
      <trkpt lat="46.69254" lon="5.63749">
        <ele>506.4</ele>
        <time>2022-05-17T09:24:51Z</time>
      </trkpt>
      <trkpt lat="46.6925" lon="5.63752">
        <ele>505.1</ele>
        <time>2022-05-17T09:25:06Z</time>
      </trkpt>
      <trkpt lat="46.69245" lon="5.6375">
        <ele>504.7</ele>
        <time>2022-05-17T09:25:11Z</time>
      </trkpt>
      <trkpt lat="46.6924" lon="5.63749">
        <ele>504.6</ele>
        <time>2022-05-17T09:25:18Z</time>
      </trkpt>
      <trkpt lat="46.69236" lon="5.63747">
        <ele>505.3</ele>
        <time>2022-05-17T09:25:25Z</time>
      </trkpt>
      <trkpt lat="46.69231" lon="5.63745">
        <ele>506</ele>
        <time>2022-05-17T09:25:31Z</time>
      </trkpt>
      <trkpt lat="46.69226" lon="5.63742">
        <ele>506.1</ele>
        <time>2022-05-17T09:25:37Z</time>
      </trkpt>
      <trkpt lat="46.69221" lon="5.63739">
        <ele>507</ele>
        <time>2022-05-17T09:25:43Z</time>
      </trkpt>
      <trkpt lat="46.69216" lon="5.63737">
        <ele>508.5</ele>
        <time>2022-05-17T09:25:51Z</time>
      </trkpt>
      <trkpt lat="46.69211" lon="5.63734">
        <ele>508.9</ele>
        <time>2022-05-17T09:25:54Z</time>
      </trkpt>
      <trkpt lat="46.69208" lon="5.6373">
        <ele>508.2</ele>
        <time>2022-05-17T09:26:00Z</time>
      </trkpt>
      <trkpt lat="46.69203" lon="5.6373">
        <ele>507.8</ele>
        <time>2022-05-17T09:26:05Z</time>
      </trkpt>
      <trkpt lat="46.69205" lon="5.63723">
        <ele>509.6</ele>
        <time>2022-05-17T09:26:23Z</time>
      </trkpt>
      <trkpt lat="46.69204" lon="5.63717">
        <ele>509.8</ele>
        <time>2022-05-17T09:26:26Z</time>
      </trkpt>
      <trkpt lat="46.69201" lon="5.63708">
        <ele>510.3</ele>
        <time>2022-05-17T09:26:29Z</time>
      </trkpt>
      <trkpt lat="46.69199" lon="5.63701">
        <ele>510.9</ele>
        <time>2022-05-17T09:26:32Z</time>
      </trkpt>
      <trkpt lat="46.69197" lon="5.63695">
        <ele>512</ele>
        <time>2022-05-17T09:26:37Z</time>
      </trkpt>
      <trkpt lat="46.69192" lon="5.63691">
        <ele>512.4</ele>
        <time>2022-05-17T09:26:42Z</time>
      </trkpt>
      <trkpt lat="46.69188" lon="5.63691">
        <ele>512.5</ele>
        <time>2022-05-17T09:26:49Z</time>
      </trkpt>
      <trkpt lat="46.69186" lon="5.63683">
        <ele>511.6</ele>
        <time>2022-05-17T09:27:02Z</time>
      </trkpt>
      <trkpt lat="46.69185" lon="5.63676">
        <ele>511.3</ele>
        <time>2022-05-17T09:27:06Z</time>
      </trkpt>
      <trkpt lat="46.69185" lon="5.63669">
        <ele>510.6</ele>
        <time>2022-05-17T09:27:11Z</time>
      </trkpt>
      <trkpt lat="46.69185" lon="5.63662">
        <ele>509.7</ele>
        <time>2022-05-17T09:27:19Z</time>
      </trkpt>
      <trkpt lat="46.69187" lon="5.63656">
        <ele>509.4</ele>
        <time>2022-05-17T09:27:23Z</time>
      </trkpt>
      <trkpt lat="46.69188" lon="5.63648">
        <ele>509.3</ele>
        <time>2022-05-17T09:27:28Z</time>
      </trkpt>
      <trkpt lat="46.69191" lon="5.63642">
        <ele>509.4</ele>
        <time>2022-05-17T09:27:34Z</time>
      </trkpt>
      <trkpt lat="46.6919" lon="5.63635">
        <ele>510.5</ele>
        <time>2022-05-17T09:27:43Z</time>
      </trkpt>
      <trkpt lat="46.69191" lon="5.63629">
        <ele>511.5</ele>
        <time>2022-05-17T09:27:50Z</time>
      </trkpt>
      <trkpt lat="46.6919" lon="5.63622">
        <ele>512.2</ele>
        <time>2022-05-17T09:27:56Z</time>
      </trkpt>
      <trkpt lat="46.69194" lon="5.63618">
        <ele>512.5</ele>
        <time>2022-05-17T09:28:02Z</time>
      </trkpt>
      <trkpt lat="46.69195" lon="5.63611">
        <ele>511.8</ele>
        <time>2022-05-17T09:28:06Z</time>
      </trkpt>
      <trkpt lat="46.69196" lon="5.63603">
        <ele>510.6</ele>
        <time>2022-05-17T09:28:12Z</time>
      </trkpt>
      <trkpt lat="46.69199" lon="5.63598">
        <ele>510</ele>
        <time>2022-05-17T09:28:18Z</time>
      </trkpt>
      <trkpt lat="46.69203" lon="5.63593">
        <ele>509.7</ele>
        <time>2022-05-17T09:28:24Z</time>
      </trkpt>
      <trkpt lat="46.69209" lon="5.6359">
        <ele>510.1</ele>
        <time>2022-05-17T09:28:28Z</time>
      </trkpt>
      <trkpt lat="46.69213" lon="5.63585">
        <ele>510.4</ele>
        <time>2022-05-17T09:28:31Z</time>
      </trkpt>
      <trkpt lat="46.69215" lon="5.6358">
        <ele>511</ele>
        <time>2022-05-17T09:28:38Z</time>
      </trkpt>
      <trkpt lat="46.69219" lon="5.63577">
        <ele>512.8</ele>
        <time>2022-05-17T09:28:46Z</time>
      </trkpt>
      <trkpt lat="46.69218" lon="5.63571">
        <ele>515.1</ele>
        <time>2022-05-17T09:28:55Z</time>
      </trkpt>
      <trkpt lat="46.69213" lon="5.6357">
        <ele>515.5</ele>
        <time>2022-05-17T09:29:11Z</time>
      </trkpt>
      <trkpt lat="46.69213" lon="5.63577">
        <ele>513.4</ele>
        <time>2022-05-17T09:29:26Z</time>
      </trkpt>
      <trkpt lat="46.69212" lon="5.63568">
        <ele>512.8</ele>
        <time>2022-05-17T09:30:41Z</time>
      </trkpt>
      <trkpt lat="46.69216" lon="5.63564">
        <ele>512.5</ele>
        <time>2022-05-17T09:30:44Z</time>
      </trkpt>
      <trkpt lat="46.69221" lon="5.63567">
        <ele>512.4</ele>
        <time>2022-05-17T09:30:49Z</time>
      </trkpt>
      <trkpt lat="46.69218" lon="5.63572">
        <ele>509.7</ele>
        <time>2022-05-17T09:31:03Z</time>
      </trkpt>
      <trkpt lat="46.69215" lon="5.63568">
        <ele>510.4</ele>
        <time>2022-05-17T09:31:21Z</time>
      </trkpt>
      <trkpt lat="46.6921" lon="5.63565">
        <ele>510.2</ele>
        <time>2022-05-17T09:32:07Z</time>
      </trkpt>
      <trkpt lat="46.69213" lon="5.63571">
        <ele>513.6</ele>
        <time>2022-05-17T09:32:27Z</time>
      </trkpt>
      <trkpt lat="46.69217" lon="5.63566">
        <ele>513.4</ele>
        <time>2022-05-17T09:32:36Z</time>
      </trkpt>
      <trkpt lat="46.69221" lon="5.6356">
        <ele>512.6</ele>
        <time>2022-05-17T09:32:39Z</time>
      </trkpt>
      <trkpt lat="46.69225" lon="5.63557">
        <ele>511.8</ele>
        <time>2022-05-17T09:32:42Z</time>
      </trkpt>
      <trkpt lat="46.69229" lon="5.63551">
        <ele>510.9</ele>
        <time>2022-05-17T09:32:47Z</time>
      </trkpt>
      <trkpt lat="46.69228" lon="5.63543">
        <ele>510.2</ele>
        <time>2022-05-17T09:32:53Z</time>
      </trkpt>
      <trkpt lat="46.69228" lon="5.63536">
        <ele>509.3</ele>
        <time>2022-05-17T09:33:02Z</time>
      </trkpt>
      <trkpt lat="46.6923" lon="5.63527">
        <ele>510.1</ele>
        <time>2022-05-17T09:33:16Z</time>
      </trkpt>
      <trkpt lat="46.69233" lon="5.63521">
        <ele>510.7</ele>
        <time>2022-05-17T09:33:19Z</time>
      </trkpt>
      <trkpt lat="46.69238" lon="5.63517">
        <ele>511.6</ele>
        <time>2022-05-17T09:33:23Z</time>
      </trkpt>
      <trkpt lat="46.69241" lon="5.63512">
        <ele>512.8</ele>
        <time>2022-05-17T09:33:30Z</time>
      </trkpt>
      <trkpt lat="46.69241" lon="5.63505">
        <ele>513.7</ele>
        <time>2022-05-17T09:33:37Z</time>
      </trkpt>
      <trkpt lat="46.69241" lon="5.63498">
        <ele>514.8</ele>
        <time>2022-05-17T09:33:42Z</time>
      </trkpt>
      <trkpt lat="46.6924" lon="5.6349">
        <ele>516.2</ele>
        <time>2022-05-17T09:33:48Z</time>
      </trkpt>
      <trkpt lat="46.69237" lon="5.63485">
        <ele>517.5</ele>
        <time>2022-05-17T09:33:58Z</time>
      </trkpt>
      <trkpt lat="46.69233" lon="5.63482">
        <ele>517.8</ele>
        <time>2022-05-17T09:34:01Z</time>
      </trkpt>
      <trkpt lat="46.6923" lon="5.63475">
        <ele>518.2</ele>
        <time>2022-05-17T09:34:09Z</time>
      </trkpt>
      <trkpt lat="46.69234" lon="5.63471">
        <ele>518.9</ele>
        <time>2022-05-17T09:34:20Z</time>
      </trkpt>
      <trkpt lat="46.69239" lon="5.63469">
        <ele>518.8</ele>
        <time>2022-05-17T09:34:30Z</time>
      </trkpt>
      <trkpt lat="46.69241" lon="5.63463">
        <ele>518</ele>
        <time>2022-05-17T09:34:34Z</time>
      </trkpt>
      <trkpt lat="46.69244" lon="5.63456">
        <ele>517.8</ele>
        <time>2022-05-17T09:34:37Z</time>
      </trkpt>
      <trkpt lat="46.69247" lon="5.63451">
        <ele>517.5</ele>
        <time>2022-05-17T09:34:40Z</time>
      </trkpt>
      <trkpt lat="46.69251" lon="5.63447">
        <ele>516.9</ele>
        <time>2022-05-17T09:34:44Z</time>
      </trkpt>
      <trkpt lat="46.69255" lon="5.63443">
        <ele>516.5</ele>
        <time>2022-05-17T09:34:49Z</time>
      </trkpt>
      <trkpt lat="46.69259" lon="5.6344">
        <ele>516.6</ele>
        <time>2022-05-17T09:34:53Z</time>
      </trkpt>
      <trkpt lat="46.69263" lon="5.63439">
        <ele>516.9</ele>
        <time>2022-05-17T09:34:57Z</time>
      </trkpt>
      <trkpt lat="46.69269" lon="5.6344">
        <ele>517.3</ele>
        <time>2022-05-17T09:35:03Z</time>
      </trkpt>
      <trkpt lat="46.69274" lon="5.63439">
        <ele>517.3</ele>
        <time>2022-05-17T09:35:07Z</time>
      </trkpt>
      <trkpt lat="46.69279" lon="5.63436">
        <ele>517.3</ele>
        <time>2022-05-17T09:35:11Z</time>
      </trkpt>
      <trkpt lat="46.69285" lon="5.63435">
        <ele>517.5</ele>
        <time>2022-05-17T09:35:16Z</time>
      </trkpt>
      <trkpt lat="46.6929" lon="5.63434">
        <ele>516.4</ele>
        <time>2022-05-17T09:35:23Z</time>
      </trkpt>
      <trkpt lat="46.69295" lon="5.63434">
        <ele>515.8</ele>
        <time>2022-05-17T09:35:29Z</time>
      </trkpt>
      <trkpt lat="46.693" lon="5.63435">
        <ele>515.6</ele>
        <time>2022-05-17T09:35:32Z</time>
      </trkpt>
      <trkpt lat="46.69306" lon="5.63435">
        <ele>515.5</ele>
        <time>2022-05-17T09:35:36Z</time>
      </trkpt>
      <trkpt lat="46.69311" lon="5.63434">
        <ele>515.3</ele>
        <time>2022-05-17T09:35:40Z</time>
      </trkpt>
      <trkpt lat="46.69316" lon="5.63434">
        <ele>515.1</ele>
        <time>2022-05-17T09:35:44Z</time>
      </trkpt>
      <trkpt lat="46.69321" lon="5.63436">
        <ele>515.4</ele>
        <time>2022-05-17T09:35:49Z</time>
      </trkpt>
      <trkpt lat="46.69326" lon="5.63437">
        <ele>516.1</ele>
        <time>2022-05-17T09:35:54Z</time>
      </trkpt>
      <trkpt lat="46.69331" lon="5.63439">
        <ele>515.8</ele>
        <time>2022-05-17T09:36:00Z</time>
      </trkpt>
      <trkpt lat="46.69336" lon="5.63439">
        <ele>514.4</ele>
        <time>2022-05-17T09:36:06Z</time>
      </trkpt>
      <trkpt lat="46.6934" lon="5.6344">
        <ele>513.6</ele>
        <time>2022-05-17T09:36:11Z</time>
      </trkpt>
      <trkpt lat="46.69345" lon="5.63442">
        <ele>512.8</ele>
        <time>2022-05-17T09:36:17Z</time>
      </trkpt>
      <trkpt lat="46.69349" lon="5.63445">
        <ele>512</ele>
        <time>2022-05-17T09:36:21Z</time>
      </trkpt>
      <trkpt lat="46.69353" lon="5.63448">
        <ele>510.7</ele>
        <time>2022-05-17T09:36:26Z</time>
      </trkpt>
      <trkpt lat="46.69357" lon="5.63452">
        <ele>509.1</ele>
        <time>2022-05-17T09:36:35Z</time>
      </trkpt>
      <trkpt lat="46.69363" lon="5.63454">
        <ele>508.6</ele>
        <time>2022-05-17T09:36:41Z</time>
      </trkpt>
      <trkpt lat="46.69368" lon="5.63455">
        <ele>507.7</ele>
        <time>2022-05-17T09:36:45Z</time>
      </trkpt>
      <trkpt lat="46.69372" lon="5.63459">
        <ele>506.4</ele>
        <time>2022-05-17T09:36:51Z</time>
      </trkpt>
      <trkpt lat="46.69377" lon="5.63461">
        <ele>505.8</ele>
        <time>2022-05-17T09:36:55Z</time>
      </trkpt>
      <trkpt lat="46.69382" lon="5.63462">
        <ele>505.5</ele>
        <time>2022-05-17T09:36:59Z</time>
      </trkpt>
      <trkpt lat="46.69387" lon="5.63465">
        <ele>505.1</ele>
        <time>2022-05-17T09:37:04Z</time>
      </trkpt>
      <trkpt lat="46.69391" lon="5.63467">
        <ele>504.9</ele>
        <time>2022-05-17T09:37:09Z</time>
      </trkpt>
      <trkpt lat="46.69396" lon="5.6347">
        <ele>504.4</ele>
        <time>2022-05-17T09:37:13Z</time>
      </trkpt>
      <trkpt lat="46.694" lon="5.63473">
        <ele>503.5</ele>
        <time>2022-05-17T09:37:17Z</time>
      </trkpt>
      <trkpt lat="46.69405" lon="5.63475">
        <ele>502.4</ele>
        <time>2022-05-17T09:37:22Z</time>
      </trkpt>
      <trkpt lat="46.69409" lon="5.63477">
        <ele>502.1</ele>
        <time>2022-05-17T09:37:26Z</time>
      </trkpt>
      <trkpt lat="46.69414" lon="5.63478">
        <ele>501.5</ele>
        <time>2022-05-17T09:37:31Z</time>
      </trkpt>
      <trkpt lat="46.69419" lon="5.63482">
        <ele>500.6</ele>
        <time>2022-05-17T09:37:37Z</time>
      </trkpt>
      <trkpt lat="46.69422" lon="5.63486">
        <ele>500.3</ele>
        <time>2022-05-17T09:37:42Z</time>
      </trkpt>
      <trkpt lat="46.69427" lon="5.63489">
        <ele>500.7</ele>
        <time>2022-05-17T09:37:47Z</time>
      </trkpt>
      <trkpt lat="46.69431" lon="5.63491">
        <ele>501.3</ele>
        <time>2022-05-17T09:37:51Z</time>
      </trkpt>
      <trkpt lat="46.69436" lon="5.63494">
        <ele>502</ele>
        <time>2022-05-17T09:37:56Z</time>
      </trkpt>
      <trkpt lat="46.69441" lon="5.63496">
        <ele>502.7</ele>
        <time>2022-05-17T09:38:01Z</time>
      </trkpt>
      <trkpt lat="46.69446" lon="5.63498">
        <ele>503.7</ele>
        <time>2022-05-17T09:38:07Z</time>
      </trkpt>
      <trkpt lat="46.6945" lon="5.635">
        <ele>504.2</ele>
        <time>2022-05-17T09:38:11Z</time>
      </trkpt>
      <trkpt lat="46.69456" lon="5.63502">
        <ele>504.7</ele>
        <time>2022-05-17T09:38:15Z</time>
      </trkpt>
      <trkpt lat="46.69461" lon="5.63504">
        <ele>505.5</ele>
        <time>2022-05-17T09:38:19Z</time>
      </trkpt>
      <trkpt lat="46.69466" lon="5.63504">
        <ele>506.7</ele>
        <time>2022-05-17T09:38:23Z</time>
      </trkpt>
      <trkpt lat="46.69471" lon="5.63506">
        <ele>508.3</ele>
        <time>2022-05-17T09:38:28Z</time>
      </trkpt>
      <trkpt lat="46.69475" lon="5.63506">
        <ele>509</ele>
        <time>2022-05-17T09:38:32Z</time>
      </trkpt>
      <trkpt lat="46.6948" lon="5.63509">
        <ele>509.8</ele>
        <time>2022-05-17T09:38:36Z</time>
      </trkpt>
      <trkpt lat="46.69484" lon="5.63512">
        <ele>510.4</ele>
        <time>2022-05-17T09:38:39Z</time>
      </trkpt>
      <trkpt lat="46.69489" lon="5.63514">
        <ele>511</ele>
        <time>2022-05-17T09:38:44Z</time>
      </trkpt>
      <trkpt lat="46.69494" lon="5.63516">
        <ele>510.9</ele>
        <time>2022-05-17T09:38:48Z</time>
      </trkpt>
      <trkpt lat="46.69499" lon="5.63519">
        <ele>510.7</ele>
        <time>2022-05-17T09:38:53Z</time>
      </trkpt>
      <trkpt lat="46.69504" lon="5.63522">
        <ele>510</ele>
        <time>2022-05-17T09:38:58Z</time>
      </trkpt>
      <trkpt lat="46.69507" lon="5.63527">
        <ele>508.5</ele>
        <time>2022-05-17T09:39:03Z</time>
      </trkpt>
      <trkpt lat="46.69512" lon="5.63531">
        <ele>507.2</ele>
        <time>2022-05-17T09:39:08Z</time>
      </trkpt>
      <trkpt lat="46.69516" lon="5.63536">
        <ele>506</ele>
        <time>2022-05-17T09:39:13Z</time>
      </trkpt>
      <trkpt lat="46.6952" lon="5.63543">
        <ele>505.7</ele>
        <time>2022-05-17T09:39:17Z</time>
      </trkpt>
      <trkpt lat="46.69522" lon="5.63549">
        <ele>505.5</ele>
        <time>2022-05-17T09:39:23Z</time>
      </trkpt>
      <trkpt lat="46.69526" lon="5.63553">
        <ele>505.4</ele>
        <time>2022-05-17T09:39:28Z</time>
      </trkpt>
      <trkpt lat="46.69529" lon="5.63559">
        <ele>505.4</ele>
        <time>2022-05-17T09:39:33Z</time>
      </trkpt>
      <trkpt lat="46.69532" lon="5.63564">
        <ele>505.7</ele>
        <time>2022-05-17T09:39:36Z</time>
      </trkpt>
      <trkpt lat="46.69535" lon="5.63569">
        <ele>505.5</ele>
        <time>2022-05-17T09:39:39Z</time>
      </trkpt>
      <trkpt lat="46.6954" lon="5.63572">
        <ele>505.6</ele>
        <time>2022-05-17T09:39:43Z</time>
      </trkpt>
      <trkpt lat="46.69544" lon="5.63575">
        <ele>505.4</ele>
        <time>2022-05-17T09:39:48Z</time>
      </trkpt>
      <trkpt lat="46.69548" lon="5.63579">
        <ele>505.6</ele>
        <time>2022-05-17T09:39:52Z</time>
      </trkpt>
      <trkpt lat="46.69553" lon="5.63583">
        <ele>506.1</ele>
        <time>2022-05-17T09:39:56Z</time>
      </trkpt>
      <trkpt lat="46.69558" lon="5.63586">
        <ele>506.2</ele>
        <time>2022-05-17T09:40:01Z</time>
      </trkpt>
      <trkpt lat="46.69562" lon="5.63589">
        <ele>506.5</ele>
        <time>2022-05-17T09:40:06Z</time>
      </trkpt>
      <trkpt lat="46.69566" lon="5.63592">
        <ele>506.9</ele>
        <time>2022-05-17T09:40:11Z</time>
      </trkpt>
      <trkpt lat="46.69571" lon="5.63594">
        <ele>507.3</ele>
        <time>2022-05-17T09:40:16Z</time>
      </trkpt>
      <trkpt lat="46.69576" lon="5.63596">
        <ele>507.2</ele>
        <time>2022-05-17T09:40:20Z</time>
      </trkpt>
      <trkpt lat="46.69581" lon="5.636">
        <ele>506.9</ele>
        <time>2022-05-17T09:40:25Z</time>
      </trkpt>
      <trkpt lat="46.69583" lon="5.63606">
        <ele>505</ele>
        <time>2022-05-17T09:40:32Z</time>
      </trkpt>
      <trkpt lat="46.69581" lon="5.63613">
        <ele>503.6</ele>
        <time>2022-05-17T09:40:40Z</time>
      </trkpt>
      <trkpt lat="46.69582" lon="5.63619">
        <ele>503.6</ele>
        <time>2022-05-17T09:40:44Z</time>
      </trkpt>
      <trkpt lat="46.69585" lon="5.63625">
        <ele>503.4</ele>
        <time>2022-05-17T09:40:48Z</time>
      </trkpt>
      <trkpt lat="46.69587" lon="5.63631">
        <ele>503</ele>
        <time>2022-05-17T09:40:51Z</time>
      </trkpt>
      <trkpt lat="46.69588" lon="5.63638">
        <ele>502.1</ele>
        <time>2022-05-17T09:40:56Z</time>
      </trkpt>
      <trkpt lat="46.69588" lon="5.63646">
        <ele>501.6</ele>
        <time>2022-05-17T09:41:01Z</time>
      </trkpt>
      <trkpt lat="46.69586" lon="5.63653">
        <ele>501.1</ele>
        <time>2022-05-17T09:41:05Z</time>
      </trkpt>
      <trkpt lat="46.69584" lon="5.6366">
        <ele>500.8</ele>
        <time>2022-05-17T09:41:14Z</time>
      </trkpt>
      <trkpt lat="46.69581" lon="5.63666">
        <ele>501</ele>
        <time>2022-05-17T09:41:18Z</time>
      </trkpt>
      <trkpt lat="46.69579" lon="5.63672">
        <ele>500.9</ele>
        <time>2022-05-17T09:41:22Z</time>
      </trkpt>
      <trkpt lat="46.69577" lon="5.63678">
        <ele>500.6</ele>
        <time>2022-05-17T09:41:26Z</time>
      </trkpt>
      <trkpt lat="46.69576" lon="5.63686">
        <ele>499.8</ele>
        <time>2022-05-17T09:41:30Z</time>
      </trkpt>
      <trkpt lat="46.69575" lon="5.63693">
        <ele>498.5</ele>
        <time>2022-05-17T09:41:36Z</time>
      </trkpt>
      <trkpt lat="46.69574" lon="5.637">
        <ele>498.4</ele>
        <time>2022-05-17T09:41:40Z</time>
      </trkpt>
      <trkpt lat="46.69573" lon="5.63708">
        <ele>497</ele>
        <time>2022-05-17T09:41:50Z</time>
      </trkpt>
      <trkpt lat="46.69572" lon="5.63715">
        <ele>496.8</ele>
        <time>2022-05-17T09:41:53Z</time>
      </trkpt>
      <trkpt lat="46.69572" lon="5.63722">
        <ele>496.8</ele>
        <time>2022-05-17T09:41:56Z</time>
      </trkpt>
      <trkpt lat="46.69571" lon="5.63729">
        <ele>496.9</ele>
        <time>2022-05-17T09:42:00Z</time>
      </trkpt>
      <trkpt lat="46.69572" lon="5.63736">
        <ele>496.7</ele>
        <time>2022-05-17T09:42:04Z</time>
      </trkpt>
      <trkpt lat="46.69571" lon="5.63743">
        <ele>496.4</ele>
        <time>2022-05-17T09:42:07Z</time>
      </trkpt>
      <trkpt lat="46.69572" lon="5.6375">
        <ele>496.1</ele>
        <time>2022-05-17T09:42:11Z</time>
      </trkpt>
      <trkpt lat="46.69573" lon="5.63758">
        <ele>496.4</ele>
        <time>2022-05-17T09:42:16Z</time>
      </trkpt>
      <trkpt lat="46.69574" lon="5.63766">
        <ele>496.9</ele>
        <time>2022-05-17T09:42:23Z</time>
      </trkpt>
      <trkpt lat="46.69578" lon="5.63773">
        <ele>497.9</ele>
        <time>2022-05-17T09:42:27Z</time>
      </trkpt>
      <trkpt lat="46.69581" lon="5.63778">
        <ele>499.1</ele>
        <time>2022-05-17T09:42:30Z</time>
      </trkpt>
      <trkpt lat="46.69585" lon="5.63785">
        <ele>500.4</ele>
        <time>2022-05-17T09:42:34Z</time>
      </trkpt>
      <trkpt lat="46.6959" lon="5.63788">
        <ele>501.6</ele>
        <time>2022-05-17T09:42:38Z</time>
      </trkpt>
      <trkpt lat="46.69595" lon="5.63791">
        <ele>503</ele>
        <time>2022-05-17T09:42:42Z</time>
      </trkpt>
      <trkpt lat="46.69599" lon="5.63796">
        <ele>504.4</ele>
        <time>2022-05-17T09:42:48Z</time>
      </trkpt>
      <trkpt lat="46.69604" lon="5.63798">
        <ele>505.3</ele>
        <time>2022-05-17T09:42:53Z</time>
      </trkpt>
      <trkpt lat="46.6961" lon="5.63798">
        <ele>505.6</ele>
        <time>2022-05-17T09:42:57Z</time>
      </trkpt>
      <trkpt lat="46.69615" lon="5.63798">
        <ele>505.8</ele>
        <time>2022-05-17T09:43:01Z</time>
      </trkpt>
      <trkpt lat="46.6962" lon="5.63797">
        <ele>505.5</ele>
        <time>2022-05-17T09:43:07Z</time>
      </trkpt>
      <trkpt lat="46.69625" lon="5.63796">
        <ele>504.7</ele>
        <time>2022-05-17T09:43:14Z</time>
      </trkpt>
      <trkpt lat="46.69631" lon="5.63795">
        <ele>505.1</ele>
        <time>2022-05-17T09:43:19Z</time>
      </trkpt>
      <trkpt lat="46.69635" lon="5.63793">
        <ele>506.3</ele>
        <time>2022-05-17T09:43:24Z</time>
      </trkpt>
      <trkpt lat="46.6964" lon="5.63789">
        <ele>507.2</ele>
        <time>2022-05-17T09:43:29Z</time>
      </trkpt>
      <trkpt lat="46.69645" lon="5.63789">
        <ele>507.8</ele>
        <time>2022-05-17T09:43:34Z</time>
      </trkpt>
      <trkpt lat="46.69649" lon="5.63789">
        <ele>507.8</ele>
        <time>2022-05-17T09:43:37Z</time>
      </trkpt>
      <trkpt lat="46.69654" lon="5.63789">
        <ele>507.9</ele>
        <time>2022-05-17T09:43:40Z</time>
      </trkpt>
      <trkpt lat="46.69659" lon="5.63788">
        <ele>508.4</ele>
        <time>2022-05-17T09:43:43Z</time>
      </trkpt>
      <trkpt lat="46.69665" lon="5.63789">
        <ele>509.4</ele>
        <time>2022-05-17T09:43:48Z</time>
      </trkpt>
      <trkpt lat="46.69669" lon="5.63786">
        <ele>510.1</ele>
        <time>2022-05-17T09:43:54Z</time>
      </trkpt>
      <trkpt lat="46.69673" lon="5.63783">
        <ele>510.7</ele>
        <time>2022-05-17T09:44:02Z</time>
      </trkpt>
      <trkpt lat="46.69679" lon="5.63785">
        <ele>510.4</ele>
        <time>2022-05-17T09:44:08Z</time>
      </trkpt>
      <trkpt lat="46.69684" lon="5.63786">
        <ele>509.8</ele>
        <time>2022-05-17T09:44:12Z</time>
      </trkpt>
      <trkpt lat="46.69689" lon="5.63787">
        <ele>509.1</ele>
        <time>2022-05-17T09:44:18Z</time>
      </trkpt>
      <trkpt lat="46.69693" lon="5.63788">
        <ele>508.2</ele>
        <time>2022-05-17T09:44:23Z</time>
      </trkpt>
      <trkpt lat="46.69698" lon="5.6379">
        <ele>507.6</ele>
        <time>2022-05-17T09:44:27Z</time>
      </trkpt>
      <trkpt lat="46.69704" lon="5.63791">
        <ele>507.4</ele>
        <time>2022-05-17T09:44:30Z</time>
      </trkpt>
      <trkpt lat="46.69709" lon="5.6379">
        <ele>507.2</ele>
        <time>2022-05-17T09:44:34Z</time>
      </trkpt>
      <trkpt lat="46.69714" lon="5.63791">
        <ele>507.1</ele>
        <time>2022-05-17T09:44:41Z</time>
      </trkpt>
      <trkpt lat="46.6972" lon="5.63791">
        <ele>507.5</ele>
        <time>2022-05-17T09:44:46Z</time>
      </trkpt>
      <trkpt lat="46.69725" lon="5.63793">
        <ele>507.6</ele>
        <time>2022-05-17T09:44:54Z</time>
      </trkpt>
      <trkpt lat="46.6973" lon="5.63794">
        <ele>507.4</ele>
        <time>2022-05-17T09:44:57Z</time>
      </trkpt>
      <trkpt lat="46.69735" lon="5.63794">
        <ele>507.2</ele>
        <time>2022-05-17T09:45:00Z</time>
      </trkpt>
      <trkpt lat="46.6974" lon="5.63793">
        <ele>507.2</ele>
        <time>2022-05-17T09:45:03Z</time>
      </trkpt>
      <trkpt lat="46.69745" lon="5.63793">
        <ele>506.7</ele>
        <time>2022-05-17T09:45:07Z</time>
      </trkpt>
      <trkpt lat="46.69746" lon="5.63787">
        <ele>505.8</ele>
        <time>2022-05-17T09:45:14Z</time>
      </trkpt>
      <trkpt lat="46.69751" lon="5.63788">
        <ele>505.1</ele>
        <time>2022-05-17T09:45:20Z</time>
      </trkpt>
      <trkpt lat="46.69756" lon="5.63784">
        <ele>504</ele>
        <time>2022-05-17T09:45:27Z</time>
      </trkpt>
      <trkpt lat="46.6976" lon="5.63786">
        <ele>504.9</ele>
        <time>2022-05-17T09:45:31Z</time>
      </trkpt>
      <trkpt lat="46.69765" lon="5.63787">
        <ele>505.2</ele>
        <time>2022-05-17T09:45:35Z</time>
      </trkpt>
      <trkpt lat="46.6977" lon="5.63788">
        <ele>505</ele>
        <time>2022-05-17T09:45:39Z</time>
      </trkpt>
      <trkpt lat="46.69776" lon="5.63788">
        <ele>504.5</ele>
        <time>2022-05-17T09:45:44Z</time>
      </trkpt>
      <trkpt lat="46.69781" lon="5.63787">
        <ele>503.8</ele>
        <time>2022-05-17T09:45:49Z</time>
      </trkpt>
      <trkpt lat="46.69786" lon="5.63789">
        <ele>503</ele>
        <time>2022-05-17T09:45:58Z</time>
      </trkpt>
      <trkpt lat="46.6979" lon="5.63791">
        <ele>502.5</ele>
        <time>2022-05-17T09:46:07Z</time>
      </trkpt>
      <trkpt lat="46.69796" lon="5.6379">
        <ele>502.8</ele>
        <time>2022-05-17T09:46:12Z</time>
      </trkpt>
      <trkpt lat="46.69801" lon="5.63789">
        <ele>503</ele>
        <time>2022-05-17T09:46:16Z</time>
      </trkpt>
      <trkpt lat="46.69806" lon="5.63789">
        <ele>503</ele>
        <time>2022-05-17T09:46:20Z</time>
      </trkpt>
      <trkpt lat="46.69811" lon="5.63786">
        <ele>502.6</ele>
        <time>2022-05-17T09:46:24Z</time>
      </trkpt>
      <trkpt lat="46.69816" lon="5.63783">
        <ele>502.3</ele>
        <time>2022-05-17T09:46:27Z</time>
      </trkpt>
      <trkpt lat="46.69821" lon="5.63784">
        <ele>501.7</ele>
        <time>2022-05-17T09:46:31Z</time>
      </trkpt>
      <trkpt lat="46.69826" lon="5.63786">
        <ele>501.2</ele>
        <time>2022-05-17T09:46:36Z</time>
      </trkpt>
      <trkpt lat="46.69831" lon="5.63789">
        <ele>501.1</ele>
        <time>2022-05-17T09:46:41Z</time>
      </trkpt>
      <trkpt lat="46.69835" lon="5.63786">
        <ele>501.4</ele>
        <time>2022-05-17T09:46:47Z</time>
      </trkpt>
      <trkpt lat="46.6984" lon="5.63786">
        <ele>502.2</ele>
        <time>2022-05-17T09:46:54Z</time>
      </trkpt>
      <trkpt lat="46.69844" lon="5.6379">
        <ele>502.4</ele>
        <time>2022-05-17T09:46:58Z</time>
      </trkpt>
      <trkpt lat="46.69849" lon="5.63792">
        <ele>502.4</ele>
        <time>2022-05-17T09:47:01Z</time>
      </trkpt>
      <trkpt lat="46.69854" lon="5.63794">
        <ele>502.2</ele>
        <time>2022-05-17T09:47:04Z</time>
      </trkpt>
      <trkpt lat="46.69859" lon="5.63793">
        <ele>501.9</ele>
        <time>2022-05-17T09:47:16Z</time>
      </trkpt>
      <trkpt lat="46.69863" lon="5.6379">
        <ele>502</ele>
        <time>2022-05-17T09:47:20Z</time>
      </trkpt>
      <trkpt lat="46.69868" lon="5.63792">
        <ele>502.8</ele>
        <time>2022-05-17T09:47:27Z</time>
      </trkpt>
      <trkpt lat="46.69871" lon="5.63797">
        <ele>503.8</ele>
        <time>2022-05-17T09:47:32Z</time>
      </trkpt>
      <trkpt lat="46.69876" lon="5.63798">
        <ele>504.7</ele>
        <time>2022-05-17T09:47:36Z</time>
      </trkpt>
      <trkpt lat="46.69882" lon="5.63799">
        <ele>505.7</ele>
        <time>2022-05-17T09:47:40Z</time>
      </trkpt>
      <trkpt lat="46.69886" lon="5.63796">
        <ele>506.9</ele>
        <time>2022-05-17T09:47:45Z</time>
      </trkpt>
      <trkpt lat="46.69891" lon="5.63794">
        <ele>507.6</ele>
        <time>2022-05-17T09:47:50Z</time>
      </trkpt>
      <trkpt lat="46.69896" lon="5.63793">
        <ele>507.4</ele>
        <time>2022-05-17T09:47:53Z</time>
      </trkpt>
      <trkpt lat="46.699" lon="5.63797">
        <ele>505</ele>
        <time>2022-05-17T09:48:18Z</time>
      </trkpt>
      <trkpt lat="46.69904" lon="5.63799">
        <ele>498.5</ele>
        <time>2022-05-17T09:48:37Z</time>
      </trkpt>
      <trkpt lat="46.69907" lon="5.63805">
        <ele>497.6</ele>
        <time>2022-05-17T09:48:44Z</time>
      </trkpt>
      <trkpt lat="46.69911" lon="5.63808">
        <ele>497.9</ele>
        <time>2022-05-17T09:48:47Z</time>
      </trkpt>
      <trkpt lat="46.69915" lon="5.63812">
        <ele>498.2</ele>
        <time>2022-05-17T09:48:50Z</time>
      </trkpt>
      <trkpt lat="46.6992" lon="5.63817">
        <ele>498.3</ele>
        <time>2022-05-17T09:48:53Z</time>
      </trkpt>
      <trkpt lat="46.69924" lon="5.63822">
        <ele>498.1</ele>
        <time>2022-05-17T09:48:56Z</time>
      </trkpt>
      <trkpt lat="46.69928" lon="5.63826">
        <ele>498.1</ele>
        <time>2022-05-17T09:49:00Z</time>
      </trkpt>
      <trkpt lat="46.69934" lon="5.63828">
        <ele>497.8</ele>
        <time>2022-05-17T09:49:04Z</time>
      </trkpt>
      <trkpt lat="46.69939" lon="5.6383">
        <ele>497.5</ele>
        <time>2022-05-17T09:49:08Z</time>
      </trkpt>
      <trkpt lat="46.69941" lon="5.63837">
        <ele>497</ele>
        <time>2022-05-17T09:49:12Z</time>
      </trkpt>
      <trkpt lat="46.69941" lon="5.63845">
        <ele>496.2</ele>
        <time>2022-05-17T09:49:16Z</time>
      </trkpt>
      <trkpt lat="46.69941" lon="5.63853">
        <ele>495.6</ele>
        <time>2022-05-17T09:49:20Z</time>
      </trkpt>
      <trkpt lat="46.69942" lon="5.63859">
        <ele>496</ele>
        <time>2022-05-17T09:49:27Z</time>
      </trkpt>
      <trkpt lat="46.69946" lon="5.63865">
        <ele>497</ele>
        <time>2022-05-17T09:49:35Z</time>
      </trkpt>
      <trkpt lat="46.6995" lon="5.6387">
        <ele>497.4</ele>
        <time>2022-05-17T09:49:39Z</time>
      </trkpt>
      <trkpt lat="46.69952" lon="5.63877">
        <ele>497.5</ele>
        <time>2022-05-17T09:49:43Z</time>
      </trkpt>
      <trkpt lat="46.69955" lon="5.63882">
        <ele>497.6</ele>
        <time>2022-05-17T09:49:47Z</time>
      </trkpt>
      <trkpt lat="46.69959" lon="5.63887">
        <ele>497.8</ele>
        <time>2022-05-17T09:49:53Z</time>
      </trkpt>
      <trkpt lat="46.69963" lon="5.6389">
        <ele>497.7</ele>
        <time>2022-05-17T09:50:01Z</time>
      </trkpt>
      <trkpt lat="46.69965" lon="5.63896">
        <ele>498</ele>
        <time>2022-05-17T09:50:06Z</time>
      </trkpt>
      <trkpt lat="46.69968" lon="5.63902">
        <ele>498.6</ele>
        <time>2022-05-17T09:50:12Z</time>
      </trkpt>
      <trkpt lat="46.6997" lon="5.63909">
        <ele>499.2</ele>
        <time>2022-05-17T09:50:19Z</time>
      </trkpt>
      <trkpt lat="46.69971" lon="5.63918">
        <ele>498.7</ele>
        <time>2022-05-17T09:50:26Z</time>
      </trkpt>
      <trkpt lat="46.69973" lon="5.63925">
        <ele>498.1</ele>
        <time>2022-05-17T09:50:29Z</time>
      </trkpt>
      <trkpt lat="46.69978" lon="5.63928">
        <ele>496.4</ele>
        <time>2022-05-17T09:50:34Z</time>
      </trkpt>
      <trkpt lat="46.69983" lon="5.63929">
        <ele>495.3</ele>
        <time>2022-05-17T09:50:39Z</time>
      </trkpt>
      <trkpt lat="46.69989" lon="5.63931">
        <ele>494.8</ele>
        <time>2022-05-17T09:50:44Z</time>
      </trkpt>
      <trkpt lat="46.6999" lon="5.63939">
        <ele>494.3</ele>
        <time>2022-05-17T09:50:49Z</time>
      </trkpt>
      <trkpt lat="46.69992" lon="5.63946">
        <ele>494</ele>
        <time>2022-05-17T09:50:54Z</time>
      </trkpt>
      <trkpt lat="46.69995" lon="5.63952">
        <ele>494.2</ele>
        <time>2022-05-17T09:50:59Z</time>
      </trkpt>
      <trkpt lat="46.69999" lon="5.63956">
        <ele>494.7</ele>
        <time>2022-05-17T09:51:05Z</time>
      </trkpt>
      <trkpt lat="46.70002" lon="5.63961">
        <ele>495.1</ele>
        <time>2022-05-17T09:51:08Z</time>
      </trkpt>
      <trkpt lat="46.70006" lon="5.63966">
        <ele>495.9</ele>
        <time>2022-05-17T09:51:12Z</time>
      </trkpt>
      <trkpt lat="46.7001" lon="5.63968">
        <ele>497.1</ele>
        <time>2022-05-17T09:51:16Z</time>
      </trkpt>
      <trkpt lat="46.70014" lon="5.63972">
        <ele>497.7</ele>
        <time>2022-05-17T09:51:23Z</time>
      </trkpt>
      <trkpt lat="46.70011" lon="5.63975">
        <ele>495.6</ele>
        <time>2022-05-17T09:51:33Z</time>
      </trkpt>
      <trkpt lat="46.70016" lon="5.63975">
        <ele>495.7</ele>
        <time>2022-05-17T09:51:48Z</time>
      </trkpt>
      <trkpt lat="46.70021" lon="5.63978">
        <ele>495.8</ele>
        <time>2022-05-17T09:51:51Z</time>
      </trkpt>
      <trkpt lat="46.70025" lon="5.63982">
        <ele>495.3</ele>
        <time>2022-05-17T09:51:56Z</time>
      </trkpt>
      <trkpt lat="46.7003" lon="5.63982">
        <ele>489.6</ele>
        <time>2022-05-17T09:52:10Z</time>
      </trkpt>
      <trkpt lat="46.70036" lon="5.63984">
        <ele>488.4</ele>
        <time>2022-05-17T09:52:14Z</time>
      </trkpt>
      <trkpt lat="46.70041" lon="5.63985">
        <ele>487.1</ele>
        <time>2022-05-17T09:52:18Z</time>
      </trkpt>
      <trkpt lat="46.70046" lon="5.63984">
        <ele>486</ele>
        <time>2022-05-17T09:52:22Z</time>
      </trkpt>
      <trkpt lat="46.70048" lon="5.63978">
        <ele>485.3</ele>
        <time>2022-05-17T09:52:27Z</time>
      </trkpt>
      <trkpt lat="46.70053" lon="5.63978">
        <ele>486.8</ele>
        <time>2022-05-17T09:52:42Z</time>
      </trkpt>
      <trkpt lat="46.70058" lon="5.6398">
        <ele>487.3</ele>
        <time>2022-05-17T09:52:48Z</time>
      </trkpt>
      <trkpt lat="46.70064" lon="5.63982">
        <ele>487.6</ele>
        <time>2022-05-17T09:52:55Z</time>
      </trkpt>
      <trkpt lat="46.70068" lon="5.63984">
        <ele>487.7</ele>
        <time>2022-05-17T09:52:59Z</time>
      </trkpt>
      <trkpt lat="46.70073" lon="5.63989">
        <ele>487.9</ele>
        <time>2022-05-17T09:53:04Z</time>
      </trkpt>
      <trkpt lat="46.70078" lon="5.63992">
        <ele>487.9</ele>
        <time>2022-05-17T09:53:08Z</time>
      </trkpt>
      <trkpt lat="46.70082" lon="5.63997">
        <ele>487.9</ele>
        <time>2022-05-17T09:53:12Z</time>
      </trkpt>
      <trkpt lat="46.70086" lon="5.64003">
        <ele>488.2</ele>
        <time>2022-05-17T09:53:16Z</time>
      </trkpt>
      <trkpt lat="46.70088" lon="5.64009">
        <ele>488.6</ele>
        <time>2022-05-17T09:53:21Z</time>
      </trkpt>
      <trkpt lat="46.70092" lon="5.64015">
        <ele>488.8</ele>
        <time>2022-05-17T09:53:25Z</time>
      </trkpt>
      <trkpt lat="46.70096" lon="5.64019">
        <ele>488.9</ele>
        <time>2022-05-17T09:53:30Z</time>
      </trkpt>
      <trkpt lat="46.70099" lon="5.64024">
        <ele>489.4</ele>
        <time>2022-05-17T09:53:35Z</time>
      </trkpt>
      <trkpt lat="46.70103" lon="5.64028">
        <ele>490.1</ele>
        <time>2022-05-17T09:53:41Z</time>
      </trkpt>
      <trkpt lat="46.70101" lon="5.64034">
        <ele>489.8</ele>
        <time>2022-05-17T09:53:52Z</time>
      </trkpt>
      <trkpt lat="46.70105" lon="5.6404">
        <ele>490</ele>
        <time>2022-05-17T09:54:11Z</time>
      </trkpt>
      <trkpt lat="46.70107" lon="5.64045">
        <ele>489</ele>
        <time>2022-05-17T09:54:20Z</time>
      </trkpt>
      <trkpt lat="46.70111" lon="5.6405">
        <ele>489.1</ele>
        <time>2022-05-17T09:54:28Z</time>
      </trkpt>
      <trkpt lat="46.70117" lon="5.64051">
        <ele>490.1</ele>
        <time>2022-05-17T09:54:33Z</time>
      </trkpt>
      <trkpt lat="46.70121" lon="5.64056">
        <ele>491.7</ele>
        <time>2022-05-17T09:54:37Z</time>
      </trkpt>
      <trkpt lat="46.70125" lon="5.6406">
        <ele>492.4</ele>
        <time>2022-05-17T09:54:41Z</time>
      </trkpt>
      <trkpt lat="46.70129" lon="5.64064">
        <ele>492.7</ele>
        <time>2022-05-17T09:54:45Z</time>
      </trkpt>
      <trkpt lat="46.70134" lon="5.64067">
        <ele>492.5</ele>
        <time>2022-05-17T09:54:51Z</time>
      </trkpt>
      <trkpt lat="46.70137" lon="5.64071">
        <ele>491.8</ele>
        <time>2022-05-17T09:54:57Z</time>
      </trkpt>
      <trkpt lat="46.70141" lon="5.64076">
        <ele>491.3</ele>
        <time>2022-05-17T09:55:02Z</time>
      </trkpt>
      <trkpt lat="46.70146" lon="5.6408">
        <ele>491.3</ele>
        <time>2022-05-17T09:55:07Z</time>
      </trkpt>
      <trkpt lat="46.70151" lon="5.64083">
        <ele>491.8</ele>
        <time>2022-05-17T09:55:12Z</time>
      </trkpt>
      <trkpt lat="46.70156" lon="5.64086">
        <ele>492.3</ele>
        <time>2022-05-17T09:55:16Z</time>
      </trkpt>
      <trkpt lat="46.70159" lon="5.6409">
        <ele>492.7</ele>
        <time>2022-05-17T09:55:20Z</time>
      </trkpt>
      <trkpt lat="46.70163" lon="5.64095">
        <ele>491.6</ele>
        <time>2022-05-17T09:55:58Z</time>
      </trkpt>
      <trkpt lat="46.70168" lon="5.64098">
        <ele>492.4</ele>
        <time>2022-05-17T09:56:03Z</time>
      </trkpt>
      <trkpt lat="46.70172" lon="5.64094">
        <ele>492.6</ele>
        <time>2022-05-17T09:56:09Z</time>
      </trkpt>
      <trkpt lat="46.70177" lon="5.64094">
        <ele>492.6</ele>
        <time>2022-05-17T09:56:15Z</time>
      </trkpt>
      <trkpt lat="46.70182" lon="5.64092">
        <ele>491.3</ele>
        <time>2022-05-17T09:56:27Z</time>
      </trkpt>
      <trkpt lat="46.70187" lon="5.64092">
        <ele>490.2</ele>
        <time>2022-05-17T09:56:32Z</time>
      </trkpt>
      <trkpt lat="46.70192" lon="5.64093">
        <ele>489.2</ele>
        <time>2022-05-17T09:56:36Z</time>
      </trkpt>
      <trkpt lat="46.70197" lon="5.64093">
        <ele>487.9</ele>
        <time>2022-05-17T09:56:41Z</time>
      </trkpt>
      <trkpt lat="46.70201" lon="5.64094">
        <ele>487</ele>
        <time>2022-05-17T09:56:46Z</time>
      </trkpt>
      <trkpt lat="46.70206" lon="5.64095">
        <ele>486.2</ele>
        <time>2022-05-17T09:56:53Z</time>
      </trkpt>
      <trkpt lat="46.70209" lon="5.64101">
        <ele>485.4</ele>
        <time>2022-05-17T09:56:59Z</time>
      </trkpt>
      <trkpt lat="46.70211" lon="5.64107">
        <ele>485.9</ele>
        <time>2022-05-17T09:57:03Z</time>
      </trkpt>
      <trkpt lat="46.70215" lon="5.64111">
        <ele>486.8</ele>
        <time>2022-05-17T09:57:07Z</time>
      </trkpt>
      <trkpt lat="46.7022" lon="5.64114">
        <ele>487.8</ele>
        <time>2022-05-17T09:57:13Z</time>
      </trkpt>
      <trkpt lat="46.70224" lon="5.64116">
        <ele>488.4</ele>
        <time>2022-05-17T09:57:17Z</time>
      </trkpt>
      <trkpt lat="46.70228" lon="5.6412">
        <ele>488.9</ele>
        <time>2022-05-17T09:57:21Z</time>
      </trkpt>
      <trkpt lat="46.70231" lon="5.64125">
        <ele>489.3</ele>
        <time>2022-05-17T09:57:26Z</time>
      </trkpt>
      <trkpt lat="46.70233" lon="5.64132">
        <ele>489.7</ele>
        <time>2022-05-17T09:57:31Z</time>
      </trkpt>
      <trkpt lat="46.70237" lon="5.64137">
        <ele>489.1</ele>
        <time>2022-05-17T09:57:38Z</time>
      </trkpt>
      <trkpt lat="46.7024" lon="5.64142">
        <ele>488.8</ele>
        <time>2022-05-17T09:57:42Z</time>
      </trkpt>
      <trkpt lat="46.70243" lon="5.64147">
        <ele>488.8</ele>
        <time>2022-05-17T09:57:46Z</time>
      </trkpt>
      <trkpt lat="46.70247" lon="5.64152">
        <ele>489</ele>
        <time>2022-05-17T09:57:50Z</time>
      </trkpt>
      <trkpt lat="46.70252" lon="5.64156">
        <ele>489.7</ele>
        <time>2022-05-17T09:57:55Z</time>
      </trkpt>
      <trkpt lat="46.70254" lon="5.64163">
        <ele>491.2</ele>
        <time>2022-05-17T09:58:03Z</time>
      </trkpt>
      <trkpt lat="46.70256" lon="5.64169">
        <ele>491.8</ele>
        <time>2022-05-17T09:58:10Z</time>
      </trkpt>
      <trkpt lat="46.70259" lon="5.64174">
        <ele>492.2</ele>
        <time>2022-05-17T09:58:17Z</time>
      </trkpt>
      <trkpt lat="46.70261" lon="5.64181">
        <ele>490.2</ele>
        <time>2022-05-17T09:59:23Z</time>
      </trkpt>
      <trkpt lat="46.70266" lon="5.64181">
        <ele>489.2</ele>
        <time>2022-05-17T09:59:27Z</time>
      </trkpt>
      <trkpt lat="46.7027" lon="5.64179">
        <ele>488.3</ele>
        <time>2022-05-17T09:59:31Z</time>
      </trkpt>
      <trkpt lat="46.70275" lon="5.64179">
        <ele>487.7</ele>
        <time>2022-05-17T09:59:37Z</time>
      </trkpt>
      <trkpt lat="46.7028" lon="5.64181">
        <ele>487.6</ele>
        <time>2022-05-17T09:59:41Z</time>
      </trkpt>
      <trkpt lat="46.70285" lon="5.64183">
        <ele>487.5</ele>
        <time>2022-05-17T09:59:45Z</time>
      </trkpt>
      <trkpt lat="46.7029" lon="5.64184">
        <ele>487.1</ele>
        <time>2022-05-17T09:59:49Z</time>
      </trkpt>
      <trkpt lat="46.70295" lon="5.64185">
        <ele>486.9</ele>
        <time>2022-05-17T09:59:53Z</time>
      </trkpt>
      <trkpt lat="46.703" lon="5.64186">
        <ele>486.9</ele>
        <time>2022-05-17T09:59:57Z</time>
      </trkpt>
      <trkpt lat="46.70305" lon="5.64185">
        <ele>487.9</ele>
        <time>2022-05-17T10:00:03Z</time>
      </trkpt>
      <trkpt lat="46.70309" lon="5.64188">
        <ele>489.3</ele>
        <time>2022-05-17T10:00:10Z</time>
      </trkpt>
      <trkpt lat="46.70314" lon="5.64192">
        <ele>490.6</ele>
        <time>2022-05-17T10:00:19Z</time>
      </trkpt>
      <trkpt lat="46.70318" lon="5.6419">
        <ele>489.3</ele>
        <time>2022-05-17T10:00:35Z</time>
      </trkpt>
      <trkpt lat="46.70323" lon="5.6419">
        <ele>487.7</ele>
        <time>2022-05-17T10:00:42Z</time>
      </trkpt>
      <trkpt lat="46.70328" lon="5.64191">
        <ele>487</ele>
        <time>2022-05-17T10:00:46Z</time>
      </trkpt>
      <trkpt lat="46.70333" lon="5.64192">
        <ele>486.6</ele>
        <time>2022-05-17T10:00:53Z</time>
      </trkpt>
      <trkpt lat="46.70339" lon="5.64194">
        <ele>487.2</ele>
        <time>2022-05-17T10:00:57Z</time>
      </trkpt>
      <trkpt lat="46.70344" lon="5.64196">
        <ele>487.9</ele>
        <time>2022-05-17T10:01:01Z</time>
      </trkpt>
      <trkpt lat="46.70349" lon="5.64198">
        <ele>488.6</ele>
        <time>2022-05-17T10:01:06Z</time>
      </trkpt>
      <trkpt lat="46.70353" lon="5.64198">
        <ele>489.5</ele>
        <time>2022-05-17T10:01:11Z</time>
      </trkpt>
      <trkpt lat="46.70358" lon="5.642">
        <ele>490.8</ele>
        <time>2022-05-17T10:01:18Z</time>
      </trkpt>
      <trkpt lat="46.70363" lon="5.64202">
        <ele>491.5</ele>
        <time>2022-05-17T10:01:25Z</time>
      </trkpt>
      <trkpt lat="46.70369" lon="5.64202">
        <ele>491.8</ele>
        <time>2022-05-17T10:01:32Z</time>
      </trkpt>
      <trkpt lat="46.70373" lon="5.64207">
        <ele>491.9</ele>
        <time>2022-05-17T10:01:37Z</time>
      </trkpt>
      <trkpt lat="46.70377" lon="5.64211">
        <ele>492.4</ele>
        <time>2022-05-17T10:01:41Z</time>
      </trkpt>
      <trkpt lat="46.70382" lon="5.64215">
        <ele>492.7</ele>
        <time>2022-05-17T10:01:45Z</time>
      </trkpt>
      <trkpt lat="46.70386" lon="5.64217">
        <ele>493.2</ele>
        <time>2022-05-17T10:01:48Z</time>
      </trkpt>
      <trkpt lat="46.70391" lon="5.6422">
        <ele>493.7</ele>
        <time>2022-05-17T10:01:55Z</time>
      </trkpt>
      <trkpt lat="46.70396" lon="5.64223">
        <ele>492.8</ele>
        <time>2022-05-17T10:02:06Z</time>
      </trkpt>
      <trkpt lat="46.704" lon="5.64225">
        <ele>492.2</ele>
        <time>2022-05-17T10:02:20Z</time>
      </trkpt>
      <trkpt lat="46.70404" lon="5.64228">
        <ele>491.8</ele>
        <time>2022-05-17T10:02:30Z</time>
      </trkpt>
      <trkpt lat="46.70409" lon="5.6423">
        <ele>492.4</ele>
        <time>2022-05-17T10:02:36Z</time>
      </trkpt>
      <trkpt lat="46.70414" lon="5.6423">
        <ele>493</ele>
        <time>2022-05-17T10:02:39Z</time>
      </trkpt>
      <trkpt lat="46.70419" lon="5.64228">
        <ele>493.3</ele>
        <time>2022-05-17T10:02:42Z</time>
      </trkpt>
      <trkpt lat="46.70424" lon="5.64227">
        <ele>494.3</ele>
        <time>2022-05-17T10:02:46Z</time>
      </trkpt>
      <trkpt lat="46.70429" lon="5.64226">
        <ele>495.5</ele>
        <time>2022-05-17T10:02:50Z</time>
      </trkpt>
      <trkpt lat="46.70435" lon="5.64224">
        <ele>496.6</ele>
        <time>2022-05-17T10:02:54Z</time>
      </trkpt>
      <trkpt lat="46.70439" lon="5.64224">
        <ele>497.7</ele>
        <time>2022-05-17T10:02:59Z</time>
      </trkpt>
      <trkpt lat="46.70445" lon="5.64224">
        <ele>498.6</ele>
        <time>2022-05-17T10:03:05Z</time>
      </trkpt>
      <trkpt lat="46.70449" lon="5.64226">
        <ele>498.8</ele>
        <time>2022-05-17T10:03:09Z</time>
      </trkpt>
      <trkpt lat="46.70453" lon="5.6423">
        <ele>498.8</ele>
        <time>2022-05-17T10:03:14Z</time>
      </trkpt>
      <trkpt lat="46.70458" lon="5.64231">
        <ele>498.6</ele>
        <time>2022-05-17T10:03:18Z</time>
      </trkpt>
      <trkpt lat="46.70462" lon="5.64232">
        <ele>498.5</ele>
        <time>2022-05-17T10:03:24Z</time>
      </trkpt>
      <trkpt lat="46.70467" lon="5.64234">
        <ele>498.5</ele>
        <time>2022-05-17T10:03:28Z</time>
      </trkpt>
      <trkpt lat="46.70472" lon="5.64235">
        <ele>498.7</ele>
        <time>2022-05-17T10:03:33Z</time>
      </trkpt>
      <trkpt lat="46.70478" lon="5.64237">
        <ele>498.8</ele>
        <time>2022-05-17T10:03:38Z</time>
      </trkpt>
      <trkpt lat="46.70481" lon="5.64241">
        <ele>498.8</ele>
        <time>2022-05-17T10:03:42Z</time>
      </trkpt>
      <trkpt lat="46.70484" lon="5.64246">
        <ele>498.6</ele>
        <time>2022-05-17T10:03:50Z</time>
      </trkpt>
      <trkpt lat="46.70487" lon="5.64251">
        <ele>497.2</ele>
        <time>2022-05-17T10:04:03Z</time>
      </trkpt>
      <trkpt lat="46.70492" lon="5.64251">
        <ele>495.5</ele>
        <time>2022-05-17T10:04:12Z</time>
      </trkpt>
      <trkpt lat="46.70495" lon="5.64257">
        <ele>494.4</ele>
        <time>2022-05-17T10:04:25Z</time>
      </trkpt>
      <trkpt lat="46.705" lon="5.64261">
        <ele>494.6</ele>
        <time>2022-05-17T10:04:29Z</time>
      </trkpt>
      <trkpt lat="46.70502" lon="5.64267">
        <ele>494.5</ele>
        <time>2022-05-17T10:04:34Z</time>
      </trkpt>
      <trkpt lat="46.70504" lon="5.64273">
        <ele>493.2</ele>
        <time>2022-05-17T10:04:45Z</time>
      </trkpt>
      <trkpt lat="46.70508" lon="5.64279">
        <ele>492.6</ele>
        <time>2022-05-17T10:04:50Z</time>
      </trkpt>
      <trkpt lat="46.7051" lon="5.64286">
        <ele>492.2</ele>
        <time>2022-05-17T10:04:55Z</time>
      </trkpt>
      <trkpt lat="46.70515" lon="5.64283">
        <ele>490.9</ele>
        <time>2022-05-17T10:05:03Z</time>
      </trkpt>
      <trkpt lat="46.70519" lon="5.64286">
        <ele>487</ele>
        <time>2022-05-17T10:05:23Z</time>
      </trkpt>
      <trkpt lat="46.70524" lon="5.64285">
        <ele>485.7</ele>
        <time>2022-05-17T10:05:29Z</time>
      </trkpt>
      <trkpt lat="46.70529" lon="5.64287">
        <ele>483.2</ele>
        <time>2022-05-17T10:05:41Z</time>
      </trkpt>
      <trkpt lat="46.70534" lon="5.64284">
        <ele>482.5</ele>
        <time>2022-05-17T10:05:47Z</time>
      </trkpt>
      <trkpt lat="46.70539" lon="5.64285">
        <ele>480.8</ele>
        <time>2022-05-17T10:05:56Z</time>
      </trkpt>
      <trkpt lat="46.70544" lon="5.64287">
        <ele>479.6</ele>
        <time>2022-05-17T10:06:02Z</time>
      </trkpt>
      <trkpt lat="46.70549" lon="5.64287">
        <ele>479.1</ele>
        <time>2022-05-17T10:06:06Z</time>
      </trkpt>
      <trkpt lat="46.70554" lon="5.64288">
        <ele>479</ele>
        <time>2022-05-17T10:06:09Z</time>
      </trkpt>
      <trkpt lat="46.70558" lon="5.64291">
        <ele>478.9</ele>
        <time>2022-05-17T10:06:12Z</time>
      </trkpt>
      <trkpt lat="46.70562" lon="5.64294">
        <ele>478.1</ele>
        <time>2022-05-17T10:06:19Z</time>
      </trkpt>
      <trkpt lat="46.70566" lon="5.6429">
        <ele>476.9</ele>
        <time>2022-05-17T10:06:26Z</time>
      </trkpt>
      <trkpt lat="46.70571" lon="5.64293">
        <ele>476.5</ele>
        <time>2022-05-17T10:06:35Z</time>
      </trkpt>
      <trkpt lat="46.70576" lon="5.64294">
        <ele>476.4</ele>
        <time>2022-05-17T10:06:44Z</time>
      </trkpt>
      <trkpt lat="46.70581" lon="5.64296">
        <ele>476.2</ele>
        <time>2022-05-17T10:06:48Z</time>
      </trkpt>
      <trkpt lat="46.70587" lon="5.64298">
        <ele>476</ele>
        <time>2022-05-17T10:06:51Z</time>
      </trkpt>
      <trkpt lat="46.70593" lon="5.64299">
        <ele>475.9</ele>
        <time>2022-05-17T10:06:54Z</time>
      </trkpt>
      <trkpt lat="46.70598" lon="5.64299">
        <ele>476.2</ele>
        <time>2022-05-17T10:06:57Z</time>
      </trkpt>
      <trkpt lat="46.70604" lon="5.643">
        <ele>477.4</ele>
        <time>2022-05-17T10:07:01Z</time>
      </trkpt>
      <trkpt lat="46.70609" lon="5.64299">
        <ele>478.9</ele>
        <time>2022-05-17T10:07:07Z</time>
      </trkpt>
      <trkpt lat="46.70615" lon="5.64299">
        <ele>479.6</ele>
        <time>2022-05-17T10:07:12Z</time>
      </trkpt>
      <trkpt lat="46.70619" lon="5.64299">
        <ele>479.7</ele>
        <time>2022-05-17T10:07:15Z</time>
      </trkpt>
      <trkpt lat="46.70624" lon="5.643">
        <ele>479.7</ele>
        <time>2022-05-17T10:07:19Z</time>
      </trkpt>
      <trkpt lat="46.70628" lon="5.64304">
        <ele>479.1</ele>
        <time>2022-05-17T10:07:26Z</time>
      </trkpt>
      <trkpt lat="46.70633" lon="5.64307">
        <ele>478</ele>
        <time>2022-05-17T10:07:36Z</time>
      </trkpt>
      <trkpt lat="46.70637" lon="5.64308">
        <ele>477.6</ele>
        <time>2022-05-17T10:07:40Z</time>
      </trkpt>
      <trkpt lat="46.70642" lon="5.64306">
        <ele>477.7</ele>
        <time>2022-05-17T10:07:49Z</time>
      </trkpt>
      <trkpt lat="46.70648" lon="5.64303">
        <ele>477.9</ele>
        <time>2022-05-17T10:07:53Z</time>
      </trkpt>
      <trkpt lat="46.70654" lon="5.64302">
        <ele>478.3</ele>
        <time>2022-05-17T10:07:57Z</time>
      </trkpt>
      <trkpt lat="46.70658" lon="5.64297">
        <ele>479</ele>
        <time>2022-05-17T10:08:02Z</time>
      </trkpt>
      <trkpt lat="46.70662" lon="5.64292">
        <ele>479.6</ele>
        <time>2022-05-17T10:08:07Z</time>
      </trkpt>
      <trkpt lat="46.70667" lon="5.6429">
        <ele>480.1</ele>
        <time>2022-05-17T10:08:13Z</time>
      </trkpt>
      <trkpt lat="46.70671" lon="5.64294">
        <ele>481.2</ele>
        <time>2022-05-17T10:08:25Z</time>
      </trkpt>
      <trkpt lat="46.70676" lon="5.64293">
        <ele>481.5</ele>
        <time>2022-05-17T10:08:30Z</time>
      </trkpt>
      <trkpt lat="46.7068" lon="5.64298">
        <ele>481.4</ele>
        <time>2022-05-17T10:08:36Z</time>
      </trkpt>
      <trkpt lat="46.70685" lon="5.64295">
        <ele>480.6</ele>
        <time>2022-05-17T10:08:42Z</time>
      </trkpt>
      <trkpt lat="46.7068" lon="5.64298">
        <ele>481.1</ele>
        <time>2022-05-17T10:08:55Z</time>
      </trkpt>
      <trkpt lat="46.70679" lon="5.64291">
        <ele>482.5</ele>
        <time>2022-05-17T10:09:05Z</time>
      </trkpt>
      <trkpt lat="46.70681" lon="5.64286">
        <ele>484.1</ele>
        <time>2022-05-17T10:09:16Z</time>
      </trkpt>
      <trkpt lat="46.70686" lon="5.64286">
        <ele>485.4</ele>
        <time>2022-05-17T10:09:25Z</time>
      </trkpt>
      <trkpt lat="46.70691" lon="5.64287">
        <ele>485.2</ele>
        <time>2022-05-17T10:09:32Z</time>
      </trkpt>
      <trkpt lat="46.70695" lon="5.64285">
        <ele>483.3</ele>
        <time>2022-05-17T10:09:41Z</time>
      </trkpt>
      <trkpt lat="46.707" lon="5.64283">
        <ele>481.7</ele>
        <time>2022-05-17T10:09:46Z</time>
      </trkpt>
      <trkpt lat="46.70703" lon="5.64289">
        <ele>480.3</ele>
        <time>2022-05-17T10:09:51Z</time>
      </trkpt>
      <trkpt lat="46.70708" lon="5.6429">
        <ele>479.5</ele>
        <time>2022-05-17T10:09:58Z</time>
      </trkpt>
      <trkpt lat="46.70713" lon="5.6429">
        <ele>479.5</ele>
        <time>2022-05-17T10:10:02Z</time>
      </trkpt>
      <trkpt lat="46.70719" lon="5.6429">
        <ele>479.4</ele>
        <time>2022-05-17T10:10:06Z</time>
      </trkpt>
      <trkpt lat="46.70724" lon="5.6429">
        <ele>479</ele>
        <time>2022-05-17T10:10:10Z</time>
      </trkpt>
      <trkpt lat="46.70729" lon="5.6429">
        <ele>478.4</ele>
        <time>2022-05-17T10:10:14Z</time>
      </trkpt>
      <trkpt lat="46.70733" lon="5.64291">
        <ele>477.5</ele>
        <time>2022-05-17T10:10:19Z</time>
      </trkpt>
      <trkpt lat="46.70738" lon="5.6429">
        <ele>478</ele>
        <time>2022-05-17T10:10:28Z</time>
      </trkpt>
      <trkpt lat="46.70742" lon="5.64287">
        <ele>479</ele>
        <time>2022-05-17T10:10:37Z</time>
      </trkpt>
      <trkpt lat="46.70747" lon="5.64291">
        <ele>479.8</ele>
        <time>2022-05-17T10:10:43Z</time>
      </trkpt>
      <trkpt lat="46.70751" lon="5.64295">
        <ele>480.2</ele>
        <time>2022-05-17T10:10:46Z</time>
      </trkpt>
      <trkpt lat="46.70756" lon="5.64301">
        <ele>480.8</ele>
        <time>2022-05-17T10:10:50Z</time>
      </trkpt>
      <trkpt lat="46.70761" lon="5.64306">
        <ele>481.1</ele>
        <time>2022-05-17T10:10:53Z</time>
      </trkpt>
      <trkpt lat="46.70765" lon="5.64311">
        <ele>480.9</ele>
        <time>2022-05-17T10:10:56Z</time>
      </trkpt>
      <trkpt lat="46.70769" lon="5.64315">
        <ele>479.9</ele>
        <time>2022-05-17T10:11:01Z</time>
      </trkpt>
      <trkpt lat="46.70773" lon="5.64318">
        <ele>478.1</ele>
        <time>2022-05-17T10:11:08Z</time>
      </trkpt>
      <trkpt lat="46.70778" lon="5.64318">
        <ele>477.6</ele>
        <time>2022-05-17T10:11:16Z</time>
      </trkpt>
      <trkpt lat="46.70778" lon="5.64308">
        <ele>479.3</ele>
        <time>2022-05-17T10:11:57Z</time>
      </trkpt>
      <trkpt lat="46.7078" lon="5.64315">
        <ele>479.3</ele>
        <time>2022-05-17T10:12:10Z</time>
      </trkpt>
      <trkpt lat="46.70784" lon="5.64317">
        <ele>479</ele>
        <time>2022-05-17T10:12:16Z</time>
      </trkpt>
      <trkpt lat="46.70789" lon="5.64319">
        <ele>478.7</ele>
        <time>2022-05-17T10:12:21Z</time>
      </trkpt>
      <trkpt lat="46.70794" lon="5.64321">
        <ele>478.3</ele>
        <time>2022-05-17T10:12:27Z</time>
      </trkpt>
      <trkpt lat="46.70798" lon="5.64322">
        <ele>477.8</ele>
        <time>2022-05-17T10:12:33Z</time>
      </trkpt>
      <trkpt lat="46.70803" lon="5.64323">
        <ele>477.8</ele>
        <time>2022-05-17T10:12:36Z</time>
      </trkpt>
      <trkpt lat="46.70808" lon="5.64324">
        <ele>477.6</ele>
        <time>2022-05-17T10:12:42Z</time>
      </trkpt>
      <trkpt lat="46.70813" lon="5.64325">
        <ele>477.5</ele>
        <time>2022-05-17T10:12:48Z</time>
      </trkpt>
      <trkpt lat="46.70819" lon="5.64327">
        <ele>478.1</ele>
        <time>2022-05-17T10:12:52Z</time>
      </trkpt>
      <trkpt lat="46.70825" lon="5.64328">
        <ele>478.5</ele>
        <time>2022-05-17T10:12:55Z</time>
      </trkpt>
      <trkpt lat="46.70829" lon="5.64328">
        <ele>479.1</ele>
        <time>2022-05-17T10:12:58Z</time>
      </trkpt>
      <trkpt lat="46.70835" lon="5.64328">
        <ele>479.8</ele>
        <time>2022-05-17T10:13:02Z</time>
      </trkpt>
      <trkpt lat="46.7084" lon="5.6433">
        <ele>480.3</ele>
        <time>2022-05-17T10:13:06Z</time>
      </trkpt>
      <trkpt lat="46.70844" lon="5.64331">
        <ele>481</ele>
        <time>2022-05-17T10:13:10Z</time>
      </trkpt>
      <trkpt lat="46.7085" lon="5.64333">
        <ele>481.7</ele>
        <time>2022-05-17T10:13:14Z</time>
      </trkpt>
      <trkpt lat="46.70854" lon="5.64334">
        <ele>482.1</ele>
        <time>2022-05-17T10:13:17Z</time>
      </trkpt>
      <trkpt lat="46.7086" lon="5.64336">
        <ele>482</ele>
        <time>2022-05-17T10:13:21Z</time>
      </trkpt>
      <trkpt lat="46.70865" lon="5.64337">
        <ele>482.1</ele>
        <time>2022-05-17T10:13:25Z</time>
      </trkpt>
      <trkpt lat="46.70869" lon="5.6434">
        <ele>482.8</ele>
        <time>2022-05-17T10:13:32Z</time>
      </trkpt>
      <trkpt lat="46.70873" lon="5.64343">
        <ele>485.3</ele>
        <time>2022-05-17T10:13:45Z</time>
      </trkpt>
      <trkpt lat="46.7088" lon="5.64341">
        <ele>486.7</ele>
        <time>2022-05-17T10:13:54Z</time>
      </trkpt>
      <trkpt lat="46.70884" lon="5.64341">
        <ele>487.1</ele>
        <time>2022-05-17T10:13:57Z</time>
      </trkpt>
      <trkpt lat="46.70888" lon="5.64337">
        <ele>487.9</ele>
        <time>2022-05-17T10:14:05Z</time>
      </trkpt>
      <trkpt lat="46.70893" lon="5.64339">
        <ele>488.7</ele>
        <time>2022-05-17T10:14:09Z</time>
      </trkpt>
      <trkpt lat="46.70896" lon="5.64332">
        <ele>490.3</ele>
        <time>2022-05-17T10:14:19Z</time>
      </trkpt>
      <trkpt lat="46.709" lon="5.64329">
        <ele>492</ele>
        <time>2022-05-17T10:14:27Z</time>
      </trkpt>
      <trkpt lat="46.70904" lon="5.64326">
        <ele>492.3</ele>
        <time>2022-05-17T10:14:31Z</time>
      </trkpt>
      <trkpt lat="46.70909" lon="5.64323">
        <ele>492.2</ele>
        <time>2022-05-17T10:14:34Z</time>
      </trkpt>
      <trkpt lat="46.70914" lon="5.64321">
        <ele>492.3</ele>
        <time>2022-05-17T10:14:39Z</time>
      </trkpt>
      <trkpt lat="46.70919" lon="5.64318">
        <ele>492.3</ele>
        <time>2022-05-17T10:14:43Z</time>
      </trkpt>
      <trkpt lat="46.70923" lon="5.64314">
        <ele>492.5</ele>
        <time>2022-05-17T10:14:48Z</time>
      </trkpt>
      <trkpt lat="46.70926" lon="5.64308">
        <ele>492.5</ele>
        <time>2022-05-17T10:14:54Z</time>
      </trkpt>
      <trkpt lat="46.70929" lon="5.64302">
        <ele>493</ele>
        <time>2022-05-17T10:14:59Z</time>
      </trkpt>
      <trkpt lat="46.70933" lon="5.64299">
        <ele>494.1</ele>
        <time>2022-05-17T10:15:08Z</time>
      </trkpt>
      <trkpt lat="46.70937" lon="5.64295">
        <ele>494.6</ele>
        <time>2022-05-17T10:15:13Z</time>
      </trkpt>
      <trkpt lat="46.7094" lon="5.6429">
        <ele>495</ele>
        <time>2022-05-17T10:15:17Z</time>
      </trkpt>
      <trkpt lat="46.70942" lon="5.64284">
        <ele>495.7</ele>
        <time>2022-05-17T10:15:28Z</time>
      </trkpt>
      <trkpt lat="46.70944" lon="5.64277">
        <ele>495.9</ele>
        <time>2022-05-17T10:15:35Z</time>
      </trkpt>
      <trkpt lat="46.70944" lon="5.64269">
        <ele>496</ele>
        <time>2022-05-17T10:15:41Z</time>
      </trkpt>
      <trkpt lat="46.70948" lon="5.64266">
        <ele>495.9</ele>
        <time>2022-05-17T10:15:47Z</time>
      </trkpt>
      <trkpt lat="46.70949" lon="5.64256">
        <ele>498.1</ele>
        <time>2022-05-17T10:15:50Z</time>
      </trkpt>
      <trkpt lat="46.70947" lon="5.64245">
        <ele>500.5</ele>
        <time>2022-05-17T10:15:53Z</time>
      </trkpt>
      <trkpt lat="46.70948" lon="5.64238">
        <ele>502.7</ele>
        <time>2022-05-17T10:15:59Z</time>
      </trkpt>
      <trkpt lat="46.70952" lon="5.64237">
        <ele>502.7</ele>
        <time>2022-05-17T10:16:04Z</time>
      </trkpt>
      <trkpt lat="46.70958" lon="5.64236">
        <ele>502.2</ele>
        <time>2022-05-17T10:16:13Z</time>
      </trkpt>
      <trkpt lat="46.70962" lon="5.64232">
        <ele>501.7</ele>
        <time>2022-05-17T10:16:18Z</time>
      </trkpt>
      <trkpt lat="46.70961" lon="5.64225">
        <ele>501.4</ele>
        <time>2022-05-17T10:16:26Z</time>
      </trkpt>
      <trkpt lat="46.70957" lon="5.64219">
        <ele>501.6</ele>
        <time>2022-05-17T10:16:34Z</time>
      </trkpt>
      <trkpt lat="46.70953" lon="5.64215">
        <ele>498.4</ele>
        <time>2022-05-17T10:16:51Z</time>
      </trkpt>
      <trkpt lat="46.70953" lon="5.64205">
        <ele>495.6</ele>
        <time>2022-05-17T10:17:09Z</time>
      </trkpt>
      <trkpt lat="46.70956" lon="5.64198">
        <ele>496.3</ele>
        <time>2022-05-17T10:17:14Z</time>
      </trkpt>
      <trkpt lat="46.70956" lon="5.6419">
        <ele>496.5</ele>
        <time>2022-05-17T10:17:20Z</time>
      </trkpt>
      <trkpt lat="46.70954" lon="5.64183">
        <ele>496.2</ele>
        <time>2022-05-17T10:17:25Z</time>
      </trkpt>
      <trkpt lat="46.70955" lon="5.64176">
        <ele>493.5</ele>
        <time>2022-05-17T10:17:39Z</time>
      </trkpt>
      <trkpt lat="46.70958" lon="5.6417">
        <ele>491.5</ele>
        <time>2022-05-17T10:17:50Z</time>
      </trkpt>
      <trkpt lat="46.70958" lon="5.64177">
        <ele>490.1</ele>
        <time>2022-05-17T10:18:03Z</time>
      </trkpt>
      <trkpt lat="46.70958" lon="5.64184">
        <ele>489.4</ele>
        <time>2022-05-17T10:18:17Z</time>
      </trkpt>
      <trkpt lat="46.70957" lon="5.64191">
        <ele>489.2</ele>
        <time>2022-05-17T10:18:22Z</time>
      </trkpt>
      <trkpt lat="46.70958" lon="5.64198">
        <ele>490.9</ele>
        <time>2022-05-17T10:18:30Z</time>
      </trkpt>
      <trkpt lat="46.70958" lon="5.64205">
        <ele>491.8</ele>
        <time>2022-05-17T10:18:33Z</time>
      </trkpt>
      <trkpt lat="46.70958" lon="5.64213">
        <ele>492.9</ele>
        <time>2022-05-17T10:18:37Z</time>
      </trkpt>
      <trkpt lat="46.70957" lon="5.6422">
        <ele>493.9</ele>
        <time>2022-05-17T10:18:42Z</time>
      </trkpt>
      <trkpt lat="46.70954" lon="5.64224">
        <ele>494.8</ele>
        <time>2022-05-17T10:18:51Z</time>
      </trkpt>
      <trkpt lat="46.7095" lon="5.64222">
        <ele>495.1</ele>
        <time>2022-05-17T10:18:58Z</time>
      </trkpt>
      <trkpt lat="46.70946" lon="5.64219">
        <ele>495.2</ele>
        <time>2022-05-17T10:19:05Z</time>
      </trkpt>
      <trkpt lat="46.70941" lon="5.64218">
        <ele>495</ele>
        <time>2022-05-17T10:19:16Z</time>
      </trkpt>
      <trkpt lat="46.70937" lon="5.64216">
        <ele>495.3</ele>
        <time>2022-05-17T10:19:20Z</time>
      </trkpt>
      <trkpt lat="46.70932" lon="5.64218">
        <ele>495.4</ele>
        <time>2022-05-17T10:19:24Z</time>
      </trkpt>
      <trkpt lat="46.70927" lon="5.64219">
        <ele>495.3</ele>
        <time>2022-05-17T10:19:30Z</time>
      </trkpt>
      <trkpt lat="46.70921" lon="5.64219">
        <ele>495.1</ele>
        <time>2022-05-17T10:19:36Z</time>
      </trkpt>
      <trkpt lat="46.70916" lon="5.64217">
        <ele>494.7</ele>
        <time>2022-05-17T10:19:42Z</time>
      </trkpt>
      <trkpt lat="46.70907" lon="5.64214">
        <ele>494.4</ele>
        <time>2022-05-17T10:19:45Z</time>
      </trkpt>
      <trkpt lat="46.70902" lon="5.64213">
        <ele>494.4</ele>
        <time>2022-05-17T10:19:48Z</time>
      </trkpt>
      <trkpt lat="46.709" lon="5.64207">
        <ele>494.3</ele>
        <time>2022-05-17T10:19:53Z</time>
      </trkpt>
      <trkpt lat="46.70896" lon="5.64202">
        <ele>494.2</ele>
        <time>2022-05-17T10:19:57Z</time>
      </trkpt>
      <trkpt lat="46.70895" lon="5.64195">
        <ele>494.2</ele>
        <time>2022-05-17T10:20:04Z</time>
      </trkpt>
      <trkpt lat="46.70895" lon="5.64189">
        <ele>493.7</ele>
        <time>2022-05-17T10:20:08Z</time>
      </trkpt>
      <trkpt lat="46.70893" lon="5.64181">
        <ele>493.2</ele>
        <time>2022-05-17T10:20:12Z</time>
      </trkpt>
      <trkpt lat="46.7089" lon="5.64176">
        <ele>492.6</ele>
        <time>2022-05-17T10:20:17Z</time>
      </trkpt>
      <trkpt lat="46.70885" lon="5.64172">
        <ele>492</ele>
        <time>2022-05-17T10:20:22Z</time>
      </trkpt>
      <trkpt lat="46.70881" lon="5.64168">
        <ele>491</ele>
        <time>2022-05-17T10:20:26Z</time>
      </trkpt>
      <trkpt lat="46.70882" lon="5.64161">
        <ele>490.4</ele>
        <time>2022-05-17T10:20:33Z</time>
      </trkpt>
      <trkpt lat="46.70878" lon="5.64156">
        <ele>490.8</ele>
        <time>2022-05-17T10:20:37Z</time>
      </trkpt>
      <trkpt lat="46.70881" lon="5.6415">
        <ele>491.4</ele>
        <time>2022-05-17T10:20:47Z</time>
      </trkpt>
      <trkpt lat="46.70886" lon="5.64149">
        <ele>491</ele>
        <time>2022-05-17T10:20:53Z</time>
      </trkpt>
      <trkpt lat="46.7089" lon="5.64145">
        <ele>491.2</ele>
        <time>2022-05-17T10:20:57Z</time>
      </trkpt>
      <trkpt lat="46.70893" lon="5.6414">
        <ele>493.5</ele>
        <time>2022-05-17T10:21:03Z</time>
      </trkpt>
      <trkpt lat="46.70898" lon="5.64137">
        <ele>494.8</ele>
        <time>2022-05-17T10:21:08Z</time>
      </trkpt>
      <trkpt lat="46.70903" lon="5.64134">
        <ele>495.3</ele>
        <time>2022-05-17T10:21:12Z</time>
      </trkpt>
      <trkpt lat="46.70904" lon="5.64128">
        <ele>496.5</ele>
        <time>2022-05-17T10:21:20Z</time>
      </trkpt>
      <trkpt lat="46.70905" lon="5.64121">
        <ele>496.8</ele>
        <time>2022-05-17T10:21:24Z</time>
      </trkpt>
      <trkpt lat="46.70907" lon="5.64115">
        <ele>496.8</ele>
        <time>2022-05-17T10:21:28Z</time>
      </trkpt>
      <trkpt lat="46.70912" lon="5.64114">
        <ele>496.2</ele>
        <time>2022-05-17T10:21:38Z</time>
      </trkpt>
      <trkpt lat="46.70913" lon="5.64106">
        <ele>495.6</ele>
        <time>2022-05-17T10:21:46Z</time>
      </trkpt>
      <trkpt lat="46.70909" lon="5.64107">
        <ele>495.5</ele>
        <time>2022-05-17T10:22:10Z</time>
      </trkpt>
      <trkpt lat="46.70914" lon="5.64108">
        <ele>495.9</ele>
        <time>2022-05-17T10:22:15Z</time>
      </trkpt>
      <trkpt lat="46.70917" lon="5.64103">
        <ele>496.6</ele>
        <time>2022-05-17T10:22:22Z</time>
      </trkpt>
      <trkpt lat="46.70916" lon="5.64096">
        <ele>496.4</ele>
        <time>2022-05-17T10:22:26Z</time>
      </trkpt>
      <trkpt lat="46.70915" lon="5.64104">
        <ele>497.5</ele>
        <time>2022-05-17T10:22:40Z</time>
      </trkpt>
      <trkpt lat="46.70911" lon="5.641">
        <ele>500.2</ele>
        <time>2022-05-17T10:22:50Z</time>
      </trkpt>
      <trkpt lat="46.70908" lon="5.64095">
        <ele>505.5</ele>
        <time>2022-05-17T10:23:07Z</time>
      </trkpt>
      <trkpt lat="46.70912" lon="5.64099">
        <ele>508.6</ele>
        <time>2022-05-17T10:23:21Z</time>
      </trkpt>
      <trkpt lat="46.70918" lon="5.64103">
        <ele>514.9</ele>
        <time>2022-05-17T10:23:47Z</time>
      </trkpt>
      <trkpt lat="46.70918" lon="5.64096">
        <ele>514.7</ele>
        <time>2022-05-17T10:24:21Z</time>
      </trkpt>
      <trkpt lat="46.70913" lon="5.64093">
        <ele>512.2</ele>
        <time>2022-05-17T10:24:33Z</time>
      </trkpt>
      <trkpt lat="46.70914" lon="5.64101">
        <ele>504.8</ele>
        <time>2022-05-17T10:26:24Z</time>
      </trkpt>
      <trkpt lat="46.70918" lon="5.64105">
        <ele>505.9</ele>
        <time>2022-05-17T10:26:37Z</time>
      </trkpt>
      <trkpt lat="46.70923" lon="5.64107">
        <ele>507.9</ele>
        <time>2022-05-17T10:26:42Z</time>
      </trkpt>
      <trkpt lat="46.70918" lon="5.64109">
        <ele>510.4</ele>
        <time>2022-05-17T10:26:49Z</time>
      </trkpt>
      <trkpt lat="46.70912" lon="5.64107">
        <ele>511.9</ele>
        <time>2022-05-17T10:27:12Z</time>
      </trkpt>
      <trkpt lat="46.70915" lon="5.64101">
        <ele>508.9</ele>
        <time>2022-05-17T10:27:41Z</time>
      </trkpt>
      <trkpt lat="46.70917" lon="5.64096">
        <ele>510.4</ele>
        <time>2022-05-17T10:30:26Z</time>
      </trkpt>
      <trkpt lat="46.7092" lon="5.6409">
        <ele>508.9</ele>
        <time>2022-05-17T10:30:48Z</time>
      </trkpt>
      <trkpt lat="46.70917" lon="5.64096">
        <ele>507.7</ele>
        <time>2022-05-17T10:31:26Z</time>
      </trkpt>
      <trkpt lat="46.70925" lon="5.64105">
        <ele>523.2</ele>
        <time>2022-05-17T11:05:32Z</time>
      </trkpt>
      <trkpt lat="46.7092" lon="5.64106">
        <ele>517.2</ele>
        <time>2022-05-17T11:05:39Z</time>
      </trkpt>
      <trkpt lat="46.70924" lon="5.64109">
        <ele>521.6</ele>
        <time>2022-05-17T11:06:42Z</time>
      </trkpt>
      <trkpt lat="46.70921" lon="5.64101">
        <ele>516.3</ele>
        <time>2022-05-17T11:07:42Z</time>
      </trkpt>
      <trkpt lat="46.70917" lon="5.64104">
        <ele>514.6</ele>
        <time>2022-05-17T11:07:51Z</time>
      </trkpt>
      <trkpt lat="46.70912" lon="5.64102">
        <ele>513.6</ele>
        <time>2022-05-17T11:08:08Z</time>
      </trkpt>
      <trkpt lat="46.70913" lon="5.64095">
        <ele>502.3</ele>
        <time>2022-05-17T11:09:20Z</time>
      </trkpt>
      <trkpt lat="46.70913" lon="5.64089">
        <ele>502.3</ele>
        <time>2022-05-17T11:09:24Z</time>
      </trkpt>
      <trkpt lat="46.70911" lon="5.64082">
        <ele>502.5</ele>
        <time>2022-05-17T11:09:29Z</time>
      </trkpt>
      <trkpt lat="46.70909" lon="5.64075">
        <ele>502.9</ele>
        <time>2022-05-17T11:09:33Z</time>
      </trkpt>
      <trkpt lat="46.70908" lon="5.64068">
        <ele>503.3</ele>
        <time>2022-05-17T11:09:37Z</time>
      </trkpt>
      <trkpt lat="46.70907" lon="5.64061">
        <ele>503.2</ele>
        <time>2022-05-17T11:09:45Z</time>
      </trkpt>
      <trkpt lat="46.70906" lon="5.64054">
        <ele>502.4</ele>
        <time>2022-05-17T11:09:51Z</time>
      </trkpt>
      <trkpt lat="46.70906" lon="5.64047">
        <ele>502.4</ele>
        <time>2022-05-17T11:09:57Z</time>
      </trkpt>
      <trkpt lat="46.70903" lon="5.64043">
        <ele>502.8</ele>
        <time>2022-05-17T11:10:04Z</time>
      </trkpt>
      <trkpt lat="46.70903" lon="5.64035">
        <ele>503</ele>
        <time>2022-05-17T11:10:10Z</time>
      </trkpt>
      <trkpt lat="46.70905" lon="5.64027">
        <ele>503.5</ele>
        <time>2022-05-17T11:10:15Z</time>
      </trkpt>
      <trkpt lat="46.70906" lon="5.6402">
        <ele>504.1</ele>
        <time>2022-05-17T11:10:20Z</time>
      </trkpt>
      <trkpt lat="46.70905" lon="5.64012">
        <ele>504.4</ele>
        <time>2022-05-17T11:10:24Z</time>
      </trkpt>
      <trkpt lat="46.70904" lon="5.64006">
        <ele>504.4</ele>
        <time>2022-05-17T11:10:27Z</time>
      </trkpt>
      <trkpt lat="46.70903" lon="5.64">
        <ele>504.2</ele>
        <time>2022-05-17T11:10:31Z</time>
      </trkpt>
      <trkpt lat="46.709" lon="5.63994">
        <ele>504.4</ele>
        <time>2022-05-17T11:10:36Z</time>
      </trkpt>
      <trkpt lat="46.70897" lon="5.63988">
        <ele>504.8</ele>
        <time>2022-05-17T11:10:40Z</time>
      </trkpt>
      <trkpt lat="46.70895" lon="5.63982">
        <ele>506</ele>
        <time>2022-05-17T11:10:48Z</time>
      </trkpt>
      <trkpt lat="46.70896" lon="5.63975">
        <ele>507.2</ele>
        <time>2022-05-17T11:10:58Z</time>
      </trkpt>
      <trkpt lat="46.70897" lon="5.63967">
        <ele>507.7</ele>
        <time>2022-05-17T11:11:04Z</time>
      </trkpt>
      <trkpt lat="46.70899" lon="5.63958">
        <ele>507.8</ele>
        <time>2022-05-17T11:11:07Z</time>
      </trkpt>
      <trkpt lat="46.70898" lon="5.63952">
        <ele>507.7</ele>
        <time>2022-05-17T11:11:10Z</time>
      </trkpt>
      <trkpt lat="46.70899" lon="5.63944">
        <ele>507.3</ele>
        <time>2022-05-17T11:11:15Z</time>
      </trkpt>
      <trkpt lat="46.70902" lon="5.63937">
        <ele>506.6</ele>
        <time>2022-05-17T11:11:20Z</time>
      </trkpt>
      <trkpt lat="46.70903" lon="5.63931">
        <ele>505.5</ele>
        <time>2022-05-17T11:11:25Z</time>
      </trkpt>
      <trkpt lat="46.70903" lon="5.63924">
        <ele>504.3</ele>
        <time>2022-05-17T11:11:29Z</time>
      </trkpt>
      <trkpt lat="46.70902" lon="5.63917">
        <ele>503.2</ele>
        <time>2022-05-17T11:11:33Z</time>
      </trkpt>
      <trkpt lat="46.709" lon="5.6391">
        <ele>502.1</ele>
        <time>2022-05-17T11:11:38Z</time>
      </trkpt>
      <trkpt lat="46.70901" lon="5.63903">
        <ele>501.7</ele>
        <time>2022-05-17T11:11:46Z</time>
      </trkpt>
      <trkpt lat="46.70902" lon="5.63896">
        <ele>502</ele>
        <time>2022-05-17T11:11:52Z</time>
      </trkpt>
      <trkpt lat="46.70903" lon="5.63888">
        <ele>502.1</ele>
        <time>2022-05-17T11:11:57Z</time>
      </trkpt>
      <trkpt lat="46.70904" lon="5.63882">
        <ele>501.9</ele>
        <time>2022-05-17T11:12:00Z</time>
      </trkpt>
      <trkpt lat="46.70904" lon="5.63873">
        <ele>501.3</ele>
        <time>2022-05-17T11:12:04Z</time>
      </trkpt>
      <trkpt lat="46.70908" lon="5.6387">
        <ele>500.7</ele>
        <time>2022-05-17T11:12:11Z</time>
      </trkpt>
      <trkpt lat="46.70906" lon="5.63863">
        <ele>500.9</ele>
        <time>2022-05-17T11:12:19Z</time>
      </trkpt>
      <trkpt lat="46.70903" lon="5.63856">
        <ele>501.4</ele>
        <time>2022-05-17T11:12:23Z</time>
      </trkpt>
      <trkpt lat="46.70901" lon="5.63849">
        <ele>501.8</ele>
        <time>2022-05-17T11:12:27Z</time>
      </trkpt>
      <trkpt lat="46.70902" lon="5.63841">
        <ele>502.1</ele>
        <time>2022-05-17T11:12:33Z</time>
      </trkpt>
      <trkpt lat="46.70902" lon="5.63834">
        <ele>502.5</ele>
        <time>2022-05-17T11:12:41Z</time>
      </trkpt>
      <trkpt lat="46.70903" lon="5.63827">
        <ele>503.4</ele>
        <time>2022-05-17T11:12:49Z</time>
      </trkpt>
      <trkpt lat="46.70907" lon="5.63821">
        <ele>504.1</ele>
        <time>2022-05-17T11:12:53Z</time>
      </trkpt>
      <trkpt lat="46.70912" lon="5.63819">
        <ele>504.7</ele>
        <time>2022-05-17T11:12:57Z</time>
      </trkpt>
      <trkpt lat="46.70916" lon="5.63816">
        <ele>505.9</ele>
        <time>2022-05-17T11:13:05Z</time>
      </trkpt>
      <trkpt lat="46.70918" lon="5.63809">
        <ele>504.5</ele>
        <time>2022-05-17T11:13:26Z</time>
      </trkpt>
      <trkpt lat="46.70922" lon="5.63815">
        <ele>500.5</ele>
        <time>2022-05-17T11:13:48Z</time>
      </trkpt>
      <trkpt lat="46.70918" lon="5.63811">
        <ele>498.4</ele>
        <time>2022-05-17T11:14:13Z</time>
      </trkpt>
      <trkpt lat="46.70914" lon="5.63812">
        <ele>499.6</ele>
        <time>2022-05-17T11:14:21Z</time>
      </trkpt>
      <trkpt lat="46.70909" lon="5.63816">
        <ele>500.6</ele>
        <time>2022-05-17T11:14:25Z</time>
      </trkpt>
      <trkpt lat="46.70905" lon="5.63819">
        <ele>501.5</ele>
        <time>2022-05-17T11:14:29Z</time>
      </trkpt>
      <trkpt lat="46.70909" lon="5.63815">
        <ele>503.9</ele>
        <time>2022-05-17T11:14:39Z</time>
      </trkpt>
      <trkpt lat="46.70914" lon="5.63816">
        <ele>501</ele>
        <time>2022-05-17T11:15:14Z</time>
      </trkpt>
      <trkpt lat="46.70918" lon="5.63811">
        <ele>499.2</ele>
        <time>2022-05-17T11:15:17Z</time>
      </trkpt>
      <trkpt lat="46.70917" lon="5.63817">
        <ele>496.4</ele>
        <time>2022-05-17T11:16:03Z</time>
      </trkpt>
      <trkpt lat="46.70919" lon="5.63812">
        <ele>496.1</ele>
        <time>2022-05-17T11:16:46Z</time>
      </trkpt>
      <trkpt lat="46.7092" lon="5.63804">
        <ele>496.4</ele>
        <time>2022-05-17T11:16:50Z</time>
      </trkpt>
      <trkpt lat="46.70921" lon="5.63797">
        <ele>496.4</ele>
        <time>2022-05-17T11:16:58Z</time>
      </trkpt>
      <trkpt lat="46.70921" lon="5.63789">
        <ele>496.6</ele>
        <time>2022-05-17T11:17:02Z</time>
      </trkpt>
      <trkpt lat="46.70923" lon="5.63783">
        <ele>496.9</ele>
        <time>2022-05-17T11:17:09Z</time>
      </trkpt>
      <trkpt lat="46.70924" lon="5.63776">
        <ele>502.1</ele>
        <time>2022-05-17T11:23:12Z</time>
      </trkpt>
      <trkpt lat="46.70929" lon="5.63775">
        <ele>502.2</ele>
        <time>2022-05-17T11:23:34Z</time>
      </trkpt>
      <trkpt lat="46.70933" lon="5.63773">
        <ele>502.4</ele>
        <time>2022-05-17T11:23:39Z</time>
      </trkpt>
      <trkpt lat="46.70937" lon="5.63768">
        <ele>502.2</ele>
        <time>2022-05-17T11:23:46Z</time>
      </trkpt>
      <trkpt lat="46.70937" lon="5.63761">
        <ele>500.5</ele>
        <time>2022-05-17T11:23:56Z</time>
      </trkpt>
      <trkpt lat="46.70937" lon="5.63753">
        <ele>498.3</ele>
        <time>2022-05-17T11:24:04Z</time>
      </trkpt>
      <trkpt lat="46.70935" lon="5.63747">
        <ele>496.9</ele>
        <time>2022-05-17T11:24:09Z</time>
      </trkpt>
      <trkpt lat="46.70933" lon="5.6374">
        <ele>495.5</ele>
        <time>2022-05-17T11:24:17Z</time>
      </trkpt>
      <trkpt lat="46.70932" lon="5.63734">
        <ele>494.8</ele>
        <time>2022-05-17T11:24:25Z</time>
      </trkpt>
      <trkpt lat="46.70936" lon="5.63732">
        <ele>494.1</ele>
        <time>2022-05-17T11:24:41Z</time>
      </trkpt>
      <trkpt lat="46.70941" lon="5.63731">
        <ele>493.4</ele>
        <time>2022-05-17T11:24:47Z</time>
      </trkpt>
      <trkpt lat="46.70945" lon="5.63734">
        <ele>491.5</ele>
        <time>2022-05-17T11:25:47Z</time>
      </trkpt>
      <trkpt lat="46.70943" lon="5.63727">
        <ele>490</ele>
        <time>2022-05-17T11:25:58Z</time>
      </trkpt>
      <trkpt lat="46.70941" lon="5.63721">
        <ele>489.1</ele>
        <time>2022-05-17T11:26:05Z</time>
      </trkpt>
      <trkpt lat="46.70938" lon="5.63714">
        <ele>488.2</ele>
        <time>2022-05-17T11:26:13Z</time>
      </trkpt>
      <trkpt lat="46.70938" lon="5.63706">
        <ele>487.4</ele>
        <time>2022-05-17T11:26:20Z</time>
      </trkpt>
      <trkpt lat="46.70942" lon="5.63701">
        <ele>486.5</ele>
        <time>2022-05-17T11:26:26Z</time>
      </trkpt>
      <trkpt lat="46.70937" lon="5.63697">
        <ele>484.4</ele>
        <time>2022-05-17T11:26:36Z</time>
      </trkpt>
      <trkpt lat="46.70932" lon="5.63695">
        <ele>482.7</ele>
        <time>2022-05-17T11:26:41Z</time>
      </trkpt>
      <trkpt lat="46.7093" lon="5.63701">
        <ele>480.2</ele>
        <time>2022-05-17T11:26:56Z</time>
      </trkpt>
      <trkpt lat="46.70933" lon="5.63709">
        <ele>479.4</ele>
        <time>2022-05-17T11:27:01Z</time>
      </trkpt>
      <trkpt lat="46.70937" lon="5.63713">
        <ele>478</ele>
        <time>2022-05-17T11:27:09Z</time>
      </trkpt>
      <trkpt lat="46.70941" lon="5.63709">
        <ele>478.5</ele>
        <time>2022-05-17T11:27:13Z</time>
      </trkpt>
      <trkpt lat="46.7094" lon="5.63701">
        <ele>480.2</ele>
        <time>2022-05-17T11:27:21Z</time>
      </trkpt>
      <trkpt lat="46.70944" lon="5.63696">
        <ele>478.8</ele>
        <time>2022-05-17T11:27:51Z</time>
      </trkpt>
      <trkpt lat="46.70948" lon="5.63692">
        <ele>478</ele>
        <time>2022-05-17T11:27:55Z</time>
      </trkpt>
      <trkpt lat="46.7095" lon="5.63685">
        <ele>476.7</ele>
        <time>2022-05-17T11:28:03Z</time>
      </trkpt>
      <trkpt lat="46.70945" lon="5.63687">
        <ele>475.5</ele>
        <time>2022-05-17T11:28:09Z</time>
      </trkpt>
      <trkpt lat="46.70941" lon="5.6369">
        <ele>474.7</ele>
        <time>2022-05-17T11:28:13Z</time>
      </trkpt>
      <trkpt lat="46.70936" lon="5.63688">
        <ele>473.5</ele>
        <time>2022-05-17T11:28:22Z</time>
      </trkpt>
      <trkpt lat="46.70932" lon="5.6369">
        <ele>472.7</ele>
        <time>2022-05-17T11:28:28Z</time>
      </trkpt>
      <trkpt lat="46.70927" lon="5.6369">
        <ele>470.6</ele>
        <time>2022-05-17T11:28:55Z</time>
      </trkpt>
      <trkpt lat="46.70922" lon="5.6369">
        <ele>469.8</ele>
        <time>2022-05-17T11:29:02Z</time>
      </trkpt>
      <trkpt lat="46.70918" lon="5.63686">
        <ele>469</ele>
        <time>2022-05-17T11:29:08Z</time>
      </trkpt>
      <trkpt lat="46.70913" lon="5.63685">
        <ele>467.4</ele>
        <time>2022-05-17T11:29:22Z</time>
      </trkpt>
      <trkpt lat="46.70908" lon="5.63685">
        <ele>466.9</ele>
        <time>2022-05-17T11:29:25Z</time>
      </trkpt>
      <trkpt lat="46.70903" lon="5.63686">
        <ele>466.5</ele>
        <time>2022-05-17T11:29:29Z</time>
      </trkpt>
      <trkpt lat="46.70898" lon="5.63685">
        <ele>466.9</ele>
        <time>2022-05-17T11:29:35Z</time>
      </trkpt>
      <trkpt lat="46.70894" lon="5.63682">
        <ele>468.1</ele>
        <time>2022-05-17T11:29:42Z</time>
      </trkpt>
      <trkpt lat="46.70889" lon="5.6368">
        <ele>469</ele>
        <time>2022-05-17T11:29:48Z</time>
      </trkpt>
      <trkpt lat="46.70884" lon="5.63679">
        <ele>470.5</ele>
        <time>2022-05-17T11:29:55Z</time>
      </trkpt>
      <trkpt lat="46.7088" lon="5.6368">
        <ele>473</ele>
        <time>2022-05-17T11:30:03Z</time>
      </trkpt>
      <trkpt lat="46.70875" lon="5.63677">
        <ele>474.4</ele>
        <time>2022-05-17T11:30:08Z</time>
      </trkpt>
      <trkpt lat="46.7087" lon="5.63677">
        <ele>476.7</ele>
        <time>2022-05-17T11:30:19Z</time>
      </trkpt>
      <trkpt lat="46.70867" lon="5.63681">
        <ele>476.8</ele>
        <time>2022-05-17T11:30:27Z</time>
      </trkpt>
      <trkpt lat="46.70863" lon="5.63676">
        <ele>476.6</ele>
        <time>2022-05-17T11:30:32Z</time>
      </trkpt>
      <trkpt lat="46.7086" lon="5.63672">
        <ele>476.8</ele>
        <time>2022-05-17T11:30:36Z</time>
      </trkpt>
      <trkpt lat="46.70855" lon="5.6367">
        <ele>476.6</ele>
        <time>2022-05-17T11:30:39Z</time>
      </trkpt>
      <trkpt lat="46.7085" lon="5.63671">
        <ele>476.3</ele>
        <time>2022-05-17T11:30:43Z</time>
      </trkpt>
      <trkpt lat="46.70846" lon="5.63668">
        <ele>476.2</ele>
        <time>2022-05-17T11:30:47Z</time>
      </trkpt>
      <trkpt lat="46.70841" lon="5.63665">
        <ele>476.3</ele>
        <time>2022-05-17T11:30:51Z</time>
      </trkpt>
      <trkpt lat="46.70838" lon="5.63659">
        <ele>476.4</ele>
        <time>2022-05-17T11:30:57Z</time>
      </trkpt>
      <trkpt lat="46.70833" lon="5.63659">
        <ele>476</ele>
        <time>2022-05-17T11:31:04Z</time>
      </trkpt>
      <trkpt lat="46.70828" lon="5.63662">
        <ele>475.7</ele>
        <time>2022-05-17T11:31:08Z</time>
      </trkpt>
      <trkpt lat="46.70823" lon="5.6366">
        <ele>475.2</ele>
        <time>2022-05-17T11:31:15Z</time>
      </trkpt>
      <trkpt lat="46.70818" lon="5.6366">
        <ele>474.7</ele>
        <time>2022-05-17T11:31:20Z</time>
      </trkpt>
      <trkpt lat="46.70814" lon="5.63658">
        <ele>474</ele>
        <time>2022-05-17T11:31:28Z</time>
      </trkpt>
      <trkpt lat="46.7081" lon="5.63655">
        <ele>474.3</ele>
        <time>2022-05-17T11:31:38Z</time>
      </trkpt>
      <trkpt lat="46.70805" lon="5.63653">
        <ele>474.2</ele>
        <time>2022-05-17T11:31:44Z</time>
      </trkpt>
      <trkpt lat="46.708" lon="5.63653">
        <ele>474.2</ele>
        <time>2022-05-17T11:31:48Z</time>
      </trkpt>
      <trkpt lat="46.70795" lon="5.63655">
        <ele>474.2</ele>
        <time>2022-05-17T11:31:54Z</time>
      </trkpt>
      <trkpt lat="46.70791" lon="5.63656">
        <ele>474.8</ele>
        <time>2022-05-17T11:31:59Z</time>
      </trkpt>
      <trkpt lat="46.70786" lon="5.63653">
        <ele>475.5</ele>
        <time>2022-05-17T11:32:04Z</time>
      </trkpt>
      <trkpt lat="46.70781" lon="5.63655">
        <ele>477</ele>
        <time>2022-05-17T11:32:10Z</time>
      </trkpt>
      <trkpt lat="46.70776" lon="5.63653">
        <ele>478.3</ele>
        <time>2022-05-17T11:32:15Z</time>
      </trkpt>
      <trkpt lat="46.70772" lon="5.63651">
        <ele>478.8</ele>
        <time>2022-05-17T11:32:23Z</time>
      </trkpt>
      <trkpt lat="46.70767" lon="5.63649">
        <ele>479.3</ele>
        <time>2022-05-17T11:32:28Z</time>
      </trkpt>
      <trkpt lat="46.70764" lon="5.63645">
        <ele>479.4</ele>
        <time>2022-05-17T11:32:33Z</time>
      </trkpt>
      <trkpt lat="46.70759" lon="5.63642">
        <ele>479.2</ele>
        <time>2022-05-17T11:32:38Z</time>
      </trkpt>
      <trkpt lat="46.70755" lon="5.6364">
        <ele>479.3</ele>
        <time>2022-05-17T11:32:46Z</time>
      </trkpt>
      <trkpt lat="46.7075" lon="5.63639">
        <ele>479</ele>
        <time>2022-05-17T11:32:52Z</time>
      </trkpt>
      <trkpt lat="46.70745" lon="5.63639">
        <ele>478.1</ele>
        <time>2022-05-17T11:32:59Z</time>
      </trkpt>
      <trkpt lat="46.7074" lon="5.63641">
        <ele>476.7</ele>
        <time>2022-05-17T11:33:06Z</time>
      </trkpt>
      <trkpt lat="46.70735" lon="5.63641">
        <ele>476</ele>
        <time>2022-05-17T11:33:15Z</time>
      </trkpt>
      <trkpt lat="46.70732" lon="5.63637">
        <ele>476.1</ele>
        <time>2022-05-17T11:33:19Z</time>
      </trkpt>
      <trkpt lat="46.70727" lon="5.63633">
        <ele>476.7</ele>
        <time>2022-05-17T11:33:24Z</time>
      </trkpt>
      <trkpt lat="46.70721" lon="5.63629">
        <ele>477.1</ele>
        <time>2022-05-17T11:33:28Z</time>
      </trkpt>
      <trkpt lat="46.70717" lon="5.63625">
        <ele>477.5</ele>
        <time>2022-05-17T11:33:31Z</time>
      </trkpt>
      <trkpt lat="46.70713" lon="5.63625">
        <ele>478</ele>
        <time>2022-05-17T11:33:35Z</time>
      </trkpt>
      <trkpt lat="46.70709" lon="5.63621">
        <ele>477.6</ele>
        <time>2022-05-17T11:33:49Z</time>
      </trkpt>
      <trkpt lat="46.70704" lon="5.63617">
        <ele>479.1</ele>
        <time>2022-05-17T11:33:58Z</time>
      </trkpt>
      <trkpt lat="46.707" lon="5.63613">
        <ele>480.7</ele>
        <time>2022-05-17T11:34:03Z</time>
      </trkpt>
      <trkpt lat="46.70695" lon="5.6361">
        <ele>481.8</ele>
        <time>2022-05-17T11:34:07Z</time>
      </trkpt>
      <trkpt lat="46.70691" lon="5.63608">
        <ele>483</ele>
        <time>2022-05-17T11:34:13Z</time>
      </trkpt>
      <trkpt lat="46.70686" lon="5.63607">
        <ele>483.4</ele>
        <time>2022-05-17T11:34:20Z</time>
      </trkpt>
      <trkpt lat="46.70681" lon="5.6361">
        <ele>483.9</ele>
        <time>2022-05-17T11:34:30Z</time>
      </trkpt>
      <trkpt lat="46.70677" lon="5.63613">
        <ele>484</ele>
        <time>2022-05-17T11:34:33Z</time>
      </trkpt>
      <trkpt lat="46.70672" lon="5.63614">
        <ele>484.1</ele>
        <time>2022-05-17T11:34:36Z</time>
      </trkpt>
      <trkpt lat="46.70668" lon="5.63613">
        <ele>484.5</ele>
        <time>2022-05-17T11:34:40Z</time>
      </trkpt>
      <trkpt lat="46.70663" lon="5.63611">
        <ele>485.1</ele>
        <time>2022-05-17T11:34:45Z</time>
      </trkpt>
      <trkpt lat="46.7066" lon="5.63606">
        <ele>484.7</ele>
        <time>2022-05-17T11:34:51Z</time>
      </trkpt>
      <trkpt lat="46.70656" lon="5.63602">
        <ele>483.9</ele>
        <time>2022-05-17T11:34:57Z</time>
      </trkpt>
      <trkpt lat="46.70651" lon="5.63602">
        <ele>483.3</ele>
        <time>2022-05-17T11:35:03Z</time>
      </trkpt>
      <trkpt lat="46.70647" lon="5.63605">
        <ele>483.3</ele>
        <time>2022-05-17T11:35:09Z</time>
      </trkpt>
      <trkpt lat="46.70642" lon="5.63607">
        <ele>483.2</ele>
        <time>2022-05-17T11:35:15Z</time>
      </trkpt>
      <trkpt lat="46.70641" lon="5.63601">
        <ele>482.8</ele>
        <time>2022-05-17T11:35:22Z</time>
      </trkpt>
      <trkpt lat="46.70637" lon="5.63597">
        <ele>482.7</ele>
        <time>2022-05-17T11:35:30Z</time>
      </trkpt>
      <trkpt lat="46.70632" lon="5.63597">
        <ele>482.6</ele>
        <time>2022-05-17T11:35:37Z</time>
      </trkpt>
      <trkpt lat="46.70627" lon="5.63598">
        <ele>482.5</ele>
        <time>2022-05-17T11:35:44Z</time>
      </trkpt>
      <trkpt lat="46.70622" lon="5.63598">
        <ele>482.4</ele>
        <time>2022-05-17T11:35:49Z</time>
      </trkpt>
      <trkpt lat="46.70617" lon="5.636">
        <ele>482.1</ele>
        <time>2022-05-17T11:35:55Z</time>
      </trkpt>
      <trkpt lat="46.70612" lon="5.636">
        <ele>481.5</ele>
        <time>2022-05-17T11:36:01Z</time>
      </trkpt>
      <trkpt lat="46.70608" lon="5.63598">
        <ele>480.9</ele>
        <time>2022-05-17T11:36:09Z</time>
      </trkpt>
      <trkpt lat="46.70603" lon="5.63594">
        <ele>480.6</ele>
        <time>2022-05-17T11:36:13Z</time>
      </trkpt>
      <trkpt lat="46.70599" lon="5.63591">
        <ele>481.4</ele>
        <time>2022-05-17T11:36:23Z</time>
      </trkpt>
      <trkpt lat="46.70598" lon="5.63598">
        <ele>483.5</ele>
        <time>2022-05-17T11:36:35Z</time>
      </trkpt>
      <trkpt lat="46.70594" lon="5.63593">
        <ele>484.9</ele>
        <time>2022-05-17T11:36:41Z</time>
      </trkpt>
      <trkpt lat="46.70591" lon="5.63588">
        <ele>485.9</ele>
        <time>2022-05-17T11:36:47Z</time>
      </trkpt>
      <trkpt lat="46.70585" lon="5.63585">
        <ele>486.4</ele>
        <time>2022-05-17T11:36:51Z</time>
      </trkpt>
      <trkpt lat="46.70581" lon="5.63582">
        <ele>487</ele>
        <time>2022-05-17T11:36:55Z</time>
      </trkpt>
      <trkpt lat="46.70578" lon="5.63586">
        <ele>486.4</ele>
        <time>2022-05-17T11:37:03Z</time>
      </trkpt>
      <trkpt lat="46.70574" lon="5.63592">
        <ele>484.8</ele>
        <time>2022-05-17T11:37:12Z</time>
      </trkpt>
      <trkpt lat="46.70569" lon="5.63592">
        <ele>483.6</ele>
        <time>2022-05-17T11:37:20Z</time>
      </trkpt>
      <trkpt lat="46.70567" lon="5.63584">
        <ele>483.9</ele>
        <time>2022-05-17T11:37:35Z</time>
      </trkpt>
      <trkpt lat="46.70567" lon="5.63578">
        <ele>484.8</ele>
        <time>2022-05-17T11:37:39Z</time>
      </trkpt>
      <trkpt lat="46.70566" lon="5.63571">
        <ele>485.6</ele>
        <time>2022-05-17T11:37:47Z</time>
      </trkpt>
      <trkpt lat="46.70561" lon="5.6357">
        <ele>485.1</ele>
        <time>2022-05-17T11:37:53Z</time>
      </trkpt>
      <trkpt lat="46.70556" lon="5.63569">
        <ele>484.5</ele>
        <time>2022-05-17T11:37:57Z</time>
      </trkpt>
      <trkpt lat="46.70552" lon="5.63565">
        <ele>483.7</ele>
        <time>2022-05-17T11:38:01Z</time>
      </trkpt>
      <trkpt lat="46.70548" lon="5.63562">
        <ele>482.9</ele>
        <time>2022-05-17T11:38:04Z</time>
      </trkpt>
      <trkpt lat="46.70544" lon="5.63557">
        <ele>482</ele>
        <time>2022-05-17T11:38:09Z</time>
      </trkpt>
      <trkpt lat="46.70538" lon="5.63559">
        <ele>481.2</ele>
        <time>2022-05-17T11:38:22Z</time>
      </trkpt>
      <trkpt lat="46.70534" lon="5.63563">
        <ele>481.4</ele>
        <time>2022-05-17T11:38:26Z</time>
      </trkpt>
      <trkpt lat="46.70529" lon="5.63562">
        <ele>480.8</ele>
        <time>2022-05-17T11:38:31Z</time>
      </trkpt>
      <trkpt lat="46.70525" lon="5.63558">
        <ele>479.6</ele>
        <time>2022-05-17T11:38:36Z</time>
      </trkpt>
      <trkpt lat="46.70521" lon="5.63555">
        <ele>478.8</ele>
        <time>2022-05-17T11:38:43Z</time>
      </trkpt>
      <trkpt lat="46.70516" lon="5.63554">
        <ele>478.7</ele>
        <time>2022-05-17T11:38:52Z</time>
      </trkpt>
      <trkpt lat="46.70512" lon="5.63554">
        <ele>480.3</ele>
        <time>2022-05-17T11:38:59Z</time>
      </trkpt>
      <trkpt lat="46.70507" lon="5.63555">
        <ele>481.8</ele>
        <time>2022-05-17T11:39:04Z</time>
      </trkpt>
      <trkpt lat="46.70503" lon="5.63553">
        <ele>483.2</ele>
        <time>2022-05-17T11:39:10Z</time>
      </trkpt>
      <trkpt lat="46.70499" lon="5.63549">
        <ele>485.1</ele>
        <time>2022-05-17T11:39:18Z</time>
      </trkpt>
      <trkpt lat="46.70495" lon="5.63545">
        <ele>486.4</ele>
        <time>2022-05-17T11:39:25Z</time>
      </trkpt>
      <trkpt lat="46.70491" lon="5.63541">
        <ele>486.7</ele>
        <time>2022-05-17T11:39:30Z</time>
      </trkpt>
      <trkpt lat="46.70486" lon="5.63538">
        <ele>486.8</ele>
        <time>2022-05-17T11:39:38Z</time>
      </trkpt>
      <trkpt lat="46.70482" lon="5.63536">
        <ele>486.3</ele>
        <time>2022-05-17T11:39:43Z</time>
      </trkpt>
      <trkpt lat="46.70477" lon="5.63533">
        <ele>485.4</ele>
        <time>2022-05-17T11:39:48Z</time>
      </trkpt>
      <trkpt lat="46.70472" lon="5.63535">
        <ele>483.9</ele>
        <time>2022-05-17T11:39:56Z</time>
      </trkpt>
      <trkpt lat="46.70468" lon="5.63537">
        <ele>483.7</ele>
        <time>2022-05-17T11:40:05Z</time>
      </trkpt>
      <trkpt lat="46.70464" lon="5.63542">
        <ele>483.6</ele>
        <time>2022-05-17T11:40:14Z</time>
      </trkpt>
      <trkpt lat="46.7046" lon="5.63538">
        <ele>483.3</ele>
        <time>2022-05-17T11:40:20Z</time>
      </trkpt>
      <trkpt lat="46.70459" lon="5.63531">
        <ele>483</ele>
        <time>2022-05-17T11:40:28Z</time>
      </trkpt>
      <trkpt lat="46.70455" lon="5.63528">
        <ele>482.9</ele>
        <time>2022-05-17T11:40:34Z</time>
      </trkpt>
      <trkpt lat="46.7045" lon="5.63529">
        <ele>482.8</ele>
        <time>2022-05-17T11:40:39Z</time>
      </trkpt>
      <trkpt lat="46.70446" lon="5.63525">
        <ele>482.8</ele>
        <time>2022-05-17T11:40:44Z</time>
      </trkpt>
      <trkpt lat="46.70441" lon="5.63521">
        <ele>483.1</ele>
        <time>2022-05-17T11:40:49Z</time>
      </trkpt>
      <trkpt lat="46.70437" lon="5.63516">
        <ele>484</ele>
        <time>2022-05-17T11:40:54Z</time>
      </trkpt>
      <trkpt lat="46.70432" lon="5.63516">
        <ele>484.6</ele>
        <time>2022-05-17T11:40:58Z</time>
      </trkpt>
      <trkpt lat="46.70428" lon="5.63519">
        <ele>485.8</ele>
        <time>2022-05-17T11:41:05Z</time>
      </trkpt>
      <trkpt lat="46.70424" lon="5.63524">
        <ele>487.7</ele>
        <time>2022-05-17T11:41:11Z</time>
      </trkpt>
      <trkpt lat="46.70419" lon="5.63524">
        <ele>489.8</ele>
        <time>2022-05-17T11:41:18Z</time>
      </trkpt>
      <trkpt lat="46.70414" lon="5.63523">
        <ele>491.5</ele>
        <time>2022-05-17T11:41:24Z</time>
      </trkpt>
      <trkpt lat="46.70409" lon="5.63525">
        <ele>492.9</ele>
        <time>2022-05-17T11:41:32Z</time>
      </trkpt>
      <trkpt lat="46.70405" lon="5.63527">
        <ele>493.9</ele>
        <time>2022-05-17T11:41:39Z</time>
      </trkpt>
      <trkpt lat="46.704" lon="5.63524">
        <ele>494.2</ele>
        <time>2022-05-17T11:41:43Z</time>
      </trkpt>
      <trkpt lat="46.70396" lon="5.63521">
        <ele>494.3</ele>
        <time>2022-05-17T11:41:48Z</time>
      </trkpt>
      <trkpt lat="46.70391" lon="5.63523">
        <ele>494.1</ele>
        <time>2022-05-17T11:41:57Z</time>
      </trkpt>
      <trkpt lat="46.70386" lon="5.63523">
        <ele>492.1</ele>
        <time>2022-05-17T11:42:15Z</time>
      </trkpt>
      <trkpt lat="46.70381" lon="5.63518">
        <ele>492.4</ele>
        <time>2022-05-17T11:42:24Z</time>
      </trkpt>
      <trkpt lat="46.70378" lon="5.63511">
        <ele>492.9</ele>
        <time>2022-05-17T11:42:27Z</time>
      </trkpt>
      <trkpt lat="46.70375" lon="5.63505">
        <ele>493.1</ele>
        <time>2022-05-17T11:42:31Z</time>
      </trkpt>
      <trkpt lat="46.7037" lon="5.63502">
        <ele>492.8</ele>
        <time>2022-05-17T11:42:39Z</time>
      </trkpt>
      <trkpt lat="46.70367" lon="5.63496">
        <ele>492.7</ele>
        <time>2022-05-17T11:42:53Z</time>
      </trkpt>
      <trkpt lat="46.70363" lon="5.63492">
        <ele>492.9</ele>
        <time>2022-05-17T11:43:01Z</time>
      </trkpt>
      <trkpt lat="46.70358" lon="5.63494">
        <ele>493.2</ele>
        <time>2022-05-17T11:43:05Z</time>
      </trkpt>
      <trkpt lat="46.70354" lon="5.63499">
        <ele>494.2</ele>
        <time>2022-05-17T11:43:11Z</time>
      </trkpt>
      <trkpt lat="46.70349" lon="5.63503">
        <ele>494.9</ele>
        <time>2022-05-17T11:43:15Z</time>
      </trkpt>
      <trkpt lat="46.70344" lon="5.63501">
        <ele>497.2</ele>
        <time>2022-05-17T11:43:24Z</time>
      </trkpt>
      <trkpt lat="46.70342" lon="5.63495">
        <ele>497.8</ele>
        <time>2022-05-17T11:43:28Z</time>
      </trkpt>
      <trkpt lat="46.70338" lon="5.635">
        <ele>499.4</ele>
        <time>2022-05-17T11:43:40Z</time>
      </trkpt>
      <trkpt lat="46.70333" lon="5.63499">
        <ele>499.9</ele>
        <time>2022-05-17T11:43:44Z</time>
      </trkpt>
      <trkpt lat="46.70328" lon="5.63497">
        <ele>499.5</ele>
        <time>2022-05-17T11:43:48Z</time>
      </trkpt>
      <trkpt lat="46.70323" lon="5.635">
        <ele>497.5</ele>
        <time>2022-05-17T11:44:02Z</time>
      </trkpt>
      <trkpt lat="46.70319" lon="5.63497">
        <ele>496.6</ele>
        <time>2022-05-17T11:44:11Z</time>
      </trkpt>
      <trkpt lat="46.70315" lon="5.63493">
        <ele>496.3</ele>
        <time>2022-05-17T11:44:18Z</time>
      </trkpt>
      <trkpt lat="46.7031" lon="5.63493">
        <ele>496.6</ele>
        <time>2022-05-17T11:44:22Z</time>
      </trkpt>
      <trkpt lat="46.70306" lon="5.63494">
        <ele>497.5</ele>
        <time>2022-05-17T11:44:27Z</time>
      </trkpt>
      <trkpt lat="46.70302" lon="5.63492">
        <ele>498.1</ele>
        <time>2022-05-17T11:44:33Z</time>
      </trkpt>
      <trkpt lat="46.70297" lon="5.63493">
        <ele>498.8</ele>
        <time>2022-05-17T11:44:38Z</time>
      </trkpt>
      <trkpt lat="46.70292" lon="5.63494">
        <ele>500.3</ele>
        <time>2022-05-17T11:44:44Z</time>
      </trkpt>
      <trkpt lat="46.70287" lon="5.63495">
        <ele>501.6</ele>
        <time>2022-05-17T11:44:51Z</time>
      </trkpt>
      <trkpt lat="46.70282" lon="5.63494">
        <ele>501.7</ele>
        <time>2022-05-17T11:44:56Z</time>
      </trkpt>
      <trkpt lat="46.70278" lon="5.6349">
        <ele>500.8</ele>
        <time>2022-05-17T11:45:03Z</time>
      </trkpt>
      <trkpt lat="46.70273" lon="5.6349">
        <ele>500.2</ele>
        <time>2022-05-17T11:45:12Z</time>
      </trkpt>
      <trkpt lat="46.70268" lon="5.63491">
        <ele>499.6</ele>
        <time>2022-05-17T11:45:24Z</time>
      </trkpt>
      <trkpt lat="46.70263" lon="5.63494">
        <ele>499.5</ele>
        <time>2022-05-17T11:45:28Z</time>
      </trkpt>
      <trkpt lat="46.7026" lon="5.63489">
        <ele>500</ele>
        <time>2022-05-17T11:45:38Z</time>
      </trkpt>
      <trkpt lat="46.70255" lon="5.63486">
        <ele>499.2</ele>
        <time>2022-05-17T11:45:50Z</time>
      </trkpt>
      <trkpt lat="46.70251" lon="5.63483">
        <ele>499</ele>
        <time>2022-05-17T11:45:57Z</time>
      </trkpt>
      <trkpt lat="46.70245" lon="5.63479">
        <ele>499.3</ele>
        <time>2022-05-17T11:46:01Z</time>
      </trkpt>
      <trkpt lat="46.70242" lon="5.63475">
        <ele>499.4</ele>
        <time>2022-05-17T11:46:05Z</time>
      </trkpt>
      <trkpt lat="46.70247" lon="5.63476">
        <ele>499.5</ele>
        <time>2022-05-17T11:46:32Z</time>
      </trkpt>
      <trkpt lat="46.70252" lon="5.63477">
        <ele>499.2</ele>
        <time>2022-05-17T11:46:36Z</time>
      </trkpt>
      <trkpt lat="46.7025" lon="5.63471">
        <ele>498.6</ele>
        <time>2022-05-17T11:46:45Z</time>
      </trkpt>
      <trkpt lat="46.70247" lon="5.63466">
        <ele>498.9</ele>
        <time>2022-05-17T11:46:51Z</time>
      </trkpt>
      <trkpt lat="46.70247" lon="5.63459">
        <ele>499.3</ele>
        <time>2022-05-17T11:47:03Z</time>
      </trkpt>
      <trkpt lat="46.70243" lon="5.63455">
        <ele>499.4</ele>
        <time>2022-05-17T11:47:10Z</time>
      </trkpt>
      <trkpt lat="46.70239" lon="5.63454">
        <ele>498.6</ele>
        <time>2022-05-17T11:47:16Z</time>
      </trkpt>
      <trkpt lat="46.70243" lon="5.63451">
        <ele>497</ele>
        <time>2022-05-17T11:47:29Z</time>
      </trkpt>
      <trkpt lat="46.70248" lon="5.6345">
        <ele>497.8</ele>
        <time>2022-05-17T11:47:38Z</time>
      </trkpt>
      <trkpt lat="46.70248" lon="5.63443">
        <ele>495.4</ele>
        <time>2022-05-17T11:48:06Z</time>
      </trkpt>
      <trkpt lat="46.70247" lon="5.63436">
        <ele>495.2</ele>
        <time>2022-05-17T11:48:12Z</time>
      </trkpt>
      <trkpt lat="46.70253" lon="5.63438">
        <ele>495.6</ele>
        <time>2022-05-17T11:48:18Z</time>
      </trkpt>
      <trkpt lat="46.70258" lon="5.63439">
        <ele>496.6</ele>
        <time>2022-05-17T11:48:22Z</time>
      </trkpt>
      <trkpt lat="46.70253" lon="5.63441">
        <ele>498.9</ele>
        <time>2022-05-17T11:49:00Z</time>
      </trkpt>
      <trkpt lat="46.70249" lon="5.63437">
        <ele>499.2</ele>
        <time>2022-05-17T11:49:11Z</time>
      </trkpt>
      <trkpt lat="46.70244" lon="5.63438">
        <ele>497.3</ele>
        <time>2022-05-17T11:49:18Z</time>
      </trkpt>
      <trkpt lat="46.70244" lon="5.63445">
        <ele>491.8</ele>
        <time>2022-05-17T11:49:28Z</time>
      </trkpt>
      <trkpt lat="46.70243" lon="5.63439">
        <ele>488.5</ele>
        <time>2022-05-17T11:49:38Z</time>
      </trkpt>
      <trkpt lat="46.70248" lon="5.63441">
        <ele>489.8</ele>
        <time>2022-05-17T11:50:00Z</time>
      </trkpt>
      <trkpt lat="46.70252" lon="5.63439">
        <ele>490.9</ele>
        <time>2022-05-17T11:50:09Z</time>
      </trkpt>
      <trkpt lat="46.70248" lon="5.63438">
        <ele>492.6</ele>
        <time>2022-05-17T11:50:16Z</time>
      </trkpt>
      <trkpt lat="46.70252" lon="5.63441">
        <ele>493.9</ele>
        <time>2022-05-17T11:50:28Z</time>
      </trkpt>
      <trkpt lat="46.70256" lon="5.63437">
        <ele>492.7</ele>
        <time>2022-05-17T11:50:35Z</time>
      </trkpt>
      <trkpt lat="46.70261" lon="5.63435">
        <ele>488.5</ele>
        <time>2022-05-17T11:51:01Z</time>
      </trkpt>
      <trkpt lat="46.70265" lon="5.63438">
        <ele>488.4</ele>
        <time>2022-05-17T11:51:15Z</time>
      </trkpt>
      <trkpt lat="46.70271" lon="5.63436">
        <ele>488.4</ele>
        <time>2022-05-17T11:51:20Z</time>
      </trkpt>
      <trkpt lat="46.70275" lon="5.6344">
        <ele>489.4</ele>
        <time>2022-05-17T11:51:32Z</time>
      </trkpt>
      <trkpt lat="46.7028" lon="5.6344">
        <ele>490</ele>
        <time>2022-05-17T11:51:38Z</time>
      </trkpt>
      <trkpt lat="46.70284" lon="5.63439">
        <ele>490.1</ele>
        <time>2022-05-17T11:51:41Z</time>
      </trkpt>
      <trkpt lat="46.70289" lon="5.63438">
        <ele>490.1</ele>
        <time>2022-05-17T11:51:45Z</time>
      </trkpt>
      <trkpt lat="46.70294" lon="5.63435">
        <ele>489.1</ele>
        <time>2022-05-17T11:51:54Z</time>
      </trkpt>
      <trkpt lat="46.70298" lon="5.63433">
        <ele>488.8</ele>
        <time>2022-05-17T11:51:59Z</time>
      </trkpt>
      <trkpt lat="46.70303" lon="5.63432">
        <ele>489</ele>
        <time>2022-05-17T11:52:08Z</time>
      </trkpt>
      <trkpt lat="46.70308" lon="5.63432">
        <ele>489</ele>
        <time>2022-05-17T11:52:12Z</time>
      </trkpt>
      <trkpt lat="46.70312" lon="5.63435">
        <ele>489.1</ele>
        <time>2022-05-17T11:52:18Z</time>
      </trkpt>
      <trkpt lat="46.70319" lon="5.63436">
        <ele>488.8</ele>
        <time>2022-05-17T11:52:22Z</time>
      </trkpt>
      <trkpt lat="46.70324" lon="5.63436">
        <ele>488.6</ele>
        <time>2022-05-17T11:52:25Z</time>
      </trkpt>
      <trkpt lat="46.70328" lon="5.63438">
        <ele>488.5</ele>
        <time>2022-05-17T11:52:30Z</time>
      </trkpt>
      <trkpt lat="46.70333" lon="5.63441">
        <ele>488.3</ele>
        <time>2022-05-17T11:52:44Z</time>
      </trkpt>
      <trkpt lat="46.70338" lon="5.63443">
        <ele>488.2</ele>
        <time>2022-05-17T11:52:51Z</time>
      </trkpt>
      <trkpt lat="46.70343" lon="5.63443">
        <ele>488.3</ele>
        <time>2022-05-17T11:52:57Z</time>
      </trkpt>
      <trkpt lat="46.70348" lon="5.63443">
        <ele>488.4</ele>
        <time>2022-05-17T11:53:00Z</time>
      </trkpt>
      <trkpt lat="46.70353" lon="5.63442">
        <ele>488.7</ele>
        <time>2022-05-17T11:53:05Z</time>
      </trkpt>
      <trkpt lat="46.70357" lon="5.6344">
        <ele>488.8</ele>
        <time>2022-05-17T11:53:14Z</time>
      </trkpt>
      <trkpt lat="46.70363" lon="5.63441">
        <ele>488.3</ele>
        <time>2022-05-17T11:53:18Z</time>
      </trkpt>
      <trkpt lat="46.70368" lon="5.6344">
        <ele>487.1</ele>
        <time>2022-05-17T11:53:25Z</time>
      </trkpt>
      <trkpt lat="46.70373" lon="5.63438">
        <ele>486.4</ele>
        <time>2022-05-17T11:53:32Z</time>
      </trkpt>
      <trkpt lat="46.70377" lon="5.6344">
        <ele>486</ele>
        <time>2022-05-17T11:53:37Z</time>
      </trkpt>
      <trkpt lat="46.70382" lon="5.6344">
        <ele>485.6</ele>
        <time>2022-05-17T11:53:41Z</time>
      </trkpt>
      <trkpt lat="46.70387" lon="5.63439">
        <ele>485.1</ele>
        <time>2022-05-17T11:53:44Z</time>
      </trkpt>
      <trkpt lat="46.70393" lon="5.63439">
        <ele>484.3</ele>
        <time>2022-05-17T11:53:48Z</time>
      </trkpt>
      <trkpt lat="46.70398" lon="5.63439">
        <ele>483.3</ele>
        <time>2022-05-17T11:53:53Z</time>
      </trkpt>
      <trkpt lat="46.70402" lon="5.63435">
        <ele>480.8</ele>
        <time>2022-05-17T11:54:08Z</time>
      </trkpt>
      <trkpt lat="46.70407" lon="5.63434">
        <ele>480.3</ele>
        <time>2022-05-17T11:54:14Z</time>
      </trkpt>
      <trkpt lat="46.70412" lon="5.63433">
        <ele>480.1</ele>
        <time>2022-05-17T11:54:19Z</time>
      </trkpt>
      <trkpt lat="46.70416" lon="5.63437">
        <ele>480</ele>
        <time>2022-05-17T11:54:26Z</time>
      </trkpt>
      <trkpt lat="46.70421" lon="5.63438">
        <ele>479.8</ele>
        <time>2022-05-17T11:54:33Z</time>
      </trkpt>
      <trkpt lat="46.70426" lon="5.63437">
        <ele>479.7</ele>
        <time>2022-05-17T11:54:39Z</time>
      </trkpt>
      <trkpt lat="46.70431" lon="5.63437">
        <ele>479.5</ele>
        <time>2022-05-17T11:54:43Z</time>
      </trkpt>
      <trkpt lat="46.70436" lon="5.63436">
        <ele>479.2</ele>
        <time>2022-05-17T11:54:48Z</time>
      </trkpt>
      <trkpt lat="46.7044" lon="5.63435">
        <ele>478.5</ele>
        <time>2022-05-17T11:54:55Z</time>
      </trkpt>
      <trkpt lat="46.70444" lon="5.6344">
        <ele>476.4</ele>
        <time>2022-05-17T11:55:06Z</time>
      </trkpt>
      <trkpt lat="46.70448" lon="5.63443">
        <ele>475.1</ele>
        <time>2022-05-17T11:55:10Z</time>
      </trkpt>
      <trkpt lat="46.70453" lon="5.63445">
        <ele>473.3</ele>
        <time>2022-05-17T11:55:16Z</time>
      </trkpt>
      <trkpt lat="46.70458" lon="5.63444">
        <ele>471.9</ele>
        <time>2022-05-17T11:55:23Z</time>
      </trkpt>
      <trkpt lat="46.70463" lon="5.63443">
        <ele>471.2</ele>
        <time>2022-05-17T11:55:27Z</time>
      </trkpt>
      <trkpt lat="46.70468" lon="5.63442">
        <ele>470.6</ele>
        <time>2022-05-17T11:55:31Z</time>
      </trkpt>
      <trkpt lat="46.70472" lon="5.63444">
        <ele>470</ele>
        <time>2022-05-17T11:55:35Z</time>
      </trkpt>
      <trkpt lat="46.70477" lon="5.63445">
        <ele>469.2</ele>
        <time>2022-05-17T11:55:46Z</time>
      </trkpt>
      <trkpt lat="46.70482" lon="5.63444">
        <ele>468.2</ele>
        <time>2022-05-17T11:55:53Z</time>
      </trkpt>
      <trkpt lat="46.70488" lon="5.63446">
        <ele>467.7</ele>
        <time>2022-05-17T11:55:58Z</time>
      </trkpt>
      <trkpt lat="46.70493" lon="5.63449">
        <ele>466</ele>
        <time>2022-05-17T11:56:07Z</time>
      </trkpt>
      <trkpt lat="46.70497" lon="5.63451">
        <ele>465.1</ele>
        <time>2022-05-17T11:56:15Z</time>
      </trkpt>
      <trkpt lat="46.70501" lon="5.63451">
        <ele>464.7</ele>
        <time>2022-05-17T11:56:24Z</time>
      </trkpt>
      <trkpt lat="46.70507" lon="5.63452">
        <ele>463.8</ele>
        <time>2022-05-17T11:56:33Z</time>
      </trkpt>
      <trkpt lat="46.70511" lon="5.63455">
        <ele>462</ele>
        <time>2022-05-17T11:56:42Z</time>
      </trkpt>
      <trkpt lat="46.70516" lon="5.63456">
        <ele>460.9</ele>
        <time>2022-05-17T11:56:47Z</time>
      </trkpt>
      <trkpt lat="46.70521" lon="5.63457">
        <ele>459.8</ele>
        <time>2022-05-17T11:56:52Z</time>
      </trkpt>
      <trkpt lat="46.70526" lon="5.6346">
        <ele>458.7</ele>
        <time>2022-05-17T11:56:57Z</time>
      </trkpt>
      <trkpt lat="46.70531" lon="5.63459">
        <ele>457.5</ele>
        <time>2022-05-17T11:57:04Z</time>
      </trkpt>
      <trkpt lat="46.70536" lon="5.63462">
        <ele>456.9</ele>
        <time>2022-05-17T11:57:08Z</time>
      </trkpt>
      <trkpt lat="46.70542" lon="5.63463">
        <ele>456</ele>
        <time>2022-05-17T11:57:14Z</time>
      </trkpt>
      <trkpt lat="46.70546" lon="5.6346">
        <ele>455.3</ele>
        <time>2022-05-17T11:57:17Z</time>
      </trkpt>
      <trkpt lat="46.70551" lon="5.63459">
        <ele>454.6</ele>
        <time>2022-05-17T11:57:21Z</time>
      </trkpt>
      <trkpt lat="46.70556" lon="5.63458">
        <ele>454.2</ele>
        <time>2022-05-17T11:57:25Z</time>
      </trkpt>
      <trkpt lat="46.70561" lon="5.63458">
        <ele>453.6</ele>
        <time>2022-05-17T11:57:30Z</time>
      </trkpt>
      <trkpt lat="46.70565" lon="5.63462">
        <ele>452.8</ele>
        <time>2022-05-17T11:57:38Z</time>
      </trkpt>
      <trkpt lat="46.70568" lon="5.63467">
        <ele>452.2</ele>
        <time>2022-05-17T11:57:44Z</time>
      </trkpt>
      <trkpt lat="46.70573" lon="5.6347">
        <ele>451.4</ele>
        <time>2022-05-17T11:57:52Z</time>
      </trkpt>
      <trkpt lat="46.70578" lon="5.63467">
        <ele>451</ele>
        <time>2022-05-17T11:57:57Z</time>
      </trkpt>
      <trkpt lat="46.70583" lon="5.63465">
        <ele>450.8</ele>
        <time>2022-05-17T11:58:02Z</time>
      </trkpt>
      <trkpt lat="46.70587" lon="5.63469">
        <ele>448.8</ele>
        <time>2022-05-17T11:58:12Z</time>
      </trkpt>
      <trkpt lat="46.70592" lon="5.63469">
        <ele>446.8</ele>
        <time>2022-05-17T11:58:17Z</time>
      </trkpt>
      <trkpt lat="46.70597" lon="5.63469">
        <ele>445.4</ele>
        <time>2022-05-17T11:58:21Z</time>
      </trkpt>
      <trkpt lat="46.70602" lon="5.63471">
        <ele>444.3</ele>
        <time>2022-05-17T11:58:26Z</time>
      </trkpt>
      <trkpt lat="46.70607" lon="5.63473">
        <ele>443.4</ele>
        <time>2022-05-17T11:58:33Z</time>
      </trkpt>
      <trkpt lat="46.70612" lon="5.63473">
        <ele>443.1</ele>
        <time>2022-05-17T11:58:37Z</time>
      </trkpt>
      <trkpt lat="46.70617" lon="5.63473">
        <ele>442.7</ele>
        <time>2022-05-17T11:58:43Z</time>
      </trkpt>
      <trkpt lat="46.70621" lon="5.63473">
        <ele>442.1</ele>
        <time>2022-05-17T11:58:49Z</time>
      </trkpt>
      <trkpt lat="46.70626" lon="5.63473">
        <ele>441.7</ele>
        <time>2022-05-17T11:58:57Z</time>
      </trkpt>
      <trkpt lat="46.70631" lon="5.63471">
        <ele>441.7</ele>
        <time>2022-05-17T11:59:04Z</time>
      </trkpt>
      <trkpt lat="46.70635" lon="5.6347">
        <ele>441.5</ele>
        <time>2022-05-17T11:59:07Z</time>
      </trkpt>
      <trkpt lat="46.70641" lon="5.63471">
        <ele>441.1</ele>
        <time>2022-05-17T11:59:10Z</time>
      </trkpt>
      <trkpt lat="46.70645" lon="5.6347">
        <ele>440.5</ele>
        <time>2022-05-17T11:59:15Z</time>
      </trkpt>
      <trkpt lat="46.70651" lon="5.6347">
        <ele>439.9</ele>
        <time>2022-05-17T11:59:22Z</time>
      </trkpt>
      <trkpt lat="46.70655" lon="5.63474">
        <ele>439.9</ele>
        <time>2022-05-17T11:59:28Z</time>
      </trkpt>
      <trkpt lat="46.70659" lon="5.6347">
        <ele>440.1</ele>
        <time>2022-05-17T11:59:35Z</time>
      </trkpt>
      <trkpt lat="46.70664" lon="5.63469">
        <ele>440.5</ele>
        <time>2022-05-17T11:59:40Z</time>
      </trkpt>
      <trkpt lat="46.70668" lon="5.63472">
        <ele>440.7</ele>
        <time>2022-05-17T11:59:44Z</time>
      </trkpt>
      <trkpt lat="46.70673" lon="5.63475">
        <ele>440.7</ele>
        <time>2022-05-17T11:59:50Z</time>
      </trkpt>
      <trkpt lat="46.70677" lon="5.63478">
        <ele>440.3</ele>
        <time>2022-05-17T12:00:00Z</time>
      </trkpt>
      <trkpt lat="46.70681" lon="5.63476">
        <ele>439.9</ele>
        <time>2022-05-17T12:00:12Z</time>
      </trkpt>
      <trkpt lat="46.70686" lon="5.63473">
        <ele>439.6</ele>
        <time>2022-05-17T12:00:16Z</time>
      </trkpt>
      <trkpt lat="46.70691" lon="5.63473">
        <ele>438.7</ele>
        <time>2022-05-17T12:00:21Z</time>
      </trkpt>
      <trkpt lat="46.70696" lon="5.63474">
        <ele>437.6</ele>
        <time>2022-05-17T12:00:27Z</time>
      </trkpt>
      <trkpt lat="46.707" lon="5.63474">
        <ele>436.9</ele>
        <time>2022-05-17T12:00:32Z</time>
      </trkpt>
      <trkpt lat="46.70705" lon="5.63472">
        <ele>435.8</ele>
        <time>2022-05-17T12:00:40Z</time>
      </trkpt>
      <trkpt lat="46.7071" lon="5.63474">
        <ele>433.8</ele>
        <time>2022-05-17T12:00:58Z</time>
      </trkpt>
      <trkpt lat="46.70717" lon="5.63474">
        <ele>433</ele>
        <time>2022-05-17T12:01:07Z</time>
      </trkpt>
      <trkpt lat="46.70722" lon="5.63473">
        <ele>432.7</ele>
        <time>2022-05-17T12:01:14Z</time>
      </trkpt>
      <trkpt lat="46.70727" lon="5.63476">
        <ele>432.3</ele>
        <time>2022-05-17T12:01:18Z</time>
      </trkpt>
      <trkpt lat="46.70731" lon="5.63479">
        <ele>431.8</ele>
        <time>2022-05-17T12:01:23Z</time>
      </trkpt>
      <trkpt lat="46.70736" lon="5.6348">
        <ele>431.5</ele>
        <time>2022-05-17T12:01:27Z</time>
      </trkpt>
      <trkpt lat="46.70741" lon="5.6348">
        <ele>431.4</ele>
        <time>2022-05-17T12:01:30Z</time>
      </trkpt>
      <trkpt lat="46.70746" lon="5.6348">
        <ele>431.1</ele>
        <time>2022-05-17T12:01:34Z</time>
      </trkpt>
      <trkpt lat="46.70752" lon="5.63481">
        <ele>430.9</ele>
        <time>2022-05-17T12:01:39Z</time>
      </trkpt>
      <trkpt lat="46.70756" lon="5.63481">
        <ele>430.5</ele>
        <time>2022-05-17T12:01:42Z</time>
      </trkpt>
      <trkpt lat="46.70762" lon="5.63482">
        <ele>429.9</ele>
        <time>2022-05-17T12:01:47Z</time>
      </trkpt>
      <trkpt lat="46.70767" lon="5.63481">
        <ele>429.4</ele>
        <time>2022-05-17T12:01:52Z</time>
      </trkpt>
      <trkpt lat="46.70772" lon="5.63481">
        <ele>429.2</ele>
        <time>2022-05-17T12:02:06Z</time>
      </trkpt>
      <trkpt lat="46.70777" lon="5.63482">
        <ele>429.2</ele>
        <time>2022-05-17T12:02:10Z</time>
      </trkpt>
      <trkpt lat="46.70781" lon="5.63483">
        <ele>429.3</ele>
        <time>2022-05-17T12:02:14Z</time>
      </trkpt>
      <trkpt lat="46.70786" lon="5.63483">
        <ele>429.3</ele>
        <time>2022-05-17T12:02:17Z</time>
      </trkpt>
      <trkpt lat="46.70793" lon="5.63483">
        <ele>428.3</ele>
        <time>2022-05-17T12:02:20Z</time>
      </trkpt>
      <trkpt lat="46.70798" lon="5.63483">
        <ele>427.2</ele>
        <time>2022-05-17T12:02:24Z</time>
      </trkpt>
      <trkpt lat="46.70802" lon="5.6348">
        <ele>425.6</ele>
        <time>2022-05-17T12:02:32Z</time>
      </trkpt>
      <trkpt lat="46.70807" lon="5.6348">
        <ele>424.3</ele>
        <time>2022-05-17T12:02:36Z</time>
      </trkpt>
      <trkpt lat="46.70812" lon="5.63478">
        <ele>423.2</ele>
        <time>2022-05-17T12:02:40Z</time>
      </trkpt>
      <trkpt lat="46.70817" lon="5.63477">
        <ele>422.1</ele>
        <time>2022-05-17T12:02:46Z</time>
      </trkpt>
      <trkpt lat="46.70821" lon="5.63474">
        <ele>421.2</ele>
        <time>2022-05-17T12:02:52Z</time>
      </trkpt>
      <trkpt lat="46.70827" lon="5.63474">
        <ele>420.3</ele>
        <time>2022-05-17T12:02:56Z</time>
      </trkpt>
      <trkpt lat="46.70829" lon="5.63481">
        <ele>419.1</ele>
        <time>2022-05-17T12:03:08Z</time>
      </trkpt>
      <trkpt lat="46.70833" lon="5.63485">
        <ele>418.8</ele>
        <time>2022-05-17T12:03:15Z</time>
      </trkpt>
      <trkpt lat="46.70838" lon="5.63482">
        <ele>418.3</ele>
        <time>2022-05-17T12:03:21Z</time>
      </trkpt>
      <trkpt lat="46.70843" lon="5.6348">
        <ele>417.4</ele>
        <time>2022-05-17T12:03:27Z</time>
      </trkpt>
      <trkpt lat="46.70848" lon="5.63481">
        <ele>416.6</ele>
        <time>2022-05-17T12:03:33Z</time>
      </trkpt>
      <trkpt lat="46.70853" lon="5.63483">
        <ele>416.3</ele>
        <time>2022-05-17T12:03:38Z</time>
      </trkpt>
      <trkpt lat="46.70858" lon="5.63482">
        <ele>416.3</ele>
        <time>2022-05-17T12:03:42Z</time>
      </trkpt>
      <trkpt lat="46.70863" lon="5.63479">
        <ele>416</ele>
        <time>2022-05-17T12:03:47Z</time>
      </trkpt>
      <trkpt lat="46.70868" lon="5.63478">
        <ele>415.7</ele>
        <time>2022-05-17T12:03:51Z</time>
      </trkpt>
      <trkpt lat="46.70873" lon="5.63477">
        <ele>415.2</ele>
        <time>2022-05-17T12:03:57Z</time>
      </trkpt>
      <trkpt lat="46.70878" lon="5.63479">
        <ele>414.9</ele>
        <time>2022-05-17T12:04:03Z</time>
      </trkpt>
      <trkpt lat="46.70883" lon="5.63479">
        <ele>414.7</ele>
        <time>2022-05-17T12:04:08Z</time>
      </trkpt>
      <trkpt lat="46.70888" lon="5.63481">
        <ele>414.1</ele>
        <time>2022-05-17T12:04:15Z</time>
      </trkpt>
      <trkpt lat="46.70892" lon="5.63478">
        <ele>413.2</ele>
        <time>2022-05-17T12:04:24Z</time>
      </trkpt>
      <trkpt lat="46.70896" lon="5.63473">
        <ele>412</ele>
        <time>2022-05-17T12:04:31Z</time>
      </trkpt>
      <trkpt lat="46.70901" lon="5.63475">
        <ele>411.2</ele>
        <time>2022-05-17T12:04:35Z</time>
      </trkpt>
      <trkpt lat="46.70906" lon="5.63477">
        <ele>410.4</ele>
        <time>2022-05-17T12:04:40Z</time>
      </trkpt>
      <trkpt lat="46.70911" lon="5.63481">
        <ele>409.6</ele>
        <time>2022-05-17T12:04:46Z</time>
      </trkpt>
      <trkpt lat="46.70916" lon="5.63483">
        <ele>410.2</ele>
        <time>2022-05-17T12:04:53Z</time>
      </trkpt>
      <trkpt lat="46.7092" lon="5.63483">
        <ele>411</ele>
        <time>2022-05-17T12:05:01Z</time>
      </trkpt>
      <trkpt lat="46.70925" lon="5.63483">
        <ele>410.9</ele>
        <time>2022-05-17T12:05:08Z</time>
      </trkpt>
      <trkpt lat="46.7093" lon="5.63486">
        <ele>410.3</ele>
        <time>2022-05-17T12:05:15Z</time>
      </trkpt>
      <trkpt lat="46.70934" lon="5.63489">
        <ele>409.3</ele>
        <time>2022-05-17T12:05:22Z</time>
      </trkpt>
      <trkpt lat="46.70939" lon="5.63486">
        <ele>408.2</ele>
        <time>2022-05-17T12:05:31Z</time>
      </trkpt>
      <trkpt lat="46.70944" lon="5.63486">
        <ele>407.7</ele>
        <time>2022-05-17T12:05:34Z</time>
      </trkpt>
      <trkpt lat="46.70946" lon="5.63492">
        <ele>405.9</ele>
        <time>2022-05-17T12:05:41Z</time>
      </trkpt>
      <trkpt lat="46.70948" lon="5.63498">
        <ele>404.8</ele>
        <time>2022-05-17T12:05:46Z</time>
      </trkpt>
      <trkpt lat="46.70946" lon="5.63504">
        <ele>403.8</ele>
        <time>2022-05-17T12:05:51Z</time>
      </trkpt>
      <trkpt lat="46.7095" lon="5.63508">
        <ele>402.5</ele>
        <time>2022-05-17T12:05:57Z</time>
      </trkpt>
      <trkpt lat="46.70955" lon="5.63507">
        <ele>401.3</ele>
        <time>2022-05-17T12:06:01Z</time>
      </trkpt>
      <trkpt lat="46.70959" lon="5.63505">
        <ele>400.4</ele>
        <time>2022-05-17T12:06:04Z</time>
      </trkpt>
      <trkpt lat="46.70964" lon="5.63502">
        <ele>398.8</ele>
        <time>2022-05-17T12:06:08Z</time>
      </trkpt>
      <trkpt lat="46.70966" lon="5.63496">
        <ele>395.5</ele>
        <time>2022-05-17T12:06:16Z</time>
      </trkpt>
      <trkpt lat="46.70962" lon="5.6349">
        <ele>393.8</ele>
        <time>2022-05-17T12:06:22Z</time>
      </trkpt>
      <trkpt lat="46.70965" lon="5.63485">
        <ele>390.5</ele>
        <time>2022-05-17T12:06:38Z</time>
      </trkpt>
      <trkpt lat="46.70964" lon="5.63491">
        <ele>388.9</ele>
        <time>2022-05-17T12:06:47Z</time>
      </trkpt>
      <trkpt lat="46.70961" lon="5.63498">
        <ele>388.6</ele>
        <time>2022-05-17T12:06:52Z</time>
      </trkpt>
      <trkpt lat="46.70959" lon="5.63503">
        <ele>388.7</ele>
        <time>2022-05-17T12:06:57Z</time>
      </trkpt>
      <trkpt lat="46.70964" lon="5.63504">
        <ele>388.7</ele>
        <time>2022-05-17T12:07:04Z</time>
      </trkpt>
      <trkpt lat="46.7096" lon="5.63499">
        <ele>385.9</ele>
        <time>2022-05-17T12:07:27Z</time>
      </trkpt>
      <trkpt lat="46.70956" lon="5.63494">
        <ele>382.7</ele>
        <time>2022-05-17T12:07:54Z</time>
      </trkpt>
      <trkpt lat="46.70952" lon="5.63489">
        <ele>382.6</ele>
        <time>2022-05-17T12:07:57Z</time>
      </trkpt>
      <trkpt lat="46.70947" lon="5.63486">
        <ele>382.7</ele>
        <time>2022-05-17T12:08:01Z</time>
      </trkpt>
      <trkpt lat="46.70942" lon="5.63486">
        <ele>383.2</ele>
        <time>2022-05-17T12:08:10Z</time>
      </trkpt>
      <trkpt lat="46.70939" lon="5.6348">
        <ele>381.8</ele>
        <time>2022-05-17T12:08:17Z</time>
      </trkpt>
      <trkpt lat="46.70936" lon="5.63475">
        <ele>381.2</ele>
        <time>2022-05-17T12:08:21Z</time>
      </trkpt>
      <trkpt lat="46.70932" lon="5.6347">
        <ele>380.6</ele>
        <time>2022-05-17T12:08:27Z</time>
      </trkpt>
      <trkpt lat="46.70928" lon="5.63467">
        <ele>380.6</ele>
        <time>2022-05-17T12:08:34Z</time>
      </trkpt>
      <trkpt lat="46.70924" lon="5.63462">
        <ele>380.7</ele>
        <time>2022-05-17T12:08:39Z</time>
      </trkpt>
      <trkpt lat="46.70921" lon="5.63456">
        <ele>380.7</ele>
        <time>2022-05-17T12:08:44Z</time>
      </trkpt>
      <trkpt lat="46.70917" lon="5.63452">
        <ele>380.9</ele>
        <time>2022-05-17T12:08:50Z</time>
      </trkpt>
      <trkpt lat="46.70912" lon="5.63449">
        <ele>381.5</ele>
        <time>2022-05-17T12:08:57Z</time>
      </trkpt>
      <trkpt lat="46.7091" lon="5.63443">
        <ele>380.9</ele>
        <time>2022-05-17T12:09:36Z</time>
      </trkpt>
      <trkpt lat="46.70916" lon="5.63443">
        <ele>381</ele>
        <time>2022-05-17T12:09:44Z</time>
      </trkpt>
      <trkpt lat="46.7092" lon="5.63439">
        <ele>381</ele>
        <time>2022-05-17T12:09:48Z</time>
      </trkpt>
      <trkpt lat="46.70925" lon="5.63438">
        <ele>380.7</ele>
        <time>2022-05-17T12:09:53Z</time>
      </trkpt>
      <trkpt lat="46.70929" lon="5.63439">
        <ele>380.6</ele>
        <time>2022-05-17T12:09:58Z</time>
      </trkpt>
      <trkpt lat="46.70934" lon="5.63437">
        <ele>380.8</ele>
        <time>2022-05-17T12:10:03Z</time>
      </trkpt>
      <trkpt lat="46.70938" lon="5.63433">
        <ele>380.3</ele>
        <time>2022-05-17T12:10:10Z</time>
      </trkpt>
      <trkpt lat="46.70939" lon="5.63426">
        <ele>379.8</ele>
        <time>2022-05-17T12:10:18Z</time>
      </trkpt>
      <trkpt lat="46.70944" lon="5.63424">
        <ele>379.5</ele>
        <time>2022-05-17T12:10:26Z</time>
      </trkpt>
      <trkpt lat="46.70948" lon="5.63424">
        <ele>379.5</ele>
        <time>2022-05-17T12:10:30Z</time>
      </trkpt>
      <trkpt lat="46.70952" lon="5.63419">
        <ele>379.7</ele>
        <time>2022-05-17T12:10:37Z</time>
      </trkpt>
      <trkpt lat="46.70957" lon="5.63417">
        <ele>380.5</ele>
        <time>2022-05-17T12:10:45Z</time>
      </trkpt>
      <trkpt lat="46.70962" lon="5.63415">
        <ele>381.5</ele>
        <time>2022-05-17T12:10:51Z</time>
      </trkpt>
      <trkpt lat="46.70967" lon="5.63416">
        <ele>382.3</ele>
        <time>2022-05-17T12:11:17Z</time>
      </trkpt>
      <trkpt lat="46.70971" lon="5.63416">
        <ele>382</ele>
        <time>2022-05-17T12:11:21Z</time>
      </trkpt>
      <trkpt lat="46.70976" lon="5.63415">
        <ele>381.5</ele>
        <time>2022-05-17T12:11:28Z</time>
      </trkpt>
      <trkpt lat="46.70982" lon="5.63416">
        <ele>380.9</ele>
        <time>2022-05-17T12:11:32Z</time>
      </trkpt>
      <trkpt lat="46.70988" lon="5.63417">
        <ele>380.2</ele>
        <time>2022-05-17T12:11:35Z</time>
      </trkpt>
      <trkpt lat="46.70992" lon="5.63419">
        <ele>379.4</ele>
        <time>2022-05-17T12:11:39Z</time>
      </trkpt>
      <trkpt lat="46.70997" lon="5.6342">
        <ele>377.4</ele>
        <time>2022-05-17T12:11:48Z</time>
      </trkpt>
      <trkpt lat="46.71001" lon="5.63422">
        <ele>374.8</ele>
        <time>2022-05-17T12:11:59Z</time>
      </trkpt>
      <trkpt lat="46.71005" lon="5.63418">
        <ele>374.1</ele>
        <time>2022-05-17T12:12:09Z</time>
      </trkpt>
      <trkpt lat="46.7101" lon="5.63416">
        <ele>373.5</ele>
        <time>2022-05-17T12:12:15Z</time>
      </trkpt>
      <trkpt lat="46.71013" lon="5.63421">
        <ele>370.7</ele>
        <time>2022-05-17T12:12:34Z</time>
      </trkpt>
      <trkpt lat="46.71017" lon="5.63417">
        <ele>369.1</ele>
        <time>2022-05-17T12:13:02Z</time>
      </trkpt>
      <trkpt lat="46.71021" lon="5.63413">
        <ele>368.9</ele>
        <time>2022-05-17T12:13:08Z</time>
      </trkpt>
      <trkpt lat="46.71026" lon="5.63412">
        <ele>368.9</ele>
        <time>2022-05-17T12:13:15Z</time>
      </trkpt>
      <trkpt lat="46.71031" lon="5.63412">
        <ele>366.2</ele>
        <time>2022-05-17T12:13:34Z</time>
      </trkpt>
      <trkpt lat="46.71035" lon="5.63418">
        <ele>362.7</ele>
        <time>2022-05-17T12:13:45Z</time>
      </trkpt>
      <trkpt lat="46.7104" lon="5.6342">
        <ele>360.8</ele>
        <time>2022-05-17T12:13:49Z</time>
      </trkpt>
      <trkpt lat="46.71044" lon="5.63422">
        <ele>359.4</ele>
        <time>2022-05-17T12:13:53Z</time>
      </trkpt>
      <trkpt lat="46.71044" lon="5.63429">
        <ele>357.8</ele>
        <time>2022-05-17T12:14:00Z</time>
      </trkpt>
      <trkpt lat="46.71049" lon="5.6343">
        <ele>356.2</ele>
        <time>2022-05-17T12:14:10Z</time>
      </trkpt>
      <trkpt lat="46.71054" lon="5.63432">
        <ele>355.5</ele>
        <time>2022-05-17T12:14:15Z</time>
      </trkpt>
      <trkpt lat="46.71057" lon="5.63437">
        <ele>353.2</ele>
        <time>2022-05-17T12:14:29Z</time>
      </trkpt>
      <trkpt lat="46.71061" lon="5.63441">
        <ele>352.4</ele>
        <time>2022-05-17T12:14:35Z</time>
      </trkpt>
      <trkpt lat="46.71065" lon="5.63445">
        <ele>351.7</ele>
        <time>2022-05-17T12:14:40Z</time>
      </trkpt>
      <trkpt lat="46.7107" lon="5.63447">
        <ele>351.1</ele>
        <time>2022-05-17T12:14:43Z</time>
      </trkpt>
      <trkpt lat="46.71074" lon="5.63449">
        <ele>350.5</ele>
        <time>2022-05-17T12:14:47Z</time>
      </trkpt>
      <trkpt lat="46.71074" lon="5.63456">
        <ele>348.8</ele>
        <time>2022-05-17T12:14:55Z</time>
      </trkpt>
      <trkpt lat="46.71077" lon="5.63461">
        <ele>346.9</ele>
        <time>2022-05-17T12:15:04Z</time>
      </trkpt>
      <trkpt lat="46.71076" lon="5.63469">
        <ele>344.8</ele>
        <time>2022-05-17T12:15:13Z</time>
      </trkpt>
      <trkpt lat="46.71074" lon="5.63475">
        <ele>342.8</ele>
        <time>2022-05-17T12:15:20Z</time>
      </trkpt>
      <trkpt lat="46.71079" lon="5.63478">
        <ele>340.7</ele>
        <time>2022-05-17T12:15:31Z</time>
      </trkpt>
      <trkpt lat="46.71084" lon="5.6348">
        <ele>340.3</ele>
        <time>2022-05-17T12:15:36Z</time>
      </trkpt>
      <trkpt lat="46.71088" lon="5.63483">
        <ele>339.5</ele>
        <time>2022-05-17T12:15:40Z</time>
      </trkpt>
      <trkpt lat="46.71092" lon="5.63488">
        <ele>338.1</ele>
        <time>2022-05-17T12:15:51Z</time>
      </trkpt>
      <trkpt lat="46.71097" lon="5.63488">
        <ele>337.4</ele>
        <time>2022-05-17T12:15:56Z</time>
      </trkpt>
      <trkpt lat="46.71102" lon="5.63489">
        <ele>336</ele>
        <time>2022-05-17T12:16:04Z</time>
      </trkpt>
      <trkpt lat="46.71099" lon="5.63496">
        <ele>333.9</ele>
        <time>2022-05-17T12:16:24Z</time>
      </trkpt>
      <trkpt lat="46.711" lon="5.63488">
        <ele>333.7</ele>
        <time>2022-05-17T12:16:29Z</time>
      </trkpt>
      <trkpt lat="46.71095" lon="5.63487">
        <ele>333.4</ele>
        <time>2022-05-17T12:16:36Z</time>
      </trkpt>
      <trkpt lat="46.71089" lon="5.63487">
        <ele>332.1</ele>
        <time>2022-05-17T12:16:56Z</time>
      </trkpt>
      <trkpt lat="46.71094" lon="5.63485">
        <ele>330.3</ele>
        <time>2022-05-17T12:17:22Z</time>
      </trkpt>
      <trkpt lat="46.71099" lon="5.63485">
        <ele>329.7</ele>
        <time>2022-05-17T12:17:28Z</time>
      </trkpt>
      <trkpt lat="46.71103" lon="5.63484">
        <ele>329.1</ele>
        <time>2022-05-17T12:17:36Z</time>
      </trkpt>
      <trkpt lat="46.71099" lon="5.63483">
        <ele>328.1</ele>
        <time>2022-05-17T12:17:52Z</time>
      </trkpt>
      <trkpt lat="46.71096" lon="5.6349">
        <ele>328</ele>
        <time>2022-05-17T12:17:56Z</time>
      </trkpt>
      <trkpt lat="46.71094" lon="5.63496">
        <ele>327.9</ele>
        <time>2022-05-17T12:17:59Z</time>
      </trkpt>
      <trkpt lat="46.71099" lon="5.63493">
        <ele>327.5</ele>
        <time>2022-05-17T12:18:07Z</time>
      </trkpt>
      <trkpt lat="46.71104" lon="5.63492">
        <ele>327</ele>
        <time>2022-05-17T12:18:11Z</time>
      </trkpt>
      <trkpt lat="46.71101" lon="5.63498">
        <ele>325.8</ele>
        <time>2022-05-17T12:18:24Z</time>
      </trkpt>
      <trkpt lat="46.71104" lon="5.63487">
        <ele>322</ele>
        <time>2022-05-17T12:19:11Z</time>
      </trkpt>
      <trkpt lat="46.71109" lon="5.63484">
        <ele>321.9</ele>
        <time>2022-05-17T12:19:14Z</time>
      </trkpt>
      <trkpt lat="46.71114" lon="5.63481">
        <ele>321.8</ele>
        <time>2022-05-17T12:19:18Z</time>
      </trkpt>
      <trkpt lat="46.71119" lon="5.63479">
        <ele>321.7</ele>
        <time>2022-05-17T12:19:22Z</time>
      </trkpt>
      <trkpt lat="46.71124" lon="5.63479">
        <ele>321.5</ele>
        <time>2022-05-17T12:19:27Z</time>
      </trkpt>
      <trkpt lat="46.71129" lon="5.63475">
        <ele>321.1</ele>
        <time>2022-05-17T12:19:34Z</time>
      </trkpt>
      <trkpt lat="46.71133" lon="5.63471">
        <ele>321.2</ele>
        <time>2022-05-17T12:19:39Z</time>
      </trkpt>
      <trkpt lat="46.71137" lon="5.63467">
        <ele>321.2</ele>
        <time>2022-05-17T12:19:46Z</time>
      </trkpt>
      <trkpt lat="46.71139" lon="5.63461">
        <ele>321.4</ele>
        <time>2022-05-17T12:19:53Z</time>
      </trkpt>
      <trkpt lat="46.71142" lon="5.63455">
        <ele>321.3</ele>
        <time>2022-05-17T12:19:59Z</time>
      </trkpt>
      <trkpt lat="46.71143" lon="5.63448">
        <ele>321.1</ele>
        <time>2022-05-17T12:20:04Z</time>
      </trkpt>
      <trkpt lat="46.71144" lon="5.63441">
        <ele>320.1</ele>
        <time>2022-05-17T12:20:10Z</time>
      </trkpt>
      <trkpt lat="46.71144" lon="5.63434">
        <ele>320</ele>
        <time>2022-05-17T12:20:22Z</time>
      </trkpt>
      <trkpt lat="46.71144" lon="5.63427">
        <ele>320.6</ele>
        <time>2022-05-17T12:20:28Z</time>
      </trkpt>
      <trkpt lat="46.71147" lon="5.63421">
        <ele>320.6</ele>
        <time>2022-05-17T12:20:34Z</time>
      </trkpt>
      <trkpt lat="46.71149" lon="5.63427">
        <ele>311</ele>
        <time>2022-05-17T12:21:08Z</time>
      </trkpt>
      <trkpt lat="46.71154" lon="5.63431">
        <ele>307.7</ele>
        <time>2022-05-17T12:21:18Z</time>
      </trkpt>
      <trkpt lat="46.71157" lon="5.63435">
        <ele>306</ele>
        <time>2022-05-17T12:21:26Z</time>
      </trkpt>
      <trkpt lat="46.71161" lon="5.6344">
        <ele>303.4</ele>
        <time>2022-05-17T12:21:33Z</time>
      </trkpt>
      <trkpt lat="46.71165" lon="5.63444">
        <ele>300.9</ele>
        <time>2022-05-17T12:21:39Z</time>
      </trkpt>
      <trkpt lat="46.71169" lon="5.63449">
        <ele>299.2</ele>
        <time>2022-05-17T12:21:44Z</time>
      </trkpt>
      <trkpt lat="46.71171" lon="5.63455">
        <ele>297.4</ele>
        <time>2022-05-17T12:21:50Z</time>
      </trkpt>
      <trkpt lat="46.71175" lon="5.63462">
        <ele>295.3</ele>
        <time>2022-05-17T12:21:58Z</time>
      </trkpt>
      <trkpt lat="46.71175" lon="5.63469">
        <ele>294</ele>
        <time>2022-05-17T12:22:02Z</time>
      </trkpt>
      <trkpt lat="46.71176" lon="5.63477">
        <ele>292.2</ele>
        <time>2022-05-17T12:22:08Z</time>
      </trkpt>
      <trkpt lat="46.71176" lon="5.63483">
        <ele>291</ele>
        <time>2022-05-17T12:22:13Z</time>
      </trkpt>
      <trkpt lat="46.71177" lon="5.63491">
        <ele>290.7</ele>
        <time>2022-05-17T12:22:18Z</time>
      </trkpt>
      <trkpt lat="46.71179" lon="5.63497">
        <ele>290.8</ele>
        <time>2022-05-17T12:22:22Z</time>
      </trkpt>
      <trkpt lat="46.71182" lon="5.63503">
        <ele>290.5</ele>
        <time>2022-05-17T12:22:27Z</time>
      </trkpt>
      <trkpt lat="46.71186" lon="5.63507">
        <ele>289.6</ele>
        <time>2022-05-17T12:22:32Z</time>
      </trkpt>
      <trkpt lat="46.7119" lon="5.63512">
        <ele>288.4</ele>
        <time>2022-05-17T12:22:36Z</time>
      </trkpt>
      <trkpt lat="46.71193" lon="5.63517">
        <ele>286.9</ele>
        <time>2022-05-17T12:22:40Z</time>
      </trkpt>
      <trkpt lat="46.71194" lon="5.63524">
        <ele>285.1</ele>
        <time>2022-05-17T12:22:46Z</time>
      </trkpt>
      <trkpt lat="46.71195" lon="5.63531">
        <ele>282.7</ele>
        <time>2022-05-17T12:22:54Z</time>
      </trkpt>
      <trkpt lat="46.71197" lon="5.63536">
        <ele>279.5</ele>
        <time>2022-05-17T12:23:10Z</time>
      </trkpt>
      <trkpt lat="46.71199" lon="5.63542">
        <ele>278.8</ele>
        <time>2022-05-17T12:23:17Z</time>
      </trkpt>
      <trkpt lat="46.71203" lon="5.63548">
        <ele>278.9</ele>
        <time>2022-05-17T12:23:22Z</time>
      </trkpt>
      <trkpt lat="46.71207" lon="5.63552">
        <ele>279.6</ele>
        <time>2022-05-17T12:23:27Z</time>
      </trkpt>
      <trkpt lat="46.7121" lon="5.63558">
        <ele>280.1</ele>
        <time>2022-05-17T12:23:32Z</time>
      </trkpt>
      <trkpt lat="46.71214" lon="5.63561">
        <ele>280.5</ele>
        <time>2022-05-17T12:23:39Z</time>
      </trkpt>
      <trkpt lat="46.71218" lon="5.63566">
        <ele>280.5</ele>
        <time>2022-05-17T12:23:44Z</time>
      </trkpt>
      <trkpt lat="46.71222" lon="5.6357">
        <ele>280.4</ele>
        <time>2022-05-17T12:23:47Z</time>
      </trkpt>
      <trkpt lat="46.71226" lon="5.63574">
        <ele>280.2</ele>
        <time>2022-05-17T12:23:52Z</time>
      </trkpt>
      <trkpt lat="46.7123" lon="5.63576">
        <ele>277.6</ele>
        <time>2022-05-17T12:24:12Z</time>
      </trkpt>
      <trkpt lat="46.71226" lon="5.63577">
        <ele>276.1</ele>
        <time>2022-05-17T12:24:29Z</time>
      </trkpt>
      <trkpt lat="46.71222" lon="5.63581">
        <ele>274.6</ele>
        <time>2022-05-17T12:24:44Z</time>
      </trkpt>
      <trkpt lat="46.71226" lon="5.63575">
        <ele>274.4</ele>
        <time>2022-05-17T12:25:21Z</time>
      </trkpt>
      <trkpt lat="46.71229" lon="5.63579">
        <ele>276.2</ele>
        <time>2022-05-17T12:26:19Z</time>
      </trkpt>
      <trkpt lat="46.71232" lon="5.63584">
        <ele>277</ele>
        <time>2022-05-17T12:26:25Z</time>
      </trkpt>
      <trkpt lat="46.71236" lon="5.63588">
        <ele>278.6</ele>
        <time>2022-05-17T12:26:31Z</time>
      </trkpt>
      <trkpt lat="46.71241" lon="5.6359">
        <ele>280.1</ele>
        <time>2022-05-17T12:26:36Z</time>
      </trkpt>
      <trkpt lat="46.71246" lon="5.63592">
        <ele>281.2</ele>
        <time>2022-05-17T12:26:40Z</time>
      </trkpt>
      <trkpt lat="46.7125" lon="5.63594">
        <ele>283</ele>
        <time>2022-05-17T12:26:47Z</time>
      </trkpt>
      <trkpt lat="46.71254" lon="5.63598">
        <ele>284.7</ele>
        <time>2022-05-17T12:26:57Z</time>
      </trkpt>
      <trkpt lat="46.71258" lon="5.636">
        <ele>285.8</ele>
        <time>2022-05-17T12:27:05Z</time>
      </trkpt>
      <trkpt lat="46.71262" lon="5.63605">
        <ele>287.9</ele>
        <time>2022-05-17T12:27:15Z</time>
      </trkpt>
      <trkpt lat="46.71265" lon="5.6361">
        <ele>289.6</ele>
        <time>2022-05-17T12:27:23Z</time>
      </trkpt>
      <trkpt lat="46.71261" lon="5.63614">
        <ele>290.1</ele>
        <time>2022-05-17T12:27:36Z</time>
      </trkpt>
      <trkpt lat="46.71257" lon="5.6361">
        <ele>289.6</ele>
        <time>2022-05-17T12:27:42Z</time>
      </trkpt>
      <trkpt lat="46.71255" lon="5.63604">
        <ele>289</ele>
        <time>2022-05-17T12:27:49Z</time>
      </trkpt>
      <trkpt lat="46.7125" lon="5.63603">
        <ele>288.6</ele>
        <time>2022-05-17T12:27:57Z</time>
      </trkpt>
      <trkpt lat="46.71253" lon="5.63598">
        <ele>290.7</ele>
        <time>2022-05-17T12:28:13Z</time>
      </trkpt>
      <trkpt lat="46.71258" lon="5.63598">
        <ele>292.4</ele>
        <time>2022-05-17T12:28:19Z</time>
      </trkpt>
      <trkpt lat="46.71263" lon="5.63599">
        <ele>293.4</ele>
        <time>2022-05-17T12:28:24Z</time>
      </trkpt>
      <trkpt lat="46.71268" lon="5.636">
        <ele>294.4</ele>
        <time>2022-05-17T12:28:31Z</time>
      </trkpt>
      <trkpt lat="46.71273" lon="5.63603">
        <ele>295.3</ele>
        <time>2022-05-17T12:28:39Z</time>
      </trkpt>
      <trkpt lat="46.71277" lon="5.63605">
        <ele>295.6</ele>
        <time>2022-05-17T12:28:51Z</time>
      </trkpt>
      <trkpt lat="46.71281" lon="5.63607">
        <ele>295.9</ele>
        <time>2022-05-17T12:28:56Z</time>
      </trkpt>
      <trkpt lat="46.71286" lon="5.63609">
        <ele>296.1</ele>
        <time>2022-05-17T12:29:00Z</time>
      </trkpt>
      <trkpt lat="46.71291" lon="5.6361">
        <ele>295.9</ele>
        <time>2022-05-17T12:29:04Z</time>
      </trkpt>
      <trkpt lat="46.71297" lon="5.63609">
        <ele>295.4</ele>
        <time>2022-05-17T12:29:09Z</time>
      </trkpt>
      <trkpt lat="46.71301" lon="5.63606">
        <ele>294.9</ele>
        <time>2022-05-17T12:29:14Z</time>
      </trkpt>
      <trkpt lat="46.71306" lon="5.63603">
        <ele>294.3</ele>
        <time>2022-05-17T12:29:20Z</time>
      </trkpt>
      <trkpt lat="46.71311" lon="5.636">
        <ele>293.7</ele>
        <time>2022-05-17T12:29:26Z</time>
      </trkpt>
      <trkpt lat="46.71314" lon="5.63593">
        <ele>293</ele>
        <time>2022-05-17T12:29:32Z</time>
      </trkpt>
      <trkpt lat="46.71316" lon="5.63587">
        <ele>292.9</ele>
        <time>2022-05-17T12:29:37Z</time>
      </trkpt>
      <trkpt lat="46.71319" lon="5.63583">
        <ele>293.2</ele>
        <time>2022-05-17T12:29:43Z</time>
      </trkpt>
      <trkpt lat="46.71323" lon="5.63578">
        <ele>293.7</ele>
        <time>2022-05-17T12:29:50Z</time>
      </trkpt>
      <trkpt lat="46.71329" lon="5.63577">
        <ele>294.2</ele>
        <time>2022-05-17T12:29:56Z</time>
      </trkpt>
      <trkpt lat="46.71334" lon="5.63577">
        <ele>294.6</ele>
        <time>2022-05-17T12:30:01Z</time>
      </trkpt>
      <trkpt lat="46.71339" lon="5.63576">
        <ele>294.4</ele>
        <time>2022-05-17T12:30:07Z</time>
      </trkpt>
      <trkpt lat="46.71344" lon="5.63578">
        <ele>294.7</ele>
        <time>2022-05-17T12:30:12Z</time>
      </trkpt>
      <trkpt lat="46.71349" lon="5.6358">
        <ele>295.3</ele>
        <time>2022-05-17T12:30:17Z</time>
      </trkpt>
      <trkpt lat="46.71354" lon="5.63579">
        <ele>296.1</ele>
        <time>2022-05-17T12:30:22Z</time>
      </trkpt>
      <trkpt lat="46.71359" lon="5.63578">
        <ele>296.1</ele>
        <time>2022-05-17T12:30:28Z</time>
      </trkpt>
      <trkpt lat="46.71364" lon="5.63574">
        <ele>295.3</ele>
        <time>2022-05-17T12:30:32Z</time>
      </trkpt>
      <trkpt lat="46.71369" lon="5.63572">
        <ele>295.1</ele>
        <time>2022-05-17T12:30:37Z</time>
      </trkpt>
      <trkpt lat="46.71373" lon="5.63572">
        <ele>295.9</ele>
        <time>2022-05-17T12:30:44Z</time>
      </trkpt>
      <trkpt lat="46.71378" lon="5.63568">
        <ele>297.6</ele>
        <time>2022-05-17T12:30:51Z</time>
      </trkpt>
      <trkpt lat="46.71382" lon="5.63565">
        <ele>299</ele>
        <time>2022-05-17T12:30:58Z</time>
      </trkpt>
      <trkpt lat="46.71386" lon="5.6356">
        <ele>300.3</ele>
        <time>2022-05-17T12:31:06Z</time>
      </trkpt>
      <trkpt lat="46.71391" lon="5.6356">
        <ele>300.9</ele>
        <time>2022-05-17T12:31:12Z</time>
      </trkpt>
      <trkpt lat="46.71395" lon="5.63557">
        <ele>301.2</ele>
        <time>2022-05-17T12:31:18Z</time>
      </trkpt>
      <trkpt lat="46.714" lon="5.63556">
        <ele>301.4</ele>
        <time>2022-05-17T12:31:23Z</time>
      </trkpt>
      <trkpt lat="46.71405" lon="5.63556">
        <ele>302.2</ele>
        <time>2022-05-17T12:31:29Z</time>
      </trkpt>
      <trkpt lat="46.71409" lon="5.63557">
        <ele>302.9</ele>
        <time>2022-05-17T12:31:34Z</time>
      </trkpt>
      <trkpt lat="46.71414" lon="5.63556">
        <ele>303.5</ele>
        <time>2022-05-17T12:31:40Z</time>
      </trkpt>
      <trkpt lat="46.71419" lon="5.63551">
        <ele>303.5</ele>
        <time>2022-05-17T12:31:46Z</time>
      </trkpt>
      <trkpt lat="46.71423" lon="5.63549">
        <ele>303.4</ele>
        <time>2022-05-17T12:31:53Z</time>
      </trkpt>
      <trkpt lat="46.71428" lon="5.63548">
        <ele>303.8</ele>
        <time>2022-05-17T12:31:59Z</time>
      </trkpt>
      <trkpt lat="46.71433" lon="5.63547">
        <ele>303.9</ele>
        <time>2022-05-17T12:32:04Z</time>
      </trkpt>
      <trkpt lat="46.71438" lon="5.63547">
        <ele>304.4</ele>
        <time>2022-05-17T12:32:11Z</time>
      </trkpt>
      <trkpt lat="46.71442" lon="5.63547">
        <ele>304.7</ele>
        <time>2022-05-17T12:32:17Z</time>
      </trkpt>
      <trkpt lat="46.71445" lon="5.63542">
        <ele>305.7</ele>
        <time>2022-05-17T12:32:38Z</time>
      </trkpt>
      <trkpt lat="46.7144" lon="5.63541">
        <ele>307.7</ele>
        <time>2022-05-17T12:32:57Z</time>
      </trkpt>
      <trkpt lat="46.71444" lon="5.63544">
        <ele>311.3</ele>
        <time>2022-05-17T12:33:36Z</time>
      </trkpt>
      <trkpt lat="46.71449" lon="5.63547">
        <ele>311.5</ele>
        <time>2022-05-17T12:33:41Z</time>
      </trkpt>
      <trkpt lat="46.71454" lon="5.63548">
        <ele>311.8</ele>
        <time>2022-05-17T12:33:46Z</time>
      </trkpt>
      <trkpt lat="46.71457" lon="5.63544">
        <ele>311.6</ele>
        <time>2022-05-17T12:33:50Z</time>
      </trkpt>
      <trkpt lat="46.71461" lon="5.63539">
        <ele>311.3</ele>
        <time>2022-05-17T12:33:54Z</time>
      </trkpt>
      <trkpt lat="46.71465" lon="5.63536">
        <ele>310.9</ele>
        <time>2022-05-17T12:34:00Z</time>
      </trkpt>
      <trkpt lat="46.7147" lon="5.63536">
        <ele>311.2</ele>
        <time>2022-05-17T12:34:06Z</time>
      </trkpt>
      <trkpt lat="46.71475" lon="5.63536">
        <ele>311.9</ele>
        <time>2022-05-17T12:34:11Z</time>
      </trkpt>
      <trkpt lat="46.71479" lon="5.63533">
        <ele>312.1</ele>
        <time>2022-05-17T12:34:16Z</time>
      </trkpt>
      <trkpt lat="46.71482" lon="5.63526">
        <ele>311.6</ele>
        <time>2022-05-17T12:34:34Z</time>
      </trkpt>
      <trkpt lat="46.71486" lon="5.63523">
        <ele>311.8</ele>
        <time>2022-05-17T12:34:41Z</time>
      </trkpt>
      <trkpt lat="46.71482" lon="5.6353">
        <ele>312.7</ele>
        <time>2022-05-17T12:34:52Z</time>
      </trkpt>
      <trkpt lat="46.7148" lon="5.63536">
        <ele>312.8</ele>
        <time>2022-05-17T12:34:57Z</time>
      </trkpt>
      <trkpt lat="46.71482" lon="5.63542">
        <ele>316.1</ele>
        <time>2022-05-17T12:35:20Z</time>
      </trkpt>
      <trkpt lat="46.71483" lon="5.63535">
        <ele>316.9</ele>
        <time>2022-05-17T12:35:25Z</time>
      </trkpt>
      <trkpt lat="46.71484" lon="5.63529">
        <ele>316.6</ele>
        <time>2022-05-17T12:35:35Z</time>
      </trkpt>
      <trkpt lat="46.71489" lon="5.63529">
        <ele>317.1</ele>
        <time>2022-05-17T12:35:41Z</time>
      </trkpt>
      <trkpt lat="46.71493" lon="5.63525">
        <ele>318.9</ele>
        <time>2022-05-17T12:35:49Z</time>
      </trkpt>
      <trkpt lat="46.71497" lon="5.63521">
        <ele>319.9</ele>
        <time>2022-05-17T12:35:53Z</time>
      </trkpt>
      <trkpt lat="46.71502" lon="5.63521">
        <ele>320.9</ele>
        <time>2022-05-17T12:35:57Z</time>
      </trkpt>
      <trkpt lat="46.71507" lon="5.63522">
        <ele>321.7</ele>
        <time>2022-05-17T12:36:00Z</time>
      </trkpt>
      <trkpt lat="46.71511" lon="5.63521">
        <ele>322.6</ele>
        <time>2022-05-17T12:36:04Z</time>
      </trkpt>
      <trkpt lat="46.71517" lon="5.63521">
        <ele>324.4</ele>
        <time>2022-05-17T12:36:11Z</time>
      </trkpt>
      <trkpt lat="46.71522" lon="5.63518">
        <ele>325.8</ele>
        <time>2022-05-17T12:36:18Z</time>
      </trkpt>
      <trkpt lat="46.71526" lon="5.63514">
        <ele>322.6</ele>
        <time>2022-05-17T12:36:26Z</time>
      </trkpt>
      <trkpt lat="46.71531" lon="5.63516">
        <ele>321.5</ele>
        <time>2022-05-17T12:36:32Z</time>
      </trkpt>
      <trkpt lat="46.71536" lon="5.63513">
        <ele>321.3</ele>
        <time>2022-05-17T12:36:37Z</time>
      </trkpt>
      <trkpt lat="46.71541" lon="5.63512">
        <ele>321</ele>
        <time>2022-05-17T12:36:43Z</time>
      </trkpt>
      <trkpt lat="46.71545" lon="5.63508">
        <ele>321.7</ele>
        <time>2022-05-17T12:36:50Z</time>
      </trkpt>
      <trkpt lat="46.71543" lon="5.63502">
        <ele>327.4</ele>
        <time>2022-05-17T12:37:09Z</time>
      </trkpt>
      <trkpt lat="46.71548" lon="5.63506">
        <ele>328</ele>
        <time>2022-05-17T12:37:12Z</time>
      </trkpt>
      <trkpt lat="46.71551" lon="5.63516">
        <ele>328.4</ele>
        <time>2022-05-17T12:37:15Z</time>
      </trkpt>
      <trkpt lat="46.71552" lon="5.63522">
        <ele>328.7</ele>
        <time>2022-05-17T12:37:18Z</time>
      </trkpt>
      <trkpt lat="46.71553" lon="5.6353">
        <ele>329</ele>
        <time>2022-05-17T12:37:22Z</time>
      </trkpt>
      <trkpt lat="46.71553" lon="5.63537">
        <ele>329</ele>
        <time>2022-05-17T12:37:26Z</time>
      </trkpt>
      <trkpt lat="46.7155" lon="5.63543">
        <ele>328.9</ele>
        <time>2022-05-17T12:37:30Z</time>
      </trkpt>
      <trkpt lat="46.71545" lon="5.63548">
        <ele>329.1</ele>
        <time>2022-05-17T12:37:34Z</time>
      </trkpt>
      <trkpt lat="46.71541" lon="5.63553">
        <ele>329.1</ele>
        <time>2022-05-17T12:37:37Z</time>
      </trkpt>
      <trkpt lat="46.71544" lon="5.63559">
        <ele>328.6</ele>
        <time>2022-05-17T12:37:49Z</time>
      </trkpt>
      <trkpt lat="46.71547" lon="5.63564">
        <ele>328</ele>
        <time>2022-05-17T12:37:55Z</time>
      </trkpt>
      <trkpt lat="46.7155" lon="5.63571">
        <ele>327.8</ele>
        <time>2022-05-17T12:38:05Z</time>
      </trkpt>
      <trkpt lat="46.71551" lon="5.63577">
        <ele>327.9</ele>
        <time>2022-05-17T12:38:09Z</time>
      </trkpt>
      <trkpt lat="46.71556" lon="5.63578">
        <ele>328.4</ele>
        <time>2022-05-17T12:38:26Z</time>
      </trkpt>
      <trkpt lat="46.71561" lon="5.63581">
        <ele>329.3</ele>
        <time>2022-05-17T12:38:30Z</time>
      </trkpt>
      <trkpt lat="46.71566" lon="5.63582">
        <ele>330.5</ele>
        <time>2022-05-17T12:38:36Z</time>
      </trkpt>
      <trkpt lat="46.7157" lon="5.63578">
        <ele>332.3</ele>
        <time>2022-05-17T12:38:45Z</time>
      </trkpt>
      <trkpt lat="46.71573" lon="5.63583">
        <ele>336.1</ele>
        <time>2022-05-17T12:38:55Z</time>
      </trkpt>
      <trkpt lat="46.7157" lon="5.6359">
        <ele>337.6</ele>
        <time>2022-05-17T12:38:59Z</time>
      </trkpt>
      <trkpt lat="46.71574" lon="5.63594">
        <ele>341</ele>
        <time>2022-05-17T12:39:11Z</time>
      </trkpt>
      <trkpt lat="46.71579" lon="5.63595">
        <ele>341.7</ele>
        <time>2022-05-17T12:39:15Z</time>
      </trkpt>
      <trkpt lat="46.71583" lon="5.63595">
        <ele>341.6</ele>
        <time>2022-05-17T12:39:22Z</time>
      </trkpt>
      <trkpt lat="46.71588" lon="5.63593">
        <ele>340.7</ele>
        <time>2022-05-17T12:42:41Z</time>
      </trkpt>
      <trkpt lat="46.7159" lon="5.63587">
        <ele>339.1</ele>
        <time>2022-05-17T12:43:31Z</time>
      </trkpt>
      <trkpt lat="46.71595" lon="5.63587">
        <ele>340.8</ele>
        <time>2022-05-17T12:43:46Z</time>
      </trkpt>
      <trkpt lat="46.71599" lon="5.63587">
        <ele>342.5</ele>
        <time>2022-05-17T12:43:52Z</time>
      </trkpt>
      <trkpt lat="46.71602" lon="5.63592">
        <ele>344.2</ele>
        <time>2022-05-17T12:43:57Z</time>
      </trkpt>
      <trkpt lat="46.71606" lon="5.63597">
        <ele>346.6</ele>
        <time>2022-05-17T12:44:06Z</time>
      </trkpt>
      <trkpt lat="46.7161" lon="5.636">
        <ele>347.5</ele>
        <time>2022-05-17T12:44:13Z</time>
      </trkpt>
      <trkpt lat="46.71615" lon="5.63599">
        <ele>348.5</ele>
        <time>2022-05-17T12:44:21Z</time>
      </trkpt>
      <trkpt lat="46.7162" lon="5.63599">
        <ele>349.6</ele>
        <time>2022-05-17T12:44:27Z</time>
      </trkpt>
      <trkpt lat="46.71624" lon="5.63602">
        <ele>350.5</ele>
        <time>2022-05-17T12:44:32Z</time>
      </trkpt>
      <trkpt lat="46.71629" lon="5.63605">
        <ele>350.6</ele>
        <time>2022-05-17T12:44:38Z</time>
      </trkpt>
      <trkpt lat="46.71633" lon="5.63608">
        <ele>350.3</ele>
        <time>2022-05-17T12:44:43Z</time>
      </trkpt>
      <trkpt lat="46.71638" lon="5.63611">
        <ele>350</ele>
        <time>2022-05-17T12:44:48Z</time>
      </trkpt>
      <trkpt lat="46.71642" lon="5.63613">
        <ele>350.1</ele>
        <time>2022-05-17T12:44:56Z</time>
      </trkpt>
      <trkpt lat="46.71647" lon="5.63611">
        <ele>352.7</ele>
        <time>2022-05-17T12:45:06Z</time>
      </trkpt>
      <trkpt lat="46.71651" lon="5.63613">
        <ele>354.7</ele>
        <time>2022-05-17T12:45:15Z</time>
      </trkpt>
      <trkpt lat="46.71654" lon="5.63618">
        <ele>355.6</ele>
        <time>2022-05-17T12:45:20Z</time>
      </trkpt>
      <trkpt lat="46.71659" lon="5.6362">
        <ele>356.4</ele>
        <time>2022-05-17T12:45:26Z</time>
      </trkpt>
      <trkpt lat="46.71663" lon="5.63624">
        <ele>356.6</ele>
        <time>2022-05-17T12:45:33Z</time>
      </trkpt>
      <trkpt lat="46.71666" lon="5.6363">
        <ele>357.2</ele>
        <time>2022-05-17T12:45:39Z</time>
      </trkpt>
      <trkpt lat="46.7167" lon="5.63634">
        <ele>357.3</ele>
        <time>2022-05-17T12:45:44Z</time>
      </trkpt>
      <trkpt lat="46.71674" lon="5.63637">
        <ele>357.3</ele>
        <time>2022-05-17T12:45:51Z</time>
      </trkpt>
      <trkpt lat="46.71678" lon="5.63641">
        <ele>357.9</ele>
        <time>2022-05-17T12:46:01Z</time>
      </trkpt>
      <trkpt lat="46.71682" lon="5.63645">
        <ele>358.6</ele>
        <time>2022-05-17T12:46:07Z</time>
      </trkpt>
      <trkpt lat="46.71685" lon="5.63651">
        <ele>357.5</ele>
        <time>2022-05-17T12:46:23Z</time>
      </trkpt>
      <trkpt lat="46.71688" lon="5.63657">
        <ele>357.3</ele>
        <time>2022-05-17T12:46:32Z</time>
      </trkpt>
      <trkpt lat="46.71693" lon="5.63661">
        <ele>357.9</ele>
        <time>2022-05-17T12:46:36Z</time>
      </trkpt>
      <trkpt lat="46.71697" lon="5.63662">
        <ele>358.4</ele>
        <time>2022-05-17T12:46:39Z</time>
      </trkpt>
      <trkpt lat="46.71702" lon="5.63664">
        <ele>359.6</ele>
        <time>2022-05-17T12:46:44Z</time>
      </trkpt>
      <trkpt lat="46.71707" lon="5.63668">
        <ele>360.5</ele>
        <time>2022-05-17T12:46:49Z</time>
      </trkpt>
      <trkpt lat="46.7171" lon="5.63672">
        <ele>361.5</ele>
        <time>2022-05-17T12:46:55Z</time>
      </trkpt>
      <trkpt lat="46.71715" lon="5.63674">
        <ele>362.5</ele>
        <time>2022-05-17T12:47:00Z</time>
      </trkpt>
      <trkpt lat="46.71719" lon="5.63678">
        <ele>364.5</ele>
        <time>2022-05-17T12:47:07Z</time>
      </trkpt>
      <trkpt lat="46.71724" lon="5.63681">
        <ele>366.4</ele>
        <time>2022-05-17T12:47:13Z</time>
      </trkpt>
      <trkpt lat="46.71728" lon="5.63681">
        <ele>368.2</ele>
        <time>2022-05-17T12:47:19Z</time>
      </trkpt>
      <trkpt lat="46.71733" lon="5.63682">
        <ele>369.6</ele>
        <time>2022-05-17T12:47:25Z</time>
      </trkpt>
      <trkpt lat="46.71737" lon="5.63686">
        <ele>372</ele>
        <time>2022-05-17T12:47:35Z</time>
      </trkpt>
      <trkpt lat="46.71742" lon="5.63686">
        <ele>373.6</ele>
        <time>2022-05-17T12:47:42Z</time>
      </trkpt>
      <trkpt lat="46.71745" lon="5.63691">
        <ele>375.3</ele>
        <time>2022-05-17T12:47:50Z</time>
      </trkpt>
      <trkpt lat="46.7175" lon="5.63693">
        <ele>377.3</ele>
        <time>2022-05-17T12:47:59Z</time>
      </trkpt>
      <trkpt lat="46.71755" lon="5.63692">
        <ele>378.4</ele>
        <time>2022-05-17T12:48:04Z</time>
      </trkpt>
      <trkpt lat="46.71758" lon="5.63696">
        <ele>380.3</ele>
        <time>2022-05-17T12:49:38Z</time>
      </trkpt>
      <trkpt lat="46.71763" lon="5.63699">
        <ele>379.3</ele>
        <time>2022-05-17T12:49:43Z</time>
      </trkpt>
      <trkpt lat="46.71768" lon="5.63701">
        <ele>378.3</ele>
        <time>2022-05-17T12:49:49Z</time>
      </trkpt>
      <trkpt lat="46.71773" lon="5.63704">
        <ele>378.5</ele>
        <time>2022-05-17T12:49:54Z</time>
      </trkpt>
      <trkpt lat="46.71775" lon="5.63711">
        <ele>379.2</ele>
        <time>2022-05-17T12:50:03Z</time>
      </trkpt>
      <trkpt lat="46.7178" lon="5.63713">
        <ele>378.9</ele>
        <time>2022-05-17T12:50:08Z</time>
      </trkpt>
      <trkpt lat="46.71784" lon="5.63717">
        <ele>379.5</ele>
        <time>2022-05-17T12:50:15Z</time>
      </trkpt>
      <trkpt lat="46.71787" lon="5.63721">
        <ele>379.3</ele>
        <time>2022-05-17T12:50:20Z</time>
      </trkpt>
      <trkpt lat="46.71791" lon="5.63725">
        <ele>378.3</ele>
        <time>2022-05-17T12:50:25Z</time>
      </trkpt>
      <trkpt lat="46.71795" lon="5.63728">
        <ele>378.4</ele>
        <time>2022-05-17T12:50:35Z</time>
      </trkpt>
      <trkpt lat="46.718" lon="5.63731">
        <ele>379.5</ele>
        <time>2022-05-17T12:50:42Z</time>
      </trkpt>
      <trkpt lat="46.71803" lon="5.63735">
        <ele>380.2</ele>
        <time>2022-05-17T12:50:48Z</time>
      </trkpt>
      <trkpt lat="46.71804" lon="5.63742">
        <ele>382.1</ele>
        <time>2022-05-17T12:50:56Z</time>
      </trkpt>
      <trkpt lat="46.71807" lon="5.63748">
        <ele>381.3</ele>
        <time>2022-05-17T12:51:12Z</time>
      </trkpt>
      <trkpt lat="46.71811" lon="5.63751">
        <ele>381.3</ele>
        <time>2022-05-17T12:51:17Z</time>
      </trkpt>
      <trkpt lat="46.71816" lon="5.63752">
        <ele>381.8</ele>
        <time>2022-05-17T12:51:21Z</time>
      </trkpt>
      <trkpt lat="46.71821" lon="5.63754">
        <ele>383.6</ele>
        <time>2022-05-17T12:51:28Z</time>
      </trkpt>
      <trkpt lat="46.71825" lon="5.63756">
        <ele>384.8</ele>
        <time>2022-05-17T12:51:32Z</time>
      </trkpt>
      <trkpt lat="46.7183" lon="5.63757">
        <ele>386.9</ele>
        <time>2022-05-17T12:51:37Z</time>
      </trkpt>
      <trkpt lat="46.71834" lon="5.63758">
        <ele>389.1</ele>
        <time>2022-05-17T12:51:42Z</time>
      </trkpt>
      <trkpt lat="46.71838" lon="5.63762">
        <ele>390.8</ele>
        <time>2022-05-17T12:51:48Z</time>
      </trkpt>
      <trkpt lat="46.71843" lon="5.63763">
        <ele>392.2</ele>
        <time>2022-05-17T12:51:55Z</time>
      </trkpt>
      <trkpt lat="46.71847" lon="5.63768">
        <ele>393</ele>
        <time>2022-05-17T12:52:07Z</time>
      </trkpt>
      <trkpt lat="46.71851" lon="5.63772">
        <ele>394.5</ele>
        <time>2022-05-17T12:52:12Z</time>
      </trkpt>
      <trkpt lat="46.71855" lon="5.63776">
        <ele>396.2</ele>
        <time>2022-05-17T12:52:18Z</time>
      </trkpt>
      <trkpt lat="46.7186" lon="5.63777">
        <ele>398</ele>
        <time>2022-05-17T12:52:24Z</time>
      </trkpt>
      <trkpt lat="46.71864" lon="5.63781">
        <ele>400.5</ele>
        <time>2022-05-17T12:52:35Z</time>
      </trkpt>
      <trkpt lat="46.71865" lon="5.63788">
        <ele>401.2</ele>
        <time>2022-05-17T12:52:52Z</time>
      </trkpt>
      <trkpt lat="46.71868" lon="5.63793">
        <ele>403.6</ele>
        <time>2022-05-17T12:53:01Z</time>
      </trkpt>
      <trkpt lat="46.71873" lon="5.63793">
        <ele>404.3</ele>
        <time>2022-05-17T12:53:05Z</time>
      </trkpt>
      <trkpt lat="46.71878" lon="5.63795">
        <ele>405.2</ele>
        <time>2022-05-17T12:53:11Z</time>
      </trkpt>
      <trkpt lat="46.71883" lon="5.63796">
        <ele>405.9</ele>
        <time>2022-05-17T12:53:17Z</time>
      </trkpt>
      <trkpt lat="46.71888" lon="5.63797">
        <ele>406.9</ele>
        <time>2022-05-17T12:53:24Z</time>
      </trkpt>
      <trkpt lat="46.71892" lon="5.63794">
        <ele>408.1</ele>
        <time>2022-05-17T12:53:30Z</time>
      </trkpt>
      <trkpt lat="46.71895" lon="5.63789">
        <ele>409</ele>
        <time>2022-05-17T12:53:35Z</time>
      </trkpt>
      <trkpt lat="46.719" lon="5.63785">
        <ele>409.7</ele>
        <time>2022-05-17T12:53:38Z</time>
      </trkpt>
      <trkpt lat="46.71906" lon="5.63784">
        <ele>410.7</ele>
        <time>2022-05-17T12:53:42Z</time>
      </trkpt>
      <trkpt lat="46.71902" lon="5.63803">
        <ele>416.3</ele>
        <time>2022-05-17T12:54:12Z</time>
      </trkpt>
      <trkpt lat="46.71897" lon="5.63804">
        <ele>416.1</ele>
        <time>2022-05-17T12:54:15Z</time>
      </trkpt>
      <trkpt lat="46.71891" lon="5.63807">
        <ele>415.2</ele>
        <time>2022-05-17T12:54:19Z</time>
      </trkpt>
      <trkpt lat="46.71891" lon="5.638">
        <ele>414.3</ele>
        <time>2022-05-17T12:54:37Z</time>
      </trkpt>
      <trkpt lat="46.71894" lon="5.63805">
        <ele>411.8</ele>
        <time>2022-05-17T12:55:01Z</time>
      </trkpt>
      <trkpt lat="46.71898" lon="5.63811">
        <ele>411.1</ele>
        <time>2022-05-17T12:55:06Z</time>
      </trkpt>
      <trkpt lat="46.719" lon="5.63816">
        <ele>410</ele>
        <time>2022-05-17T12:55:14Z</time>
      </trkpt>
      <trkpt lat="46.71902" lon="5.63823">
        <ele>411.2</ele>
        <time>2022-05-17T12:55:25Z</time>
      </trkpt>
      <trkpt lat="46.71907" lon="5.63832">
        <ele>411.3</ele>
        <time>2022-05-17T12:55:49Z</time>
      </trkpt>
      <trkpt lat="46.71911" lon="5.63836">
        <ele>411.1</ele>
        <time>2022-05-17T12:55:56Z</time>
      </trkpt>
      <trkpt lat="46.71916" lon="5.63836">
        <ele>410.7</ele>
        <time>2022-05-17T12:56:01Z</time>
      </trkpt>
      <trkpt lat="46.7192" lon="5.63839">
        <ele>410.9</ele>
        <time>2022-05-17T12:56:08Z</time>
      </trkpt>
      <trkpt lat="46.71923" lon="5.63845">
        <ele>411.5</ele>
        <time>2022-05-17T12:56:14Z</time>
      </trkpt>
      <trkpt lat="46.71928" lon="5.63848">
        <ele>414.1</ele>
        <time>2022-05-17T12:56:24Z</time>
      </trkpt>
      <trkpt lat="46.71932" lon="5.63852">
        <ele>418.3</ele>
        <time>2022-05-17T12:56:35Z</time>
      </trkpt>
      <trkpt lat="46.71936" lon="5.63852">
        <ele>420.3</ele>
        <time>2022-05-17T12:56:41Z</time>
      </trkpt>
      <trkpt lat="46.71941" lon="5.63855">
        <ele>422.3</ele>
        <time>2022-05-17T12:56:48Z</time>
      </trkpt>
      <trkpt lat="46.71946" lon="5.63855">
        <ele>423.3</ele>
        <time>2022-05-17T12:56:54Z</time>
      </trkpt>
      <trkpt lat="46.71943" lon="5.6385">
        <ele>426.7</ele>
        <time>2022-05-17T12:57:24Z</time>
      </trkpt>
      <trkpt lat="46.71948" lon="5.6385">
        <ele>429.9</ele>
        <time>2022-05-17T12:57:43Z</time>
      </trkpt>
      <trkpt lat="46.71952" lon="5.63853">
        <ele>424.4</ele>
        <time>2022-05-17T12:58:55Z</time>
      </trkpt>
      <trkpt lat="46.71956" lon="5.63856">
        <ele>424.9</ele>
        <time>2022-05-17T12:58:59Z</time>
      </trkpt>
      <trkpt lat="46.71959" lon="5.63862">
        <ele>425.8</ele>
        <time>2022-05-17T12:59:08Z</time>
      </trkpt>
      <trkpt lat="46.71962" lon="5.63867">
        <ele>426</ele>
        <time>2022-05-17T12:59:15Z</time>
      </trkpt>
      <trkpt lat="46.71966" lon="5.63871">
        <ele>426</ele>
        <time>2022-05-17T12:59:20Z</time>
      </trkpt>
      <trkpt lat="46.7197" lon="5.63875">
        <ele>425.9</ele>
        <time>2022-05-17T12:59:24Z</time>
      </trkpt>
      <trkpt lat="46.71972" lon="5.63881">
        <ele>425.5</ele>
        <time>2022-05-17T12:59:32Z</time>
      </trkpt>
      <trkpt lat="46.71976" lon="5.63885">
        <ele>425.7</ele>
        <time>2022-05-17T12:59:38Z</time>
      </trkpt>
      <trkpt lat="46.71981" lon="5.63889">
        <ele>425.9</ele>
        <time>2022-05-17T12:59:45Z</time>
      </trkpt>
      <trkpt lat="46.71985" lon="5.63892">
        <ele>425.7</ele>
        <time>2022-05-17T12:59:50Z</time>
      </trkpt>
      <trkpt lat="46.71989" lon="5.63897">
        <ele>425.9</ele>
        <time>2022-05-17T12:59:57Z</time>
      </trkpt>
      <trkpt lat="46.71994" lon="5.63899">
        <ele>426.7</ele>
        <time>2022-05-17T13:00:04Z</time>
      </trkpt>
      <trkpt lat="46.71999" lon="5.63902">
        <ele>427.9</ele>
        <time>2022-05-17T13:00:10Z</time>
      </trkpt>
      <trkpt lat="46.72003" lon="5.63903">
        <ele>429.7</ele>
        <time>2022-05-17T13:00:16Z</time>
      </trkpt>
      <trkpt lat="46.72007" lon="5.63907">
        <ele>431.3</ele>
        <time>2022-05-17T13:00:25Z</time>
      </trkpt>
      <trkpt lat="46.72011" lon="5.63911">
        <ele>432.4</ele>
        <time>2022-05-17T13:00:36Z</time>
      </trkpt>
      <trkpt lat="46.72016" lon="5.63914">
        <ele>433</ele>
        <time>2022-05-17T13:00:40Z</time>
      </trkpt>
      <trkpt lat="46.7202" lon="5.63918">
        <ele>434.1</ele>
        <time>2022-05-17T13:00:45Z</time>
      </trkpt>
      <trkpt lat="46.72023" lon="5.63924">
        <ele>434.9</ele>
        <time>2022-05-17T13:00:55Z</time>
      </trkpt>
      <trkpt lat="46.72027" lon="5.63925">
        <ele>435.3</ele>
        <time>2022-05-17T13:01:00Z</time>
      </trkpt>
      <trkpt lat="46.72032" lon="5.63925">
        <ele>436</ele>
        <time>2022-05-17T13:01:06Z</time>
      </trkpt>
      <trkpt lat="46.72037" lon="5.63928">
        <ele>437.2</ele>
        <time>2022-05-17T13:01:13Z</time>
      </trkpt>
      <trkpt lat="46.72041" lon="5.63933">
        <ele>438.3</ele>
        <time>2022-05-17T13:01:20Z</time>
      </trkpt>
      <trkpt lat="46.72043" lon="5.63939">
        <ele>439.8</ele>
        <time>2022-05-17T13:01:29Z</time>
      </trkpt>
      <trkpt lat="46.72048" lon="5.63942">
        <ele>441.7</ele>
        <time>2022-05-17T13:01:37Z</time>
      </trkpt>
      <trkpt lat="46.72052" lon="5.63946">
        <ele>443</ele>
        <time>2022-05-17T13:01:42Z</time>
      </trkpt>
      <trkpt lat="46.72055" lon="5.63951">
        <ele>445.2</ele>
        <time>2022-05-17T13:01:49Z</time>
      </trkpt>
      <trkpt lat="46.72059" lon="5.63955">
        <ele>448</ele>
        <time>2022-05-17T13:01:58Z</time>
      </trkpt>
      <trkpt lat="46.72064" lon="5.63956">
        <ele>449.1</ele>
        <time>2022-05-17T13:02:06Z</time>
      </trkpt>
      <trkpt lat="46.72063" lon="5.63967">
        <ele>450.4</ele>
        <time>2022-05-17T13:02:37Z</time>
      </trkpt>
      <trkpt lat="46.72065" lon="5.63973">
        <ele>452.1</ele>
        <time>2022-05-17T13:02:43Z</time>
      </trkpt>
      <trkpt lat="46.72063" lon="5.63967">
        <ele>455.9</ele>
        <time>2022-05-17T13:02:57Z</time>
      </trkpt>
      <trkpt lat="46.7206" lon="5.63961">
        <ele>456.8</ele>
        <time>2022-05-17T13:03:05Z</time>
      </trkpt>
      <trkpt lat="46.72057" lon="5.63957">
        <ele>457.7</ele>
        <time>2022-05-17T13:03:12Z</time>
      </trkpt>
      <trkpt lat="46.72061" lon="5.6396">
        <ele>459.3</ele>
        <time>2022-05-17T13:03:23Z</time>
      </trkpt>
      <trkpt lat="46.72062" lon="5.63968">
        <ele>460.3</ele>
        <time>2022-05-17T13:03:33Z</time>
      </trkpt>
      <trkpt lat="46.72059" lon="5.63973">
        <ele>460.8</ele>
        <time>2022-05-17T13:03:39Z</time>
      </trkpt>
      <trkpt lat="46.72054" lon="5.63972">
        <ele>461.1</ele>
        <time>2022-05-17T13:03:43Z</time>
      </trkpt>
      <trkpt lat="46.72049" lon="5.6397">
        <ele>461</ele>
        <time>2022-05-17T13:03:46Z</time>
      </trkpt>
      <trkpt lat="46.72045" lon="5.63968">
        <ele>460.3</ele>
        <time>2022-05-17T13:04:12Z</time>
      </trkpt>
      <trkpt lat="46.7204" lon="5.63966">
        <ele>456</ele>
        <time>2022-05-17T13:05:15Z</time>
      </trkpt>
      <trkpt lat="46.72035" lon="5.63965">
        <ele>455</ele>
        <time>2022-05-17T13:05:21Z</time>
      </trkpt>
      <trkpt lat="46.7203" lon="5.63964">
        <ele>453.9</ele>
        <time>2022-05-17T13:05:30Z</time>
      </trkpt>
      <trkpt lat="46.72027" lon="5.6396">
        <ele>453.9</ele>
        <time>2022-05-17T13:05:51Z</time>
      </trkpt>
      <trkpt lat="46.72022" lon="5.63957">
        <ele>454.9</ele>
        <time>2022-05-17T13:06:04Z</time>
      </trkpt>
      <trkpt lat="46.72018" lon="5.63952">
        <ele>454.4</ele>
        <time>2022-05-17T13:06:10Z</time>
      </trkpt>
      <trkpt lat="46.72014" lon="5.63948">
        <ele>452.7</ele>
        <time>2022-05-17T13:06:21Z</time>
      </trkpt>
      <trkpt lat="46.7201" lon="5.63944">
        <ele>452</ele>
        <time>2022-05-17T13:06:25Z</time>
      </trkpt>
      <trkpt lat="46.72006" lon="5.63942">
        <ele>451.5</ele>
        <time>2022-05-17T13:06:29Z</time>
      </trkpt>
      <trkpt lat="46.72001" lon="5.63941">
        <ele>451.3</ele>
        <time>2022-05-17T13:06:34Z</time>
      </trkpt>
      <trkpt lat="46.71996" lon="5.6394">
        <ele>451.6</ele>
        <time>2022-05-17T13:06:41Z</time>
      </trkpt>
      <trkpt lat="46.71991" lon="5.6394">
        <ele>452.6</ele>
        <time>2022-05-17T13:06:47Z</time>
      </trkpt>
      <trkpt lat="46.71986" lon="5.6394">
        <ele>453.3</ele>
        <time>2022-05-17T13:06:51Z</time>
      </trkpt>
      <trkpt lat="46.71981" lon="5.63939">
        <ele>453.9</ele>
        <time>2022-05-17T13:06:55Z</time>
      </trkpt>
      <trkpt lat="46.71976" lon="5.63938">
        <ele>454.7</ele>
        <time>2022-05-17T13:07:00Z</time>
      </trkpt>
      <trkpt lat="46.71971" lon="5.63933">
        <ele>454.6</ele>
        <time>2022-05-17T13:07:07Z</time>
      </trkpt>
      <trkpt lat="46.71967" lon="5.63931">
        <ele>454.5</ele>
        <time>2022-05-17T13:07:13Z</time>
      </trkpt>
      <trkpt lat="46.71962" lon="5.63928">
        <ele>454.7</ele>
        <time>2022-05-17T13:07:18Z</time>
      </trkpt>
      <trkpt lat="46.71958" lon="5.63924">
        <ele>454.9</ele>
        <time>2022-05-17T13:07:23Z</time>
      </trkpt>
      <trkpt lat="46.71954" lon="5.6392">
        <ele>454.6</ele>
        <time>2022-05-17T13:07:29Z</time>
      </trkpt>
      <trkpt lat="46.71949" lon="5.6392">
        <ele>455.2</ele>
        <time>2022-05-17T13:07:36Z</time>
      </trkpt>
      <trkpt lat="46.71945" lon="5.63922">
        <ele>455.6</ele>
        <time>2022-05-17T13:07:41Z</time>
      </trkpt>
      <trkpt lat="46.7194" lon="5.63923">
        <ele>455.8</ele>
        <time>2022-05-17T13:07:46Z</time>
      </trkpt>
      <trkpt lat="46.71935" lon="5.63923">
        <ele>456.3</ele>
        <time>2022-05-17T13:07:53Z</time>
      </trkpt>
      <trkpt lat="46.7193" lon="5.63923">
        <ele>456.3</ele>
        <time>2022-05-17T13:07:59Z</time>
      </trkpt>
      <trkpt lat="46.71926" lon="5.63921">
        <ele>457.9</ele>
        <time>2022-05-17T13:08:11Z</time>
      </trkpt>
      <trkpt lat="46.7192" lon="5.63922">
        <ele>459.7</ele>
        <time>2022-05-17T13:08:18Z</time>
      </trkpt>
      <trkpt lat="46.71916" lon="5.63918">
        <ele>460.6</ele>
        <time>2022-05-17T13:08:41Z</time>
      </trkpt>
      <trkpt lat="46.71913" lon="5.63913">
        <ele>457.8</ele>
        <time>2022-05-17T13:08:50Z</time>
      </trkpt>
      <trkpt lat="46.71915" lon="5.63919">
        <ele>456.6</ele>
        <time>2022-05-17T13:08:59Z</time>
      </trkpt>
      <trkpt lat="46.71911" lon="5.63915">
        <ele>455.5</ele>
        <time>2022-05-17T13:09:05Z</time>
      </trkpt>
      <trkpt lat="46.71907" lon="5.63909">
        <ele>454.5</ele>
        <time>2022-05-17T13:09:10Z</time>
      </trkpt>
      <trkpt lat="46.71902" lon="5.63908">
        <ele>453.6</ele>
        <time>2022-05-17T13:09:16Z</time>
      </trkpt>
      <trkpt lat="46.71897" lon="5.63909">
        <ele>453.6</ele>
        <time>2022-05-17T13:09:21Z</time>
      </trkpt>
      <trkpt lat="46.71893" lon="5.63906">
        <ele>453.4</ele>
        <time>2022-05-17T13:09:27Z</time>
      </trkpt>
      <trkpt lat="46.71888" lon="5.63905">
        <ele>453.5</ele>
        <time>2022-05-17T13:09:32Z</time>
      </trkpt>
      <trkpt lat="46.71884" lon="5.63902">
        <ele>453.8</ele>
        <time>2022-05-17T13:09:36Z</time>
      </trkpt>
      <trkpt lat="46.71879" lon="5.63899">
        <ele>453.9</ele>
        <time>2022-05-17T13:09:43Z</time>
      </trkpt>
      <trkpt lat="46.71875" lon="5.63902">
        <ele>453.7</ele>
        <time>2022-05-17T13:09:51Z</time>
      </trkpt>
      <trkpt lat="46.7187" lon="5.639">
        <ele>452.7</ele>
        <time>2022-05-17T13:09:59Z</time>
      </trkpt>
      <trkpt lat="46.71866" lon="5.63899">
        <ele>452.1</ele>
        <time>2022-05-17T13:10:03Z</time>
      </trkpt>
      <trkpt lat="46.71861" lon="5.63898">
        <ele>451.7</ele>
        <time>2022-05-17T13:10:09Z</time>
      </trkpt>
      <trkpt lat="46.71856" lon="5.63898">
        <ele>451.8</ele>
        <time>2022-05-17T13:10:15Z</time>
      </trkpt>
      <trkpt lat="46.71851" lon="5.63895">
        <ele>452.3</ele>
        <time>2022-05-17T13:10:20Z</time>
      </trkpt>
      <trkpt lat="46.71847" lon="5.63892">
        <ele>453.3</ele>
        <time>2022-05-17T13:10:25Z</time>
      </trkpt>
      <trkpt lat="46.71842" lon="5.63892">
        <ele>453.8</ele>
        <time>2022-05-17T13:10:32Z</time>
      </trkpt>
      <trkpt lat="46.71837" lon="5.63891">
        <ele>453.6</ele>
        <time>2022-05-17T13:10:38Z</time>
      </trkpt>
      <trkpt lat="46.71833" lon="5.63891">
        <ele>453.2</ele>
        <time>2022-05-17T13:10:45Z</time>
      </trkpt>
      <trkpt lat="46.71828" lon="5.6389">
        <ele>453.2</ele>
        <time>2022-05-17T13:10:50Z</time>
      </trkpt>
      <trkpt lat="46.71828" lon="5.63883">
        <ele>455.9</ele>
        <time>2022-05-17T13:11:06Z</time>
      </trkpt>
      <trkpt lat="46.71823" lon="5.6388">
        <ele>455.9</ele>
        <time>2022-05-17T13:11:11Z</time>
      </trkpt>
      <trkpt lat="46.71819" lon="5.63875">
        <ele>456</ele>
        <time>2022-05-17T13:11:16Z</time>
      </trkpt>
      <trkpt lat="46.71814" lon="5.63873">
        <ele>456.6</ele>
        <time>2022-05-17T13:11:20Z</time>
      </trkpt>
      <trkpt lat="46.7181" lon="5.63873">
        <ele>457.7</ele>
        <time>2022-05-17T13:11:28Z</time>
      </trkpt>
      <trkpt lat="46.71805" lon="5.63874">
        <ele>458.5</ele>
        <time>2022-05-17T13:11:35Z</time>
      </trkpt>
      <trkpt lat="46.71799" lon="5.63872">
        <ele>458.5</ele>
        <time>2022-05-17T13:11:42Z</time>
      </trkpt>
      <trkpt lat="46.71796" lon="5.63868">
        <ele>457.6</ele>
        <time>2022-05-17T13:11:47Z</time>
      </trkpt>
      <trkpt lat="46.71791" lon="5.63867">
        <ele>456.8</ele>
        <time>2022-05-17T13:11:54Z</time>
      </trkpt>
      <trkpt lat="46.71786" lon="5.63868">
        <ele>456.4</ele>
        <time>2022-05-17T13:12:02Z</time>
      </trkpt>
      <trkpt lat="46.71782" lon="5.63866">
        <ele>456.1</ele>
        <time>2022-05-17T13:12:08Z</time>
      </trkpt>
      <trkpt lat="46.71777" lon="5.63866">
        <ele>455.9</ele>
        <time>2022-05-17T13:12:14Z</time>
      </trkpt>
      <trkpt lat="46.71773" lon="5.63866">
        <ele>455.7</ele>
        <time>2022-05-17T13:12:19Z</time>
      </trkpt>
      <trkpt lat="46.71768" lon="5.63865">
        <ele>454.8</ele>
        <time>2022-05-17T13:12:27Z</time>
      </trkpt>
      <trkpt lat="46.71763" lon="5.63864">
        <ele>454.2</ele>
        <time>2022-05-17T13:12:33Z</time>
      </trkpt>
      <trkpt lat="46.71758" lon="5.63864">
        <ele>453.6</ele>
        <time>2022-05-17T13:12:39Z</time>
      </trkpt>
      <trkpt lat="46.71753" lon="5.63864">
        <ele>453.5</ele>
        <time>2022-05-17T13:12:44Z</time>
      </trkpt>
      <trkpt lat="46.71749" lon="5.63863">
        <ele>453.9</ele>
        <time>2022-05-17T13:12:49Z</time>
      </trkpt>
      <trkpt lat="46.71744" lon="5.63863">
        <ele>453.3</ele>
        <time>2022-05-17T13:12:57Z</time>
      </trkpt>
      <trkpt lat="46.71739" lon="5.63863">
        <ele>453.1</ele>
        <time>2022-05-17T13:13:02Z</time>
      </trkpt>
      <trkpt lat="46.71735" lon="5.63861">
        <ele>453</ele>
        <time>2022-05-17T13:13:09Z</time>
      </trkpt>
      <trkpt lat="46.71731" lon="5.63863">
        <ele>453.2</ele>
        <time>2022-05-17T13:13:17Z</time>
      </trkpt>
      <trkpt lat="46.71726" lon="5.63865">
        <ele>453.3</ele>
        <time>2022-05-17T13:13:23Z</time>
      </trkpt>
      <trkpt lat="46.7172" lon="5.63863">
        <ele>453.8</ele>
        <time>2022-05-17T13:13:30Z</time>
      </trkpt>
      <trkpt lat="46.71715" lon="5.63864">
        <ele>454.5</ele>
        <time>2022-05-17T13:13:34Z</time>
      </trkpt>
      <trkpt lat="46.71711" lon="5.63866">
        <ele>455.4</ele>
        <time>2022-05-17T13:13:38Z</time>
      </trkpt>
      <trkpt lat="46.71706" lon="5.63866">
        <ele>456.7</ele>
        <time>2022-05-17T13:13:45Z</time>
      </trkpt>
      <trkpt lat="46.71701" lon="5.63866">
        <ele>457.9</ele>
        <time>2022-05-17T13:13:51Z</time>
      </trkpt>
      <trkpt lat="46.71696" lon="5.63866">
        <ele>458.3</ele>
        <time>2022-05-17T13:13:57Z</time>
      </trkpt>
      <trkpt lat="46.71691" lon="5.63864">
        <ele>458</ele>
        <time>2022-05-17T13:14:03Z</time>
      </trkpt>
      <trkpt lat="46.71687" lon="5.63861">
        <ele>457.7</ele>
        <time>2022-05-17T13:14:08Z</time>
      </trkpt>
      <trkpt lat="46.71682" lon="5.63859">
        <ele>457.7</ele>
        <time>2022-05-17T13:14:17Z</time>
      </trkpt>
      <trkpt lat="46.71678" lon="5.63859">
        <ele>458.2</ele>
        <time>2022-05-17T13:14:23Z</time>
      </trkpt>
      <trkpt lat="46.71673" lon="5.63858">
        <ele>458.8</ele>
        <time>2022-05-17T13:14:27Z</time>
      </trkpt>
      <trkpt lat="46.71669" lon="5.63854">
        <ele>459.2</ele>
        <time>2022-05-17T13:14:31Z</time>
      </trkpt>
      <trkpt lat="46.71665" lon="5.63851">
        <ele>459.5</ele>
        <time>2022-05-17T13:14:36Z</time>
      </trkpt>
      <trkpt lat="46.7166" lon="5.6385">
        <ele>459.7</ele>
        <time>2022-05-17T13:14:43Z</time>
      </trkpt>
      <trkpt lat="46.71655" lon="5.63847">
        <ele>459.4</ele>
        <time>2022-05-17T13:14:51Z</time>
      </trkpt>
      <trkpt lat="46.7165" lon="5.63846">
        <ele>459.4</ele>
        <time>2022-05-17T13:14:56Z</time>
      </trkpt>
      <trkpt lat="46.71645" lon="5.63846">
        <ele>458.9</ele>
        <time>2022-05-17T13:15:01Z</time>
      </trkpt>
      <trkpt lat="46.7164" lon="5.63845">
        <ele>458</ele>
        <time>2022-05-17T13:15:07Z</time>
      </trkpt>
      <trkpt lat="46.71635" lon="5.63845">
        <ele>457.5</ele>
        <time>2022-05-17T13:15:13Z</time>
      </trkpt>
      <trkpt lat="46.7163" lon="5.63843">
        <ele>457.6</ele>
        <time>2022-05-17T13:15:17Z</time>
      </trkpt>
      <trkpt lat="46.71626" lon="5.63842">
        <ele>458.3</ele>
        <time>2022-05-17T13:15:21Z</time>
      </trkpt>
      <trkpt lat="46.71621" lon="5.63844">
        <ele>459.6</ele>
        <time>2022-05-17T13:15:26Z</time>
      </trkpt>
      <trkpt lat="46.71616" lon="5.63845">
        <ele>461.2</ele>
        <time>2022-05-17T13:15:32Z</time>
      </trkpt>
      <trkpt lat="46.71612" lon="5.63843">
        <ele>461.9</ele>
        <time>2022-05-17T13:15:36Z</time>
      </trkpt>
      <trkpt lat="46.71607" lon="5.63842">
        <ele>462.1</ele>
        <time>2022-05-17T13:15:42Z</time>
      </trkpt>
      <trkpt lat="46.71601" lon="5.63841">
        <ele>461.8</ele>
        <time>2022-05-17T13:15:49Z</time>
      </trkpt>
      <trkpt lat="46.71596" lon="5.63841">
        <ele>461.2</ele>
        <time>2022-05-17T13:15:57Z</time>
      </trkpt>
      <trkpt lat="46.71591" lon="5.63841">
        <ele>461.2</ele>
        <time>2022-05-17T13:16:01Z</time>
      </trkpt>
      <trkpt lat="46.71586" lon="5.63841">
        <ele>461.2</ele>
        <time>2022-05-17T13:16:06Z</time>
      </trkpt>
      <trkpt lat="46.71581" lon="5.63841">
        <ele>460.6</ele>
        <time>2022-05-17T13:16:13Z</time>
      </trkpt>
      <trkpt lat="46.71576" lon="5.6384">
        <ele>460.3</ele>
        <time>2022-05-17T13:16:18Z</time>
      </trkpt>
      <trkpt lat="46.71571" lon="5.63841">
        <ele>460.5</ele>
        <time>2022-05-17T13:16:24Z</time>
      </trkpt>
      <trkpt lat="46.71567" lon="5.63841">
        <ele>461.6</ele>
        <time>2022-05-17T13:16:30Z</time>
      </trkpt>
      <trkpt lat="46.71562" lon="5.63841">
        <ele>462.7</ele>
        <time>2022-05-17T13:16:37Z</time>
      </trkpt>
      <trkpt lat="46.71557" lon="5.63843">
        <ele>463.4</ele>
        <time>2022-05-17T13:16:41Z</time>
      </trkpt>
      <trkpt lat="46.71552" lon="5.63845">
        <ele>464</ele>
        <time>2022-05-17T13:16:45Z</time>
      </trkpt>
      <trkpt lat="46.71547" lon="5.63847">
        <ele>464.2</ele>
        <time>2022-05-17T13:16:53Z</time>
      </trkpt>
      <trkpt lat="46.71542" lon="5.63846">
        <ele>463.7</ele>
        <time>2022-05-17T13:16:59Z</time>
      </trkpt>
      <trkpt lat="46.71537" lon="5.63847">
        <ele>463.2</ele>
        <time>2022-05-17T13:17:03Z</time>
      </trkpt>
      <trkpt lat="46.71532" lon="5.63848">
        <ele>463.5</ele>
        <time>2022-05-17T13:17:08Z</time>
      </trkpt>
      <trkpt lat="46.71527" lon="5.63849">
        <ele>464.5</ele>
        <time>2022-05-17T13:17:13Z</time>
      </trkpt>
      <trkpt lat="46.71522" lon="5.63848">
        <ele>465.8</ele>
        <time>2022-05-17T13:17:18Z</time>
      </trkpt>
      <trkpt lat="46.71517" lon="5.63848">
        <ele>466.3</ele>
        <time>2022-05-17T13:17:23Z</time>
      </trkpt>
      <trkpt lat="46.71512" lon="5.63848">
        <ele>466</ele>
        <time>2022-05-17T13:17:31Z</time>
      </trkpt>
      <trkpt lat="46.71508" lon="5.63852">
        <ele>465.3</ele>
        <time>2022-05-17T13:17:38Z</time>
      </trkpt>
      <trkpt lat="46.71505" lon="5.63857">
        <ele>464.1</ele>
        <time>2022-05-17T13:17:45Z</time>
      </trkpt>
      <trkpt lat="46.71501" lon="5.63861">
        <ele>463.1</ele>
        <time>2022-05-17T13:17:49Z</time>
      </trkpt>
      <trkpt lat="46.71496" lon="5.63866">
        <ele>462.5</ele>
        <time>2022-05-17T13:17:54Z</time>
      </trkpt>
      <trkpt lat="46.71491" lon="5.6387">
        <ele>463</ele>
        <time>2022-05-17T13:17:59Z</time>
      </trkpt>
      <trkpt lat="46.71486" lon="5.63873">
        <ele>463.2</ele>
        <time>2022-05-17T13:18:03Z</time>
      </trkpt>
      <trkpt lat="46.71482" lon="5.63873">
        <ele>466</ele>
        <time>2022-05-17T13:18:36Z</time>
      </trkpt>
      <trkpt lat="46.71477" lon="5.63877">
        <ele>467.2</ele>
        <time>2022-05-17T13:18:44Z</time>
      </trkpt>
      <trkpt lat="46.71472" lon="5.63879">
        <ele>467.8</ele>
        <time>2022-05-17T13:18:50Z</time>
      </trkpt>
      <trkpt lat="46.71468" lon="5.63884">
        <ele>468</ele>
        <time>2022-05-17T13:18:56Z</time>
      </trkpt>
      <trkpt lat="46.71464" lon="5.63889">
        <ele>468.5</ele>
        <time>2022-05-17T13:19:01Z</time>
      </trkpt>
      <trkpt lat="46.7146" lon="5.63894">
        <ele>469.5</ele>
        <time>2022-05-17T13:19:07Z</time>
      </trkpt>
      <trkpt lat="46.71458" lon="5.639">
        <ele>470.7</ele>
        <time>2022-05-17T13:19:13Z</time>
      </trkpt>
      <trkpt lat="46.71456" lon="5.63907">
        <ele>471.3</ele>
        <time>2022-05-17T13:19:20Z</time>
      </trkpt>
      <trkpt lat="46.71454" lon="5.63913">
        <ele>471.6</ele>
        <time>2022-05-17T13:19:26Z</time>
      </trkpt>
      <trkpt lat="46.7145" lon="5.63917">
        <ele>471.7</ele>
        <time>2022-05-17T13:19:43Z</time>
      </trkpt>
      <trkpt lat="46.71455" lon="5.63918">
        <ele>473</ele>
        <time>2022-05-17T13:19:49Z</time>
      </trkpt>
      <trkpt lat="46.71451" lon="5.63924">
        <ele>476.1</ele>
        <time>2022-05-17T13:20:45Z</time>
      </trkpt>
      <trkpt lat="46.71453" lon="5.6393">
        <ele>476.2</ele>
        <time>2022-05-17T13:20:57Z</time>
      </trkpt>
      <trkpt lat="46.71449" lon="5.63936">
        <ele>472.9</ele>
        <time>2022-05-17T13:21:05Z</time>
      </trkpt>
      <trkpt lat="46.71444" lon="5.63939">
        <ele>472.2</ele>
        <time>2022-05-17T13:21:09Z</time>
      </trkpt>
      <trkpt lat="46.7144" lon="5.63942">
        <ele>472</ele>
        <time>2022-05-17T13:21:12Z</time>
      </trkpt>
      <trkpt lat="46.71436" lon="5.63946">
        <ele>471.9</ele>
        <time>2022-05-17T13:21:15Z</time>
      </trkpt>
      <trkpt lat="46.71432" lon="5.63951">
        <ele>472.6</ele>
        <time>2022-05-17T13:21:19Z</time>
      </trkpt>
      <trkpt lat="46.71428" lon="5.63954">
        <ele>473.2</ele>
        <time>2022-05-17T13:21:23Z</time>
      </trkpt>
      <trkpt lat="46.71425" lon="5.63959">
        <ele>474.6</ele>
        <time>2022-05-17T13:21:29Z</time>
      </trkpt>
      <trkpt lat="46.71423" lon="5.63965">
        <ele>476.1</ele>
        <time>2022-05-17T13:21:41Z</time>
      </trkpt>
      <trkpt lat="46.71421" lon="5.63971">
        <ele>476.5</ele>
        <time>2022-05-17T13:21:47Z</time>
      </trkpt>
      <trkpt lat="46.71421" lon="5.63978">
        <ele>476.5</ele>
        <time>2022-05-17T13:21:54Z</time>
      </trkpt>
      <trkpt lat="46.7142" lon="5.63984">
        <ele>476.5</ele>
        <time>2022-05-17T13:22:00Z</time>
      </trkpt>
      <trkpt lat="46.71417" lon="5.63992">
        <ele>476.4</ele>
        <time>2022-05-17T13:22:04Z</time>
      </trkpt>
      <trkpt lat="46.71415" lon="5.63998">
        <ele>476.4</ele>
        <time>2022-05-17T13:22:07Z</time>
      </trkpt>
      <trkpt lat="46.71413" lon="5.64004">
        <ele>477.3</ele>
        <time>2022-05-17T13:22:12Z</time>
      </trkpt>
      <trkpt lat="46.7141" lon="5.6401">
        <ele>479.5</ele>
        <time>2022-05-17T13:22:19Z</time>
      </trkpt>
      <trkpt lat="46.71407" lon="5.64015">
        <ele>480.7</ele>
        <time>2022-05-17T13:22:24Z</time>
      </trkpt>
      <trkpt lat="46.71403" lon="5.64021">
        <ele>482.2</ele>
        <time>2022-05-17T13:22:30Z</time>
      </trkpt>
      <trkpt lat="46.71399" lon="5.64024">
        <ele>482.9</ele>
        <time>2022-05-17T13:22:34Z</time>
      </trkpt>
      <trkpt lat="46.71395" lon="5.64029">
        <ele>483.5</ele>
        <time>2022-05-17T13:22:40Z</time>
      </trkpt>
      <trkpt lat="46.71394" lon="5.64036">
        <ele>483.2</ele>
        <time>2022-05-17T13:22:47Z</time>
      </trkpt>
      <trkpt lat="46.71392" lon="5.64043">
        <ele>482.9</ele>
        <time>2022-05-17T13:22:54Z</time>
      </trkpt>
      <trkpt lat="46.71392" lon="5.6405">
        <ele>482.3</ele>
        <time>2022-05-17T13:23:02Z</time>
      </trkpt>
      <trkpt lat="46.71394" lon="5.64056">
        <ele>481.5</ele>
        <time>2022-05-17T13:23:07Z</time>
      </trkpt>
      <trkpt lat="46.71398" lon="5.6406">
        <ele>480.9</ele>
        <time>2022-05-17T13:23:11Z</time>
      </trkpt>
      <trkpt lat="46.71394" lon="5.64063">
        <ele>485.5</ele>
        <time>2022-05-17T13:23:52Z</time>
      </trkpt>
      <trkpt lat="46.71398" lon="5.64062">
        <ele>486.4</ele>
        <time>2022-05-17T13:24:05Z</time>
      </trkpt>
      <trkpt lat="46.71402" lon="5.64066">
        <ele>488.3</ele>
        <time>2022-05-17T13:24:32Z</time>
      </trkpt>
      <trkpt lat="46.71404" lon="5.64072">
        <ele>488.2</ele>
        <time>2022-05-17T13:24:37Z</time>
      </trkpt>
      <trkpt lat="46.71404" lon="5.6408">
        <ele>488</ele>
        <time>2022-05-17T13:24:44Z</time>
      </trkpt>
      <trkpt lat="46.71402" lon="5.64086">
        <ele>488.1</ele>
        <time>2022-05-17T13:24:51Z</time>
      </trkpt>
      <trkpt lat="46.71399" lon="5.64092">
        <ele>488.3</ele>
        <time>2022-05-17T13:25:00Z</time>
      </trkpt>
      <trkpt lat="46.71399" lon="5.641">
        <ele>487.8</ele>
        <time>2022-05-17T13:25:05Z</time>
      </trkpt>
      <trkpt lat="46.71399" lon="5.64107">
        <ele>486.5</ele>
        <time>2022-05-17T13:25:12Z</time>
      </trkpt>
      <trkpt lat="46.71397" lon="5.64113">
        <ele>485.4</ele>
        <time>2022-05-17T13:25:17Z</time>
      </trkpt>
      <trkpt lat="46.71397" lon="5.6412">
        <ele>484.1</ele>
        <time>2022-05-17T13:25:23Z</time>
      </trkpt>
      <trkpt lat="46.71393" lon="5.64125">
        <ele>485</ele>
        <time>2022-05-17T13:25:44Z</time>
      </trkpt>
      <trkpt lat="46.71391" lon="5.64132">
        <ele>486</ele>
        <time>2022-05-17T13:25:51Z</time>
      </trkpt>
      <trkpt lat="46.71389" lon="5.64138">
        <ele>486.3</ele>
        <time>2022-05-17T13:25:56Z</time>
      </trkpt>
      <trkpt lat="46.71386" lon="5.64145">
        <ele>487.1</ele>
        <time>2022-05-17T13:26:02Z</time>
      </trkpt>
      <trkpt lat="46.71384" lon="5.64151">
        <ele>487.2</ele>
        <time>2022-05-17T13:26:08Z</time>
      </trkpt>
      <trkpt lat="46.7138" lon="5.64156">
        <ele>485.9</ele>
        <time>2022-05-17T13:26:15Z</time>
      </trkpt>
      <trkpt lat="46.71376" lon="5.6416">
        <ele>485.1</ele>
        <time>2022-05-17T13:26:21Z</time>
      </trkpt>
      <trkpt lat="46.71372" lon="5.64165">
        <ele>484.9</ele>
        <time>2022-05-17T13:26:27Z</time>
      </trkpt>
      <trkpt lat="46.71368" lon="5.6417">
        <ele>485.2</ele>
        <time>2022-05-17T13:26:31Z</time>
      </trkpt>
      <trkpt lat="46.71364" lon="5.64175">
        <ele>486</ele>
        <time>2022-05-17T13:26:36Z</time>
      </trkpt>
      <trkpt lat="46.71361" lon="5.64181">
        <ele>486.5</ele>
        <time>2022-05-17T13:26:42Z</time>
      </trkpt>
      <trkpt lat="46.71359" lon="5.64188">
        <ele>486.8</ele>
        <time>2022-05-17T13:26:46Z</time>
      </trkpt>
      <trkpt lat="46.71356" lon="5.64193">
        <ele>486.8</ele>
        <time>2022-05-17T13:26:49Z</time>
      </trkpt>
      <trkpt lat="46.71355" lon="5.642">
        <ele>487</ele>
        <time>2022-05-17T13:26:53Z</time>
      </trkpt>
      <trkpt lat="46.71355" lon="5.64208">
        <ele>487.4</ele>
        <time>2022-05-17T13:27:00Z</time>
      </trkpt>
      <trkpt lat="46.71355" lon="5.64216">
        <ele>487.6</ele>
        <time>2022-05-17T13:27:05Z</time>
      </trkpt>
      <trkpt lat="46.71355" lon="5.64222">
        <ele>487.5</ele>
        <time>2022-05-17T13:27:09Z</time>
      </trkpt>
      <trkpt lat="46.71354" lon="5.64229">
        <ele>487.5</ele>
        <time>2022-05-17T13:27:15Z</time>
      </trkpt>
      <trkpt lat="46.71354" lon="5.64236">
        <ele>487.4</ele>
        <time>2022-05-17T13:27:20Z</time>
      </trkpt>
      <trkpt lat="46.71355" lon="5.64243">
        <ele>487.3</ele>
        <time>2022-05-17T13:27:25Z</time>
      </trkpt>
      <trkpt lat="46.71359" lon="5.64249">
        <ele>487.9</ele>
        <time>2022-05-17T13:27:30Z</time>
      </trkpt>
      <trkpt lat="46.71363" lon="5.64252">
        <ele>488.6</ele>
        <time>2022-05-17T13:27:36Z</time>
      </trkpt>
      <trkpt lat="46.71368" lon="5.64253">
        <ele>487.7</ele>
        <time>2022-05-17T13:27:43Z</time>
      </trkpt>
      <trkpt lat="46.71373" lon="5.64252">
        <ele>486.8</ele>
        <time>2022-05-17T13:27:49Z</time>
      </trkpt>
      <trkpt lat="46.71379" lon="5.64252">
        <ele>486.2</ele>
        <time>2022-05-17T13:27:54Z</time>
      </trkpt>
      <trkpt lat="46.71384" lon="5.64252">
        <ele>486</ele>
        <time>2022-05-17T13:28:02Z</time>
      </trkpt>
      <trkpt lat="46.71389" lon="5.64253">
        <ele>485.9</ele>
        <time>2022-05-17T13:28:07Z</time>
      </trkpt>
      <trkpt lat="46.71393" lon="5.64254">
        <ele>485.7</ele>
        <time>2022-05-17T13:28:12Z</time>
      </trkpt>
      <trkpt lat="46.71398" lon="5.64256">
        <ele>485.2</ele>
        <time>2022-05-17T13:28:18Z</time>
      </trkpt>
      <trkpt lat="46.71403" lon="5.64259">
        <ele>485</ele>
        <time>2022-05-17T13:28:23Z</time>
      </trkpt>
      <trkpt lat="46.71406" lon="5.64264">
        <ele>485</ele>
        <time>2022-05-17T13:28:28Z</time>
      </trkpt>
      <trkpt lat="46.71411" lon="5.64266">
        <ele>484.6</ele>
        <time>2022-05-17T13:28:32Z</time>
      </trkpt>
      <trkpt lat="46.71416" lon="5.64267">
        <ele>484.1</ele>
        <time>2022-05-17T13:28:36Z</time>
      </trkpt>
      <trkpt lat="46.71417" lon="5.64274">
        <ele>482.9</ele>
        <time>2022-05-17T13:28:43Z</time>
      </trkpt>
      <trkpt lat="46.71417" lon="5.64281">
        <ele>482.2</ele>
        <time>2022-05-17T13:28:49Z</time>
      </trkpt>
      <trkpt lat="46.71416" lon="5.64288">
        <ele>483.1</ele>
        <time>2022-05-17T13:28:58Z</time>
      </trkpt>
      <trkpt lat="46.71418" lon="5.64294">
        <ele>483.6</ele>
        <time>2022-05-17T13:29:03Z</time>
      </trkpt>
      <trkpt lat="46.71421" lon="5.643">
        <ele>483.8</ele>
        <time>2022-05-17T13:29:07Z</time>
      </trkpt>
      <trkpt lat="46.71424" lon="5.64306">
        <ele>484.1</ele>
        <time>2022-05-17T13:29:11Z</time>
      </trkpt>
      <trkpt lat="46.71428" lon="5.64311">
        <ele>484.7</ele>
        <time>2022-05-17T13:29:15Z</time>
      </trkpt>
      <trkpt lat="46.71432" lon="5.64313">
        <ele>485.8</ele>
        <time>2022-05-17T13:29:20Z</time>
      </trkpt>
      <trkpt lat="46.71433" lon="5.64321">
        <ele>487.4</ele>
        <time>2022-05-17T13:29:24Z</time>
      </trkpt>
      <trkpt lat="46.71433" lon="5.64328">
        <ele>489</ele>
        <time>2022-05-17T13:29:28Z</time>
      </trkpt>
      <trkpt lat="46.71437" lon="5.64331">
        <ele>490.7</ele>
        <time>2022-05-17T13:29:35Z</time>
      </trkpt>
      <trkpt lat="46.71442" lon="5.64334">
        <ele>491.2</ele>
        <time>2022-05-17T13:29:38Z</time>
      </trkpt>
      <trkpt lat="46.71447" lon="5.64338">
        <ele>491.8</ele>
        <time>2022-05-17T13:29:41Z</time>
      </trkpt>
      <trkpt lat="46.7145" lon="5.64343">
        <ele>493.1</ele>
        <time>2022-05-17T13:29:46Z</time>
      </trkpt>
      <trkpt lat="46.71453" lon="5.64349">
        <ele>496</ele>
        <time>2022-05-17T13:29:54Z</time>
      </trkpt>
      <trkpt lat="46.71455" lon="5.64357">
        <ele>496.9</ele>
        <time>2022-05-17T13:29:59Z</time>
      </trkpt>
      <trkpt lat="46.71459" lon="5.64362">
        <ele>497.7</ele>
        <time>2022-05-17T13:30:05Z</time>
      </trkpt>
      <trkpt lat="46.71461" lon="5.64369">
        <ele>498</ele>
        <time>2022-05-17T13:30:11Z</time>
      </trkpt>
      <trkpt lat="46.71461" lon="5.64376">
        <ele>497.2</ele>
        <time>2022-05-17T13:30:15Z</time>
      </trkpt>
      <trkpt lat="46.71461" lon="5.64383">
        <ele>495.9</ele>
        <time>2022-05-17T13:30:20Z</time>
      </trkpt>
      <trkpt lat="46.7146" lon="5.64389">
        <ele>495</ele>
        <time>2022-05-17T13:30:25Z</time>
      </trkpt>
      <trkpt lat="46.71455" lon="5.64393">
        <ele>494.5</ele>
        <time>2022-05-17T13:30:31Z</time>
      </trkpt>
      <trkpt lat="46.71451" lon="5.64395">
        <ele>494.7</ele>
        <time>2022-05-17T13:30:35Z</time>
      </trkpt>
      <trkpt lat="46.71446" lon="5.64399">
        <ele>494.7</ele>
        <time>2022-05-17T13:30:40Z</time>
      </trkpt>
      <trkpt lat="46.71441" lon="5.64401">
        <ele>493.8</ele>
        <time>2022-05-17T13:30:45Z</time>
      </trkpt>
      <trkpt lat="46.71436" lon="5.64403">
        <ele>493.5</ele>
        <time>2022-05-17T13:30:51Z</time>
      </trkpt>
      <trkpt lat="46.71431" lon="5.64406">
        <ele>495.5</ele>
        <time>2022-05-17T13:30:58Z</time>
      </trkpt>
      <trkpt lat="46.71426" lon="5.64409">
        <ele>497.4</ele>
        <time>2022-05-17T13:31:04Z</time>
      </trkpt>
      <trkpt lat="46.71421" lon="5.6441">
        <ele>498.3</ele>
        <time>2022-05-17T13:31:09Z</time>
      </trkpt>
      <trkpt lat="46.71417" lon="5.64413">
        <ele>499.5</ele>
        <time>2022-05-17T13:31:14Z</time>
      </trkpt>
      <trkpt lat="46.71412" lon="5.64416">
        <ele>499.7</ele>
        <time>2022-05-17T13:31:20Z</time>
      </trkpt>
      <trkpt lat="46.71407" lon="5.64421">
        <ele>499.5</ele>
        <time>2022-05-17T13:31:24Z</time>
      </trkpt>
      <trkpt lat="46.71403" lon="5.64426">
        <ele>499.7</ele>
        <time>2022-05-17T13:31:28Z</time>
      </trkpt>
      <trkpt lat="46.71399" lon="5.64429">
        <ele>500.8</ele>
        <time>2022-05-17T13:31:34Z</time>
      </trkpt>
      <trkpt lat="46.71394" lon="5.64431">
        <ele>501.2</ele>
        <time>2022-05-17T13:31:38Z</time>
      </trkpt>
      <trkpt lat="46.7139" lon="5.64433">
        <ele>501.2</ele>
        <time>2022-05-17T13:31:42Z</time>
      </trkpt>
      <trkpt lat="46.71386" lon="5.64436">
        <ele>501.3</ele>
        <time>2022-05-17T13:31:46Z</time>
      </trkpt>
      <trkpt lat="46.71381" lon="5.64438">
        <ele>501.3</ele>
        <time>2022-05-17T13:31:50Z</time>
      </trkpt>
      <trkpt lat="46.71377" lon="5.6444">
        <ele>497.5</ele>
        <time>2022-05-17T13:32:02Z</time>
      </trkpt>
      <trkpt lat="46.71373" lon="5.64443">
        <ele>495.2</ele>
        <time>2022-05-17T13:32:08Z</time>
      </trkpt>
      <trkpt lat="46.71368" lon="5.64446">
        <ele>493.4</ele>
        <time>2022-05-17T13:32:14Z</time>
      </trkpt>
      <trkpt lat="46.71363" lon="5.64449">
        <ele>491.8</ele>
        <time>2022-05-17T13:32:19Z</time>
      </trkpt>
      <trkpt lat="46.7136" lon="5.64455">
        <ele>489.9</ele>
        <time>2022-05-17T13:32:24Z</time>
      </trkpt>
      <trkpt lat="46.7136" lon="5.64463">
        <ele>488</ele>
        <time>2022-05-17T13:32:29Z</time>
      </trkpt>
      <trkpt lat="46.71358" lon="5.64469">
        <ele>486.9</ele>
        <time>2022-05-17T13:32:33Z</time>
      </trkpt>
      <trkpt lat="46.71354" lon="5.64473">
        <ele>486</ele>
        <time>2022-05-17T13:32:38Z</time>
      </trkpt>
      <trkpt lat="46.71352" lon="5.6448">
        <ele>485.2</ele>
        <time>2022-05-17T13:32:45Z</time>
      </trkpt>
      <trkpt lat="46.71351" lon="5.64486">
        <ele>484.8</ele>
        <time>2022-05-17T13:32:50Z</time>
      </trkpt>
      <trkpt lat="46.71352" lon="5.64493">
        <ele>484.1</ele>
        <time>2022-05-17T13:32:55Z</time>
      </trkpt>
      <trkpt lat="46.71348" lon="5.64498">
        <ele>482.5</ele>
        <time>2022-05-17T13:33:05Z</time>
      </trkpt>
      <trkpt lat="46.71343" lon="5.64502">
        <ele>482.8</ele>
        <time>2022-05-17T13:33:09Z</time>
      </trkpt>
      <trkpt lat="46.71338" lon="5.64503">
        <ele>483.9</ele>
        <time>2022-05-17T13:33:15Z</time>
      </trkpt>
      <trkpt lat="46.71334" lon="5.64502">
        <ele>485.1</ele>
        <time>2022-05-17T13:33:20Z</time>
      </trkpt>
      <trkpt lat="46.71328" lon="5.64502">
        <ele>485.9</ele>
        <time>2022-05-17T13:33:25Z</time>
      </trkpt>
      <trkpt lat="46.71324" lon="5.645">
        <ele>485.7</ele>
        <time>2022-05-17T13:33:31Z</time>
      </trkpt>
      <trkpt lat="46.71319" lon="5.64497">
        <ele>484.8</ele>
        <time>2022-05-17T13:33:37Z</time>
      </trkpt>
      <trkpt lat="46.71315" lon="5.64493">
        <ele>483.6</ele>
        <time>2022-05-17T13:33:52Z</time>
      </trkpt>
      <trkpt lat="46.7131" lon="5.64492">
        <ele>484</ele>
        <time>2022-05-17T13:33:56Z</time>
      </trkpt>
      <trkpt lat="46.71306" lon="5.64489">
        <ele>484.5</ele>
        <time>2022-05-17T13:34:01Z</time>
      </trkpt>
      <trkpt lat="46.71302" lon="5.64485">
        <ele>485.3</ele>
        <time>2022-05-17T13:34:12Z</time>
      </trkpt>
      <trkpt lat="46.71297" lon="5.64484">
        <ele>485.4</ele>
        <time>2022-05-17T13:34:20Z</time>
      </trkpt>
      <trkpt lat="46.71293" lon="5.64479">
        <ele>484.1</ele>
        <time>2022-05-17T13:34:32Z</time>
      </trkpt>
      <trkpt lat="46.71289" lon="5.64475">
        <ele>483.4</ele>
        <time>2022-05-17T13:34:40Z</time>
      </trkpt>
      <trkpt lat="46.71286" lon="5.64471">
        <ele>483.1</ele>
        <time>2022-05-17T13:34:46Z</time>
      </trkpt>
      <trkpt lat="46.71282" lon="5.64466">
        <ele>483.3</ele>
        <time>2022-05-17T13:34:53Z</time>
      </trkpt>
      <trkpt lat="46.7128" lon="5.6446">
        <ele>483.3</ele>
        <time>2022-05-17T13:35:01Z</time>
      </trkpt>
      <trkpt lat="46.71275" lon="5.64458">
        <ele>482.9</ele>
        <time>2022-05-17T13:35:09Z</time>
      </trkpt>
      <trkpt lat="46.71271" lon="5.64464">
        <ele>481.1</ele>
        <time>2022-05-17T13:35:19Z</time>
      </trkpt>
      <trkpt lat="46.71268" lon="5.64469">
        <ele>479.6</ele>
        <time>2022-05-17T13:35:26Z</time>
      </trkpt>
      <trkpt lat="46.71265" lon="5.64474">
        <ele>477.5</ele>
        <time>2022-05-17T13:35:41Z</time>
      </trkpt>
      <trkpt lat="46.71261" lon="5.64474">
        <ele>474.9</ele>
        <time>2022-05-17T13:35:53Z</time>
      </trkpt>
      <trkpt lat="46.71256" lon="5.64474">
        <ele>466.7</ele>
        <time>2022-05-17T13:36:27Z</time>
      </trkpt>
      <trkpt lat="46.71251" lon="5.64472">
        <ele>465.4</ele>
        <time>2022-05-17T13:36:34Z</time>
      </trkpt>
      <trkpt lat="46.71249" lon="5.64478">
        <ele>465.2</ele>
        <time>2022-05-17T13:37:52Z</time>
      </trkpt>
      <trkpt lat="46.71254" lon="5.64478">
        <ele>465</ele>
        <time>2022-05-17T13:38:06Z</time>
      </trkpt>
      <trkpt lat="46.7126" lon="5.64477">
        <ele>465.3</ele>
        <time>2022-05-17T13:38:16Z</time>
      </trkpt>
      <trkpt lat="46.71265" lon="5.64476">
        <ele>465.4</ele>
        <time>2022-05-17T13:38:20Z</time>
      </trkpt>
      <trkpt lat="46.7127" lon="5.64473">
        <ele>465.6</ele>
        <time>2022-05-17T13:38:26Z</time>
      </trkpt>
      <trkpt lat="46.71273" lon="5.64467">
        <ele>466.1</ele>
        <time>2022-05-17T13:38:33Z</time>
      </trkpt>
      <trkpt lat="46.71274" lon="5.6446">
        <ele>466.7</ele>
        <time>2022-05-17T13:38:38Z</time>
      </trkpt>
      <trkpt lat="46.71279" lon="5.64462">
        <ele>467.9</ele>
        <time>2022-05-17T13:38:46Z</time>
      </trkpt>
      <trkpt lat="46.71282" lon="5.64467">
        <ele>468.5</ele>
        <time>2022-05-17T13:38:58Z</time>
      </trkpt>
      <trkpt lat="46.71285" lon="5.64472">
        <ele>470.8</ele>
        <time>2022-05-17T13:39:09Z</time>
      </trkpt>
      <trkpt lat="46.71288" lon="5.64477">
        <ele>472.7</ele>
        <time>2022-05-17T13:39:17Z</time>
      </trkpt>
      <trkpt lat="46.71291" lon="5.64472">
        <ele>473.5</ele>
        <time>2022-05-17T13:39:26Z</time>
      </trkpt>
      <trkpt lat="46.7129" lon="5.64479">
        <ele>475.7</ele>
        <time>2022-05-17T13:39:45Z</time>
      </trkpt>
      <trkpt lat="46.71292" lon="5.64485">
        <ele>477.8</ele>
        <time>2022-05-17T13:39:52Z</time>
      </trkpt>
      <trkpt lat="46.71296" lon="5.64489">
        <ele>480.7</ele>
        <time>2022-05-17T13:39:58Z</time>
      </trkpt>
      <trkpt lat="46.71299" lon="5.64494">
        <ele>483.7</ele>
        <time>2022-05-17T13:40:04Z</time>
      </trkpt>
      <trkpt lat="46.71307" lon="5.64494">
        <ele>486.2</ele>
        <time>2022-05-17T13:41:26Z</time>
      </trkpt>
      <trkpt lat="46.71312" lon="5.64493">
        <ele>485.2</ele>
        <time>2022-05-17T13:41:30Z</time>
      </trkpt>
      <trkpt lat="46.71316" lon="5.64495">
        <ele>489.3</ele>
        <time>2022-05-17T13:44:40Z</time>
      </trkpt>
      <trkpt lat="46.71321" lon="5.64497">
        <ele>489.1</ele>
        <time>2022-05-17T13:44:45Z</time>
      </trkpt>
      <trkpt lat="46.71326" lon="5.64498">
        <ele>488.5</ele>
        <time>2022-05-17T13:44:50Z</time>
      </trkpt>
      <trkpt lat="46.71329" lon="5.64503">
        <ele>486.5</ele>
        <time>2022-05-17T13:44:59Z</time>
      </trkpt>
      <trkpt lat="46.71334" lon="5.64503">
        <ele>485.4</ele>
        <time>2022-05-17T13:45:03Z</time>
      </trkpt>
      <trkpt lat="46.71339" lon="5.64501">
        <ele>484.8</ele>
        <time>2022-05-17T13:45:06Z</time>
      </trkpt>
      <trkpt lat="46.71344" lon="5.64499">
        <ele>484.1</ele>
        <time>2022-05-17T13:45:10Z</time>
      </trkpt>
      <trkpt lat="46.71349" lon="5.64498">
        <ele>483.4</ele>
        <time>2022-05-17T13:45:15Z</time>
      </trkpt>
      <trkpt lat="46.71353" lon="5.645">
        <ele>484.7</ele>
        <time>2022-05-17T13:45:34Z</time>
      </trkpt>
      <trkpt lat="46.71358" lon="5.64496">
        <ele>485.3</ele>
        <time>2022-05-17T13:45:40Z</time>
      </trkpt>
      <trkpt lat="46.71362" lon="5.64495">
        <ele>485.4</ele>
        <time>2022-05-17T13:45:44Z</time>
      </trkpt>
      <trkpt lat="46.71367" lon="5.64498">
        <ele>485.7</ele>
        <time>2022-05-17T13:45:49Z</time>
      </trkpt>
      <trkpt lat="46.71368" lon="5.64505">
        <ele>487.3</ele>
        <time>2022-05-17T13:45:55Z</time>
      </trkpt>
      <trkpt lat="46.71369" lon="5.64513">
        <ele>488</ele>
        <time>2022-05-17T13:46:00Z</time>
      </trkpt>
      <trkpt lat="46.71368" lon="5.64519">
        <ele>488.3</ele>
        <time>2022-05-17T13:46:04Z</time>
      </trkpt>
      <trkpt lat="46.71367" lon="5.64527">
        <ele>488.6</ele>
        <time>2022-05-17T13:46:08Z</time>
      </trkpt>
      <trkpt lat="46.71365" lon="5.64535">
        <ele>488.8</ele>
        <time>2022-05-17T13:46:12Z</time>
      </trkpt>
      <trkpt lat="46.71365" lon="5.64542">
        <ele>489.5</ele>
        <time>2022-05-17T13:46:17Z</time>
      </trkpt>
      <trkpt lat="46.71366" lon="5.64548">
        <ele>490.3</ele>
        <time>2022-05-17T13:46:23Z</time>
      </trkpt>
      <trkpt lat="46.71366" lon="5.64555">
        <ele>490.6</ele>
        <time>2022-05-17T13:46:31Z</time>
      </trkpt>
      <trkpt lat="46.71367" lon="5.64563">
        <ele>489.9</ele>
        <time>2022-05-17T13:46:37Z</time>
      </trkpt>
      <trkpt lat="46.71366" lon="5.6457">
        <ele>489.6</ele>
        <time>2022-05-17T13:46:41Z</time>
      </trkpt>
      <trkpt lat="46.71365" lon="5.64578">
        <ele>489.1</ele>
        <time>2022-05-17T13:46:45Z</time>
      </trkpt>
      <trkpt lat="46.71365" lon="5.64585">
        <ele>488.5</ele>
        <time>2022-05-17T13:46:51Z</time>
      </trkpt>
      <trkpt lat="46.71364" lon="5.64593">
        <ele>489</ele>
        <time>2022-05-17T13:46:59Z</time>
      </trkpt>
      <trkpt lat="46.71362" lon="5.646">
        <ele>488.7</ele>
        <time>2022-05-17T13:47:05Z</time>
      </trkpt>
      <trkpt lat="46.71359" lon="5.64607">
        <ele>488.6</ele>
        <time>2022-05-17T13:47:10Z</time>
      </trkpt>
      <trkpt lat="46.71357" lon="5.64612">
        <ele>488.9</ele>
        <time>2022-05-17T13:47:15Z</time>
      </trkpt>
      <trkpt lat="46.71354" lon="5.64618">
        <ele>489.6</ele>
        <time>2022-05-17T13:47:20Z</time>
      </trkpt>
      <trkpt lat="46.71351" lon="5.64624">
        <ele>490.4</ele>
        <time>2022-05-17T13:47:25Z</time>
      </trkpt>
      <trkpt lat="46.71347" lon="5.64628">
        <ele>491</ele>
        <time>2022-05-17T13:47:30Z</time>
      </trkpt>
      <trkpt lat="46.71343" lon="5.64631">
        <ele>491.3</ele>
        <time>2022-05-17T13:47:34Z</time>
      </trkpt>
      <trkpt lat="46.71339" lon="5.64635">
        <ele>491.8</ele>
        <time>2022-05-17T13:47:39Z</time>
      </trkpt>
      <trkpt lat="46.71335" lon="5.64638">
        <ele>492.7</ele>
        <time>2022-05-17T13:47:45Z</time>
      </trkpt>
      <trkpt lat="46.71337" lon="5.64645">
        <ele>493</ele>
        <time>2022-05-17T13:48:22Z</time>
      </trkpt>
      <trkpt lat="46.71337" lon="5.64652">
        <ele>491.8</ele>
        <time>2022-05-17T13:48:30Z</time>
      </trkpt>
      <trkpt lat="46.71335" lon="5.64659">
        <ele>491.2</ele>
        <time>2022-05-17T13:48:37Z</time>
      </trkpt>
      <trkpt lat="46.71332" lon="5.64666">
        <ele>491.1</ele>
        <time>2022-05-17T13:48:42Z</time>
      </trkpt>
      <trkpt lat="46.71331" lon="5.64672">
        <ele>491.1</ele>
        <time>2022-05-17T13:48:46Z</time>
      </trkpt>
      <trkpt lat="46.7133" lon="5.64679">
        <ele>490.4</ele>
        <time>2022-05-17T13:48:51Z</time>
      </trkpt>
      <trkpt lat="46.71327" lon="5.64686">
        <ele>490.7</ele>
        <time>2022-05-17T13:48:57Z</time>
      </trkpt>
      <trkpt lat="46.71324" lon="5.64694">
        <ele>491.2</ele>
        <time>2022-05-17T13:49:01Z</time>
      </trkpt>
      <trkpt lat="46.71322" lon="5.647">
        <ele>491.4</ele>
        <time>2022-05-17T13:49:05Z</time>
      </trkpt>
      <trkpt lat="46.7132" lon="5.64707">
        <ele>491.4</ele>
        <time>2022-05-17T13:49:10Z</time>
      </trkpt>
      <trkpt lat="46.71318" lon="5.64713">
        <ele>492.6</ele>
        <time>2022-05-17T13:49:16Z</time>
      </trkpt>
      <trkpt lat="46.71316" lon="5.64719">
        <ele>495.1</ele>
        <time>2022-05-17T13:49:24Z</time>
      </trkpt>
      <trkpt lat="46.71314" lon="5.64726">
        <ele>496.8</ele>
        <time>2022-05-17T13:49:30Z</time>
      </trkpt>
      <trkpt lat="46.71311" lon="5.64732">
        <ele>497.3</ele>
        <time>2022-05-17T13:49:35Z</time>
      </trkpt>
      <trkpt lat="46.71308" lon="5.64737">
        <ele>497.7</ele>
        <time>2022-05-17T13:49:41Z</time>
      </trkpt>
      <trkpt lat="46.71305" lon="5.64743">
        <ele>497.6</ele>
        <time>2022-05-17T13:49:46Z</time>
      </trkpt>
      <trkpt lat="46.71302" lon="5.6475">
        <ele>497.8</ele>
        <time>2022-05-17T13:49:50Z</time>
      </trkpt>
      <trkpt lat="46.71298" lon="5.64754">
        <ele>498.6</ele>
        <time>2022-05-17T13:49:54Z</time>
      </trkpt>
      <trkpt lat="46.71294" lon="5.64757">
        <ele>499</ele>
        <time>2022-05-17T13:49:58Z</time>
      </trkpt>
      <trkpt lat="46.71291" lon="5.64763">
        <ele>499.4</ele>
        <time>2022-05-17T13:50:02Z</time>
      </trkpt>
      <trkpt lat="46.71288" lon="5.64768">
        <ele>499.6</ele>
        <time>2022-05-17T13:50:09Z</time>
      </trkpt>
      <trkpt lat="46.71283" lon="5.64774">
        <ele>499.5</ele>
        <time>2022-05-17T13:50:14Z</time>
      </trkpt>
      <trkpt lat="46.71281" lon="5.6478">
        <ele>499.6</ele>
        <time>2022-05-17T13:50:18Z</time>
      </trkpt>
      <trkpt lat="46.71277" lon="5.64786">
        <ele>499.8</ele>
        <time>2022-05-17T13:50:23Z</time>
      </trkpt>
      <trkpt lat="46.71273" lon="5.6479">
        <ele>499.2</ele>
        <time>2022-05-17T13:50:29Z</time>
      </trkpt>
      <trkpt lat="46.71269" lon="5.64796">
        <ele>498.6</ele>
        <time>2022-05-17T13:50:36Z</time>
      </trkpt>
      <trkpt lat="46.71266" lon="5.64803">
        <ele>497.4</ele>
        <time>2022-05-17T13:50:45Z</time>
      </trkpt>
      <trkpt lat="46.71262" lon="5.64808">
        <ele>496.6</ele>
        <time>2022-05-17T13:50:49Z</time>
      </trkpt>
      <trkpt lat="46.71259" lon="5.64813">
        <ele>495.9</ele>
        <time>2022-05-17T13:50:53Z</time>
      </trkpt>
      <trkpt lat="46.71256" lon="5.64819">
        <ele>495.2</ele>
        <time>2022-05-17T13:50:57Z</time>
      </trkpt>
      <trkpt lat="46.71253" lon="5.64824">
        <ele>494.7</ele>
        <time>2022-05-17T13:51:02Z</time>
      </trkpt>
      <trkpt lat="46.7125" lon="5.6483">
        <ele>494.8</ele>
        <time>2022-05-17T13:51:08Z</time>
      </trkpt>
      <trkpt lat="46.71246" lon="5.64836">
        <ele>495.2</ele>
        <time>2022-05-17T13:51:13Z</time>
      </trkpt>
      <trkpt lat="46.71241" lon="5.64842">
        <ele>495.3</ele>
        <time>2022-05-17T13:51:18Z</time>
      </trkpt>
      <trkpt lat="46.71239" lon="5.64848">
        <ele>495.3</ele>
        <time>2022-05-17T13:51:21Z</time>
      </trkpt>
      <trkpt lat="46.71236" lon="5.64854">
        <ele>494.7</ele>
        <time>2022-05-17T13:51:27Z</time>
      </trkpt>
      <trkpt lat="46.71232" lon="5.64857">
        <ele>494.2</ele>
        <time>2022-05-17T13:51:35Z</time>
      </trkpt>
      <trkpt lat="46.71228" lon="5.64861">
        <ele>493.5</ele>
        <time>2022-05-17T13:51:41Z</time>
      </trkpt>
      <trkpt lat="46.71226" lon="5.64867">
        <ele>493</ele>
        <time>2022-05-17T13:51:45Z</time>
      </trkpt>
      <trkpt lat="46.71223" lon="5.64873">
        <ele>493.2</ele>
        <time>2022-05-17T13:51:49Z</time>
      </trkpt>
      <trkpt lat="46.71221" lon="5.64879">
        <ele>493.4</ele>
        <time>2022-05-17T13:51:54Z</time>
      </trkpt>
      <trkpt lat="46.71218" lon="5.64884">
        <ele>493</ele>
        <time>2022-05-17T13:51:58Z</time>
      </trkpt>
      <trkpt lat="46.71215" lon="5.6489">
        <ele>492.3</ele>
        <time>2022-05-17T13:52:04Z</time>
      </trkpt>
      <trkpt lat="46.71212" lon="5.64897">
        <ele>491.7</ele>
        <time>2022-05-17T13:52:09Z</time>
      </trkpt>
      <trkpt lat="46.71209" lon="5.64902">
        <ele>491.5</ele>
        <time>2022-05-17T13:52:13Z</time>
      </trkpt>
      <trkpt lat="46.71204" lon="5.64903">
        <ele>491.5</ele>
        <time>2022-05-17T13:52:30Z</time>
      </trkpt>
      <trkpt lat="46.712" lon="5.64909">
        <ele>491.5</ele>
        <time>2022-05-17T13:52:34Z</time>
      </trkpt>
      <trkpt lat="46.71197" lon="5.64913">
        <ele>491.4</ele>
        <time>2022-05-17T13:52:39Z</time>
      </trkpt>
      <trkpt lat="46.71193" lon="5.64918">
        <ele>490.9</ele>
        <time>2022-05-17T13:52:43Z</time>
      </trkpt>
      <trkpt lat="46.71189" lon="5.64923">
        <ele>490</ele>
        <time>2022-05-17T13:52:47Z</time>
      </trkpt>
      <trkpt lat="46.71185" lon="5.64928">
        <ele>489.1</ele>
        <time>2022-05-17T13:52:51Z</time>
      </trkpt>
      <trkpt lat="46.71182" lon="5.64934">
        <ele>488.5</ele>
        <time>2022-05-17T13:52:56Z</time>
      </trkpt>
      <trkpt lat="46.71177" lon="5.64939">
        <ele>488</ele>
        <time>2022-05-17T13:53:01Z</time>
      </trkpt>
      <trkpt lat="46.71174" lon="5.64944">
        <ele>487.9</ele>
        <time>2022-05-17T13:53:04Z</time>
      </trkpt>
      <trkpt lat="46.7117" lon="5.64949">
        <ele>487.9</ele>
        <time>2022-05-17T13:53:08Z</time>
      </trkpt>
      <trkpt lat="46.71166" lon="5.64953">
        <ele>488.2</ele>
        <time>2022-05-17T13:53:13Z</time>
      </trkpt>
      <trkpt lat="46.71162" lon="5.64958">
        <ele>489.2</ele>
        <time>2022-05-17T13:53:17Z</time>
      </trkpt>
      <trkpt lat="46.71158" lon="5.64962">
        <ele>490</ele>
        <time>2022-05-17T13:53:21Z</time>
      </trkpt>
      <trkpt lat="46.71154" lon="5.64966">
        <ele>489.8</ele>
        <time>2022-05-17T13:53:26Z</time>
      </trkpt>
      <trkpt lat="46.71151" lon="5.64971">
        <ele>489</ele>
        <time>2022-05-17T13:53:31Z</time>
      </trkpt>
      <trkpt lat="46.71146" lon="5.64973">
        <ele>488.5</ele>
        <time>2022-05-17T13:53:37Z</time>
      </trkpt>
      <trkpt lat="46.71142" lon="5.64977">
        <ele>488.4</ele>
        <time>2022-05-17T13:53:42Z</time>
      </trkpt>
      <trkpt lat="46.71138" lon="5.64981">
        <ele>488.5</ele>
        <time>2022-05-17T13:53:47Z</time>
      </trkpt>
      <trkpt lat="46.71133" lon="5.64987">
        <ele>488.5</ele>
        <time>2022-05-17T13:53:52Z</time>
      </trkpt>
      <trkpt lat="46.7113" lon="5.64992">
        <ele>488</ele>
        <time>2022-05-17T13:53:58Z</time>
      </trkpt>
      <trkpt lat="46.71127" lon="5.64999">
        <ele>487.4</ele>
        <time>2022-05-17T13:54:04Z</time>
      </trkpt>
      <trkpt lat="46.71122" lon="5.64998">
        <ele>488</ele>
        <time>2022-05-17T13:54:17Z</time>
      </trkpt>
      <trkpt lat="46.71119" lon="5.65005">
        <ele>488.1</ele>
        <time>2022-05-17T13:54:22Z</time>
      </trkpt>
      <trkpt lat="46.71116" lon="5.65011">
        <ele>488.4</ele>
        <time>2022-05-17T13:54:25Z</time>
      </trkpt>
      <trkpt lat="46.71112" lon="5.65017">
        <ele>488.8</ele>
        <time>2022-05-17T13:54:28Z</time>
      </trkpt>
      <trkpt lat="46.71109" lon="5.65023">
        <ele>489.1</ele>
        <time>2022-05-17T13:54:31Z</time>
      </trkpt>
      <trkpt lat="46.71106" lon="5.6503">
        <ele>489.6</ele>
        <time>2022-05-17T13:54:35Z</time>
      </trkpt>
      <trkpt lat="46.71103" lon="5.65036">
        <ele>490</ele>
        <time>2022-05-17T13:54:40Z</time>
      </trkpt>
      <trkpt lat="46.71099" lon="5.6504">
        <ele>490.1</ele>
        <time>2022-05-17T13:54:45Z</time>
      </trkpt>
      <trkpt lat="46.71095" lon="5.65042">
        <ele>490.4</ele>
        <time>2022-05-17T13:54:55Z</time>
      </trkpt>
      <trkpt lat="46.71091" lon="5.65048">
        <ele>490.3</ele>
        <time>2022-05-17T13:54:59Z</time>
      </trkpt>
      <trkpt lat="46.71087" lon="5.65054">
        <ele>490.1</ele>
        <time>2022-05-17T13:55:03Z</time>
      </trkpt>
      <trkpt lat="46.71084" lon="5.65059">
        <ele>490.5</ele>
        <time>2022-05-17T13:55:07Z</time>
      </trkpt>
      <trkpt lat="46.7108" lon="5.65063">
        <ele>490.6</ele>
        <time>2022-05-17T13:55:10Z</time>
      </trkpt>
      <trkpt lat="46.71076" lon="5.65069">
        <ele>490.4</ele>
        <time>2022-05-17T13:55:14Z</time>
      </trkpt>
      <trkpt lat="46.71073" lon="5.65074">
        <ele>490.2</ele>
        <time>2022-05-17T13:55:18Z</time>
      </trkpt>
      <trkpt lat="46.7107" lon="5.65079">
        <ele>489.8</ele>
        <time>2022-05-17T13:55:23Z</time>
      </trkpt>
      <trkpt lat="46.71065" lon="5.65083">
        <ele>488.9</ele>
        <time>2022-05-17T13:55:30Z</time>
      </trkpt>
      <trkpt lat="46.71062" lon="5.65088">
        <ele>488.3</ele>
        <time>2022-05-17T13:55:34Z</time>
      </trkpt>
      <trkpt lat="46.71059" lon="5.65094">
        <ele>487.2</ele>
        <time>2022-05-17T13:55:39Z</time>
      </trkpt>
      <trkpt lat="46.71056" lon="5.651">
        <ele>486.7</ele>
        <time>2022-05-17T13:55:44Z</time>
      </trkpt>
      <trkpt lat="46.71054" lon="5.65106">
        <ele>486.6</ele>
        <time>2022-05-17T13:55:47Z</time>
      </trkpt>
      <trkpt lat="46.7105" lon="5.65112">
        <ele>486.6</ele>
        <time>2022-05-17T13:55:51Z</time>
      </trkpt>
      <trkpt lat="46.71047" lon="5.65118">
        <ele>487</ele>
        <time>2022-05-17T13:55:58Z</time>
      </trkpt>
      <trkpt lat="46.71045" lon="5.65124">
        <ele>488</ele>
        <time>2022-05-17T13:56:06Z</time>
      </trkpt>
      <trkpt lat="46.71043" lon="5.65131">
        <ele>488.5</ele>
        <time>2022-05-17T13:56:09Z</time>
      </trkpt>
      <trkpt lat="46.71041" lon="5.65138">
        <ele>488.9</ele>
        <time>2022-05-17T13:56:12Z</time>
      </trkpt>
      <trkpt lat="46.71037" lon="5.65142">
        <ele>491.6</ele>
        <time>2022-05-17T13:56:27Z</time>
      </trkpt>
      <trkpt lat="46.71034" lon="5.65148">
        <ele>491.8</ele>
        <time>2022-05-17T13:56:34Z</time>
      </trkpt>
      <trkpt lat="46.71033" lon="5.65156">
        <ele>491.3</ele>
        <time>2022-05-17T13:56:39Z</time>
      </trkpt>
      <trkpt lat="46.71031" lon="5.65162">
        <ele>490.1</ele>
        <time>2022-05-17T13:56:46Z</time>
      </trkpt>
      <trkpt lat="46.71029" lon="5.65169">
        <ele>489.7</ele>
        <time>2022-05-17T13:56:51Z</time>
      </trkpt>
      <trkpt lat="46.71027" lon="5.65177">
        <ele>489.2</ele>
        <time>2022-05-17T13:56:55Z</time>
      </trkpt>
      <trkpt lat="46.71027" lon="5.65183">
        <ele>489.2</ele>
        <time>2022-05-17T13:56:59Z</time>
      </trkpt>
      <trkpt lat="46.71027" lon="5.65192">
        <ele>488.9</ele>
        <time>2022-05-17T13:57:04Z</time>
      </trkpt>
      <trkpt lat="46.71026" lon="5.652">
        <ele>489.4</ele>
        <time>2022-05-17T13:57:08Z</time>
      </trkpt>
      <trkpt lat="46.71026" lon="5.65207">
        <ele>489.8</ele>
        <time>2022-05-17T13:57:13Z</time>
      </trkpt>
      <trkpt lat="46.71025" lon="5.65214">
        <ele>490.1</ele>
        <time>2022-05-17T13:57:18Z</time>
      </trkpt>
      <trkpt lat="46.71023" lon="5.65221">
        <ele>489.9</ele>
        <time>2022-05-17T13:57:23Z</time>
      </trkpt>
      <trkpt lat="46.71021" lon="5.65227">
        <ele>489.3</ele>
        <time>2022-05-17T13:57:28Z</time>
      </trkpt>
      <trkpt lat="46.71019" lon="5.65233">
        <ele>488.9</ele>
        <time>2022-05-17T13:57:33Z</time>
      </trkpt>
      <trkpt lat="46.71019" lon="5.6524">
        <ele>489.2</ele>
        <time>2022-05-17T13:57:39Z</time>
      </trkpt>
      <trkpt lat="46.71018" lon="5.65248">
        <ele>490.9</ele>
        <time>2022-05-17T13:57:44Z</time>
      </trkpt>
      <trkpt lat="46.71017" lon="5.65254">
        <ele>493.3</ele>
        <time>2022-05-17T13:57:49Z</time>
      </trkpt>
      <trkpt lat="46.71016" lon="5.65261">
        <ele>494</ele>
        <time>2022-05-17T13:57:53Z</time>
      </trkpt>
      <trkpt lat="46.71015" lon="5.65268">
        <ele>495.2</ele>
        <time>2022-05-17T13:57:58Z</time>
      </trkpt>
      <trkpt lat="46.71014" lon="5.65275">
        <ele>496.2</ele>
        <time>2022-05-17T13:58:03Z</time>
      </trkpt>
      <trkpt lat="46.71012" lon="5.65282">
        <ele>496.6</ele>
        <time>2022-05-17T13:58:09Z</time>
      </trkpt>
      <trkpt lat="46.71012" lon="5.65289">
        <ele>497</ele>
        <time>2022-05-17T13:58:14Z</time>
      </trkpt>
      <trkpt lat="46.7101" lon="5.65297">
        <ele>497.1</ele>
        <time>2022-05-17T13:58:19Z</time>
      </trkpt>
      <trkpt lat="46.71009" lon="5.65304">
        <ele>497.2</ele>
        <time>2022-05-17T13:58:23Z</time>
      </trkpt>
      <trkpt lat="46.71008" lon="5.65311">
        <ele>497.5</ele>
        <time>2022-05-17T13:58:28Z</time>
      </trkpt>
      <trkpt lat="46.71007" lon="5.65318">
        <ele>497.6</ele>
        <time>2022-05-17T13:58:32Z</time>
      </trkpt>
      <trkpt lat="46.71006" lon="5.65324">
        <ele>497.5</ele>
        <time>2022-05-17T13:58:37Z</time>
      </trkpt>
      <trkpt lat="46.71005" lon="5.65332">
        <ele>497.2</ele>
        <time>2022-05-17T13:58:42Z</time>
      </trkpt>
      <trkpt lat="46.71004" lon="5.6534">
        <ele>496.6</ele>
        <time>2022-05-17T13:58:47Z</time>
      </trkpt>
      <trkpt lat="46.71003" lon="5.65347">
        <ele>496.2</ele>
        <time>2022-05-17T13:58:51Z</time>
      </trkpt>
      <trkpt lat="46.71001" lon="5.65353">
        <ele>495.7</ele>
        <time>2022-05-17T13:58:55Z</time>
      </trkpt>
      <trkpt lat="46.71001" lon="5.65362">
        <ele>495.3</ele>
        <time>2022-05-17T13:58:59Z</time>
      </trkpt>
      <trkpt lat="46.71" lon="5.65368">
        <ele>495.5</ele>
        <time>2022-05-17T13:59:03Z</time>
      </trkpt>
      <trkpt lat="46.70999" lon="5.65375">
        <ele>496</ele>
        <time>2022-05-17T13:59:09Z</time>
      </trkpt>
      <trkpt lat="46.70997" lon="5.65382">
        <ele>496.6</ele>
        <time>2022-05-17T13:59:14Z</time>
      </trkpt>
      <trkpt lat="46.70996" lon="5.65388">
        <ele>497.5</ele>
        <time>2022-05-17T13:59:19Z</time>
      </trkpt>
      <trkpt lat="46.70994" lon="5.65395">
        <ele>498.2</ele>
        <time>2022-05-17T13:59:25Z</time>
      </trkpt>
      <trkpt lat="46.70994" lon="5.65402">
        <ele>498</ele>
        <time>2022-05-17T13:59:29Z</time>
      </trkpt>
      <trkpt lat="46.70992" lon="5.65409">
        <ele>497.7</ele>
        <time>2022-05-17T13:59:32Z</time>
      </trkpt>
      <trkpt lat="46.70991" lon="5.65416">
        <ele>497.2</ele>
        <time>2022-05-17T13:59:36Z</time>
      </trkpt>
      <trkpt lat="46.7099" lon="5.65424">
        <ele>496.7</ele>
        <time>2022-05-17T13:59:40Z</time>
      </trkpt>
      <trkpt lat="46.70988" lon="5.65431">
        <ele>496.6</ele>
        <time>2022-05-17T13:59:44Z</time>
      </trkpt>
      <trkpt lat="46.70988" lon="5.65437">
        <ele>496.5</ele>
        <time>2022-05-17T13:59:48Z</time>
      </trkpt>
      <trkpt lat="46.70987" lon="5.65444">
        <ele>496</ele>
        <time>2022-05-17T13:59:53Z</time>
      </trkpt>
      <trkpt lat="46.70986" lon="5.65451">
        <ele>495.9</ele>
        <time>2022-05-17T13:59:58Z</time>
      </trkpt>
      <trkpt lat="46.70985" lon="5.65458">
        <ele>495.7</ele>
        <time>2022-05-17T14:00:03Z</time>
      </trkpt>
      <trkpt lat="46.70984" lon="5.65465">
        <ele>495.7</ele>
        <time>2022-05-17T14:00:08Z</time>
      </trkpt>
      <trkpt lat="46.70983" lon="5.65472">
        <ele>495.9</ele>
        <time>2022-05-17T14:00:13Z</time>
      </trkpt>
      <trkpt lat="46.70982" lon="5.65479">
        <ele>496.4</ele>
        <time>2022-05-17T14:00:18Z</time>
      </trkpt>
      <trkpt lat="46.70982" lon="5.65487">
        <ele>497.1</ele>
        <time>2022-05-17T14:00:23Z</time>
      </trkpt>
      <trkpt lat="46.70982" lon="5.65495">
        <ele>497.1</ele>
        <time>2022-05-17T14:00:28Z</time>
      </trkpt>
      <trkpt lat="46.70983" lon="5.65503">
        <ele>497</ele>
        <time>2022-05-17T14:00:33Z</time>
      </trkpt>
      <trkpt lat="46.70982" lon="5.6551">
        <ele>496.3</ele>
        <time>2022-05-17T14:00:38Z</time>
      </trkpt>
      <trkpt lat="46.70981" lon="5.65517">
        <ele>495.3</ele>
        <time>2022-05-17T14:00:42Z</time>
      </trkpt>
      <trkpt lat="46.7098" lon="5.65524">
        <ele>494.3</ele>
        <time>2022-05-17T14:00:46Z</time>
      </trkpt>
      <trkpt lat="46.70978" lon="5.6553">
        <ele>493.8</ele>
        <time>2022-05-17T14:00:52Z</time>
      </trkpt>
      <trkpt lat="46.70977" lon="5.65537">
        <ele>493.8</ele>
        <time>2022-05-17T14:00:56Z</time>
      </trkpt>
      <trkpt lat="46.70977" lon="5.65544">
        <ele>493.6</ele>
        <time>2022-05-17T14:01:03Z</time>
      </trkpt>
      <trkpt lat="46.70976" lon="5.65552">
        <ele>493.2</ele>
        <time>2022-05-17T14:01:08Z</time>
      </trkpt>
      <trkpt lat="46.70976" lon="5.65559">
        <ele>493</ele>
        <time>2022-05-17T14:01:12Z</time>
      </trkpt>
      <trkpt lat="46.70977" lon="5.65565">
        <ele>493</ele>
        <time>2022-05-17T14:01:16Z</time>
      </trkpt>
      <trkpt lat="46.70978" lon="5.65573">
        <ele>492.9</ele>
        <time>2022-05-17T14:01:21Z</time>
      </trkpt>
      <trkpt lat="46.70978" lon="5.6558">
        <ele>493.1</ele>
        <time>2022-05-17T14:01:27Z</time>
      </trkpt>
      <trkpt lat="46.70978" lon="5.65588">
        <ele>493.2</ele>
        <time>2022-05-17T14:01:32Z</time>
      </trkpt>
      <trkpt lat="46.70977" lon="5.65595">
        <ele>493.4</ele>
        <time>2022-05-17T14:01:37Z</time>
      </trkpt>
      <trkpt lat="46.70976" lon="5.65602">
        <ele>493.2</ele>
        <time>2022-05-17T14:01:42Z</time>
      </trkpt>
      <trkpt lat="46.70976" lon="5.65609">
        <ele>493.2</ele>
        <time>2022-05-17T14:01:46Z</time>
      </trkpt>
      <trkpt lat="46.70976" lon="5.65616">
        <ele>493</ele>
        <time>2022-05-17T14:01:50Z</time>
      </trkpt>
      <trkpt lat="46.70976" lon="5.65623">
        <ele>493</ele>
        <time>2022-05-17T14:01:54Z</time>
      </trkpt>
      <trkpt lat="46.70975" lon="5.65629">
        <ele>493.6</ele>
        <time>2022-05-17T14:02:00Z</time>
      </trkpt>
      <trkpt lat="46.70975" lon="5.65637">
        <ele>493.8</ele>
        <time>2022-05-17T14:02:05Z</time>
      </trkpt>
      <trkpt lat="46.70972" lon="5.65643">
        <ele>493.8</ele>
        <time>2022-05-17T14:02:11Z</time>
      </trkpt>
      <trkpt lat="46.7097" lon="5.6565">
        <ele>494</ele>
        <time>2022-05-17T14:02:15Z</time>
      </trkpt>
      <trkpt lat="46.70968" lon="5.65656">
        <ele>494.3</ele>
        <time>2022-05-17T14:02:19Z</time>
      </trkpt>
      <trkpt lat="46.70967" lon="5.65662">
        <ele>494.6</ele>
        <time>2022-05-17T14:02:23Z</time>
      </trkpt>
      <trkpt lat="46.70966" lon="5.6567">
        <ele>495.1</ele>
        <time>2022-05-17T14:02:27Z</time>
      </trkpt>
      <trkpt lat="46.70965" lon="5.65678">
        <ele>496</ele>
        <time>2022-05-17T14:02:31Z</time>
      </trkpt>
      <trkpt lat="46.70964" lon="5.65686">
        <ele>497.5</ele>
        <time>2022-05-17T14:02:36Z</time>
      </trkpt>
      <trkpt lat="46.70962" lon="5.65693">
        <ele>499.1</ele>
        <time>2022-05-17T14:02:42Z</time>
      </trkpt>
      <trkpt lat="46.7096" lon="5.657">
        <ele>500</ele>
        <time>2022-05-17T14:02:47Z</time>
      </trkpt>
      <trkpt lat="46.70959" lon="5.65707">
        <ele>501.3</ele>
        <time>2022-05-17T14:02:53Z</time>
      </trkpt>
      <trkpt lat="46.70956" lon="5.65713">
        <ele>502.8</ele>
        <time>2022-05-17T14:02:59Z</time>
      </trkpt>
      <trkpt lat="46.70953" lon="5.65719">
        <ele>503.6</ele>
        <time>2022-05-17T14:03:04Z</time>
      </trkpt>
      <trkpt lat="46.7095" lon="5.65724">
        <ele>504.2</ele>
        <time>2022-05-17T14:03:08Z</time>
      </trkpt>
      <trkpt lat="46.70948" lon="5.6573">
        <ele>505.2</ele>
        <time>2022-05-17T14:03:12Z</time>
      </trkpt>
      <trkpt lat="46.70946" lon="5.65737">
        <ele>506.2</ele>
        <time>2022-05-17T14:03:16Z</time>
      </trkpt>
      <trkpt lat="46.70944" lon="5.65744">
        <ele>507.2</ele>
        <time>2022-05-17T14:03:20Z</time>
      </trkpt>
      <trkpt lat="46.70941" lon="5.6575">
        <ele>507.6</ele>
        <time>2022-05-17T14:03:27Z</time>
      </trkpt>
      <trkpt lat="46.70938" lon="5.65756">
        <ele>506.6</ele>
        <time>2022-05-17T14:03:34Z</time>
      </trkpt>
      <trkpt lat="46.70934" lon="5.65762">
        <ele>505.2</ele>
        <time>2022-05-17T14:03:39Z</time>
      </trkpt>
      <trkpt lat="46.70932" lon="5.65768">
        <ele>504.1</ele>
        <time>2022-05-17T14:03:43Z</time>
      </trkpt>
      <trkpt lat="46.70931" lon="5.65775">
        <ele>502.7</ele>
        <time>2022-05-17T14:03:47Z</time>
      </trkpt>
      <trkpt lat="46.70929" lon="5.65783">
        <ele>501.5</ele>
        <time>2022-05-17T14:03:52Z</time>
      </trkpt>
      <trkpt lat="46.70926" lon="5.65789">
        <ele>500.6</ele>
        <time>2022-05-17T14:03:57Z</time>
      </trkpt>
      <trkpt lat="46.70924" lon="5.65795">
        <ele>498.7</ele>
        <time>2022-05-17T14:04:07Z</time>
      </trkpt>
      <trkpt lat="46.70922" lon="5.658">
        <ele>498.2</ele>
        <time>2022-05-17T14:04:16Z</time>
      </trkpt>
      <trkpt lat="46.70918" lon="5.65806">
        <ele>498.6</ele>
        <time>2022-05-17T14:04:22Z</time>
      </trkpt>
      <trkpt lat="46.70915" lon="5.65811">
        <ele>499.1</ele>
        <time>2022-05-17T14:04:27Z</time>
      </trkpt>
      <trkpt lat="46.70911" lon="5.65816">
        <ele>499.4</ele>
        <time>2022-05-17T14:04:32Z</time>
      </trkpt>
      <trkpt lat="46.70908" lon="5.65821">
        <ele>499</ele>
        <time>2022-05-17T14:04:38Z</time>
      </trkpt>
      <trkpt lat="46.70904" lon="5.65826">
        <ele>498.6</ele>
        <time>2022-05-17T14:04:44Z</time>
      </trkpt>
      <trkpt lat="46.709" lon="5.65832">
        <ele>498.2</ele>
        <time>2022-05-17T14:04:50Z</time>
      </trkpt>
      <trkpt lat="46.70897" lon="5.65837">
        <ele>497.7</ele>
        <time>2022-05-17T14:04:55Z</time>
      </trkpt>
      <trkpt lat="46.70893" lon="5.65842">
        <ele>497.7</ele>
        <time>2022-05-17T14:05:00Z</time>
      </trkpt>
      <trkpt lat="46.7089" lon="5.65847">
        <ele>497.8</ele>
        <time>2022-05-17T14:05:05Z</time>
      </trkpt>
      <trkpt lat="46.70887" lon="5.65852">
        <ele>498.1</ele>
        <time>2022-05-17T14:05:09Z</time>
      </trkpt>
      <trkpt lat="46.70883" lon="5.65857">
        <ele>498.3</ele>
        <time>2022-05-17T14:05:14Z</time>
      </trkpt>
      <trkpt lat="46.70879" lon="5.65861">
        <ele>497</ele>
        <time>2022-05-17T14:05:44Z</time>
      </trkpt>
      <trkpt lat="46.70877" lon="5.65867">
        <ele>497.3</ele>
        <time>2022-05-17T14:05:49Z</time>
      </trkpt>
      <trkpt lat="46.70873" lon="5.65871">
        <ele>497.4</ele>
        <time>2022-05-17T14:05:56Z</time>
      </trkpt>
      <trkpt lat="46.70869" lon="5.65876">
        <ele>497.2</ele>
        <time>2022-05-17T14:06:04Z</time>
      </trkpt>
      <trkpt lat="46.70865" lon="5.65882">
        <ele>497.1</ele>
        <time>2022-05-17T14:06:09Z</time>
      </trkpt>
      <trkpt lat="46.7086" lon="5.65886">
        <ele>497.5</ele>
        <time>2022-05-17T14:06:13Z</time>
      </trkpt>
      <trkpt lat="46.70855" lon="5.65888">
        <ele>498.2</ele>
        <time>2022-05-17T14:06:18Z</time>
      </trkpt>
      <trkpt lat="46.7085" lon="5.65891">
        <ele>499.3</ele>
        <time>2022-05-17T14:06:24Z</time>
      </trkpt>
      <trkpt lat="46.70845" lon="5.65894">
        <ele>500.3</ele>
        <time>2022-05-17T14:06:30Z</time>
      </trkpt>
      <trkpt lat="46.70841" lon="5.65896">
        <ele>500.3</ele>
        <time>2022-05-17T14:06:35Z</time>
      </trkpt>
      <trkpt lat="46.70836" lon="5.65899">
        <ele>499.8</ele>
        <time>2022-05-17T14:06:41Z</time>
      </trkpt>
      <trkpt lat="46.70832" lon="5.65901">
        <ele>499.5</ele>
        <time>2022-05-17T14:06:46Z</time>
      </trkpt>
      <trkpt lat="46.70827" lon="5.65904">
        <ele>499.3</ele>
        <time>2022-05-17T14:06:51Z</time>
      </trkpt>
      <trkpt lat="46.70823" lon="5.65907">
        <ele>498.7</ele>
        <time>2022-05-17T14:06:56Z</time>
      </trkpt>
      <trkpt lat="46.70819" lon="5.6591">
        <ele>497.8</ele>
        <time>2022-05-17T14:07:01Z</time>
      </trkpt>
      <trkpt lat="46.70814" lon="5.65913">
        <ele>497.2</ele>
        <time>2022-05-17T14:07:05Z</time>
      </trkpt>
      <trkpt lat="46.70811" lon="5.65917">
        <ele>497.1</ele>
        <time>2022-05-17T14:07:08Z</time>
      </trkpt>
      <trkpt lat="46.70807" lon="5.65921">
        <ele>497.5</ele>
        <time>2022-05-17T14:07:12Z</time>
      </trkpt>
      <trkpt lat="46.70802" lon="5.65923">
        <ele>498.4</ele>
        <time>2022-05-17T14:07:18Z</time>
      </trkpt>
      <trkpt lat="46.70798" lon="5.65927">
        <ele>499.5</ele>
        <time>2022-05-17T14:07:22Z</time>
      </trkpt>
      <trkpt lat="46.70793" lon="5.6593">
        <ele>501.1</ele>
        <time>2022-05-17T14:07:26Z</time>
      </trkpt>
      <trkpt lat="46.70789" lon="5.65933">
        <ele>502.9</ele>
        <time>2022-05-17T14:07:30Z</time>
      </trkpt>
      <trkpt lat="46.70784" lon="5.65933">
        <ele>504.5</ele>
        <time>2022-05-17T14:07:36Z</time>
      </trkpt>
      <trkpt lat="46.70779" lon="5.65933">
        <ele>505.1</ele>
        <time>2022-05-17T14:07:44Z</time>
      </trkpt>
      <trkpt lat="46.70775" lon="5.65933">
        <ele>505.2</ele>
        <time>2022-05-17T14:07:50Z</time>
      </trkpt>
      <trkpt lat="46.70769" lon="5.65933">
        <ele>505.9</ele>
        <time>2022-05-17T14:07:56Z</time>
      </trkpt>
      <trkpt lat="46.70764" lon="5.65934">
        <ele>506.7</ele>
        <time>2022-05-17T14:08:01Z</time>
      </trkpt>
      <trkpt lat="46.7076" lon="5.65935">
        <ele>507.1</ele>
        <time>2022-05-17T14:08:05Z</time>
      </trkpt>
      <trkpt lat="46.70755" lon="5.65938">
        <ele>507.7</ele>
        <time>2022-05-17T14:08:10Z</time>
      </trkpt>
      <trkpt lat="46.70751" lon="5.65941">
        <ele>508</ele>
        <time>2022-05-17T14:08:15Z</time>
      </trkpt>
      <trkpt lat="46.70746" lon="5.65943">
        <ele>508.4</ele>
        <time>2022-05-17T14:08:22Z</time>
      </trkpt>
      <trkpt lat="46.70742" lon="5.65946">
        <ele>508.6</ele>
        <time>2022-05-17T14:08:29Z</time>
      </trkpt>
      <trkpt lat="46.70737" lon="5.65947">
        <ele>508.5</ele>
        <time>2022-05-17T14:08:34Z</time>
      </trkpt>
      <trkpt lat="46.70732" lon="5.6595">
        <ele>508.6</ele>
        <time>2022-05-17T14:08:38Z</time>
      </trkpt>
      <trkpt lat="46.70728" lon="5.65954">
        <ele>509.1</ele>
        <time>2022-05-17T14:08:44Z</time>
      </trkpt>
      <trkpt lat="46.70724" lon="5.65956">
        <ele>508.9</ele>
        <time>2022-05-17T14:08:49Z</time>
      </trkpt>
      <trkpt lat="46.70719" lon="5.6596">
        <ele>508</ele>
        <time>2022-05-17T14:08:56Z</time>
      </trkpt>
      <trkpt lat="46.70715" lon="5.65956">
        <ele>507.6</ele>
        <time>2022-05-17T14:09:01Z</time>
      </trkpt>
      <trkpt lat="46.70711" lon="5.65953">
        <ele>505</ele>
        <time>2022-05-17T14:09:10Z</time>
      </trkpt>
      <trkpt lat="46.70707" lon="5.65957">
        <ele>501.6</ele>
        <time>2022-05-17T14:09:27Z</time>
      </trkpt>
    </trkseg>
  </trk>
</gpx>